<?xml version="1.0" encoding="UTF-8" standalone="no" ?>
<gpx xmlns="http://www.topografix.com/GPX/1/1" xmlns:xsi="http://www.w3.org/2001/XMLSchema-instance" xsi:schemaLocation="http://www.topografix.com/GPX/1/1 http://www.topografix.com/GPX/1/1/gpx.xsd" version="1.1" creator="VisuGPX - https://www.visugpx.com">
  <metadata>
    <name>TransPyr_J6</name>
  </metadata>
  <trk>
    <name><![CDATA[TransPyr_J6]]></name>
    <extensions>
      <line xmlns="http://www.topografix.com/GPX/gpx_style/0/2">
        <color>ffff00</color>
        <opacity>0.5</opacity>
        <width>10</width>
      </line>
    </extensions>
    <trkseg>
      <trkpt lat="43.019" lon="-0.95699">
        <ele>633.31</ele>
        <time>2025-03-03T19:06:21Z</time>
      </trkpt>
      <trkpt lat="43.01904" lon="-0.95721">
        <ele>630.05</ele>
        <time>2025-03-03T19:06:25Z</time>
      </trkpt>
      <trkpt lat="43.01884" lon="-0.95763">
        <ele>631.11</ele>
        <time>2025-03-03T19:06:27Z</time>
      </trkpt>
      <trkpt lat="43.01883" lon="-0.95774">
        <ele>631.71</ele>
        <time>2025-03-03T19:06:30Z</time>
      </trkpt>
      <trkpt lat="43.01889" lon="-0.95779">
        <ele>630.11</ele>
        <time>2025-03-03T19:06:33Z</time>
      </trkpt>
      <trkpt lat="43.01894" lon="-0.95811">
        <ele>629.36</ele>
        <time>2025-03-03T19:06:35Z</time>
      </trkpt>
      <trkpt lat="43.01908" lon="-0.95877">
        <ele>629.53</ele>
        <time>2025-03-03T19:06:37Z</time>
      </trkpt>
      <trkpt lat="43.01927" lon="-0.95929">
        <ele>627.98</ele>
        <time>2025-03-03T19:06:39Z</time>
      </trkpt>
      <trkpt lat="43.01954" lon="-0.95983">
        <ele>622.38</ele>
        <time>2025-03-03T19:06:42Z</time>
      </trkpt>
      <trkpt lat="43.01966" lon="-0.96017">
        <ele>619.26</ele>
        <time>2025-03-03T19:06:44Z</time>
      </trkpt>
      <trkpt lat="43.01968" lon="-0.9603">
        <ele>617.7</ele>
        <time>2025-03-03T19:06:46Z</time>
      </trkpt>
      <trkpt lat="43.01969" lon="-0.96047">
        <ele>616.45</ele>
        <time>2025-03-03T19:06:48Z</time>
      </trkpt>
      <trkpt lat="43.01967" lon="-0.96062">
        <ele>614.64</ele>
        <time>2025-03-03T19:06:50Z</time>
      </trkpt>
      <trkpt lat="43.01964" lon="-0.96074">
        <ele>612.56</ele>
        <time>2025-03-03T19:06:53Z</time>
      </trkpt>
      <trkpt lat="43.01959" lon="-0.96086">
        <ele>610.98</ele>
        <time>2025-03-03T19:06:55Z</time>
      </trkpt>
      <trkpt lat="43.01952" lon="-0.96096">
        <ele>610.08</ele>
        <time>2025-03-03T19:06:57Z</time>
      </trkpt>
      <trkpt lat="43.01895" lon="-0.96147">
        <ele>612.81</ele>
        <time>2025-03-03T19:06:59Z</time>
      </trkpt>
      <trkpt lat="43.01885" lon="-0.96165">
        <ele>614.18</ele>
        <time>2025-03-03T19:07:02Z</time>
      </trkpt>
      <trkpt lat="43.01886" lon="-0.96172">
        <ele>613.59</ele>
        <time>2025-03-03T19:07:04Z</time>
      </trkpt>
      <trkpt lat="43.01889" lon="-0.96178">
        <ele>612.35</ele>
        <time>2025-03-03T19:07:06Z</time>
      </trkpt>
      <trkpt lat="43.0192" lon="-0.96206">
        <ele>605.32</ele>
        <time>2025-03-03T19:07:08Z</time>
      </trkpt>
      <trkpt lat="43.01944" lon="-0.96238">
        <ele>601.77</ele>
        <time>2025-03-03T19:07:10Z</time>
      </trkpt>
      <trkpt lat="43.01953" lon="-0.96257">
        <ele>601.75</ele>
        <time>2025-03-03T19:07:13Z</time>
      </trkpt>
      <trkpt lat="43.01961" lon="-0.9629">
        <ele>601.2</ele>
        <time>2025-03-03T19:07:15Z</time>
      </trkpt>
      <trkpt lat="43.01961" lon="-0.96309">
        <ele>600.19</ele>
        <time>2025-03-03T19:07:17Z</time>
      </trkpt>
      <trkpt lat="43.01959" lon="-0.96328">
        <ele>598.76</ele>
        <time>2025-03-03T19:07:19Z</time>
      </trkpt>
      <trkpt lat="43.01954" lon="-0.96346">
        <ele>598.09</ele>
        <time>2025-03-03T19:07:22Z</time>
      </trkpt>
      <trkpt lat="43.01925" lon="-0.96422">
        <ele>596.51</ele>
        <time>2025-03-03T19:07:24Z</time>
      </trkpt>
      <trkpt lat="43.01917" lon="-0.96457">
        <ele>596.01</ele>
        <time>2025-03-03T19:07:26Z</time>
      </trkpt>
      <trkpt lat="43.01919" lon="-0.96477">
        <ele>594.67</ele>
        <time>2025-03-03T19:07:28Z</time>
      </trkpt>
      <trkpt lat="43.01925" lon="-0.96494">
        <ele>593.47</ele>
        <time>2025-03-03T19:07:31Z</time>
      </trkpt>
      <trkpt lat="43.01933" lon="-0.96522">
        <ele>592.15</ele>
        <time>2025-03-03T19:07:33Z</time>
      </trkpt>
      <trkpt lat="43.01944" lon="-0.96552">
        <ele>590</ele>
        <time>2025-03-03T19:07:35Z</time>
      </trkpt>
      <trkpt lat="43.01974" lon="-0.9659">
        <ele>591.64</ele>
        <time>2025-03-03T19:07:37Z</time>
      </trkpt>
      <trkpt lat="43.01983" lon="-0.96598">
        <ele>589.92</ele>
        <time>2025-03-03T19:07:39Z</time>
      </trkpt>
      <trkpt lat="43.02009" lon="-0.9661">
        <ele>583.57</ele>
        <time>2025-03-03T19:07:42Z</time>
      </trkpt>
      <trkpt lat="43.02017" lon="-0.96618">
        <ele>582.59</ele>
        <time>2025-03-03T19:07:44Z</time>
      </trkpt>
      <trkpt lat="43.02045" lon="-0.96666">
        <ele>580.99</ele>
        <time>2025-03-03T19:07:46Z</time>
      </trkpt>
      <trkpt lat="43.02076" lon="-0.96697">
        <ele>575.01</ele>
        <time>2025-03-03T19:07:48Z</time>
      </trkpt>
      <trkpt lat="43.02122" lon="-0.96756">
        <ele>567.13</ele>
        <time>2025-03-03T19:07:51Z</time>
      </trkpt>
      <trkpt lat="43.02143" lon="-0.96769">
        <ele>562.39</ele>
        <time>2025-03-03T19:07:53Z</time>
      </trkpt>
      <trkpt lat="43.0216" lon="-0.9677">
        <ele>559.5</ele>
        <time>2025-03-03T19:07:55Z</time>
      </trkpt>
      <trkpt lat="43.02185" lon="-0.96766">
        <ele>557.66</ele>
        <time>2025-03-03T19:07:57Z</time>
      </trkpt>
      <trkpt lat="43.02207" lon="-0.96761">
        <ele>554.94</ele>
        <time>2025-03-03T19:07:59Z</time>
      </trkpt>
      <trkpt lat="43.0223" lon="-0.96759">
        <ele>551.76</ele>
        <time>2025-03-03T19:08:02Z</time>
      </trkpt>
      <trkpt lat="43.02239" lon="-0.96763">
        <ele>550.45</ele>
        <time>2025-03-03T19:08:04Z</time>
      </trkpt>
      <trkpt lat="43.02248" lon="-0.96778">
        <ele>549.57</ele>
        <time>2025-03-03T19:08:06Z</time>
      </trkpt>
      <trkpt lat="43.02254" lon="-0.96799">
        <ele>547.57</ele>
        <time>2025-03-03T19:08:08Z</time>
      </trkpt>
      <trkpt lat="43.02255" lon="-0.96818">
        <ele>547.33</ele>
        <time>2025-03-03T19:08:11Z</time>
      </trkpt>
      <trkpt lat="43.02251" lon="-0.9684">
        <ele>548.08</ele>
        <time>2025-03-03T19:08:13Z</time>
      </trkpt>
      <trkpt lat="43.02233" lon="-0.96884">
        <ele>552.47</ele>
        <time>2025-03-03T19:08:15Z</time>
      </trkpt>
      <trkpt lat="43.02215" lon="-0.96917">
        <ele>555.91</ele>
        <time>2025-03-03T19:08:17Z</time>
      </trkpt>
      <trkpt lat="43.02191" lon="-0.96947">
        <ele>561.08</ele>
        <time>2025-03-03T19:08:19Z</time>
      </trkpt>
      <trkpt lat="43.02185" lon="-0.96966">
        <ele>558.46</ele>
        <time>2025-03-03T19:08:22Z</time>
      </trkpt>
      <trkpt lat="43.0218" lon="-0.9699">
        <ele>557.02</ele>
        <time>2025-03-03T19:08:24Z</time>
      </trkpt>
      <trkpt lat="43.02181" lon="-0.96997">
        <ele>555.65</ele>
        <time>2025-03-03T19:08:26Z</time>
      </trkpt>
      <trkpt lat="43.02188" lon="-0.97002">
        <ele>552.61</ele>
        <time>2025-03-03T19:08:28Z</time>
      </trkpt>
      <trkpt lat="43.02218" lon="-0.96982">
        <ele>547.99</ele>
        <time>2025-03-03T19:08:31Z</time>
      </trkpt>
      <trkpt lat="43.02246" lon="-0.96977">
        <ele>547.25</ele>
        <time>2025-03-03T19:08:33Z</time>
      </trkpt>
      <trkpt lat="43.02265" lon="-0.96967">
        <ele>543.52</ele>
        <time>2025-03-03T19:08:35Z</time>
      </trkpt>
      <trkpt lat="43.0228" lon="-0.96955">
        <ele>538.33</ele>
        <time>2025-03-03T19:08:37Z</time>
      </trkpt>
      <trkpt lat="43.02293" lon="-0.96952">
        <ele>534.51</ele>
        <time>2025-03-03T19:08:39Z</time>
      </trkpt>
      <trkpt lat="43.02335" lon="-0.96971">
        <ele>523.6</ele>
        <time>2025-03-03T19:08:42Z</time>
      </trkpt>
      <trkpt lat="43.02347" lon="-0.96981">
        <ele>521.99</ele>
        <time>2025-03-03T19:08:44Z</time>
      </trkpt>
      <trkpt lat="43.02387" lon="-0.97043">
        <ele>527.07</ele>
        <time>2025-03-03T19:08:46Z</time>
      </trkpt>
      <trkpt lat="43.02405" lon="-0.97067">
        <ele>522.07</ele>
        <time>2025-03-03T19:08:48Z</time>
      </trkpt>
      <trkpt lat="43.02422" lon="-0.97112">
        <ele>519.78</ele>
        <time>2025-03-03T19:08:51Z</time>
      </trkpt>
      <trkpt lat="43.02437" lon="-0.97141">
        <ele>515.64</ele>
        <time>2025-03-03T19:08:53Z</time>
      </trkpt>
      <trkpt lat="43.02454" lon="-0.9716">
        <ele>508.33</ele>
        <time>2025-03-03T19:08:55Z</time>
      </trkpt>
      <trkpt lat="43.02473" lon="-0.97172">
        <ele>503.57</ele>
        <time>2025-03-03T19:08:57Z</time>
      </trkpt>
      <trkpt lat="43.02496" lon="-0.97179">
        <ele>501.46</ele>
        <time>2025-03-03T19:08:59Z</time>
      </trkpt>
      <trkpt lat="43.02509" lon="-0.97192">
        <ele>499.8</ele>
        <time>2025-03-03T19:09:02Z</time>
      </trkpt>
      <trkpt lat="43.02517" lon="-0.97213">
        <ele>497.71</ele>
        <time>2025-03-03T19:09:04Z</time>
      </trkpt>
      <trkpt lat="43.02524" lon="-0.97249">
        <ele>498.15</ele>
        <time>2025-03-03T19:09:06Z</time>
      </trkpt>
      <trkpt lat="43.02543" lon="-0.97314">
        <ele>500.92</ele>
        <time>2025-03-03T19:09:08Z</time>
      </trkpt>
      <trkpt lat="43.02593" lon="-0.97438">
        <ele>508.33</ele>
        <time>2025-03-03T19:09:11Z</time>
      </trkpt>
      <trkpt lat="43.02609" lon="-0.97465">
        <ele>509.42</ele>
        <time>2025-03-03T19:09:13Z</time>
      </trkpt>
      <trkpt lat="43.02622" lon="-0.97477">
        <ele>509.07</ele>
        <time>2025-03-03T19:09:15Z</time>
      </trkpt>
      <trkpt lat="43.02667" lon="-0.97506">
        <ele>507.69</ele>
        <time>2025-03-03T19:09:17Z</time>
      </trkpt>
      <trkpt lat="43.02681" lon="-0.97524">
        <ele>510.63</ele>
        <time>2025-03-03T19:09:19Z</time>
      </trkpt>
      <trkpt lat="43.02696" lon="-0.97546">
        <ele>510.33</ele>
        <time>2025-03-03T19:09:22Z</time>
      </trkpt>
      <trkpt lat="43.02711" lon="-0.97576">
        <ele>510.92</ele>
        <time>2025-03-03T19:09:24Z</time>
      </trkpt>
      <trkpt lat="43.02718" lon="-0.97624">
        <ele>511.52</ele>
        <time>2025-03-03T19:09:26Z</time>
      </trkpt>
      <trkpt lat="43.02718" lon="-0.97668">
        <ele>517.3</ele>
        <time>2025-03-03T19:09:28Z</time>
      </trkpt>
      <trkpt lat="43.02722" lon="-0.97716">
        <ele>512.26</ele>
        <time>2025-03-03T19:09:31Z</time>
      </trkpt>
      <trkpt lat="43.02719" lon="-0.97737">
        <ele>513.35</ele>
        <time>2025-03-03T19:09:33Z</time>
      </trkpt>
      <trkpt lat="43.02707" lon="-0.97766">
        <ele>517.26</ele>
        <time>2025-03-03T19:09:35Z</time>
      </trkpt>
      <trkpt lat="43.02688" lon="-0.978">
        <ele>522.85</ele>
        <time>2025-03-03T19:09:37Z</time>
      </trkpt>
      <trkpt lat="43.0265" lon="-0.97857">
        <ele>526.33</ele>
        <time>2025-03-03T19:09:39Z</time>
      </trkpt>
      <trkpt lat="43.02642" lon="-0.97867">
        <ele>526.44</ele>
        <time>2025-03-03T19:09:42Z</time>
      </trkpt>
      <trkpt lat="43.02635" lon="-0.97872">
        <ele>527.43</ele>
        <time>2025-03-03T19:09:44Z</time>
      </trkpt>
      <trkpt lat="43.026" lon="-0.97892">
        <ele>531.18</ele>
        <time>2025-03-03T19:09:46Z</time>
      </trkpt>
      <trkpt lat="43.02572" lon="-0.97918">
        <ele>533.5</ele>
        <time>2025-03-03T19:09:48Z</time>
      </trkpt>
      <trkpt lat="43.02559" lon="-0.97938">
        <ele>533.55</ele>
        <time>2025-03-03T19:09:51Z</time>
      </trkpt>
      <trkpt lat="43.02546" lon="-0.97975">
        <ele>530.12</ele>
        <time>2025-03-03T19:09:53Z</time>
      </trkpt>
      <trkpt lat="43.02541" lon="-0.97995">
        <ele>529.31</ele>
        <time>2025-03-03T19:09:55Z</time>
      </trkpt>
      <trkpt lat="43.0254" lon="-0.98043">
        <ele>529.53</ele>
        <time>2025-03-03T19:09:57Z</time>
      </trkpt>
      <trkpt lat="43.02532" lon="-0.98117">
        <ele>534.59</ele>
        <time>2025-03-03T19:10:00Z</time>
      </trkpt>
      <trkpt lat="43.02526" lon="-0.98145">
        <ele>535.66</ele>
        <time>2025-03-03T19:10:02Z</time>
      </trkpt>
      <trkpt lat="43.02438" lon="-0.98288">
        <ele>543.55</ele>
        <time>2025-03-03T19:10:04Z</time>
      </trkpt>
      <trkpt lat="43.02332" lon="-0.98431">
        <ele>555.46</ele>
        <time>2025-03-03T19:10:06Z</time>
      </trkpt>
      <trkpt lat="43.02301" lon="-0.98499">
        <ele>562.97</ele>
        <time>2025-03-03T19:10:08Z</time>
      </trkpt>
      <trkpt lat="43.02296" lon="-0.98518">
        <ele>564.74</ele>
        <time>2025-03-03T19:10:11Z</time>
      </trkpt>
      <trkpt lat="43.02294" lon="-0.9855">
        <ele>565.47</ele>
        <time>2025-03-03T19:10:13Z</time>
      </trkpt>
      <trkpt lat="43.02297" lon="-0.98598">
        <ele>572.78</ele>
        <time>2025-03-03T19:10:15Z</time>
      </trkpt>
      <trkpt lat="43.02305" lon="-0.98621">
        <ele>572.84</ele>
        <time>2025-03-03T19:10:17Z</time>
      </trkpt>
      <trkpt lat="43.02312" lon="-0.98634">
        <ele>571.88</ele>
        <time>2025-03-03T19:10:20Z</time>
      </trkpt>
      <trkpt lat="43.02359" lon="-0.98688">
        <ele>558.9</ele>
        <time>2025-03-03T19:10:22Z</time>
      </trkpt>
      <trkpt lat="43.02364" lon="-0.98705">
        <ele>559.78</ele>
        <time>2025-03-03T19:10:24Z</time>
      </trkpt>
      <trkpt lat="43.02363" lon="-0.9872">
        <ele>560.29</ele>
        <time>2025-03-03T19:10:26Z</time>
      </trkpt>
      <trkpt lat="43.02356" lon="-0.98735">
        <ele>563.56</ele>
        <time>2025-03-03T19:10:28Z</time>
      </trkpt>
      <trkpt lat="43.02341" lon="-0.98756">
        <ele>569.18</ele>
        <time>2025-03-03T19:10:31Z</time>
      </trkpt>
      <trkpt lat="43.02322" lon="-0.98803">
        <ele>577.08</ele>
        <time>2025-03-03T19:10:33Z</time>
      </trkpt>
      <trkpt lat="43.02312" lon="-0.98861">
        <ele>574.13</ele>
        <time>2025-03-03T19:10:35Z</time>
      </trkpt>
      <trkpt lat="43.02297" lon="-0.98903">
        <ele>579.64</ele>
        <time>2025-03-03T19:10:37Z</time>
      </trkpt>
      <trkpt lat="43.02294" lon="-0.98914">
        <ele>579.73</ele>
        <time>2025-03-03T19:10:40Z</time>
      </trkpt>
      <trkpt lat="43.02296" lon="-0.98955">
        <ele>579.36</ele>
        <time>2025-03-03T19:10:42Z</time>
      </trkpt>
      <trkpt lat="43.02294" lon="-0.98967">
        <ele>580.68</ele>
        <time>2025-03-03T19:10:44Z</time>
      </trkpt>
      <trkpt lat="43.02271" lon="-0.99037">
        <ele>581.5</ele>
        <time>2025-03-03T19:10:46Z</time>
      </trkpt>
      <trkpt lat="43.02255" lon="-0.99067">
        <ele>579.68</ele>
        <time>2025-03-03T19:10:48Z</time>
      </trkpt>
      <trkpt lat="43.02251" lon="-0.99073">
        <ele>579.18</ele>
        <time>2025-03-03T19:10:51Z</time>
      </trkpt>
      <trkpt lat="43.02189" lon="-0.99115">
        <ele>582.63</ele>
        <time>2025-03-03T19:10:53Z</time>
      </trkpt>
      <trkpt lat="43.02131" lon="-0.99201">
        <ele>594.1</ele>
        <time>2025-03-03T19:10:55Z</time>
      </trkpt>
      <trkpt lat="43.02117" lon="-0.99228">
        <ele>598</ele>
        <time>2025-03-03T19:10:57Z</time>
      </trkpt>
      <trkpt lat="43.02107" lon="-0.99264">
        <ele>601.87</ele>
        <time>2025-03-03T19:11:00Z</time>
      </trkpt>
      <trkpt lat="43.02103" lon="-0.99319">
        <ele>603.33</ele>
        <time>2025-03-03T19:11:02Z</time>
      </trkpt>
      <trkpt lat="43.02079" lon="-0.99385">
        <ele>611.15</ele>
        <time>2025-03-03T19:11:04Z</time>
      </trkpt>
      <trkpt lat="43.02075" lon="-0.99439">
        <ele>612.39</ele>
        <time>2025-03-03T19:11:06Z</time>
      </trkpt>
      <trkpt lat="43.02073" lon="-0.9945">
        <ele>613.51</ele>
        <time>2025-03-03T19:11:08Z</time>
      </trkpt>
      <trkpt lat="43.02059" lon="-0.99491">
        <ele>620.96</ele>
        <time>2025-03-03T19:11:11Z</time>
      </trkpt>
      <trkpt lat="43.02054" lon="-0.99516">
        <ele>626.23</ele>
        <time>2025-03-03T19:11:13Z</time>
      </trkpt>
      <trkpt lat="43.02053" lon="-0.99528">
        <ele>628.85</ele>
        <time>2025-03-03T19:11:15Z</time>
      </trkpt>
      <trkpt lat="43.02054" lon="-0.99541">
        <ele>631.69</ele>
        <time>2025-03-03T19:11:17Z</time>
      </trkpt>
      <trkpt lat="43.0206" lon="-0.99561">
        <ele>632.81</ele>
        <time>2025-03-03T19:11:20Z</time>
      </trkpt>
      <trkpt lat="43.02072" lon="-0.99587">
        <ele>628.81</ele>
        <time>2025-03-03T19:11:22Z</time>
      </trkpt>
      <trkpt lat="43.02103" lon="-0.99638">
        <ele>625.95</ele>
        <time>2025-03-03T19:11:24Z</time>
      </trkpt>
      <trkpt lat="43.02118" lon="-0.99674">
        <ele>630.95</ele>
        <time>2025-03-03T19:11:26Z</time>
      </trkpt>
      <trkpt lat="43.02129" lon="-0.99704">
        <ele>633.57</ele>
        <time>2025-03-03T19:11:28Z</time>
      </trkpt>
      <trkpt lat="43.02138" lon="-0.99736">
        <ele>637.04</ele>
        <time>2025-03-03T19:11:31Z</time>
      </trkpt>
      <trkpt lat="43.02173" lon="-0.99815">
        <ele>650.37</ele>
        <time>2025-03-03T19:11:33Z</time>
      </trkpt>
      <trkpt lat="43.02181" lon="-0.99837">
        <ele>651.27</ele>
        <time>2025-03-03T19:11:35Z</time>
      </trkpt>
      <trkpt lat="43.02188" lon="-0.99865">
        <ele>650.68</ele>
        <time>2025-03-03T19:11:37Z</time>
      </trkpt>
      <trkpt lat="43.02197" lon="-0.99931">
        <ele>655.09</ele>
        <time>2025-03-03T19:11:40Z</time>
      </trkpt>
      <trkpt lat="43.02201" lon="-0.99946">
        <ele>656.87</ele>
        <time>2025-03-03T19:11:42Z</time>
      </trkpt>
      <trkpt lat="43.02205" lon="-0.99961">
        <ele>658.44</ele>
        <time>2025-03-03T19:11:44Z</time>
      </trkpt>
      <trkpt lat="43.02224" lon="-1.0001">
        <ele>657.6</ele>
        <time>2025-03-03T19:11:46Z</time>
      </trkpt>
      <trkpt lat="43.02243" lon="-1.00049">
        <ele>656.92</ele>
        <time>2025-03-03T19:11:48Z</time>
      </trkpt>
      <trkpt lat="43.02246" lon="-1.00076">
        <ele>659.5</ele>
        <time>2025-03-03T19:11:51Z</time>
      </trkpt>
      <trkpt lat="43.02246" lon="-1.00108">
        <ele>665.83</ele>
        <time>2025-03-03T19:11:53Z</time>
      </trkpt>
      <trkpt lat="43.02253" lon="-1.00141">
        <ele>672.06</ele>
        <time>2025-03-03T19:11:55Z</time>
      </trkpt>
      <trkpt lat="43.02261" lon="-1.00166">
        <ele>674.83</ele>
        <time>2025-03-03T19:11:57Z</time>
      </trkpt>
      <trkpt lat="43.02294" lon="-1.00211">
        <ele>672.55</ele>
        <time>2025-03-03T19:12:00Z</time>
      </trkpt>
      <trkpt lat="43.02302" lon="-1.00226">
        <ele>674.42</ele>
        <time>2025-03-03T19:12:02Z</time>
      </trkpt>
      <trkpt lat="43.02313" lon="-1.00259">
        <ele>680.47</ele>
        <time>2025-03-03T19:12:04Z</time>
      </trkpt>
      <trkpt lat="43.02333" lon="-1.00294">
        <ele>678.11</ele>
        <time>2025-03-03T19:12:06Z</time>
      </trkpt>
      <trkpt lat="43.0234" lon="-1.00311">
        <ele>678.88</ele>
        <time>2025-03-03T19:12:09Z</time>
      </trkpt>
      <trkpt lat="43.02357" lon="-1.00348">
        <ele>676.47</ele>
        <time>2025-03-03T19:12:11Z</time>
      </trkpt>
      <trkpt lat="43.02358" lon="-1.00364">
        <ele>677.22</ele>
        <time>2025-03-03T19:12:13Z</time>
      </trkpt>
      <trkpt lat="43.02353" lon="-1.00398">
        <ele>681.42</ele>
        <time>2025-03-03T19:12:15Z</time>
      </trkpt>
      <trkpt lat="43.02357" lon="-1.00438">
        <ele>683.13</ele>
        <time>2025-03-03T19:12:17Z</time>
      </trkpt>
      <trkpt lat="43.02361" lon="-1.00448">
        <ele>682.26</ele>
        <time>2025-03-03T19:12:20Z</time>
      </trkpt>
      <trkpt lat="43.02367" lon="-1.00451">
        <ele>682.44</ele>
        <time>2025-03-03T19:12:22Z</time>
      </trkpt>
      <trkpt lat="43.02376" lon="-1.00446">
        <ele>682.07</ele>
        <time>2025-03-03T19:12:24Z</time>
      </trkpt>
      <trkpt lat="43.02383" lon="-1.00436">
        <ele>681.38</ele>
        <time>2025-03-03T19:12:26Z</time>
      </trkpt>
      <trkpt lat="43.02401" lon="-1.00396">
        <ele>682.68</ele>
        <time>2025-03-03T19:12:29Z</time>
      </trkpt>
      <trkpt lat="43.02405" lon="-1.00375">
        <ele>682.81</ele>
        <time>2025-03-03T19:12:31Z</time>
      </trkpt>
      <trkpt lat="43.02406" lon="-1.00349">
        <ele>681.39</ele>
        <time>2025-03-03T19:12:33Z</time>
      </trkpt>
      <trkpt lat="43.02415" lon="-1.0028">
        <ele>679.27</ele>
        <time>2025-03-03T19:12:35Z</time>
      </trkpt>
      <trkpt lat="43.02409" lon="-1.00247">
        <ele>678.4</ele>
        <time>2025-03-03T19:12:37Z</time>
      </trkpt>
      <trkpt lat="43.02394" lon="-1.0022">
        <ele>673.59</ele>
        <time>2025-03-03T19:12:40Z</time>
      </trkpt>
      <trkpt lat="43.02387" lon="-1.00203">
        <ele>670.84</ele>
        <time>2025-03-03T19:12:42Z</time>
      </trkpt>
      <trkpt lat="43.02384" lon="-1.00189">
        <ele>670.99</ele>
        <time>2025-03-03T19:12:44Z</time>
      </trkpt>
      <trkpt lat="43.02381" lon="-1.00169">
        <ele>673.21</ele>
        <time>2025-03-03T19:12:46Z</time>
      </trkpt>
      <trkpt lat="43.0238" lon="-1.0013">
        <ele>678.05</ele>
        <time>2025-03-03T19:12:49Z</time>
      </trkpt>
      <trkpt lat="43.02374" lon="-1.0012">
        <ele>676.76</ele>
        <time>2025-03-03T19:12:51Z</time>
      </trkpt>
      <trkpt lat="43.02358" lon="-1.00102">
        <ele>673.21</ele>
        <time>2025-03-03T19:12:53Z</time>
      </trkpt>
      <trkpt lat="43.02353" lon="-1.00088">
        <ele>673.37</ele>
        <time>2025-03-03T19:12:55Z</time>
      </trkpt>
      <trkpt lat="43.0235" lon="-1.00075">
        <ele>673.99</ele>
        <time>2025-03-03T19:12:57Z</time>
      </trkpt>
      <trkpt lat="43.02346" lon="-1">
        <ele>676.72</ele>
        <time>2025-03-03T19:13:00Z</time>
      </trkpt>
      <trkpt lat="43.02346" lon="-0.99976">
        <ele>678.44</ele>
        <time>2025-03-03T19:13:02Z</time>
      </trkpt>
      <trkpt lat="43.02348" lon="-0.99953">
        <ele>680.44</ele>
        <time>2025-03-03T19:13:04Z</time>
      </trkpt>
      <trkpt lat="43.0235" lon="-0.99936">
        <ele>682.09</ele>
        <time>2025-03-03T19:13:06Z</time>
      </trkpt>
      <trkpt lat="43.02354" lon="-0.99923">
        <ele>683.76</ele>
        <time>2025-03-03T19:13:09Z</time>
      </trkpt>
      <trkpt lat="43.02374" lon="-0.9988">
        <ele>692.32</ele>
        <time>2025-03-03T19:13:11Z</time>
      </trkpt>
      <trkpt lat="43.02378" lon="-0.99854">
        <ele>692.85</ele>
        <time>2025-03-03T19:13:13Z</time>
      </trkpt>
      <trkpt lat="43.02382" lon="-0.99789">
        <ele>694.9</ele>
        <time>2025-03-03T19:13:15Z</time>
      </trkpt>
      <trkpt lat="43.02377" lon="-0.99718">
        <ele>700.68</ele>
        <time>2025-03-03T19:13:17Z</time>
      </trkpt>
      <trkpt lat="43.02376" lon="-0.99687">
        <ele>703.6</ele>
        <time>2025-03-03T19:13:20Z</time>
      </trkpt>
      <trkpt lat="43.02372" lon="-0.99659">
        <ele>703.48</ele>
        <time>2025-03-03T19:13:22Z</time>
      </trkpt>
      <trkpt lat="43.02369" lon="-0.99646">
        <ele>701.88</ele>
        <time>2025-03-03T19:13:24Z</time>
      </trkpt>
      <trkpt lat="43.02372" lon="-0.9963">
        <ele>703.19</ele>
        <time>2025-03-03T19:13:26Z</time>
      </trkpt>
      <trkpt lat="43.0238" lon="-0.99631">
        <ele>706.61</ele>
        <time>2025-03-03T19:13:28Z</time>
      </trkpt>
      <trkpt lat="43.02385" lon="-0.99639">
        <ele>709.18</ele>
        <time>2025-03-03T19:13:30Z</time>
      </trkpt>
      <trkpt lat="43.02389" lon="-0.99662">
        <ele>711.98</ele>
        <time>2025-03-03T19:13:32Z</time>
      </trkpt>
      <trkpt lat="43.02395" lon="-0.99727">
        <ele>708.83</ele>
        <time>2025-03-03T19:13:34Z</time>
      </trkpt>
      <trkpt lat="43.02406" lon="-0.9976">
        <ele>710.78</ele>
        <time>2025-03-03T19:13:36Z</time>
      </trkpt>
      <trkpt lat="43.02424" lon="-0.99796">
        <ele>716.58</ele>
        <time>2025-03-03T19:13:38Z</time>
      </trkpt>
      <trkpt lat="43.02431" lon="-0.99815">
        <ele>720.65</ele>
        <time>2025-03-03T19:13:40Z</time>
      </trkpt>
      <trkpt lat="43.02432" lon="-0.99833">
        <ele>722.21</ele>
        <time>2025-03-03T19:13:42Z</time>
      </trkpt>
      <trkpt lat="43.02431" lon="-0.99947">
        <ele>729.71</ele>
        <time>2025-03-03T19:13:44Z</time>
      </trkpt>
      <trkpt lat="43.02433" lon="-0.99964">
        <ele>729.36</ele>
        <time>2025-03-03T19:13:45Z</time>
      </trkpt>
      <trkpt lat="43.02437" lon="-0.9998">
        <ele>729.74</ele>
        <time>2025-03-03T19:13:47Z</time>
      </trkpt>
      <trkpt lat="43.0245" lon="-1.00001">
        <ele>733.29</ele>
        <time>2025-03-03T19:13:49Z</time>
      </trkpt>
      <trkpt lat="43.02466" lon="-1.0002">
        <ele>734.62</ele>
        <time>2025-03-03T19:13:51Z</time>
      </trkpt>
      <trkpt lat="43.02499" lon="-1.00046">
        <ele>740.83</ele>
        <time>2025-03-03T19:13:53Z</time>
      </trkpt>
      <trkpt lat="43.02518" lon="-1.00064">
        <ele>744.78</ele>
        <time>2025-03-03T19:13:55Z</time>
      </trkpt>
      <trkpt lat="43.02528" lon="-1.00076">
        <ele>746.87</ele>
        <time>2025-03-03T19:13:57Z</time>
      </trkpt>
      <trkpt lat="43.02538" lon="-1.00093">
        <ele>750.36</ele>
        <time>2025-03-03T19:13:59Z</time>
      </trkpt>
      <trkpt lat="43.02541" lon="-1.00103">
        <ele>751.37</ele>
        <time>2025-03-03T19:14:01Z</time>
      </trkpt>
      <trkpt lat="43.02541" lon="-1.00111">
        <ele>751.22</ele>
        <time>2025-03-03T19:14:02Z</time>
      </trkpt>
      <trkpt lat="43.02539" lon="-1.0012">
        <ele>751.34</ele>
        <time>2025-03-03T19:14:04Z</time>
      </trkpt>
      <trkpt lat="43.02535" lon="-1.00127">
        <ele>750.03</ele>
        <time>2025-03-03T19:14:06Z</time>
      </trkpt>
      <trkpt lat="43.02519" lon="-1.00137">
        <ele>743.56</ele>
        <time>2025-03-03T19:14:08Z</time>
      </trkpt>
      <trkpt lat="43.02512" lon="-1.00143">
        <ele>741.94</ele>
        <time>2025-03-03T19:14:10Z</time>
      </trkpt>
      <trkpt lat="43.0251" lon="-1.00152">
        <ele>742.08</ele>
        <time>2025-03-03T19:14:12Z</time>
      </trkpt>
      <trkpt lat="43.02512" lon="-1.00161">
        <ele>743.76</ele>
        <time>2025-03-03T19:14:14Z</time>
      </trkpt>
      <trkpt lat="43.0252" lon="-1.00169">
        <ele>748.46</ele>
        <time>2025-03-03T19:14:16Z</time>
      </trkpt>
      <trkpt lat="43.02527" lon="-1.00167">
        <ele>751.79</ele>
        <time>2025-03-03T19:14:18Z</time>
      </trkpt>
      <trkpt lat="43.02551" lon="-1.0015">
        <ele>761.62</ele>
        <time>2025-03-03T19:14:20Z</time>
      </trkpt>
      <trkpt lat="43.02574" lon="-1.00137">
        <ele>770.9</ele>
        <time>2025-03-03T19:14:21Z</time>
      </trkpt>
      <trkpt lat="43.02582" lon="-1.00128">
        <ele>774.21</ele>
        <time>2025-03-03T19:14:23Z</time>
      </trkpt>
      <trkpt lat="43.02586" lon="-1.00118">
        <ele>774.62</ele>
        <time>2025-03-03T19:14:25Z</time>
      </trkpt>
      <trkpt lat="43.02585" lon="-1.00109">
        <ele>774.22</ele>
        <time>2025-03-03T19:14:27Z</time>
      </trkpt>
      <trkpt lat="43.02581" lon="-1.00092">
        <ele>775.17</ele>
        <time>2025-03-03T19:14:29Z</time>
      </trkpt>
      <trkpt lat="43.0257" lon="-1.0006">
        <ele>775.84</ele>
        <time>2025-03-03T19:14:31Z</time>
      </trkpt>
      <trkpt lat="43.02551" lon="-1.0002">
        <ele>776.53</ele>
        <time>2025-03-03T19:14:33Z</time>
      </trkpt>
      <trkpt lat="43.02527" lon="-0.99987">
        <ele>772.98</ele>
        <time>2025-03-03T19:14:35Z</time>
      </trkpt>
      <trkpt lat="43.02521" lon="-0.99971">
        <ele>773.32</ele>
        <time>2025-03-03T19:14:37Z</time>
      </trkpt>
      <trkpt lat="43.02517" lon="-0.99954">
        <ele>773.57</ele>
        <time>2025-03-03T19:14:39Z</time>
      </trkpt>
      <trkpt lat="43.02516" lon="-0.99936">
        <ele>774.99</ele>
        <time>2025-03-03T19:14:40Z</time>
      </trkpt>
      <trkpt lat="43.02517" lon="-0.99918">
        <ele>777.81</ele>
        <time>2025-03-03T19:14:42Z</time>
      </trkpt>
      <trkpt lat="43.02541" lon="-0.99826">
        <ele>791.03</ele>
        <time>2025-03-03T19:14:44Z</time>
      </trkpt>
      <trkpt lat="43.02549" lon="-0.99802">
        <ele>794.3</ele>
        <time>2025-03-03T19:14:46Z</time>
      </trkpt>
      <trkpt lat="43.02565" lon="-0.99778">
        <ele>802.77</ele>
        <time>2025-03-03T19:14:48Z</time>
      </trkpt>
      <trkpt lat="43.02568" lon="-0.99772">
        <ele>804.23</ele>
        <time>2025-03-03T19:14:50Z</time>
      </trkpt>
      <trkpt lat="43.02569" lon="-0.99761">
        <ele>804.77</ele>
        <time>2025-03-03T19:14:52Z</time>
      </trkpt>
      <trkpt lat="43.02566" lon="-0.99748">
        <ele>803.65</ele>
        <time>2025-03-03T19:14:54Z</time>
      </trkpt>
      <trkpt lat="43.02547" lon="-0.99703">
        <ele>799.85</ele>
        <time>2025-03-03T19:14:56Z</time>
      </trkpt>
      <trkpt lat="43.02544" lon="-0.9968">
        <ele>801.03</ele>
        <time>2025-03-03T19:14:57Z</time>
      </trkpt>
      <trkpt lat="43.02545" lon="-0.99659">
        <ele>803.23</ele>
        <time>2025-03-03T19:14:59Z</time>
      </trkpt>
      <trkpt lat="43.02549" lon="-0.99638">
        <ele>806.19</ele>
        <time>2025-03-03T19:15:01Z</time>
      </trkpt>
      <trkpt lat="43.02559" lon="-0.99621">
        <ele>809.13</ele>
        <time>2025-03-03T19:15:03Z</time>
      </trkpt>
      <trkpt lat="43.02591" lon="-0.99582">
        <ele>819.15</ele>
        <time>2025-03-03T19:15:05Z</time>
      </trkpt>
      <trkpt lat="43.02599" lon="-0.99565">
        <ele>819.4</ele>
        <time>2025-03-03T19:15:07Z</time>
      </trkpt>
      <trkpt lat="43.02613" lon="-0.99527">
        <ele>819.28</ele>
        <time>2025-03-03T19:15:09Z</time>
      </trkpt>
      <trkpt lat="43.02622" lon="-0.99511">
        <ele>819.27</ele>
        <time>2025-03-03T19:15:11Z</time>
      </trkpt>
      <trkpt lat="43.02628" lon="-0.99507">
        <ele>819.81</ele>
        <time>2025-03-03T19:15:13Z</time>
      </trkpt>
      <trkpt lat="43.02632" lon="-0.99506">
        <ele>820.69</ele>
        <time>2025-03-03T19:15:15Z</time>
      </trkpt>
      <trkpt lat="43.02637" lon="-0.9951">
        <ele>822.71</ele>
        <time>2025-03-03T19:15:16Z</time>
      </trkpt>
      <trkpt lat="43.02639" lon="-0.99517">
        <ele>824.7</ele>
        <time>2025-03-03T19:15:18Z</time>
      </trkpt>
      <trkpt lat="43.02634" lon="-0.9954">
        <ele>828.45</ele>
        <time>2025-03-03T19:15:20Z</time>
      </trkpt>
      <trkpt lat="43.0263" lon="-0.99585">
        <ele>836.57</ele>
        <time>2025-03-03T19:15:22Z</time>
      </trkpt>
      <trkpt lat="43.02622" lon="-0.99629">
        <ele>838.41</ele>
        <time>2025-03-03T19:15:24Z</time>
      </trkpt>
      <trkpt lat="43.0262" lon="-0.99653">
        <ele>838.02</ele>
        <time>2025-03-03T19:15:26Z</time>
      </trkpt>
      <trkpt lat="43.02622" lon="-0.99672">
        <ele>838.22</ele>
        <time>2025-03-03T19:15:28Z</time>
      </trkpt>
      <trkpt lat="43.02629" lon="-0.99693">
        <ele>840.63</ele>
        <time>2025-03-03T19:15:30Z</time>
      </trkpt>
      <trkpt lat="43.02664" lon="-0.99755">
        <ele>856.33</ele>
        <time>2025-03-03T19:15:32Z</time>
      </trkpt>
      <trkpt lat="43.02669" lon="-0.99765">
        <ele>859.46</ele>
        <time>2025-03-03T19:15:34Z</time>
      </trkpt>
      <trkpt lat="43.02671" lon="-0.99781">
        <ele>862.3</ele>
        <time>2025-03-03T19:15:35Z</time>
      </trkpt>
      <trkpt lat="43.0267" lon="-0.99795">
        <ele>864.53</ele>
        <time>2025-03-03T19:15:37Z</time>
      </trkpt>
      <trkpt lat="43.02666" lon="-0.99807">
        <ele>864.63</ele>
        <time>2025-03-03T19:15:39Z</time>
      </trkpt>
      <trkpt lat="43.0265" lon="-0.99835">
        <ele>861.5</ele>
        <time>2025-03-03T19:15:41Z</time>
      </trkpt>
      <trkpt lat="43.02649" lon="-0.99852">
        <ele>862.23</ele>
        <time>2025-03-03T19:15:43Z</time>
      </trkpt>
      <trkpt lat="43.02649" lon="-0.99871">
        <ele>864.34</ele>
        <time>2025-03-03T19:15:45Z</time>
      </trkpt>
      <trkpt lat="43.02652" lon="-0.99889">
        <ele>866.75</ele>
        <time>2025-03-03T19:15:47Z</time>
      </trkpt>
      <trkpt lat="43.02658" lon="-0.99908">
        <ele>867.35</ele>
        <time>2025-03-03T19:15:49Z</time>
      </trkpt>
      <trkpt lat="43.02664" lon="-0.99919">
        <ele>868.51</ele>
        <time>2025-03-03T19:15:51Z</time>
      </trkpt>
      <trkpt lat="43.02673" lon="-0.99929">
        <ele>870.67</ele>
        <time>2025-03-03T19:15:52Z</time>
      </trkpt>
      <trkpt lat="43.02706" lon="-0.9996">
        <ele>878.92</ele>
        <time>2025-03-03T19:15:54Z</time>
      </trkpt>
      <trkpt lat="43.02726" lon="-0.99975">
        <ele>882.84</ele>
        <time>2025-03-03T19:15:56Z</time>
      </trkpt>
      <trkpt lat="43.02752" lon="-0.99989">
        <ele>887.71</ele>
        <time>2025-03-03T19:15:58Z</time>
      </trkpt>
      <trkpt lat="43.02765" lon="-0.99995">
        <ele>889.34</ele>
        <time>2025-03-03T19:16:00Z</time>
      </trkpt>
      <trkpt lat="43.02784" lon="-0.99997">
        <ele>894.05</ele>
        <time>2025-03-03T19:16:02Z</time>
      </trkpt>
      <trkpt lat="43.02821" lon="-0.99989">
        <ele>909.79</ele>
        <time>2025-03-03T19:16:04Z</time>
      </trkpt>
      <trkpt lat="43.02832" lon="-0.9999">
        <ele>912.46</ele>
        <time>2025-03-03T19:16:06Z</time>
      </trkpt>
      <trkpt lat="43.02842" lon="-0.99994">
        <ele>912.24</ele>
        <time>2025-03-03T19:16:08Z</time>
      </trkpt>
      <trkpt lat="43.02851" lon="-1">
        <ele>911.16</ele>
        <time>2025-03-03T19:16:10Z</time>
      </trkpt>
      <trkpt lat="43.02874" lon="-1.00043">
        <ele>910.06</ele>
        <time>2025-03-03T19:16:11Z</time>
      </trkpt>
      <trkpt lat="43.02909" lon="-1.00086">
        <ele>917.77</ele>
        <time>2025-03-03T19:16:13Z</time>
      </trkpt>
      <trkpt lat="43.0292" lon="-1.00102">
        <ele>921.71</ele>
        <time>2025-03-03T19:16:15Z</time>
      </trkpt>
      <trkpt lat="43.02926" lon="-1.00119">
        <ele>924.6</ele>
        <time>2025-03-03T19:16:17Z</time>
      </trkpt>
      <trkpt lat="43.02931" lon="-1.00151">
        <ele>927.26</ele>
        <time>2025-03-03T19:16:19Z</time>
      </trkpt>
      <trkpt lat="43.02939" lon="-1.00288">
        <ele>941.45</ele>
        <time>2025-03-03T19:16:21Z</time>
      </trkpt>
      <trkpt lat="43.02947" lon="-1.00327">
        <ele>947.02</ele>
        <time>2025-03-03T19:16:23Z</time>
      </trkpt>
      <trkpt lat="43.02953" lon="-1.00372">
        <ele>948.77</ele>
        <time>2025-03-03T19:16:25Z</time>
      </trkpt>
      <trkpt lat="43.02958" lon="-1.00384">
        <ele>949.35</ele>
        <time>2025-03-03T19:16:27Z</time>
      </trkpt>
      <trkpt lat="43.02991" lon="-1.00431">
        <ele>958.85</ele>
        <time>2025-03-03T19:16:28Z</time>
      </trkpt>
      <trkpt lat="43.03026" lon="-1.00496">
        <ele>967.64</ele>
        <time>2025-03-03T19:16:30Z</time>
      </trkpt>
      <trkpt lat="43.03036" lon="-1.00521">
        <ele>970.78</ele>
        <time>2025-03-03T19:16:32Z</time>
      </trkpt>
      <trkpt lat="43.03039" lon="-1.00532">
        <ele>972.04</ele>
        <time>2025-03-03T19:16:34Z</time>
      </trkpt>
      <trkpt lat="43.03039" lon="-1.00547">
        <ele>972.59</ele>
        <time>2025-03-03T19:16:36Z</time>
      </trkpt>
      <trkpt lat="43.0303" lon="-1.00605">
        <ele>973.14</ele>
        <time>2025-03-03T19:16:38Z</time>
      </trkpt>
      <trkpt lat="43.03028" lon="-1.0063">
        <ele>975.87</ele>
        <time>2025-03-03T19:16:40Z</time>
      </trkpt>
      <trkpt lat="43.03028" lon="-1.00654">
        <ele>978.67</ele>
        <time>2025-03-03T19:16:42Z</time>
      </trkpt>
      <trkpt lat="43.0303" lon="-1.00674">
        <ele>981.23</ele>
        <time>2025-03-03T19:16:44Z</time>
      </trkpt>
      <trkpt lat="43.0304" lon="-1.00721">
        <ele>986.93</ele>
        <time>2025-03-03T19:16:46Z</time>
      </trkpt>
      <trkpt lat="43.03051" lon="-1.00795">
        <ele>997.8</ele>
        <time>2025-03-03T19:16:47Z</time>
      </trkpt>
      <trkpt lat="43.03059" lon="-1.00833">
        <ele>1000.01</ele>
        <time>2025-03-03T19:16:49Z</time>
      </trkpt>
      <trkpt lat="43.03064" lon="-1.00849">
        <ele>1000.38</ele>
        <time>2025-03-03T19:16:51Z</time>
      </trkpt>
      <trkpt lat="43.03074" lon="-1.00869">
        <ele>1001.88</ele>
        <time>2025-03-03T19:16:53Z</time>
      </trkpt>
      <trkpt lat="43.03096" lon="-1.00906">
        <ele>1006.39</ele>
        <time>2025-03-03T19:16:55Z</time>
      </trkpt>
      <trkpt lat="43.03103" lon="-1.00922">
        <ele>1008.04</ele>
        <time>2025-03-03T19:16:57Z</time>
      </trkpt>
      <trkpt lat="43.03116" lon="-1.00998">
        <ele>1017.53</ele>
        <time>2025-03-03T19:16:59Z</time>
      </trkpt>
      <trkpt lat="43.0312" lon="-1.01063">
        <ele>1026.02</ele>
        <time>2025-03-03T19:17:01Z</time>
      </trkpt>
      <trkpt lat="43.03134" lon="-1.01104">
        <ele>1031.69</ele>
        <time>2025-03-03T19:17:03Z</time>
      </trkpt>
      <trkpt lat="43.03143" lon="-1.0112">
        <ele>1032.63</ele>
        <time>2025-03-03T19:17:05Z</time>
      </trkpt>
      <trkpt lat="43.03153" lon="-1.01132">
        <ele>1033.27</ele>
        <time>2025-03-03T19:17:06Z</time>
      </trkpt>
      <trkpt lat="43.03179" lon="-1.01158">
        <ele>1035.31</ele>
        <time>2025-03-03T19:17:08Z</time>
      </trkpt>
      <trkpt lat="43.03213" lon="-1.01199">
        <ele>1038.77</ele>
        <time>2025-03-03T19:17:10Z</time>
      </trkpt>
      <trkpt lat="43.03219" lon="-1.01201">
        <ele>1040.61</ele>
        <time>2025-03-03T19:17:12Z</time>
      </trkpt>
      <trkpt lat="43.03225" lon="-1.01199">
        <ele>1043.32</ele>
        <time>2025-03-03T19:17:14Z</time>
      </trkpt>
      <trkpt lat="43.03228" lon="-1.01191">
        <ele>1046.81</ele>
        <time>2025-03-03T19:17:16Z</time>
      </trkpt>
      <trkpt lat="43.03226" lon="-1.01182">
        <ele>1047.75</ele>
        <time>2025-03-03T19:17:18Z</time>
      </trkpt>
      <trkpt lat="43.03206" lon="-1.01132">
        <ele>1048.79</ele>
        <time>2025-03-03T19:17:20Z</time>
      </trkpt>
      <trkpt lat="43.03199" lon="-1.0108">
        <ele>1053.43</ele>
        <time>2025-03-03T19:17:22Z</time>
      </trkpt>
      <trkpt lat="43.03198" lon="-1.01059">
        <ele>1055.59</ele>
        <time>2025-03-03T19:17:23Z</time>
      </trkpt>
      <trkpt lat="43.03199" lon="-1.01044">
        <ele>1057.31</ele>
        <time>2025-03-03T19:17:25Z</time>
      </trkpt>
      <trkpt lat="43.03203" lon="-1.0103">
        <ele>1059.72</ele>
        <time>2025-03-03T19:17:27Z</time>
      </trkpt>
      <trkpt lat="43.03231" lon="-1.00972">
        <ele>1067.5</ele>
        <time>2025-03-03T19:17:29Z</time>
      </trkpt>
      <trkpt lat="43.03245" lon="-1.00934">
        <ele>1070.8</ele>
        <time>2025-03-03T19:17:31Z</time>
      </trkpt>
      <trkpt lat="43.03261" lon="-1.00897">
        <ele>1074.03</ele>
        <time>2025-03-03T19:17:33Z</time>
      </trkpt>
      <trkpt lat="43.0327" lon="-1.00861">
        <ele>1073.86</ele>
        <time>2025-03-03T19:17:35Z</time>
      </trkpt>
      <trkpt lat="43.03304" lon="-1.00805">
        <ele>1082.35</ele>
        <time>2025-03-03T19:17:37Z</time>
      </trkpt>
      <trkpt lat="43.0331" lon="-1.008">
        <ele>1083.88</ele>
        <time>2025-03-03T19:17:39Z</time>
      </trkpt>
      <trkpt lat="43.03317" lon="-1.00797">
        <ele>1085.26</ele>
        <time>2025-03-03T19:17:41Z</time>
      </trkpt>
      <trkpt lat="43.03322" lon="-1.00798">
        <ele>1086.45</ele>
        <time>2025-03-03T19:17:42Z</time>
      </trkpt>
      <trkpt lat="43.03331" lon="-1.00804">
        <ele>1088.34</ele>
        <time>2025-03-03T19:17:44Z</time>
      </trkpt>
      <trkpt lat="43.03366" lon="-1.00844">
        <ele>1090.28</ele>
        <time>2025-03-03T19:17:46Z</time>
      </trkpt>
      <trkpt lat="43.03373" lon="-1.00855">
        <ele>1091.3</ele>
        <time>2025-03-03T19:17:48Z</time>
      </trkpt>
      <trkpt lat="43.0339" lon="-1.00898">
        <ele>1100.88</ele>
        <time>2025-03-03T19:17:50Z</time>
      </trkpt>
      <trkpt lat="43.03393" lon="-1.00918">
        <ele>1107.01</ele>
        <time>2025-03-03T19:17:52Z</time>
      </trkpt>
      <trkpt lat="43.03388" lon="-1.0093">
        <ele>1110.42</ele>
        <time>2025-03-03T19:17:54Z</time>
      </trkpt>
      <trkpt lat="43.03383" lon="-1.00936">
        <ele>1111.38</ele>
        <time>2025-03-03T19:17:56Z</time>
      </trkpt>
      <trkpt lat="43.03365" lon="-1.00946">
        <ele>1111.71</ele>
        <time>2025-03-03T19:17:58Z</time>
      </trkpt>
      <trkpt lat="43.03356" lon="-1.00955">
        <ele>1111.33</ele>
        <time>2025-03-03T19:17:59Z</time>
      </trkpt>
      <trkpt lat="43.0335" lon="-1.00967">
        <ele>1111.75</ele>
        <time>2025-03-03T19:18:01Z</time>
      </trkpt>
      <trkpt lat="43.03344" lon="-1.00986">
        <ele>1113.06</ele>
        <time>2025-03-03T19:18:03Z</time>
      </trkpt>
      <trkpt lat="43.03341" lon="-1.01002">
        <ele>1114.01</ele>
        <time>2025-03-03T19:18:05Z</time>
      </trkpt>
      <trkpt lat="43.0334" lon="-1.0102">
        <ele>1114.47</ele>
        <time>2025-03-03T19:18:07Z</time>
      </trkpt>
      <trkpt lat="43.03347" lon="-1.01061">
        <ele>1120.7</ele>
        <time>2025-03-03T19:18:09Z</time>
      </trkpt>
      <trkpt lat="43.03349" lon="-1.0108">
        <ele>1123.94</ele>
        <time>2025-03-03T19:18:11Z</time>
      </trkpt>
      <trkpt lat="43.03351" lon="-1.01137">
        <ele>1128.64</ele>
        <time>2025-03-03T19:18:13Z</time>
      </trkpt>
      <trkpt lat="43.03363" lon="-1.01185">
        <ele>1131.86</ele>
        <time>2025-03-03T19:18:15Z</time>
      </trkpt>
      <trkpt lat="43.03418" lon="-1.01294">
        <ele>1149.55</ele>
        <time>2025-03-03T19:18:17Z</time>
      </trkpt>
      <trkpt lat="43.03426" lon="-1.0132">
        <ele>1151.46</ele>
        <time>2025-03-03T19:18:18Z</time>
      </trkpt>
      <trkpt lat="43.03447" lon="-1.014">
        <ele>1162.54</ele>
        <time>2025-03-03T19:18:20Z</time>
      </trkpt>
      <trkpt lat="43.03469" lon="-1.01504">
        <ele>1169.41</ele>
        <time>2025-03-03T19:18:22Z</time>
      </trkpt>
      <trkpt lat="43.03477" lon="-1.01564">
        <ele>1177.62</ele>
        <time>2025-03-03T19:18:24Z</time>
      </trkpt>
      <trkpt lat="43.03489" lon="-1.01619">
        <ele>1183.31</ele>
        <time>2025-03-03T19:18:26Z</time>
      </trkpt>
      <trkpt lat="43.035" lon="-1.01681">
        <ele>1188.85</ele>
        <time>2025-03-03T19:18:28Z</time>
      </trkpt>
      <trkpt lat="43.03513" lon="-1.01741">
        <ele>1202.28</ele>
        <time>2025-03-03T19:18:30Z</time>
      </trkpt>
      <trkpt lat="43.03514" lon="-1.01753">
        <ele>1204.47</ele>
        <time>2025-03-03T19:18:32Z</time>
      </trkpt>
      <trkpt lat="43.03512" lon="-1.01766">
        <ele>1205.44</ele>
        <time>2025-03-03T19:18:34Z</time>
      </trkpt>
      <trkpt lat="43.03508" lon="-1.01778">
        <ele>1204.83</ele>
        <time>2025-03-03T19:18:36Z</time>
      </trkpt>
      <trkpt lat="43.03473" lon="-1.0185">
        <ele>1207.46</ele>
        <time>2025-03-03T19:18:37Z</time>
      </trkpt>
      <trkpt lat="43.03457" lon="-1.01887">
        <ele>1209.62</ele>
        <time>2025-03-03T19:18:39Z</time>
      </trkpt>
      <trkpt lat="43.03449" lon="-1.01922">
        <ele>1214.33</ele>
        <time>2025-03-03T19:18:41Z</time>
      </trkpt>
      <trkpt lat="43.03444" lon="-1.01972">
        <ele>1222.85</ele>
        <time>2025-03-03T19:18:43Z</time>
      </trkpt>
      <trkpt lat="43.03439" lon="-1.01998">
        <ele>1226.71</ele>
        <time>2025-03-03T19:18:45Z</time>
      </trkpt>
      <trkpt lat="43.03431" lon="-1.02019">
        <ele>1228.71</ele>
        <time>2025-03-03T19:18:47Z</time>
      </trkpt>
      <trkpt lat="43.03419" lon="-1.02035">
        <ele>1228.56</ele>
        <time>2025-03-03T19:18:49Z</time>
      </trkpt>
      <trkpt lat="43.03377" lon="-1.02061">
        <ele>1224.43</ele>
        <time>2025-03-03T19:18:51Z</time>
      </trkpt>
      <trkpt lat="43.03372" lon="-1.02071">
        <ele>1224.78</ele>
        <time>2025-03-03T19:18:53Z</time>
      </trkpt>
      <trkpt lat="43.03368" lon="-1.02085">
        <ele>1225.88</ele>
        <time>2025-03-03T19:18:54Z</time>
      </trkpt>
      <trkpt lat="43.03369" lon="-1.02103">
        <ele>1226.57</ele>
        <time>2025-03-03T19:18:56Z</time>
      </trkpt>
      <trkpt lat="43.03372" lon="-1.02115">
        <ele>1227.57</ele>
        <time>2025-03-03T19:18:58Z</time>
      </trkpt>
      <trkpt lat="43.03389" lon="-1.02145">
        <ele>1231.96</ele>
        <time>2025-03-03T19:19:00Z</time>
      </trkpt>
      <trkpt lat="43.0341" lon="-1.02176">
        <ele>1237.03</ele>
        <time>2025-03-03T19:19:02Z</time>
      </trkpt>
      <trkpt lat="43.03427" lon="-1.02206">
        <ele>1241.14</ele>
        <time>2025-03-03T19:19:04Z</time>
      </trkpt>
      <trkpt lat="43.03438" lon="-1.02232">
        <ele>1244.45</ele>
        <time>2025-03-03T19:19:06Z</time>
      </trkpt>
      <trkpt lat="43.03445" lon="-1.02264">
        <ele>1248.07</ele>
        <time>2025-03-03T19:19:08Z</time>
      </trkpt>
      <trkpt lat="43.03445" lon="-1.02276">
        <ele>1248.98</ele>
        <time>2025-03-03T19:19:10Z</time>
      </trkpt>
      <trkpt lat="43.03443" lon="-1.02288">
        <ele>1251.09</ele>
        <time>2025-03-03T19:19:12Z</time>
      </trkpt>
      <trkpt lat="43.03434" lon="-1.02303">
        <ele>1252.48</ele>
        <time>2025-03-03T19:19:13Z</time>
      </trkpt>
      <trkpt lat="43.0341" lon="-1.02314">
        <ele>1249.36</ele>
        <time>2025-03-03T19:19:15Z</time>
      </trkpt>
      <trkpt lat="43.03396" lon="-1.02324">
        <ele>1249.57</ele>
        <time>2025-03-03T19:19:17Z</time>
      </trkpt>
      <trkpt lat="43.03329" lon="-1.02385">
        <ele>1252.54</ele>
        <time>2025-03-03T19:19:19Z</time>
      </trkpt>
      <trkpt lat="43.03306" lon="-1.02415">
        <ele>1258.43</ele>
        <time>2025-03-03T19:19:21Z</time>
      </trkpt>
      <trkpt lat="43.033" lon="-1.02431">
        <ele>1259.38</ele>
        <time>2025-03-03T19:19:23Z</time>
      </trkpt>
      <trkpt lat="43.033" lon="-1.02442">
        <ele>1260.96</ele>
        <time>2025-03-03T19:19:25Z</time>
      </trkpt>
      <trkpt lat="43.03306" lon="-1.02452">
        <ele>1263.57</ele>
        <time>2025-03-03T19:19:27Z</time>
      </trkpt>
      <trkpt lat="43.03313" lon="-1.02454">
        <ele>1265.96</ele>
        <time>2025-03-03T19:19:29Z</time>
      </trkpt>
      <trkpt lat="43.03318" lon="-1.02449">
        <ele>1267.47</ele>
        <time>2025-03-03T19:19:31Z</time>
      </trkpt>
      <trkpt lat="43.03325" lon="-1.02434">
        <ele>1266.82</ele>
        <time>2025-03-03T19:19:32Z</time>
      </trkpt>
      <trkpt lat="43.03336" lon="-1.02414">
        <ele>1264.95</ele>
        <time>2025-03-03T19:19:34Z</time>
      </trkpt>
      <trkpt lat="43.03353" lon="-1.02395">
        <ele>1263.89</ele>
        <time>2025-03-03T19:19:36Z</time>
      </trkpt>
      <trkpt lat="43.03372" lon="-1.02383">
        <ele>1265.12</ele>
        <time>2025-03-03T19:19:38Z</time>
      </trkpt>
      <trkpt lat="43.03418" lon="-1.02364">
        <ele>1269.13</ele>
        <time>2025-03-03T19:19:40Z</time>
      </trkpt>
      <trkpt lat="43.03433" lon="-1.02363">
        <ele>1271.11</ele>
        <time>2025-03-03T19:19:42Z</time>
      </trkpt>
      <trkpt lat="43.03446" lon="-1.02365">
        <ele>1274.44</ele>
        <time>2025-03-03T19:19:44Z</time>
      </trkpt>
      <trkpt lat="43.03456" lon="-1.02363">
        <ele>1276.6</ele>
        <time>2025-03-03T19:19:46Z</time>
      </trkpt>
      <trkpt lat="43.03464" lon="-1.02359">
        <ele>1277.62</ele>
        <time>2025-03-03T19:19:48Z</time>
      </trkpt>
      <trkpt lat="43.03492" lon="-1.02329">
        <ele>1279.7</ele>
        <time>2025-03-03T19:19:49Z</time>
      </trkpt>
      <trkpt lat="43.03509" lon="-1.02304">
        <ele>1281.09</ele>
        <time>2025-03-03T19:19:51Z</time>
      </trkpt>
      <trkpt lat="43.03519" lon="-1.02294">
        <ele>1283.17</ele>
        <time>2025-03-03T19:19:53Z</time>
      </trkpt>
      <trkpt lat="43.03527" lon="-1.02293">
        <ele>1285.81</ele>
        <time>2025-03-03T19:19:55Z</time>
      </trkpt>
      <trkpt lat="43.03534" lon="-1.02297">
        <ele>1286.27</ele>
        <time>2025-03-03T19:19:57Z</time>
      </trkpt>
      <trkpt lat="43.03542" lon="-1.02309">
        <ele>1286.91</ele>
        <time>2025-03-03T19:19:59Z</time>
      </trkpt>
      <trkpt lat="43.03545" lon="-1.02321">
        <ele>1288.03</ele>
        <time>2025-03-03T19:20:01Z</time>
      </trkpt>
      <trkpt lat="43.03551" lon="-1.02381">
        <ele>1293.48</ele>
        <time>2025-03-03T19:20:03Z</time>
      </trkpt>
      <trkpt lat="43.03556" lon="-1.02408">
        <ele>1299.05</ele>
        <time>2025-03-03T19:20:05Z</time>
      </trkpt>
      <trkpt lat="43.03561" lon="-1.02421">
        <ele>1300.99</ele>
        <time>2025-03-03T19:20:07Z</time>
      </trkpt>
      <trkpt lat="43.03568" lon="-1.02433">
        <ele>1301.14</ele>
        <time>2025-03-03T19:20:08Z</time>
      </trkpt>
      <trkpt lat="43.03575" lon="-1.02442">
        <ele>1300.37</ele>
        <time>2025-03-03T19:20:10Z</time>
      </trkpt>
      <trkpt lat="43.03612" lon="-1.02467">
        <ele>1303.6</ele>
        <time>2025-03-03T19:20:12Z</time>
      </trkpt>
      <trkpt lat="43.03624" lon="-1.02479">
        <ele>1305.85</ele>
        <time>2025-03-03T19:20:14Z</time>
      </trkpt>
      <trkpt lat="43.03633" lon="-1.02492">
        <ele>1308.41</ele>
        <time>2025-03-03T19:20:16Z</time>
      </trkpt>
      <trkpt lat="43.03643" lon="-1.02509">
        <ele>1311.24</ele>
        <time>2025-03-03T19:20:18Z</time>
      </trkpt>
      <trkpt lat="43.03659" lon="-1.02527">
        <ele>1313.07</ele>
        <time>2025-03-03T19:20:20Z</time>
      </trkpt>
      <trkpt lat="43.03685" lon="-1.0254">
        <ele>1313.97</ele>
        <time>2025-03-03T19:20:22Z</time>
      </trkpt>
      <trkpt lat="43.03695" lon="-1.02549">
        <ele>1315.44</ele>
        <time>2025-03-03T19:20:24Z</time>
      </trkpt>
      <trkpt lat="43.03765" lon="-1.02629">
        <ele>1326.14</ele>
        <time>2025-03-03T19:20:25Z</time>
      </trkpt>
      <trkpt lat="43.03777" lon="-1.0264">
        <ele>1326.54</ele>
        <time>2025-03-03T19:20:27Z</time>
      </trkpt>
      <trkpt lat="43.03806" lon="-1.0266">
        <ele>1326.75</ele>
        <time>2025-03-03T19:20:29Z</time>
      </trkpt>
      <trkpt lat="43.03809" lon="-1.02663">
        <ele>1327.35</ele>
        <time>2025-03-03T19:20:31Z</time>
      </trkpt>
      <trkpt lat="43.03813" lon="-1.02672">
        <ele>1328</ele>
        <time>2025-03-03T19:20:33Z</time>
      </trkpt>
      <trkpt lat="43.03814" lon="-1.02688">
        <ele>1328</ele>
        <time>2025-03-03T19:20:35Z</time>
      </trkpt>
      <trkpt lat="43.03806" lon="-1.02723">
        <ele>1327.95</ele>
        <time>2025-03-03T19:20:37Z</time>
      </trkpt>
      <trkpt lat="43.03784" lon="-1.02779">
        <ele>1329.63</ele>
        <time>2025-03-03T19:20:39Z</time>
      </trkpt>
      <trkpt lat="43.03764" lon="-1.02823">
        <ele>1331.57</ele>
        <time>2025-03-03T19:20:41Z</time>
      </trkpt>
      <trkpt lat="43.03741" lon="-1.02864">
        <ele>1331.22</ele>
        <time>2025-03-03T19:20:43Z</time>
      </trkpt>
      <trkpt lat="43.03684" lon="-1.02958">
        <ele>1336.65</ele>
        <time>2025-03-03T19:20:44Z</time>
      </trkpt>
      <trkpt lat="43.03679" lon="-1.02971">
        <ele>1336.94</ele>
        <time>2025-03-03T19:20:46Z</time>
      </trkpt>
      <trkpt lat="43.03668" lon="-1.03028">
        <ele>1334.62</ele>
        <time>2025-03-03T19:20:48Z</time>
      </trkpt>
      <trkpt lat="43.03661" lon="-1.03051">
        <ele>1335.33</ele>
        <time>2025-03-03T19:20:50Z</time>
      </trkpt>
      <trkpt lat="43.03616" lon="-1.03142">
        <ele>1333.59</ele>
        <time>2025-03-03T19:20:52Z</time>
      </trkpt>
      <trkpt lat="43.0359" lon="-1.03191">
        <ele>1336.29</ele>
        <time>2025-03-03T19:20:54Z</time>
      </trkpt>
      <trkpt lat="43.0358" lon="-1.03219">
        <ele>1334.88</ele>
        <time>2025-03-03T19:20:56Z</time>
      </trkpt>
      <trkpt lat="43.03576" lon="-1.03243">
        <ele>1333.06</ele>
        <time>2025-03-03T19:20:58Z</time>
      </trkpt>
      <trkpt lat="43.03576" lon="-1.03261">
        <ele>1331.57</ele>
        <time>2025-03-03T19:21:00Z</time>
      </trkpt>
      <trkpt lat="43.03579" lon="-1.03311">
        <ele>1330.83</ele>
        <time>2025-03-03T19:21:02Z</time>
      </trkpt>
      <trkpt lat="43.03579" lon="-1.03352">
        <ele>1331.61</ele>
        <time>2025-03-03T19:21:03Z</time>
      </trkpt>
      <trkpt lat="43.03584" lon="-1.03391">
        <ele>1330.03</ele>
        <time>2025-03-03T19:21:05Z</time>
      </trkpt>
      <trkpt lat="43.03589" lon="-1.03406">
        <ele>1329.97</ele>
        <time>2025-03-03T19:21:07Z</time>
      </trkpt>
      <trkpt lat="43.03597" lon="-1.0342">
        <ele>1328.8</ele>
        <time>2025-03-03T19:21:09Z</time>
      </trkpt>
      <trkpt lat="43.03609" lon="-1.03435">
        <ele>1326.59</ele>
        <time>2025-03-03T19:21:11Z</time>
      </trkpt>
      <trkpt lat="43.03628" lon="-1.03454">
        <ele>1325.5</ele>
        <time>2025-03-03T19:21:13Z</time>
      </trkpt>
      <trkpt lat="43.03654" lon="-1.03464">
        <ele>1324.04</ele>
        <time>2025-03-03T19:21:15Z</time>
      </trkpt>
      <trkpt lat="43.03664" lon="-1.03471">
        <ele>1323.39</ele>
        <time>2025-03-03T19:21:17Z</time>
      </trkpt>
      <trkpt lat="43.03668" lon="-1.03478">
        <ele>1323.04</ele>
        <time>2025-03-03T19:21:19Z</time>
      </trkpt>
      <trkpt lat="43.03671" lon="-1.03497">
        <ele>1323.02</ele>
        <time>2025-03-03T19:21:20Z</time>
      </trkpt>
      <trkpt lat="43.03667" lon="-1.03527">
        <ele>1322.05</ele>
        <time>2025-03-03T19:21:22Z</time>
      </trkpt>
      <trkpt lat="43.03662" lon="-1.03543">
        <ele>1320.73</ele>
        <time>2025-03-03T19:21:24Z</time>
      </trkpt>
      <trkpt lat="43.03608" lon="-1.03678">
        <ele>1316.61</ele>
        <time>2025-03-03T19:21:26Z</time>
      </trkpt>
      <trkpt lat="43.03588" lon="-1.03723">
        <ele>1312.17</ele>
        <time>2025-03-03T19:21:28Z</time>
      </trkpt>
      <trkpt lat="43.03571" lon="-1.03749">
        <ele>1314.32</ele>
        <time>2025-03-03T19:21:30Z</time>
      </trkpt>
      <trkpt lat="43.03569" lon="-1.03756">
        <ele>1314.44</ele>
        <time>2025-03-03T19:21:32Z</time>
      </trkpt>
      <trkpt lat="43.03571" lon="-1.03764">
        <ele>1313.14</ele>
        <time>2025-03-03T19:21:34Z</time>
      </trkpt>
      <trkpt lat="43.03575" lon="-1.03767">
        <ele>1310.85</ele>
        <time>2025-03-03T19:21:36Z</time>
      </trkpt>
      <trkpt lat="43.0358" lon="-1.03765">
        <ele>1309.28</ele>
        <time>2025-03-03T19:21:38Z</time>
      </trkpt>
      <trkpt lat="43.03591" lon="-1.03749">
        <ele>1307.22</ele>
        <time>2025-03-03T19:21:39Z</time>
      </trkpt>
      <trkpt lat="43.03599" lon="-1.03741">
        <ele>1306.92</ele>
        <time>2025-03-03T19:21:41Z</time>
      </trkpt>
      <trkpt lat="43.03635" lon="-1.0372">
        <ele>1303.35</ele>
        <time>2025-03-03T19:21:43Z</time>
      </trkpt>
      <trkpt lat="43.03672" lon="-1.03689">
        <ele>1301.71</ele>
        <time>2025-03-03T19:21:45Z</time>
      </trkpt>
      <trkpt lat="43.03685" lon="-1.03694">
        <ele>1301.06</ele>
        <time>2025-03-03T19:21:47Z</time>
      </trkpt>
      <trkpt lat="43.03688" lon="-1.037">
        <ele>1300.12</ele>
        <time>2025-03-03T19:21:49Z</time>
      </trkpt>
      <trkpt lat="43.03689" lon="-1.03706">
        <ele>1299.09</ele>
        <time>2025-03-03T19:21:51Z</time>
      </trkpt>
      <trkpt lat="43.03687" lon="-1.03712">
        <ele>1297.93</ele>
        <time>2025-03-03T19:21:53Z</time>
      </trkpt>
      <trkpt lat="43.03683" lon="-1.03717">
        <ele>1297.35</ele>
        <time>2025-03-03T19:21:55Z</time>
      </trkpt>
      <trkpt lat="43.03673" lon="-1.0372">
        <ele>1297.04</ele>
        <time>2025-03-03T19:21:56Z</time>
      </trkpt>
      <trkpt lat="43.03669" lon="-1.03724">
        <ele>1296.59</ele>
        <time>2025-03-03T19:21:58Z</time>
      </trkpt>
      <trkpt lat="43.03661" lon="-1.03738">
        <ele>1295.69</ele>
        <time>2025-03-03T19:22:00Z</time>
      </trkpt>
      <trkpt lat="43.0365" lon="-1.03773">
        <ele>1291.29</ele>
        <time>2025-03-03T19:22:02Z</time>
      </trkpt>
      <trkpt lat="43.03629" lon="-1.03814">
        <ele>1288.89</ele>
        <time>2025-03-03T19:22:04Z</time>
      </trkpt>
      <trkpt lat="43.03611" lon="-1.03845">
        <ele>1289.06</ele>
        <time>2025-03-03T19:22:06Z</time>
      </trkpt>
      <trkpt lat="43.03603" lon="-1.03862">
        <ele>1289.18</ele>
        <time>2025-03-03T19:22:08Z</time>
      </trkpt>
      <trkpt lat="43.03592" lon="-1.03894">
        <ele>1287.55</ele>
        <time>2025-03-03T19:22:10Z</time>
      </trkpt>
      <trkpt lat="43.03583" lon="-1.03914">
        <ele>1288.47</ele>
        <time>2025-03-03T19:22:12Z</time>
      </trkpt>
      <trkpt lat="43.03553" lon="-1.03964">
        <ele>1289.34</ele>
        <time>2025-03-03T19:22:14Z</time>
      </trkpt>
      <trkpt lat="43.03553" lon="-1.03971">
        <ele>1287.84</ele>
        <time>2025-03-03T19:22:15Z</time>
      </trkpt>
      <trkpt lat="43.03555" lon="-1.03977">
        <ele>1285.53</ele>
        <time>2025-03-03T19:22:17Z</time>
      </trkpt>
      <trkpt lat="43.03559" lon="-1.03979">
        <ele>1283.24</ele>
        <time>2025-03-03T19:22:19Z</time>
      </trkpt>
      <trkpt lat="43.03563" lon="-1.03977">
        <ele>1281.34</ele>
        <time>2025-03-03T19:22:21Z</time>
      </trkpt>
      <trkpt lat="43.03606" lon="-1.03937">
        <ele>1272.26</ele>
        <time>2025-03-03T19:22:23Z</time>
      </trkpt>
      <trkpt lat="43.03619" lon="-1.03921">
        <ele>1268.63</ele>
        <time>2025-03-03T19:22:25Z</time>
      </trkpt>
      <trkpt lat="43.03635" lon="-1.03895">
        <ele>1266.56</ele>
        <time>2025-03-03T19:22:27Z</time>
      </trkpt>
      <trkpt lat="43.0364" lon="-1.03892">
        <ele>1264.84</ele>
        <time>2025-03-03T19:22:29Z</time>
      </trkpt>
      <trkpt lat="43.03645" lon="-1.03893">
        <ele>1263.89</ele>
        <time>2025-03-03T19:22:31Z</time>
      </trkpt>
      <trkpt lat="43.0365" lon="-1.03903">
        <ele>1260.73</ele>
        <time>2025-03-03T19:22:33Z</time>
      </trkpt>
      <trkpt lat="43.03648" lon="-1.03915">
        <ele>1257.74</ele>
        <time>2025-03-03T19:22:34Z</time>
      </trkpt>
      <trkpt lat="43.03635" lon="-1.03968">
        <ele>1252.11</ele>
        <time>2025-03-03T19:22:36Z</time>
      </trkpt>
      <trkpt lat="43.03623" lon="-1.03993">
        <ele>1251.76</ele>
        <time>2025-03-03T19:22:38Z</time>
      </trkpt>
      <trkpt lat="43.03606" lon="-1.04015">
        <ele>1254.14</ele>
        <time>2025-03-03T19:22:40Z</time>
      </trkpt>
      <trkpt lat="43.03597" lon="-1.04036">
        <ele>1255.04</ele>
        <time>2025-03-03T19:22:42Z</time>
      </trkpt>
      <trkpt lat="43.03586" lon="-1.04095">
        <ele>1250.53</ele>
        <time>2025-03-03T19:22:44Z</time>
      </trkpt>
      <trkpt lat="43.0357" lon="-1.04158">
        <ele>1244.76</ele>
        <time>2025-03-03T19:22:46Z</time>
      </trkpt>
      <trkpt lat="43.03567" lon="-1.04179">
        <ele>1242.01</ele>
        <time>2025-03-03T19:22:48Z</time>
      </trkpt>
      <trkpt lat="43.03565" lon="-1.04196">
        <ele>1238.7</ele>
        <time>2025-03-03T19:22:50Z</time>
      </trkpt>
      <trkpt lat="43.03551" lon="-1.04253">
        <ele>1236.02</ele>
        <time>2025-03-03T19:22:51Z</time>
      </trkpt>
      <trkpt lat="43.03542" lon="-1.04278">
        <ele>1233.06</ele>
        <time>2025-03-03T19:22:53Z</time>
      </trkpt>
      <trkpt lat="43.03524" lon="-1.04308">
        <ele>1228.43</ele>
        <time>2025-03-03T19:22:55Z</time>
      </trkpt>
      <trkpt lat="43.03516" lon="-1.04329">
        <ele>1225.77</ele>
        <time>2025-03-03T19:22:57Z</time>
      </trkpt>
      <trkpt lat="43.03505" lon="-1.04361">
        <ele>1219.99</ele>
        <time>2025-03-03T19:22:59Z</time>
      </trkpt>
      <trkpt lat="43.035" lon="-1.04383">
        <ele>1214.72</ele>
        <time>2025-03-03T19:23:01Z</time>
      </trkpt>
      <trkpt lat="43.03494" lon="-1.04397">
        <ele>1212.25</ele>
        <time>2025-03-03T19:23:03Z</time>
      </trkpt>
      <trkpt lat="43.03486" lon="-1.04404">
        <ele>1211.58</ele>
        <time>2025-03-03T19:23:05Z</time>
      </trkpt>
      <trkpt lat="43.03462" lon="-1.04413">
        <ele>1211.65</ele>
        <time>2025-03-03T19:23:07Z</time>
      </trkpt>
      <trkpt lat="43.03457" lon="-1.04417">
        <ele>1210.47</ele>
        <time>2025-03-03T19:23:09Z</time>
      </trkpt>
      <trkpt lat="43.03455" lon="-1.04424">
        <ele>1208.82</ele>
        <time>2025-03-03T19:23:10Z</time>
      </trkpt>
      <trkpt lat="43.03457" lon="-1.04429">
        <ele>1207.9</ele>
        <time>2025-03-03T19:23:12Z</time>
      </trkpt>
      <trkpt lat="43.03461" lon="-1.04432">
        <ele>1207.33</ele>
        <time>2025-03-03T19:23:14Z</time>
      </trkpt>
      <trkpt lat="43.03472" lon="-1.04434">
        <ele>1207.41</ele>
        <time>2025-03-03T19:23:16Z</time>
      </trkpt>
      <trkpt lat="43.03495" lon="-1.04439">
        <ele>1204.21</ele>
        <time>2025-03-03T19:23:18Z</time>
      </trkpt>
      <trkpt lat="43.03515" lon="-1.04437">
        <ele>1202.8</ele>
        <time>2025-03-03T19:23:20Z</time>
      </trkpt>
      <trkpt lat="43.03532" lon="-1.04428">
        <ele>1202.88</ele>
        <time>2025-03-03T19:23:22Z</time>
      </trkpt>
      <trkpt lat="43.03562" lon="-1.04398">
        <ele>1204.09</ele>
        <time>2025-03-03T19:23:24Z</time>
      </trkpt>
      <trkpt lat="43.03569" lon="-1.04394">
        <ele>1203.29</ele>
        <time>2025-03-03T19:23:26Z</time>
      </trkpt>
      <trkpt lat="43.03577" lon="-1.04397">
        <ele>1201.17</ele>
        <time>2025-03-03T19:23:28Z</time>
      </trkpt>
      <trkpt lat="43.0358" lon="-1.04403">
        <ele>1199.61</ele>
        <time>2025-03-03T19:23:29Z</time>
      </trkpt>
      <trkpt lat="43.03581" lon="-1.04411">
        <ele>1198.23</ele>
        <time>2025-03-03T19:23:31Z</time>
      </trkpt>
      <trkpt lat="43.03567" lon="-1.04477">
        <ele>1193.26</ele>
        <time>2025-03-03T19:23:33Z</time>
      </trkpt>
      <trkpt lat="43.03562" lon="-1.04509">
        <ele>1193.14</ele>
        <time>2025-03-03T19:23:35Z</time>
      </trkpt>
      <trkpt lat="43.03563" lon="-1.0452">
        <ele>1192.71</ele>
        <time>2025-03-03T19:23:37Z</time>
      </trkpt>
      <trkpt lat="43.03567" lon="-1.04532">
        <ele>1191.54</ele>
        <time>2025-03-03T19:23:39Z</time>
      </trkpt>
      <trkpt lat="43.036" lon="-1.04585">
        <ele>1184.65</ele>
        <time>2025-03-03T19:23:41Z</time>
      </trkpt>
      <trkpt lat="43.03657" lon="-1.04693">
        <ele>1185.68</ele>
        <time>2025-03-03T19:23:43Z</time>
      </trkpt>
      <trkpt lat="43.03701" lon="-1.04767">
        <ele>1180.49</ele>
        <time>2025-03-03T19:23:45Z</time>
      </trkpt>
      <trkpt lat="43.03709" lon="-1.04795">
        <ele>1178.83</ele>
        <time>2025-03-03T19:23:46Z</time>
      </trkpt>
      <trkpt lat="43.03718" lon="-1.0486">
        <ele>1176.22</ele>
        <time>2025-03-03T19:23:48Z</time>
      </trkpt>
      <trkpt lat="43.03735" lon="-1.04959">
        <ele>1166.09</ele>
        <time>2025-03-03T19:23:50Z</time>
      </trkpt>
      <trkpt lat="43.03746" lon="-1.05003">
        <ele>1160.52</ele>
        <time>2025-03-03T19:23:52Z</time>
      </trkpt>
      <trkpt lat="43.03759" lon="-1.05027">
        <ele>1159.4</ele>
        <time>2025-03-03T19:23:54Z</time>
      </trkpt>
      <trkpt lat="43.03765" lon="-1.05048">
        <ele>1157.9</ele>
        <time>2025-03-03T19:23:56Z</time>
      </trkpt>
      <trkpt lat="43.03767" lon="-1.05106">
        <ele>1156.93</ele>
        <time>2025-03-03T19:23:58Z</time>
      </trkpt>
      <trkpt lat="43.03763" lon="-1.05175">
        <ele>1158.53</ele>
        <time>2025-03-03T19:24:00Z</time>
      </trkpt>
      <trkpt lat="43.03764" lon="-1.05239">
        <ele>1158.01</ele>
        <time>2025-03-03T19:24:02Z</time>
      </trkpt>
      <trkpt lat="43.0377" lon="-1.05294">
        <ele>1152.54</ele>
        <time>2025-03-03T19:24:04Z</time>
      </trkpt>
      <trkpt lat="43.03771" lon="-1.05344">
        <ele>1146.27</ele>
        <time>2025-03-03T19:24:05Z</time>
      </trkpt>
      <trkpt lat="43.03775" lon="-1.05378">
        <ele>1145.11</ele>
        <time>2025-03-03T19:24:07Z</time>
      </trkpt>
      <trkpt lat="43.03793" lon="-1.05457">
        <ele>1147.2</ele>
        <time>2025-03-03T19:24:09Z</time>
      </trkpt>
      <trkpt lat="43.03798" lon="-1.05492">
        <ele>1151.62</ele>
        <time>2025-03-03T19:24:11Z</time>
      </trkpt>
      <trkpt lat="43.0379" lon="-1.05534">
        <ele>1155.38</ele>
        <time>2025-03-03T19:24:13Z</time>
      </trkpt>
      <trkpt lat="43.0379" lon="-1.05552">
        <ele>1154.27</ele>
        <time>2025-03-03T19:24:15Z</time>
      </trkpt>
      <trkpt lat="43.03791" lon="-1.05561">
        <ele>1153.48</ele>
        <time>2025-03-03T19:24:17Z</time>
      </trkpt>
      <trkpt lat="43.03796" lon="-1.05574">
        <ele>1151.74</ele>
        <time>2025-03-03T19:24:19Z</time>
      </trkpt>
      <trkpt lat="43.03804" lon="-1.05587">
        <ele>1149.37</ele>
        <time>2025-03-03T19:24:21Z</time>
      </trkpt>
      <trkpt lat="43.0382" lon="-1.05607">
        <ele>1145.6</ele>
        <time>2025-03-03T19:24:22Z</time>
      </trkpt>
      <trkpt lat="43.03833" lon="-1.05621">
        <ele>1142.99</ele>
        <time>2025-03-03T19:24:24Z</time>
      </trkpt>
      <trkpt lat="43.03845" lon="-1.0563">
        <ele>1141.84</ele>
        <time>2025-03-03T19:24:26Z</time>
      </trkpt>
      <trkpt lat="43.03874" lon="-1.05645">
        <ele>1139.67</ele>
        <time>2025-03-03T19:24:28Z</time>
      </trkpt>
      <trkpt lat="43.03888" lon="-1.05655">
        <ele>1139.04</ele>
        <time>2025-03-03T19:24:30Z</time>
      </trkpt>
      <trkpt lat="43.0392" lon="-1.05686">
        <ele>1134.36</ele>
        <time>2025-03-03T19:24:32Z</time>
      </trkpt>
      <trkpt lat="43.03931" lon="-1.05692">
        <ele>1133.18</ele>
        <time>2025-03-03T19:24:34Z</time>
      </trkpt>
      <trkpt lat="43.03941" lon="-1.05695">
        <ele>1132.24</ele>
        <time>2025-03-03T19:24:36Z</time>
      </trkpt>
      <trkpt lat="43.03956" lon="-1.05701">
        <ele>1131.24</ele>
        <time>2025-03-03T19:24:38Z</time>
      </trkpt>
      <trkpt lat="43.03964" lon="-1.05708">
        <ele>1130.44</ele>
        <time>2025-03-03T19:24:40Z</time>
      </trkpt>
      <trkpt lat="43.03987" lon="-1.05739">
        <ele>1127.09</ele>
        <time>2025-03-03T19:24:41Z</time>
      </trkpt>
      <trkpt lat="43.04038" lon="-1.05815">
        <ele>1137.77</ele>
        <time>2025-03-03T19:24:43Z</time>
      </trkpt>
      <trkpt lat="43.0405" lon="-1.05829">
        <ele>1139.07</ele>
        <time>2025-03-03T19:24:45Z</time>
      </trkpt>
      <trkpt lat="43.04063" lon="-1.05839">
        <ele>1139.47</ele>
        <time>2025-03-03T19:24:47Z</time>
      </trkpt>
      <trkpt lat="43.04085" lon="-1.0585">
        <ele>1137.59</ele>
        <time>2025-03-03T19:24:49Z</time>
      </trkpt>
      <trkpt lat="43.04118" lon="-1.05852">
        <ele>1132.55</ele>
        <time>2025-03-03T19:24:51Z</time>
      </trkpt>
      <trkpt lat="43.04133" lon="-1.0585">
        <ele>1129.47</ele>
        <time>2025-03-03T19:24:53Z</time>
      </trkpt>
      <trkpt lat="43.04151" lon="-1.05843">
        <ele>1127.08</ele>
        <time>2025-03-03T19:24:55Z</time>
      </trkpt>
      <trkpt lat="43.04181" lon="-1.05827">
        <ele>1124.45</ele>
        <time>2025-03-03T19:24:57Z</time>
      </trkpt>
      <trkpt lat="43.04197" lon="-1.05813">
        <ele>1124.14</ele>
        <time>2025-03-03T19:24:59Z</time>
      </trkpt>
      <trkpt lat="43.04204" lon="-1.05803">
        <ele>1123.93</ele>
        <time>2025-03-03T19:25:00Z</time>
      </trkpt>
      <trkpt lat="43.04243" lon="-1.05737">
        <ele>1122.47</ele>
        <time>2025-03-03T19:25:02Z</time>
      </trkpt>
      <trkpt lat="43.04271" lon="-1.05673">
        <ele>1117.66</ele>
        <time>2025-03-03T19:25:04Z</time>
      </trkpt>
      <trkpt lat="43.04304" lon="-1.05607">
        <ele>1117.56</ele>
        <time>2025-03-03T19:25:06Z</time>
      </trkpt>
      <trkpt lat="43.04315" lon="-1.05572">
        <ele>1120.7</ele>
        <time>2025-03-03T19:25:08Z</time>
      </trkpt>
      <trkpt lat="43.0432" lon="-1.05559">
        <ele>1120.79</ele>
        <time>2025-03-03T19:25:10Z</time>
      </trkpt>
      <trkpt lat="43.04328" lon="-1.0555">
        <ele>1120.05</ele>
        <time>2025-03-03T19:25:12Z</time>
      </trkpt>
      <trkpt lat="43.04378" lon="-1.05526">
        <ele>1109.4</ele>
        <time>2025-03-03T19:25:14Z</time>
      </trkpt>
      <trkpt lat="43.04415" lon="-1.05503">
        <ele>1104.52</ele>
        <time>2025-03-03T19:25:16Z</time>
      </trkpt>
      <trkpt lat="43.04426" lon="-1.05502">
        <ele>1103.83</ele>
        <time>2025-03-03T19:25:17Z</time>
      </trkpt>
      <trkpt lat="43.04446" lon="-1.0551">
        <ele>1104.36</ele>
        <time>2025-03-03T19:25:19Z</time>
      </trkpt>
      <trkpt lat="43.04463" lon="-1.05511">
        <ele>1102.19</ele>
        <time>2025-03-03T19:25:21Z</time>
      </trkpt>
      <trkpt lat="43.04553" lon="-1.05476">
        <ele>1083.42</ele>
        <time>2025-03-03T19:25:23Z</time>
      </trkpt>
      <trkpt lat="43.04563" lon="-1.05476">
        <ele>1083.51</ele>
        <time>2025-03-03T19:25:25Z</time>
      </trkpt>
      <trkpt lat="43.0457" lon="-1.0548">
        <ele>1083.74</ele>
        <time>2025-03-03T19:25:27Z</time>
      </trkpt>
      <trkpt lat="43.04603" lon="-1.05525">
        <ele>1085.53</ele>
        <time>2025-03-03T19:25:29Z</time>
      </trkpt>
      <trkpt lat="43.04624" lon="-1.05547">
        <ele>1086.98</ele>
        <time>2025-03-03T19:25:31Z</time>
      </trkpt>
      <trkpt lat="43.04645" lon="-1.05575">
        <ele>1087.55</ele>
        <time>2025-03-03T19:25:33Z</time>
      </trkpt>
      <trkpt lat="43.04688" lon="-1.05607">
        <ele>1087.48</ele>
        <time>2025-03-03T19:25:35Z</time>
      </trkpt>
      <trkpt lat="43.04703" lon="-1.05622">
        <ele>1088.36</ele>
        <time>2025-03-03T19:25:36Z</time>
      </trkpt>
      <trkpt lat="43.04715" lon="-1.05639">
        <ele>1089.37</ele>
        <time>2025-03-03T19:25:38Z</time>
      </trkpt>
      <trkpt lat="43.04723" lon="-1.05656">
        <ele>1088.76</ele>
        <time>2025-03-03T19:25:40Z</time>
      </trkpt>
      <trkpt lat="43.04729" lon="-1.05675">
        <ele>1088.02</ele>
        <time>2025-03-03T19:25:42Z</time>
      </trkpt>
      <trkpt lat="43.04764" lon="-1.05795">
        <ele>1078.64</ele>
        <time>2025-03-03T19:25:44Z</time>
      </trkpt>
      <trkpt lat="43.0478" lon="-1.05838">
        <ele>1076.44</ele>
        <time>2025-03-03T19:25:46Z</time>
      </trkpt>
      <trkpt lat="43.04791" lon="-1.05856">
        <ele>1077.3</ele>
        <time>2025-03-03T19:25:48Z</time>
      </trkpt>
      <trkpt lat="43.048" lon="-1.05865">
        <ele>1078.42</ele>
        <time>2025-03-03T19:25:50Z</time>
      </trkpt>
      <trkpt lat="43.04813" lon="-1.05874">
        <ele>1080.1</ele>
        <time>2025-03-03T19:25:52Z</time>
      </trkpt>
      <trkpt lat="43.04847" lon="-1.05888">
        <ele>1086.6</ele>
        <time>2025-03-03T19:25:53Z</time>
      </trkpt>
      <trkpt lat="43.04856" lon="-1.05897">
        <ele>1086.64</ele>
        <time>2025-03-03T19:25:55Z</time>
      </trkpt>
      <trkpt lat="43.04872" lon="-1.05918">
        <ele>1084.19</ele>
        <time>2025-03-03T19:25:57Z</time>
      </trkpt>
      <trkpt lat="43.04878" lon="-1.05929">
        <ele>1083.17</ele>
        <time>2025-03-03T19:25:59Z</time>
      </trkpt>
      <trkpt lat="43.04882" lon="-1.05945">
        <ele>1080.56</ele>
        <time>2025-03-03T19:26:01Z</time>
      </trkpt>
      <trkpt lat="43.04889" lon="-1.06001">
        <ele>1072.05</ele>
        <time>2025-03-03T19:26:03Z</time>
      </trkpt>
      <trkpt lat="43.0489" lon="-1.06021">
        <ele>1070.89</ele>
        <time>2025-03-03T19:26:05Z</time>
      </trkpt>
      <trkpt lat="43.04888" lon="-1.0604">
        <ele>1069.25</ele>
        <time>2025-03-03T19:26:07Z</time>
      </trkpt>
      <trkpt lat="43.04873" lon="-1.06112">
        <ele>1064.21</ele>
        <time>2025-03-03T19:26:09Z</time>
      </trkpt>
      <trkpt lat="43.04882" lon="-1.06207">
        <ele>1064.09</ele>
        <time>2025-03-03T19:26:11Z</time>
      </trkpt>
      <trkpt lat="43.04882" lon="-1.06223">
        <ele>1064.48</ele>
        <time>2025-03-03T19:26:12Z</time>
      </trkpt>
      <trkpt lat="43.04879" lon="-1.06238">
        <ele>1064.49</ele>
        <time>2025-03-03T19:26:14Z</time>
      </trkpt>
      <trkpt lat="43.04869" lon="-1.06272">
        <ele>1064.3</ele>
        <time>2025-03-03T19:26:16Z</time>
      </trkpt>
      <trkpt lat="43.04869" lon="-1.0628">
        <ele>1064.13</ele>
        <time>2025-03-03T19:26:18Z</time>
      </trkpt>
      <trkpt lat="43.04871" lon="-1.0629">
        <ele>1063.46</ele>
        <time>2025-03-03T19:26:20Z</time>
      </trkpt>
      <trkpt lat="43.04874" lon="-1.06297">
        <ele>1063.1</ele>
        <time>2025-03-03T19:26:22Z</time>
      </trkpt>
      <trkpt lat="43.0488" lon="-1.06302">
        <ele>1062.96</ele>
        <time>2025-03-03T19:26:24Z</time>
      </trkpt>
      <trkpt lat="43.04889" lon="-1.06305">
        <ele>1063.05</ele>
        <time>2025-03-03T19:26:26Z</time>
      </trkpt>
      <trkpt lat="43.0496" lon="-1.06308">
        <ele>1059.24</ele>
        <time>2025-03-03T19:26:28Z</time>
      </trkpt>
      <trkpt lat="43.04972" lon="-1.06313">
        <ele>1056.7</ele>
        <time>2025-03-03T19:26:30Z</time>
      </trkpt>
      <trkpt lat="43.04985" lon="-1.06322">
        <ele>1054.45</ele>
        <time>2025-03-03T19:26:31Z</time>
      </trkpt>
      <trkpt lat="43.05009" lon="-1.06345">
        <ele>1050.33</ele>
        <time>2025-03-03T19:26:33Z</time>
      </trkpt>
      <trkpt lat="43.05019" lon="-1.0636">
        <ele>1048.15</ele>
        <time>2025-03-03T19:26:35Z</time>
      </trkpt>
      <trkpt lat="43.05025" lon="-1.06375">
        <ele>1045.98</ele>
        <time>2025-03-03T19:26:37Z</time>
      </trkpt>
      <trkpt lat="43.05036" lon="-1.06422">
        <ele>1039.33</ele>
        <time>2025-03-03T19:26:39Z</time>
      </trkpt>
      <trkpt lat="43.05062" lon="-1.06501">
        <ele>1036.9</ele>
        <time>2025-03-03T19:26:41Z</time>
      </trkpt>
      <trkpt lat="43.0507" lon="-1.0654">
        <ele>1035.39</ele>
        <time>2025-03-03T19:26:43Z</time>
      </trkpt>
      <trkpt lat="43.05075" lon="-1.06556">
        <ele>1033.95</ele>
        <time>2025-03-03T19:26:45Z</time>
      </trkpt>
      <trkpt lat="43.05082" lon="-1.06572">
        <ele>1031.72</ele>
        <time>2025-03-03T19:26:47Z</time>
      </trkpt>
      <trkpt lat="43.05121" lon="-1.06633">
        <ele>1030.92</ele>
        <time>2025-03-03T19:26:48Z</time>
      </trkpt>
      <trkpt lat="43.05125" lon="-1.06643">
        <ele>1030.68</ele>
        <time>2025-03-03T19:26:50Z</time>
      </trkpt>
      <trkpt lat="43.05127" lon="-1.06655">
        <ele>1029.8</ele>
        <time>2025-03-03T19:26:52Z</time>
      </trkpt>
      <trkpt lat="43.05127" lon="-1.06672">
        <ele>1028.58</ele>
        <time>2025-03-03T19:26:54Z</time>
      </trkpt>
      <trkpt lat="43.05117" lon="-1.06701">
        <ele>1026.97</ele>
        <time>2025-03-03T19:26:56Z</time>
      </trkpt>
      <trkpt lat="43.05037" lon="-1.06805">
        <ele>1050.25</ele>
        <time>2025-03-03T19:26:58Z</time>
      </trkpt>
      <trkpt lat="43.0503" lon="-1.06828">
        <ele>1050.65</ele>
        <time>2025-03-03T19:27:00Z</time>
      </trkpt>
      <trkpt lat="43.05027" lon="-1.0685">
        <ele>1051.24</ele>
        <time>2025-03-03T19:27:02Z</time>
      </trkpt>
      <trkpt lat="43.05028" lon="-1.06873">
        <ele>1049.75</ele>
        <time>2025-03-03T19:27:04Z</time>
      </trkpt>
      <trkpt lat="43.0505" lon="-1.06937">
        <ele>1042.22</ele>
        <time>2025-03-03T19:27:06Z</time>
      </trkpt>
      <trkpt lat="43.05052" lon="-1.0696">
        <ele>1042.09</ele>
        <time>2025-03-03T19:27:07Z</time>
      </trkpt>
      <trkpt lat="43.05044" lon="-1.06986">
        <ele>1044.44</ele>
        <time>2025-03-03T19:27:09Z</time>
      </trkpt>
      <trkpt lat="43.05005" lon="-1.07057">
        <ele>1048.1</ele>
        <time>2025-03-03T19:27:11Z</time>
      </trkpt>
      <trkpt lat="43.04959" lon="-1.07124">
        <ele>1039.69</ele>
        <time>2025-03-03T19:27:13Z</time>
      </trkpt>
      <trkpt lat="43.04905" lon="-1.07165">
        <ele>1034.15</ele>
        <time>2025-03-03T19:27:15Z</time>
      </trkpt>
      <trkpt lat="43.04843" lon="-1.07203">
        <ele>1022.34</ele>
        <time>2025-03-03T19:27:17Z</time>
      </trkpt>
      <trkpt lat="43.04811" lon="-1.07231">
        <ele>1019.88</ele>
        <time>2025-03-03T19:27:19Z</time>
      </trkpt>
      <trkpt lat="43.0476" lon="-1.07292">
        <ele>1014.64</ele>
        <time>2025-03-03T19:27:21Z</time>
      </trkpt>
      <trkpt lat="43.0475" lon="-1.07299">
        <ele>1013.66</ele>
        <time>2025-03-03T19:27:23Z</time>
      </trkpt>
      <trkpt lat="43.04735" lon="-1.07303">
        <ele>1012.86</ele>
        <time>2025-03-03T19:27:25Z</time>
      </trkpt>
      <trkpt lat="43.04697" lon="-1.07303">
        <ele>1011.45</ele>
        <time>2025-03-03T19:27:26Z</time>
      </trkpt>
      <trkpt lat="43.0469" lon="-1.07309">
        <ele>1010.37</ele>
        <time>2025-03-03T19:27:28Z</time>
      </trkpt>
      <trkpt lat="43.04688" lon="-1.07316">
        <ele>1009.45</ele>
        <time>2025-03-03T19:27:31Z</time>
        <extensions>
          <visugpx:TrkExtension xmlns:visugpx="https://www.visugpx.com/editgpx/">
            <visugpx:node>1</visugpx:node>
            </visugpx:TrkExtension>
        </extensions>
      </trkpt>
      <trkpt lat="43.04696" lon="-1.0732">
        <ele>1002.7</ele>
        <extensions>
          <visugpx:TrkExtension xmlns:visugpx="https://www.visugpx.com/editgpx/">
            <visugpx:node>2</visugpx:node>
            </visugpx:TrkExtension>
        </extensions>
      </trkpt>
      <trkpt lat="43.04703" lon="-1.07324">
        <ele>1006.3</ele>
      </trkpt>
      <trkpt lat="43.04726" lon="-1.07334">
        <ele>1005.8</ele>
      </trkpt>
      <trkpt lat="43.04749" lon="-1.07328">
        <ele>1005.6</ele>
      </trkpt>
      <trkpt lat="43.04791" lon="-1.07304">
        <ele>1006.2</ele>
      </trkpt>
      <trkpt lat="43.04802" lon="-1.07303">
        <ele>1005.5</ele>
      </trkpt>
      <trkpt lat="43.0482" lon="-1.07309">
        <ele>1005.5</ele>
      </trkpt>
      <trkpt lat="43.04834" lon="-1.07318">
        <ele>1006.6</ele>
      </trkpt>
      <trkpt lat="43.04848" lon="-1.07331">
        <ele>1010.5</ele>
      </trkpt>
      <trkpt lat="43.04901" lon="-1.0739">
        <ele>1019.7</ele>
      </trkpt>
      <trkpt lat="43.04937" lon="-1.07433">
        <ele>1021.4</ele>
      </trkpt>
      <trkpt lat="43.04956" lon="-1.07451">
        <ele>1021</ele>
      </trkpt>
      <trkpt lat="43.04978" lon="-1.07466">
        <ele>1021.1</ele>
      </trkpt>
      <trkpt lat="43.05025" lon="-1.07485">
        <ele>1020</ele>
      </trkpt>
      <trkpt lat="43.05072" lon="-1.0751">
        <ele>1021.1</ele>
      </trkpt>
      <trkpt lat="43.05081" lon="-1.07516">
        <ele>1021</ele>
      </trkpt>
      <trkpt lat="43.05109" lon="-1.07542">
        <ele>1025.8</ele>
      </trkpt>
      <trkpt lat="43.05118" lon="-1.07547">
        <ele>1025.8</ele>
      </trkpt>
      <trkpt lat="43.05129" lon="-1.07548">
        <ele>1026.5</ele>
      </trkpt>
      <trkpt lat="43.05135" lon="-1.07546">
        <ele>1027.7</ele>
      </trkpt>
      <trkpt lat="43.05163" lon="-1.07526">
        <ele>1031</ele>
      </trkpt>
      <trkpt lat="43.05169" lon="-1.07523">
        <ele>1031.3</ele>
      </trkpt>
      <trkpt lat="43.05183" lon="-1.0752">
        <ele>1032.7</ele>
      </trkpt>
      <trkpt lat="43.05191" lon="-1.07521">
        <ele>1032.8</ele>
      </trkpt>
      <trkpt lat="43.05263" lon="-1.07542">
        <ele>1037.5</ele>
      </trkpt>
      <trkpt lat="43.05284" lon="-1.07551">
        <ele>1039.2</ele>
      </trkpt>
      <trkpt lat="43.05392" lon="-1.0765">
        <ele>1038.1</ele>
      </trkpt>
      <trkpt lat="43.05404" lon="-1.07657">
        <ele>1038.4</ele>
      </trkpt>
      <trkpt lat="43.05416" lon="-1.07659">
        <ele>1040.3</ele>
      </trkpt>
      <trkpt lat="43.05437" lon="-1.07659">
        <ele>1046.3</ele>
      </trkpt>
      <trkpt lat="43.05445" lon="-1.07662">
        <ele>1047.8</ele>
      </trkpt>
      <trkpt lat="43.05448" lon="-1.07665">
        <ele>1048.3</ele>
      </trkpt>
      <trkpt lat="43.05453" lon="-1.0768">
        <ele>1050.9</ele>
      </trkpt>
      <trkpt lat="43.05448" lon="-1.0771">
        <ele>1049.6</ele>
      </trkpt>
      <trkpt lat="43.05449" lon="-1.07725">
        <ele>1050.3</ele>
      </trkpt>
      <trkpt lat="43.05453" lon="-1.07736">
        <ele>1050.8</ele>
      </trkpt>
      <trkpt lat="43.05488" lon="-1.0778">
        <ele>1056.5</ele>
      </trkpt>
      <trkpt lat="43.05517" lon="-1.07799">
        <ele>1058.9</ele>
      </trkpt>
      <trkpt lat="43.0555" lon="-1.07813">
        <ele>1059.5</ele>
      </trkpt>
      <trkpt lat="43.05569" lon="-1.07816">
        <ele>1058.2</ele>
      </trkpt>
      <trkpt lat="43.05591" lon="-1.07808">
        <ele>1058.6</ele>
      </trkpt>
      <trkpt lat="43.05615" lon="-1.07789">
        <ele>1061.4</ele>
      </trkpt>
      <trkpt lat="43.05621" lon="-1.07786">
        <ele>1062.1</ele>
      </trkpt>
      <trkpt lat="43.05633" lon="-1.07784">
        <ele>1061.6</ele>
      </trkpt>
      <trkpt lat="43.05641" lon="-1.07787">
        <ele>1060.9</ele>
      </trkpt>
      <trkpt lat="43.05647" lon="-1.07796">
        <ele>1060.8</ele>
      </trkpt>
      <trkpt lat="43.0565" lon="-1.07808">
        <ele>1061.3</ele>
      </trkpt>
      <trkpt lat="43.05649" lon="-1.07821">
        <ele>1063.8</ele>
      </trkpt>
      <trkpt lat="43.05641" lon="-1.07855">
        <ele>1066.2</ele>
      </trkpt>
      <trkpt lat="43.0564" lon="-1.07864">
        <ele>1066.8</ele>
      </trkpt>
      <trkpt lat="43.05641" lon="-1.07881">
        <ele>1068.5</ele>
      </trkpt>
      <trkpt lat="43.05647" lon="-1.07898">
        <ele>1071</ele>
      </trkpt>
      <trkpt lat="43.05685" lon="-1.07968">
        <ele>1078.3</ele>
      </trkpt>
      <trkpt lat="43.05702" lon="-1.07988">
        <ele>1080.8</ele>
      </trkpt>
      <trkpt lat="43.05789" lon="-1.08077">
        <ele>1086.2</ele>
      </trkpt>
      <trkpt lat="43.05796" lon="-1.08082">
        <ele>1086.1</ele>
      </trkpt>
      <trkpt lat="43.0582" lon="-1.08087">
        <ele>1090.6</ele>
      </trkpt>
      <trkpt lat="43.05833" lon="-1.08094">
        <ele>1091.8</ele>
      </trkpt>
      <trkpt lat="43.05842" lon="-1.08108">
        <ele>1091.7</ele>
      </trkpt>
      <trkpt lat="43.05856" lon="-1.08138">
        <ele>1093.9</ele>
      </trkpt>
      <trkpt lat="43.05863" lon="-1.08148">
        <ele>1094.5</ele>
      </trkpt>
      <trkpt lat="43.05941" lon="-1.08223">
        <ele>1102.6</ele>
      </trkpt>
      <trkpt lat="43.05962" lon="-1.08247">
        <ele>1105</ele>
      </trkpt>
      <trkpt lat="43.05984" lon="-1.0828">
        <ele>1106.6</ele>
      </trkpt>
      <trkpt lat="43.06016" lon="-1.08342">
        <ele>1109.9</ele>
      </trkpt>
      <trkpt lat="43.06033" lon="-1.08369">
        <ele>1111.1</ele>
      </trkpt>
      <trkpt lat="43.06053" lon="-1.08388">
        <ele>1112.5</ele>
      </trkpt>
      <trkpt lat="43.06078" lon="-1.08406">
        <ele>1115.5</ele>
      </trkpt>
      <trkpt lat="43.06119" lon="-1.08447">
        <ele>1118.6</ele>
      </trkpt>
      <trkpt lat="43.06151" lon="-1.0847">
        <ele>1121.2</ele>
      </trkpt>
      <trkpt lat="43.06161" lon="-1.08479">
        <ele>1121.4</ele>
      </trkpt>
      <trkpt lat="43.06184" lon="-1.08505">
        <ele>1122.7</ele>
      </trkpt>
      <trkpt lat="43.06201" lon="-1.08531">
        <ele>1124.9</ele>
      </trkpt>
      <trkpt lat="43.06215" lon="-1.08559">
        <ele>1127.5</ele>
      </trkpt>
      <trkpt lat="43.06245" lon="-1.08667">
        <ele>1131.9</ele>
      </trkpt>
      <trkpt lat="43.06276" lon="-1.0875">
        <ele>1132.3</ele>
      </trkpt>
      <trkpt lat="43.06286" lon="-1.08801">
        <ele>1131.5</ele>
      </trkpt>
      <trkpt lat="43.06293" lon="-1.08823">
        <ele>1130.5</ele>
      </trkpt>
      <trkpt lat="43.06298" lon="-1.08832">
        <ele>1128.9</ele>
      </trkpt>
      <trkpt lat="43.06313" lon="-1.08849">
        <ele>1127.6</ele>
      </trkpt>
      <trkpt lat="43.0635" lon="-1.08877">
        <ele>1126.4</ele>
      </trkpt>
      <trkpt lat="43.06368" lon="-1.08886">
        <ele>1126.3</ele>
      </trkpt>
      <trkpt lat="43.06378" lon="-1.08887">
        <ele>1125</ele>
      </trkpt>
      <trkpt lat="43.06422" lon="-1.08883">
        <ele>1120.6</ele>
      </trkpt>
      <trkpt lat="43.06457" lon="-1.08891">
        <ele>1123</ele>
      </trkpt>
      <trkpt lat="43.06466" lon="-1.0889">
        <ele>1123.2</ele>
      </trkpt>
      <trkpt lat="43.06491" lon="-1.08878">
        <ele>1121.8</ele>
      </trkpt>
      <trkpt lat="43.06515" lon="-1.08869">
        <ele>1121.6</ele>
      </trkpt>
      <trkpt lat="43.06531" lon="-1.08865">
        <ele>1121.4</ele>
      </trkpt>
      <trkpt lat="43.06538" lon="-1.08866">
        <ele>1121</ele>
      </trkpt>
      <trkpt lat="43.06544" lon="-1.08869">
        <ele>1120.8</ele>
      </trkpt>
      <trkpt lat="43.0655" lon="-1.08875">
        <ele>1120.4</ele>
      </trkpt>
      <trkpt lat="43.06555" lon="-1.08884">
        <ele>1119.2</ele>
      </trkpt>
      <trkpt lat="43.06565" lon="-1.08913">
        <ele>1119.7</ele>
      </trkpt>
      <trkpt lat="43.06576" lon="-1.08933">
        <ele>1119.5</ele>
      </trkpt>
      <trkpt lat="43.06583" lon="-1.08941">
        <ele>1118.1</ele>
      </trkpt>
      <trkpt lat="43.06601" lon="-1.08955">
        <ele>1117.9</ele>
      </trkpt>
      <trkpt lat="43.06657" lon="-1.08989">
        <ele>1116.3</ele>
      </trkpt>
      <trkpt lat="43.06697" lon="-1.08999">
        <ele>1110.6</ele>
      </trkpt>
      <trkpt lat="43.06719" lon="-1.09002">
        <ele>1107.3</ele>
      </trkpt>
      <trkpt lat="43.06737" lon="-1.08997">
        <ele>1105.2</ele>
      </trkpt>
      <trkpt lat="43.06755" lon="-1.08987">
        <ele>1099.5</ele>
      </trkpt>
      <trkpt lat="43.06765" lon="-1.08983">
        <ele>1096.1</ele>
      </trkpt>
      <trkpt lat="43.06772" lon="-1.08982">
        <ele>1095</ele>
      </trkpt>
      <trkpt lat="43.06789" lon="-1.08986">
        <ele>1094.9</ele>
      </trkpt>
      <trkpt lat="43.06813" lon="-1.08999">
        <ele>1096.3</ele>
      </trkpt>
      <trkpt lat="43.06821" lon="-1.09006">
        <ele>1095.1</ele>
      </trkpt>
      <trkpt lat="43.06826" lon="-1.09013">
        <ele>1094.2</ele>
      </trkpt>
      <trkpt lat="43.06829" lon="-1.09031">
        <ele>1093.8</ele>
      </trkpt>
      <trkpt lat="43.06825" lon="-1.0905">
        <ele>1091.7</ele>
      </trkpt>
      <trkpt lat="43.06798" lon="-1.09113">
        <ele>1088.6</ele>
      </trkpt>
      <trkpt lat="43.06795" lon="-1.09125">
        <ele>1088.8</ele>
      </trkpt>
      <trkpt lat="43.06795" lon="-1.09141">
        <ele>1087.9</ele>
      </trkpt>
      <trkpt lat="43.06798" lon="-1.09148">
        <ele>1087.1</ele>
      </trkpt>
      <trkpt lat="43.06802" lon="-1.09153">
        <ele>1085.9</ele>
      </trkpt>
      <trkpt lat="43.06806" lon="-1.09155">
        <ele>1084.4</ele>
      </trkpt>
      <trkpt lat="43.06811" lon="-1.09155">
        <ele>1082.8</ele>
      </trkpt>
      <trkpt lat="43.06815" lon="-1.09152">
        <ele>1081.4</ele>
      </trkpt>
      <trkpt lat="43.06839" lon="-1.09107">
        <ele>1077</ele>
      </trkpt>
      <trkpt lat="43.06869" lon="-1.09066">
        <ele>1073</ele>
      </trkpt>
      <trkpt lat="43.06904" lon="-1.09026">
        <ele>1067.1</ele>
      </trkpt>
      <trkpt lat="43.06934" lon="-1.08995">
        <ele>1060.7</ele>
      </trkpt>
      <trkpt lat="43.06942" lon="-1.08992">
        <ele>1059.2</ele>
      </trkpt>
      <trkpt lat="43.06945" lon="-1.08993">
        <ele>1059.1</ele>
      </trkpt>
      <trkpt lat="43.06948" lon="-1.08997">
        <ele>1059.6</ele>
      </trkpt>
      <trkpt lat="43.06949" lon="-1.09002">
        <ele>1059.9</ele>
      </trkpt>
      <trkpt lat="43.06947" lon="-1.09015">
        <ele>1058.2</ele>
      </trkpt>
      <trkpt lat="43.06927" lon="-1.09052">
        <ele>1055.8</ele>
      </trkpt>
      <trkpt lat="43.06914" lon="-1.09083">
        <ele>1053.9</ele>
      </trkpt>
      <trkpt lat="43.06909" lon="-1.09099">
        <ele>1053.4</ele>
      </trkpt>
      <trkpt lat="43.06905" lon="-1.09124">
        <ele>1052.3</ele>
      </trkpt>
      <trkpt lat="43.06909" lon="-1.09145">
        <ele>1050</ele>
      </trkpt>
      <trkpt lat="43.06914" lon="-1.09154">
        <ele>1048.5</ele>
      </trkpt>
      <trkpt lat="43.06921" lon="-1.09162">
        <ele>1046.1</ele>
      </trkpt>
      <trkpt lat="43.06963" lon="-1.09202">
        <ele>1038.3</ele>
      </trkpt>
      <trkpt lat="43.06981" lon="-1.09218">
        <ele>1036.7</ele>
      </trkpt>
      <trkpt lat="43.07051" lon="-1.09272">
        <ele>1028</ele>
      </trkpt>
      <trkpt lat="43.07078" lon="-1.093">
        <ele>1027.1</ele>
      </trkpt>
      <trkpt lat="43.07082" lon="-1.09302">
        <ele>1026.3</ele>
      </trkpt>
      <trkpt lat="43.07085" lon="-1.09302">
        <ele>1025.2</ele>
      </trkpt>
      <trkpt lat="43.0709" lon="-1.09297">
        <ele>1021.6</ele>
      </trkpt>
      <trkpt lat="43.0709" lon="-1.09287">
        <ele>1018.3</ele>
      </trkpt>
      <trkpt lat="43.07063" lon="-1.09245">
        <ele>1015.5</ele>
      </trkpt>
      <trkpt lat="43.07048" lon="-1.09218">
        <ele>1012.7</ele>
      </trkpt>
      <trkpt lat="43.07027" lon="-1.09161">
        <ele>1007.9</ele>
      </trkpt>
      <trkpt lat="43.07025" lon="-1.09152">
        <ele>1007.9</ele>
      </trkpt>
      <trkpt lat="43.07026" lon="-1.09138">
        <ele>1006.7</ele>
      </trkpt>
      <trkpt lat="43.07034" lon="-1.09126">
        <ele>1005.8</ele>
      </trkpt>
      <trkpt lat="43.07075" lon="-1.09093">
        <ele>999.2</ele>
      </trkpt>
      <trkpt lat="43.07102" lon="-1.09069">
        <ele>995.9</ele>
      </trkpt>
      <trkpt lat="43.07128" lon="-1.09043">
        <ele>993.1</ele>
      </trkpt>
      <trkpt lat="43.07152" lon="-1.09016">
        <ele>990.8</ele>
      </trkpt>
      <trkpt lat="43.0716" lon="-1.09009">
        <ele>990</ele>
      </trkpt>
      <trkpt lat="43.07167" lon="-1.09006">
        <ele>989.3</ele>
      </trkpt>
      <trkpt lat="43.0717" lon="-1.09007">
        <ele>989</ele>
      </trkpt>
      <trkpt lat="43.07174" lon="-1.09013">
        <ele>987.8</ele>
      </trkpt>
      <trkpt lat="43.07174" lon="-1.09019">
        <ele>987</ele>
      </trkpt>
      <trkpt lat="43.07172" lon="-1.09024">
        <ele>986.6</ele>
      </trkpt>
      <trkpt lat="43.07147" lon="-1.09047">
        <ele>986.4</ele>
      </trkpt>
      <trkpt lat="43.0714" lon="-1.09056">
        <ele>985.6</ele>
      </trkpt>
      <trkpt lat="43.07104" lon="-1.09115">
        <ele>983.8</ele>
      </trkpt>
      <trkpt lat="43.07092" lon="-1.09131">
        <ele>985.6</ele>
      </trkpt>
      <trkpt lat="43.07089" lon="-1.09137">
        <ele>985.6</ele>
      </trkpt>
      <trkpt lat="43.07088" lon="-1.09144">
        <ele>986.2</ele>
      </trkpt>
      <trkpt lat="43.07089" lon="-1.09151">
        <ele>986.6</ele>
      </trkpt>
      <trkpt lat="43.07095" lon="-1.09161">
        <ele>985.7</ele>
      </trkpt>
      <trkpt lat="43.07136" lon="-1.09195">
        <ele>977.1</ele>
      </trkpt>
      <trkpt lat="43.07191" lon="-1.09259">
        <ele>966.9</ele>
      </trkpt>
      <trkpt lat="43.07229" lon="-1.09294">
        <ele>956.7</ele>
      </trkpt>
      <trkpt lat="43.07237" lon="-1.09304">
        <ele>955.2</ele>
      </trkpt>
      <trkpt lat="43.07259" lon="-1.09337">
        <ele>951.8</ele>
      </trkpt>
      <trkpt lat="43.07289" lon="-1.09394">
        <ele>951.2</ele>
      </trkpt>
      <trkpt lat="43.07335" lon="-1.09495">
        <ele>946.4</ele>
      </trkpt>
      <trkpt lat="43.07344" lon="-1.09511">
        <ele>945.5</ele>
      </trkpt>
      <trkpt lat="43.07369" lon="-1.09543">
        <ele>941.1</ele>
      </trkpt>
      <trkpt lat="43.07388" lon="-1.0956">
        <ele>937.1</ele>
      </trkpt>
      <trkpt lat="43.07463" lon="-1.09614">
        <ele>923.1</ele>
      </trkpt>
      <trkpt lat="43.07487" lon="-1.09639">
        <ele>921.3</ele>
      </trkpt>
      <trkpt lat="43.07555" lon="-1.0972">
        <ele>910.9</ele>
      </trkpt>
      <trkpt lat="43.07596" lon="-1.09759">
        <ele>906</ele>
      </trkpt>
      <trkpt lat="43.07636" lon="-1.09784">
        <ele>902</ele>
      </trkpt>
      <trkpt lat="43.07651" lon="-1.09791">
        <ele>900.9</ele>
      </trkpt>
      <trkpt lat="43.07667" lon="-1.09796">
        <ele>899.7</ele>
      </trkpt>
      <trkpt lat="43.07722" lon="-1.09806">
        <ele>895.9</ele>
      </trkpt>
      <trkpt lat="43.0775" lon="-1.09818">
        <ele>894.4</ele>
      </trkpt>
      <trkpt lat="43.07764" lon="-1.09826">
        <ele>893.1</ele>
      </trkpt>
      <trkpt lat="43.07827" lon="-1.09875">
        <ele>887.7</ele>
      </trkpt>
      <trkpt lat="43.07891" lon="-1.09918">
        <ele>881.8</ele>
      </trkpt>
      <trkpt lat="43.07907" lon="-1.09927">
        <ele>880.7</ele>
      </trkpt>
      <trkpt lat="43.07937" lon="-1.09937">
        <ele>878.2</ele>
      </trkpt>
      <trkpt lat="43.07947" lon="-1.09937">
        <ele>877.7</ele>
      </trkpt>
      <trkpt lat="43.0797" lon="-1.09932">
        <ele>875</ele>
      </trkpt>
      <trkpt lat="43.0799" lon="-1.09923">
        <ele>873.2</ele>
      </trkpt>
      <trkpt lat="43.07998" lon="-1.09917">
        <ele>873.3</ele>
      </trkpt>
      <trkpt lat="43.08019" lon="-1.09895">
        <ele>871.2</ele>
      </trkpt>
      <trkpt lat="43.08028" lon="-1.09891">
        <ele>870.2</ele>
      </trkpt>
      <trkpt lat="43.08037" lon="-1.0989">
        <ele>870.3</ele>
      </trkpt>
      <trkpt lat="43.08047" lon="-1.09892">
        <ele>869.2</ele>
      </trkpt>
      <trkpt lat="43.08054" lon="-1.09895">
        <ele>868.1</ele>
      </trkpt>
      <trkpt lat="43.08062" lon="-1.09901">
        <ele>868.1</ele>
      </trkpt>
      <trkpt lat="43.08117" lon="-1.09964">
        <ele>862.3</ele>
      </trkpt>
      <trkpt lat="43.08149" lon="-1.10008">
        <ele>857</ele>
      </trkpt>
      <trkpt lat="43.0817" lon="-1.10041">
        <ele>852.9</ele>
      </trkpt>
      <trkpt lat="43.08193" lon="-1.10066">
        <ele>850.1</ele>
      </trkpt>
      <trkpt lat="43.08198" lon="-1.1008">
        <ele>850.1</ele>
      </trkpt>
      <trkpt lat="43.08202" lon="-1.10114">
        <ele>847</ele>
      </trkpt>
      <trkpt lat="43.08208" lon="-1.10129">
        <ele>844</ele>
      </trkpt>
      <trkpt lat="43.08267" lon="-1.10195">
        <ele>835.7</ele>
      </trkpt>
      <trkpt lat="43.08284" lon="-1.10219">
        <ele>833.5</ele>
      </trkpt>
      <trkpt lat="43.0829" lon="-1.10231">
        <ele>832.3</ele>
      </trkpt>
      <trkpt lat="43.08297" lon="-1.10255">
        <ele>829.2</ele>
      </trkpt>
      <trkpt lat="43.083" lon="-1.1029">
        <ele>825.7</ele>
      </trkpt>
      <trkpt lat="43.08305" lon="-1.1031">
        <ele>825</ele>
      </trkpt>
      <trkpt lat="43.08309" lon="-1.10319">
        <ele>824.5</ele>
      </trkpt>
      <trkpt lat="43.08324" lon="-1.10345">
        <ele>821.5</ele>
      </trkpt>
      <trkpt lat="43.08357" lon="-1.10392">
        <ele>815.6</ele>
      </trkpt>
      <trkpt lat="43.08399" lon="-1.10444">
        <ele>809.8</ele>
      </trkpt>
      <trkpt lat="43.08415" lon="-1.10456">
        <ele>808</ele>
      </trkpt>
      <trkpt lat="43.08475" lon="-1.10473">
        <ele>800.8</ele>
      </trkpt>
      <trkpt lat="43.08487" lon="-1.10478">
        <ele>799.5</ele>
      </trkpt>
      <trkpt lat="43.08536" lon="-1.1051">
        <ele>791.9</ele>
      </trkpt>
      <trkpt lat="43.08572" lon="-1.10543">
        <ele>786</ele>
      </trkpt>
      <trkpt lat="43.08613" lon="-1.10589">
        <ele>781.8</ele>
      </trkpt>
      <trkpt lat="43.08638" lon="-1.10621">
        <ele>781.5</ele>
      </trkpt>
      <trkpt lat="43.08648" lon="-1.10638">
        <ele>781.3</ele>
      </trkpt>
      <trkpt lat="43.08678" lon="-1.10701">
        <ele>782.5</ele>
      </trkpt>
      <trkpt lat="43.08753" lon="-1.10835">
        <ele>783.9</ele>
      </trkpt>
      <trkpt lat="43.08769" lon="-1.1086">
        <ele>783.8</ele>
      </trkpt>
      <trkpt lat="43.08786" lon="-1.1088">
        <ele>783.7</ele>
      </trkpt>
      <trkpt lat="43.08807" lon="-1.10896">
        <ele>783.2</ele>
      </trkpt>
      <trkpt lat="43.08862" lon="-1.10932">
        <ele>781.7</ele>
      </trkpt>
      <trkpt lat="43.08874" lon="-1.10937">
        <ele>780.6</ele>
      </trkpt>
      <trkpt lat="43.08926" lon="-1.10952">
        <ele>777.2</ele>
      </trkpt>
      <trkpt lat="43.08947" lon="-1.10961">
        <ele>776.1</ele>
      </trkpt>
      <trkpt lat="43.08959" lon="-1.10969">
        <ele>775.8</ele>
      </trkpt>
      <trkpt lat="43.08975" lon="-1.10987">
        <ele>775.5</ele>
      </trkpt>
      <trkpt lat="43.09017" lon="-1.11058">
        <ele>770.6</ele>
      </trkpt>
      <trkpt lat="43.09056" lon="-1.11114">
        <ele>764.5</ele>
      </trkpt>
      <trkpt lat="43.09089" lon="-1.11157">
        <ele>757.7</ele>
      </trkpt>
      <trkpt lat="43.09131" lon="-1.11221">
        <ele>752.1</ele>
      </trkpt>
      <trkpt lat="43.09157" lon="-1.11265">
        <ele>746.4</ele>
      </trkpt>
      <trkpt lat="43.09205" lon="-1.11337">
        <ele>736.9</ele>
      </trkpt>
      <trkpt lat="43.09245" lon="-1.11391">
        <ele>731.7</ele>
      </trkpt>
      <trkpt lat="43.0926" lon="-1.11405">
        <ele>730.4</ele>
      </trkpt>
      <trkpt lat="43.09267" lon="-1.11409">
        <ele>729</ele>
      </trkpt>
      <trkpt lat="43.09297" lon="-1.11418">
        <ele>723.2</ele>
      </trkpt>
      <trkpt lat="43.09317" lon="-1.11427">
        <ele>720</ele>
      </trkpt>
      <trkpt lat="43.09342" lon="-1.11445">
        <ele>715.7</ele>
      </trkpt>
      <trkpt lat="43.09379" lon="-1.11464">
        <ele>710.5</ele>
      </trkpt>
      <trkpt lat="43.094" lon="-1.11478">
        <ele>707.1</ele>
      </trkpt>
      <trkpt lat="43.09419" lon="-1.11496">
        <ele>703.8</ele>
      </trkpt>
      <trkpt lat="43.09429" lon="-1.11508">
        <ele>702.4</ele>
      </trkpt>
      <trkpt lat="43.09438" lon="-1.11521">
        <ele>701.1</ele>
      </trkpt>
      <trkpt lat="43.0945" lon="-1.11543">
        <ele>698.7</ele>
      </trkpt>
      <trkpt lat="43.09456" lon="-1.11551">
        <ele>698.1</ele>
      </trkpt>
      <trkpt lat="43.09466" lon="-1.11558">
        <ele>697.1</ele>
      </trkpt>
      <trkpt lat="43.09473" lon="-1.11559">
        <ele>695.6</ele>
      </trkpt>
      <trkpt lat="43.0948" lon="-1.11558">
        <ele>694.9</ele>
      </trkpt>
      <trkpt lat="43.09543" lon="-1.11534">
        <ele>684.8</ele>
      </trkpt>
      <trkpt lat="43.09583" lon="-1.11526">
        <ele>677.4</ele>
      </trkpt>
      <trkpt lat="43.09591" lon="-1.11527">
        <ele>676.1</ele>
      </trkpt>
      <trkpt lat="43.09606" lon="-1.11535">
        <ele>675.2</ele>
      </trkpt>
      <trkpt lat="43.09619" lon="-1.11547">
        <ele>673</ele>
      </trkpt>
      <trkpt lat="43.09625" lon="-1.11556">
        <ele>672.1</ele>
      </trkpt>
      <trkpt lat="43.09634" lon="-1.11576">
        <ele>669.9</ele>
      </trkpt>
      <trkpt lat="43.0964" lon="-1.11595">
        <ele>666.6</ele>
      </trkpt>
      <trkpt lat="43.09647" lon="-1.11631">
        <ele>663.8</ele>
      </trkpt>
      <trkpt lat="43.0965" lon="-1.11691">
        <ele>664.1</ele>
      </trkpt>
      <trkpt lat="43.09652" lon="-1.11699">
        <ele>663.8</ele>
      </trkpt>
      <trkpt lat="43.09655" lon="-1.11703">
        <ele>662.7</ele>
      </trkpt>
      <trkpt lat="43.09659" lon="-1.11704">
        <ele>660.9</ele>
      </trkpt>
      <trkpt lat="43.09663" lon="-1.11702">
        <ele>659</ele>
      </trkpt>
      <trkpt lat="43.09666" lon="-1.11697">
        <ele>657.4</ele>
      </trkpt>
      <trkpt lat="43.09667" lon="-1.1169">
        <ele>656.3</ele>
      </trkpt>
      <trkpt lat="43.09676" lon="-1.11591">
        <ele>648.1</ele>
      </trkpt>
      <trkpt lat="43.09676" lon="-1.11572">
        <ele>646.6</ele>
      </trkpt>
      <trkpt lat="43.09673" lon="-1.11541">
        <ele>643.2</ele>
      </trkpt>
      <trkpt lat="43.09657" lon="-1.11476">
        <ele>638</ele>
      </trkpt>
      <trkpt lat="43.09651" lon="-1.11461">
        <ele>635.1</ele>
      </trkpt>
      <trkpt lat="43.09638" lon="-1.11436">
        <ele>632</ele>
      </trkpt>
      <trkpt lat="43.09632" lon="-1.11427">
        <ele>631.3</ele>
      </trkpt>
      <trkpt lat="43.09621" lon="-1.11417">
        <ele>629.1</ele>
      </trkpt>
      <trkpt lat="43.09601" lon="-1.11411">
        <ele>626.9</ele>
      </trkpt>
      <trkpt lat="43.09551" lon="-1.11404">
        <ele>624.9</ele>
      </trkpt>
      <trkpt lat="43.09538" lon="-1.11397">
        <ele>623.6</ele>
      </trkpt>
      <trkpt lat="43.09534" lon="-1.11392">
        <ele>622.9</ele>
      </trkpt>
      <trkpt lat="43.09528" lon="-1.11376">
        <ele>622</ele>
      </trkpt>
      <trkpt lat="43.09524" lon="-1.1134">
        <ele>622.2</ele>
      </trkpt>
      <trkpt lat="43.09519" lon="-1.11318">
        <ele>620.4</ele>
      </trkpt>
      <trkpt lat="43.09502" lon="-1.11283">
        <ele>617.9</ele>
      </trkpt>
      <trkpt lat="43.09464" lon="-1.11212">
        <ele>611.6</ele>
      </trkpt>
      <trkpt lat="43.0944" lon="-1.11173">
        <ele>608.6</ele>
      </trkpt>
      <trkpt lat="43.0943" lon="-1.11149">
        <ele>606.2</ele>
      </trkpt>
      <trkpt lat="43.09427" lon="-1.11136">
        <ele>604.3</ele>
      </trkpt>
      <trkpt lat="43.0942" lon="-1.11063">
        <ele>596.9</ele>
      </trkpt>
      <trkpt lat="43.09411" lon="-1.11">
        <ele>591</ele>
      </trkpt>
      <trkpt lat="43.0941" lon="-1.10981">
        <ele>589</ele>
      </trkpt>
      <trkpt lat="43.09412" lon="-1.10895">
        <ele>581.4</ele>
      </trkpt>
      <trkpt lat="43.09408" lon="-1.10811">
        <ele>573</ele>
      </trkpt>
      <trkpt lat="43.09403" lon="-1.1079">
        <ele>570.1</ele>
      </trkpt>
      <trkpt lat="43.09398" lon="-1.1078">
        <ele>568.8</ele>
      </trkpt>
      <trkpt lat="43.09392" lon="-1.10773">
        <ele>568.4</ele>
      </trkpt>
      <trkpt lat="43.09386" lon="-1.10769">
        <ele>568.2</ele>
      </trkpt>
      <trkpt lat="43.09364" lon="-1.10761">
        <ele>566.7</ele>
      </trkpt>
      <trkpt lat="43.09356" lon="-1.10753">
        <ele>564.8</ele>
      </trkpt>
      <trkpt lat="43.09354" lon="-1.10739">
        <ele>562.4</ele>
      </trkpt>
      <trkpt lat="43.09359" lon="-1.10728">
        <ele>561.9</ele>
      </trkpt>
      <trkpt lat="43.09364" lon="-1.10725">
        <ele>561.8</ele>
      </trkpt>
      <trkpt lat="43.09378" lon="-1.10724">
        <ele>559.9</ele>
      </trkpt>
      <trkpt lat="43.09394" lon="-1.10727">
        <ele>558</ele>
      </trkpt>
      <trkpt lat="43.0942" lon="-1.10736">
        <ele>554.7</ele>
      </trkpt>
      <trkpt lat="43.09462" lon="-1.10757">
        <ele>548.6</ele>
      </trkpt>
      <trkpt lat="43.09478" lon="-1.10767">
        <ele>546.6</ele>
      </trkpt>
      <trkpt lat="43.09496" lon="-1.10783">
        <ele>543.8</ele>
      </trkpt>
      <trkpt lat="43.09505" lon="-1.10795">
        <ele>542.1</ele>
      </trkpt>
      <trkpt lat="43.0952" lon="-1.10824">
        <ele>539</ele>
      </trkpt>
      <trkpt lat="43.09535" lon="-1.10866">
        <ele>533.7</ele>
      </trkpt>
      <trkpt lat="43.09553" lon="-1.10927">
        <ele>527.7</ele>
      </trkpt>
      <trkpt lat="43.09558" lon="-1.10941">
        <ele>525.3</ele>
      </trkpt>
      <trkpt lat="43.09567" lon="-1.10957">
        <ele>524.8</ele>
      </trkpt>
      <trkpt lat="43.0958" lon="-1.1097">
        <ele>522.8</ele>
      </trkpt>
      <trkpt lat="43.09655" lon="-1.1102">
        <ele>514</ele>
      </trkpt>
      <trkpt lat="43.09671" lon="-1.11034">
        <ele>511.6</ele>
      </trkpt>
      <trkpt lat="43.09677" lon="-1.11047">
        <ele>511.3</ele>
      </trkpt>
      <trkpt lat="43.09682" lon="-1.11075">
        <ele>511.4</ele>
      </trkpt>
      <trkpt lat="43.09688" lon="-1.11079">
        <ele>508.8</ele>
      </trkpt>
      <trkpt lat="43.09691" lon="-1.11078">
        <ele>507.4</ele>
      </trkpt>
      <trkpt lat="43.09696" lon="-1.11069">
        <ele>504.4</ele>
      </trkpt>
      <trkpt lat="43.09698" lon="-1.11049">
        <ele>502.1</ele>
      </trkpt>
      <trkpt lat="43.09696" lon="-1.11017">
        <ele>500.1</ele>
      </trkpt>
      <trkpt lat="43.09689" lon="-1.10973">
        <ele>494.9</ele>
      </trkpt>
      <trkpt lat="43.09689" lon="-1.1095">
        <ele>493.2</ele>
      </trkpt>
      <trkpt lat="43.09695" lon="-1.10904">
        <ele>488.3</ele>
      </trkpt>
      <trkpt lat="43.09698" lon="-1.10851">
        <ele>483.8</ele>
      </trkpt>
      <trkpt lat="43.09703" lon="-1.10827">
        <ele>481.2</ele>
      </trkpt>
      <trkpt lat="43.09725" lon="-1.10771">
        <ele>476.3</ele>
      </trkpt>
      <trkpt lat="43.09732" lon="-1.10744">
        <ele>471.7</ele>
      </trkpt>
      <trkpt lat="43.09732" lon="-1.10689">
        <ele>468.1</ele>
      </trkpt>
      <trkpt lat="43.09735" lon="-1.10684">
        <ele>467.4</ele>
      </trkpt>
      <trkpt lat="43.09739" lon="-1.10682">
        <ele>466.4</ele>
      </trkpt>
      <trkpt lat="43.09743" lon="-1.10683">
        <ele>465.6</ele>
      </trkpt>
      <trkpt lat="43.09748" lon="-1.10687">
        <ele>464.9</ele>
      </trkpt>
      <trkpt lat="43.09753" lon="-1.10694">
        <ele>463.9</ele>
      </trkpt>
      <trkpt lat="43.09762" lon="-1.10711">
        <ele>461</ele>
      </trkpt>
      <trkpt lat="43.09769" lon="-1.10729">
        <ele>459.1</ele>
      </trkpt>
      <trkpt lat="43.09776" lon="-1.10759">
        <ele>458</ele>
      </trkpt>
      <trkpt lat="43.09783" lon="-1.10805">
        <ele>450.6</ele>
      </trkpt>
      <trkpt lat="43.09787" lon="-1.1082">
        <ele>449.7</ele>
      </trkpt>
      <trkpt lat="43.09823" lon="-1.1092">
        <ele>438</ele>
      </trkpt>
      <trkpt lat="43.09844" lon="-1.10972">
        <ele>433.4</ele>
      </trkpt>
      <trkpt lat="43.09848" lon="-1.10994">
        <ele>431.3</ele>
      </trkpt>
      <trkpt lat="43.09851" lon="-1.11058">
        <ele>426.6</ele>
      </trkpt>
      <trkpt lat="43.09848" lon="-1.11072">
        <ele>425.4</ele>
      </trkpt>
      <trkpt lat="43.09835" lon="-1.11099">
        <ele>423.2</ele>
      </trkpt>
      <trkpt lat="43.09835" lon="-1.11106">
        <ele>421.7</ele>
      </trkpt>
      <trkpt lat="43.09837" lon="-1.11112">
        <ele>420.4</ele>
      </trkpt>
      <trkpt lat="43.09841" lon="-1.11117">
        <ele>420.9</ele>
      </trkpt>
      <trkpt lat="43.09847" lon="-1.11121">
        <ele>420.4</ele>
      </trkpt>
      <trkpt lat="43.09869" lon="-1.1113">
        <ele>417.3</ele>
      </trkpt>
      <trkpt lat="43.09887" lon="-1.11135">
        <ele>415.8</ele>
      </trkpt>
      <trkpt lat="43.09895" lon="-1.1114">
        <ele>415.6</ele>
      </trkpt>
      <trkpt lat="43.099" lon="-1.11146">
        <ele>414.8</ele>
      </trkpt>
      <trkpt lat="43.09905" lon="-1.11161">
        <ele>413.7</ele>
      </trkpt>
      <trkpt lat="43.0991" lon="-1.1119">
        <ele>411.2</ele>
      </trkpt>
      <trkpt lat="43.09915" lon="-1.11201">
        <ele>410.4</ele>
      </trkpt>
      <trkpt lat="43.09938" lon="-1.11232">
        <ele>405.8</ele>
      </trkpt>
      <trkpt lat="43.09963" lon="-1.11256">
        <ele>400.8</ele>
      </trkpt>
      <trkpt lat="43.09987" lon="-1.11289">
        <ele>395.5</ele>
      </trkpt>
      <trkpt lat="43.09995" lon="-1.11309">
        <ele>395</ele>
      </trkpt>
      <trkpt lat="43.10011" lon="-1.11375">
        <ele>385.6</ele>
      </trkpt>
      <trkpt lat="43.10022" lon="-1.11405">
        <ele>381.8</ele>
      </trkpt>
      <trkpt lat="43.10048" lon="-1.11448">
        <ele>375.4</ele>
      </trkpt>
      <trkpt lat="43.10059" lon="-1.11464">
        <ele>370.7</ele>
      </trkpt>
      <trkpt lat="43.10071" lon="-1.11478">
        <ele>369.2</ele>
      </trkpt>
      <trkpt lat="43.10084" lon="-1.11492">
        <ele>368</ele>
      </trkpt>
      <trkpt lat="43.10096" lon="-1.11502">
        <ele>365.2</ele>
      </trkpt>
      <trkpt lat="43.10153" lon="-1.11543">
        <ele>355.4</ele>
      </trkpt>
      <trkpt lat="43.10211" lon="-1.11598">
        <ele>345.9</ele>
      </trkpt>
      <trkpt lat="43.10221" lon="-1.11609">
        <ele>343.3</ele>
      </trkpt>
      <trkpt lat="43.10245" lon="-1.11648">
        <ele>339.9</ele>
      </trkpt>
      <trkpt lat="43.1026" lon="-1.11667">
        <ele>335.6</ele>
      </trkpt>
      <trkpt lat="43.1028" lon="-1.11683">
        <ele>334.7</ele>
      </trkpt>
      <trkpt lat="43.10301" lon="-1.11703">
        <ele>334.4</ele>
      </trkpt>
      <trkpt lat="43.10337" lon="-1.11743">
        <ele>330.5</ele>
      </trkpt>
      <trkpt lat="43.10348" lon="-1.11752">
        <ele>329.4</ele>
      </trkpt>
      <trkpt lat="43.10376" lon="-1.11769">
        <ele>328</ele>
      </trkpt>
      <trkpt lat="43.10453" lon="-1.11808">
        <ele>325.2</ele>
      </trkpt>
      <trkpt lat="43.10475" lon="-1.11831">
        <ele>324.8</ele>
      </trkpt>
      <trkpt lat="43.10482" lon="-1.11842">
        <ele>325.2</ele>
      </trkpt>
      <trkpt lat="43.10585" lon="-1.12037">
        <ele>320.2</ele>
      </trkpt>
      <trkpt lat="43.10611" lon="-1.12106">
        <ele>319.2</ele>
      </trkpt>
      <trkpt lat="43.10614" lon="-1.1213">
        <ele>318.9</ele>
      </trkpt>
      <trkpt lat="43.10611" lon="-1.12154">
        <ele>318</ele>
      </trkpt>
      <trkpt lat="43.10606" lon="-1.12177">
        <ele>317.7</ele>
      </trkpt>
      <trkpt lat="43.10605" lon="-1.12199">
        <ele>317.2</ele>
      </trkpt>
      <trkpt lat="43.10608" lon="-1.12218">
        <ele>317.1</ele>
      </trkpt>
      <trkpt lat="43.10638" lon="-1.12323">
        <ele>315</ele>
      </trkpt>
      <trkpt lat="43.10649" lon="-1.12346">
        <ele>314.3</ele>
      </trkpt>
      <trkpt lat="43.10659" lon="-1.12361">
        <ele>314</ele>
      </trkpt>
      <trkpt lat="43.10679" lon="-1.12381">
        <ele>312.5</ele>
      </trkpt>
      <trkpt lat="43.1071" lon="-1.12404">
        <ele>312.8</ele>
      </trkpt>
      <trkpt lat="43.10726" lon="-1.12419">
        <ele>313</ele>
      </trkpt>
      <trkpt lat="43.10755" lon="-1.12456">
        <ele>312</ele>
      </trkpt>
      <trkpt lat="43.1076" lon="-1.12465">
        <ele>311.6</ele>
      </trkpt>
      <trkpt lat="43.10768" lon="-1.12487">
        <ele>311.9</ele>
      </trkpt>
      <trkpt lat="43.10777" lon="-1.12519">
        <ele>312</ele>
      </trkpt>
      <trkpt lat="43.10787" lon="-1.12567">
        <ele>309.9</ele>
      </trkpt>
      <trkpt lat="43.10794" lon="-1.12619">
        <ele>309.5</ele>
      </trkpt>
      <trkpt lat="43.10801" lon="-1.12645">
        <ele>309.3</ele>
      </trkpt>
      <trkpt lat="43.10828" lon="-1.12708">
        <ele>308.1</ele>
      </trkpt>
      <trkpt lat="43.10839" lon="-1.1273">
        <ele>307.5</ele>
      </trkpt>
      <trkpt lat="43.10858" lon="-1.12762">
        <ele>307.7</ele>
      </trkpt>
      <trkpt lat="43.10875" lon="-1.12786">
        <ele>307.9</ele>
      </trkpt>
      <trkpt lat="43.10895" lon="-1.12808">
        <ele>307.1</ele>
      </trkpt>
      <trkpt lat="43.10904" lon="-1.12814">
        <ele>306.9</ele>
      </trkpt>
      <trkpt lat="43.10912" lon="-1.12817">
        <ele>306.7</ele>
      </trkpt>
      <trkpt lat="43.10922" lon="-1.12819">
        <ele>306.2</ele>
      </trkpt>
      <trkpt lat="43.1095" lon="-1.1282">
        <ele>304.8</ele>
      </trkpt>
      <trkpt lat="43.10968" lon="-1.12827">
        <ele>304.8</ele>
      </trkpt>
      <trkpt lat="43.10992" lon="-1.12844">
        <ele>304.2</ele>
      </trkpt>
      <trkpt lat="43.11033" lon="-1.12878">
        <ele>304</ele>
      </trkpt>
      <trkpt lat="43.11058" lon="-1.12901">
        <ele>303.9</ele>
      </trkpt>
      <trkpt lat="43.11081" lon="-1.12918">
        <ele>302.8</ele>
      </trkpt>
      <trkpt lat="43.11164" lon="-1.1297">
        <ele>300.9</ele>
      </trkpt>
      <trkpt lat="43.11185" lon="-1.12989">
        <ele>300.5</ele>
      </trkpt>
      <trkpt lat="43.11203" lon="-1.13014">
        <ele>299.4</ele>
      </trkpt>
      <trkpt lat="43.11259" lon="-1.13109">
        <ele>297.2</ele>
      </trkpt>
      <trkpt lat="43.11271" lon="-1.13133">
        <ele>297.9</ele>
      </trkpt>
      <trkpt lat="43.11289" lon="-1.1318">
        <ele>297.2</ele>
      </trkpt>
      <trkpt lat="43.11295" lon="-1.13189">
        <ele>297.9</ele>
      </trkpt>
      <trkpt lat="43.11308" lon="-1.13203">
        <ele>298.7</ele>
      </trkpt>
      <trkpt lat="43.11403" lon="-1.13287">
        <ele>296</ele>
      </trkpt>
      <trkpt lat="43.11421" lon="-1.13296">
        <ele>295.9</ele>
      </trkpt>
      <trkpt lat="43.11433" lon="-1.133">
        <ele>295.5</ele>
      </trkpt>
      <trkpt lat="43.11534" lon="-1.1332">
        <ele>293.4</ele>
      </trkpt>
      <trkpt lat="43.11548" lon="-1.13324">
        <ele>292.9</ele>
      </trkpt>
      <trkpt lat="43.11559" lon="-1.1333">
        <ele>292.3</ele>
      </trkpt>
      <trkpt lat="43.11572" lon="-1.13341">
        <ele>291.8</ele>
      </trkpt>
      <trkpt lat="43.11609" lon="-1.13394">
        <ele>290.7</ele>
      </trkpt>
      <trkpt lat="43.11629" lon="-1.13415">
        <ele>290.3</ele>
      </trkpt>
      <trkpt lat="43.11804" lon="-1.13582">
        <ele>287.9</ele>
      </trkpt>
      <trkpt lat="43.11827" lon="-1.13599">
        <ele>287.1</ele>
      </trkpt>
      <trkpt lat="43.11925" lon="-1.13646">
        <ele>285</ele>
      </trkpt>
      <trkpt lat="43.11965" lon="-1.13668">
        <ele>285</ele>
      </trkpt>
      <trkpt lat="43.12012" lon="-1.13699">
        <ele>285.4</ele>
      </trkpt>
      <trkpt lat="43.12019" lon="-1.13702">
        <ele>285.5</ele>
      </trkpt>
      <trkpt lat="43.12026" lon="-1.13703">
        <ele>285.7</ele>
      </trkpt>
      <trkpt lat="43.12063" lon="-1.13691">
        <ele>286.5</ele>
      </trkpt>
      <trkpt lat="43.12073" lon="-1.1369">
        <ele>287.3</ele>
      </trkpt>
      <trkpt lat="43.12109" lon="-1.13693">
        <ele>288.5</ele>
      </trkpt>
      <trkpt lat="43.12135" lon="-1.1369">
        <ele>290.6</ele>
      </trkpt>
      <trkpt lat="43.12169" lon="-1.13683">
        <ele>288.9</ele>
      </trkpt>
      <trkpt lat="43.12244" lon="-1.13683">
        <ele>285.5</ele>
      </trkpt>
      <trkpt lat="43.12262" lon="-1.13688">
        <ele>284.9</ele>
      </trkpt>
      <trkpt lat="43.12333" lon="-1.13724">
        <ele>283.6</ele>
      </trkpt>
      <trkpt lat="43.12404" lon="-1.13737">
        <ele>285.4</ele>
      </trkpt>
      <trkpt lat="43.12421" lon="-1.13738">
        <ele>284.8</ele>
      </trkpt>
      <trkpt lat="43.12469" lon="-1.13736">
        <ele>285</ele>
      </trkpt>
      <trkpt lat="43.12571" lon="-1.13743">
        <ele>285.7</ele>
      </trkpt>
      <trkpt lat="43.12589" lon="-1.13748">
        <ele>285.1</ele>
      </trkpt>
      <trkpt lat="43.12635" lon="-1.13771">
        <ele>283.7</ele>
      </trkpt>
      <trkpt lat="43.12679" lon="-1.13782">
        <ele>282.6</ele>
      </trkpt>
      <trkpt lat="43.1279" lon="-1.13844">
        <ele>280</ele>
      </trkpt>
      <trkpt lat="43.12806" lon="-1.13857">
        <ele>279.5</ele>
      </trkpt>
      <trkpt lat="43.12875" lon="-1.13935">
        <ele>276.7</ele>
      </trkpt>
      <trkpt lat="43.12901" lon="-1.13959">
        <ele>275.5</ele>
      </trkpt>
      <trkpt lat="43.12946" lon="-1.13991">
        <ele>275</ele>
      </trkpt>
      <trkpt lat="43.12961" lon="-1.14">
        <ele>274.6</ele>
      </trkpt>
      <trkpt lat="43.13004" lon="-1.1402">
        <ele>274</ele>
      </trkpt>
      <trkpt lat="43.13023" lon="-1.14031">
        <ele>274.4</ele>
      </trkpt>
      <trkpt lat="43.13111" lon="-1.1409">
        <ele>273.5</ele>
      </trkpt>
      <trkpt lat="43.13185" lon="-1.14143">
        <ele>272.4</ele>
      </trkpt>
      <trkpt lat="43.13226" lon="-1.14169">
        <ele>270.9</ele>
      </trkpt>
      <trkpt lat="43.13416" lon="-1.14279">
        <ele>268</ele>
      </trkpt>
      <trkpt lat="43.13432" lon="-1.14293">
        <ele>267.9</ele>
      </trkpt>
      <trkpt lat="43.13448" lon="-1.14315">
        <ele>267.4</ele>
      </trkpt>
      <trkpt lat="43.13465" lon="-1.14347">
        <ele>267.1</ele>
      </trkpt>
      <trkpt lat="43.13475" lon="-1.14362">
        <ele>266.9</ele>
      </trkpt>
      <trkpt lat="43.13493" lon="-1.14385">
        <ele>266</ele>
      </trkpt>
      <trkpt lat="43.13573" lon="-1.14472">
        <ele>264</ele>
      </trkpt>
      <trkpt lat="43.13612" lon="-1.14524">
        <ele>262.2</ele>
      </trkpt>
      <trkpt lat="43.13655" lon="-1.14602">
        <ele>260.8</ele>
      </trkpt>
      <trkpt lat="43.13678" lon="-1.1464">
        <ele>259.4</ele>
      </trkpt>
      <trkpt lat="43.1373" lon="-1.14715">
        <ele>258.1</ele>
      </trkpt>
      <trkpt lat="43.13935" lon="-1.15046">
        <ele>253</ele>
      </trkpt>
      <trkpt lat="43.14019" lon="-1.15171">
        <ele>250.3</ele>
      </trkpt>
      <trkpt lat="43.14039" lon="-1.15206">
        <ele>249.4</ele>
      </trkpt>
      <trkpt lat="43.14078" lon="-1.15296">
        <ele>245.7</ele>
      </trkpt>
      <trkpt lat="43.1409" lon="-1.15318">
        <ele>244.5</ele>
      </trkpt>
      <trkpt lat="43.14102" lon="-1.15329">
        <ele>243.7</ele>
      </trkpt>
      <trkpt lat="43.14114" lon="-1.15336">
        <ele>242.8</ele>
      </trkpt>
      <trkpt lat="43.14185" lon="-1.15365">
        <ele>241.9</ele>
      </trkpt>
      <trkpt lat="43.1421" lon="-1.15368">
        <ele>241.8</ele>
      </trkpt>
      <trkpt lat="43.14285" lon="-1.15359">
        <ele>242.1</ele>
      </trkpt>
      <trkpt lat="43.143" lon="-1.15359">
        <ele>242.1</ele>
      </trkpt>
      <trkpt lat="43.14314" lon="-1.15362">
        <ele>242.3</ele>
      </trkpt>
      <trkpt lat="43.14325" lon="-1.15366">
        <ele>242.6</ele>
      </trkpt>
      <trkpt lat="43.1436" lon="-1.15386">
        <ele>243.1</ele>
      </trkpt>
      <trkpt lat="43.1437" lon="-1.15398">
        <ele>243.6</ele>
      </trkpt>
      <trkpt lat="43.14374" lon="-1.15406">
        <ele>243.9</ele>
      </trkpt>
      <trkpt lat="43.14379" lon="-1.15426">
        <ele>244.3</ele>
      </trkpt>
      <trkpt lat="43.14396" lon="-1.15577">
        <ele>244.3</ele>
      </trkpt>
      <trkpt lat="43.14413" lon="-1.15673">
        <ele>243.7</ele>
      </trkpt>
      <trkpt lat="43.14422" lon="-1.15754">
        <ele>245.7</ele>
      </trkpt>
      <trkpt lat="43.1443" lon="-1.15803">
        <ele>247</ele>
      </trkpt>
      <trkpt lat="43.14442" lon="-1.15838">
        <ele>245.8</ele>
      </trkpt>
      <trkpt lat="43.14465" lon="-1.15891">
        <ele>244.8</ele>
      </trkpt>
      <trkpt lat="43.14471" lon="-1.1592">
        <ele>243.7</ele>
      </trkpt>
      <trkpt lat="43.14472" lon="-1.15935">
        <ele>243.3</ele>
      </trkpt>
      <trkpt lat="43.14468" lon="-1.16003">
        <ele>241.6</ele>
      </trkpt>
      <trkpt lat="43.14468" lon="-1.16059">
        <ele>243.1</ele>
      </trkpt>
      <trkpt lat="43.14471" lon="-1.1614">
        <ele>241.9</ele>
      </trkpt>
      <trkpt lat="43.14465" lon="-1.16215">
        <ele>245.2</ele>
      </trkpt>
      <trkpt lat="43.14466" lon="-1.1625">
        <ele>246.1</ele>
      </trkpt>
      <trkpt lat="43.14473" lon="-1.16279">
        <ele>247.1</ele>
      </trkpt>
      <trkpt lat="43.14512" lon="-1.16404">
        <ele>251.1</ele>
      </trkpt>
      <trkpt lat="43.14512" lon="-1.16411">
        <ele>251.4</ele>
      </trkpt>
      <trkpt lat="43.14508" lon="-1.16429">
        <ele>251.5</ele>
      </trkpt>
      <trkpt lat="43.14491" lon="-1.16479">
        <ele>252.2</ele>
      </trkpt>
      <trkpt lat="43.14484" lon="-1.16508">
        <ele>252.7</ele>
      </trkpt>
      <trkpt lat="43.1448" lon="-1.16537">
        <ele>251.7</ele>
      </trkpt>
      <trkpt lat="43.14477" lon="-1.16589">
        <ele>249.8</ele>
      </trkpt>
      <trkpt lat="43.14478" lon="-1.16621">
        <ele>248.1</ele>
      </trkpt>
      <trkpt lat="43.1448" lon="-1.16632">
        <ele>247.2</ele>
      </trkpt>
      <trkpt lat="43.14488" lon="-1.16648">
        <ele>245.6</ele>
      </trkpt>
      <trkpt lat="43.14496" lon="-1.16654">
        <ele>245</ele>
      </trkpt>
      <trkpt lat="43.14504" lon="-1.16658">
        <ele>244.5</ele>
      </trkpt>
      <trkpt lat="43.14547" lon="-1.16672">
        <ele>242.7</ele>
      </trkpt>
      <trkpt lat="43.14566" lon="-1.16685">
        <ele>242.3</ele>
      </trkpt>
      <trkpt lat="43.14665" lon="-1.16797">
        <ele>238</ele>
      </trkpt>
      <trkpt lat="43.14675" lon="-1.16815">
        <ele>237.7</ele>
      </trkpt>
      <trkpt lat="43.14703" lon="-1.16894">
        <ele>239.3</ele>
      </trkpt>
      <trkpt lat="43.14732" lon="-1.16949">
        <ele>238.3</ele>
      </trkpt>
      <trkpt lat="43.14771" lon="-1.17008">
        <ele>238.2</ele>
      </trkpt>
      <trkpt lat="43.14782" lon="-1.17028">
        <ele>237.4</ele>
      </trkpt>
      <trkpt lat="43.14809" lon="-1.17088">
        <ele>236.6</ele>
      </trkpt>
      <trkpt lat="43.14824" lon="-1.17115">
        <ele>236</ele>
      </trkpt>
      <trkpt lat="43.14839" lon="-1.17131">
        <ele>236.9</ele>
      </trkpt>
      <trkpt lat="43.14892" lon="-1.17164">
        <ele>236.1</ele>
      </trkpt>
      <trkpt lat="43.14905" lon="-1.17174">
        <ele>235.3</ele>
      </trkpt>
      <trkpt lat="43.14934" lon="-1.17202">
        <ele>235.1</ele>
      </trkpt>
      <trkpt lat="43.14973" lon="-1.17248">
        <ele>234.4</ele>
      </trkpt>
      <trkpt lat="43.14992" lon="-1.17274">
        <ele>233.8</ele>
      </trkpt>
      <trkpt lat="43.15016" lon="-1.17308">
        <ele>232.4</ele>
      </trkpt>
      <trkpt lat="43.15065" lon="-1.17383">
        <ele>230.1</ele>
      </trkpt>
      <trkpt lat="43.15081" lon="-1.17414">
        <ele>229.9</ele>
      </trkpt>
      <trkpt lat="43.15102" lon="-1.17472">
        <ele>230.7</ele>
      </trkpt>
      <trkpt lat="43.15124" lon="-1.17551">
        <ele>231.4</ele>
      </trkpt>
      <trkpt lat="43.1517" lon="-1.17755">
        <ele>240.2</ele>
      </trkpt>
      <trkpt lat="43.15174" lon="-1.17767">
        <ele>240.5</ele>
      </trkpt>
      <trkpt lat="43.15184" lon="-1.17787">
        <ele>241.2</ele>
      </trkpt>
      <trkpt lat="43.1522" lon="-1.1783">
        <ele>243.8</ele>
      </trkpt>
      <trkpt lat="43.15394" lon="-1.18024">
        <ele>234.5</ele>
      </trkpt>
      <trkpt lat="43.15404" lon="-1.18037">
        <ele>233.7</ele>
      </trkpt>
      <trkpt lat="43.15415" lon="-1.18058">
        <ele>232.8</ele>
      </trkpt>
      <trkpt lat="43.15424" lon="-1.18088">
        <ele>232.1</ele>
      </trkpt>
      <trkpt lat="43.15456" lon="-1.18277">
        <ele>228.4</ele>
      </trkpt>
      <trkpt lat="43.15495" lon="-1.18465">
        <ele>224.1</ele>
      </trkpt>
      <trkpt lat="43.15505" lon="-1.185">
        <ele>222.2</ele>
      </trkpt>
      <trkpt lat="43.15517" lon="-1.18527">
        <ele>220.1</ele>
      </trkpt>
      <trkpt lat="43.1553" lon="-1.18547">
        <ele>219.3</ele>
      </trkpt>
      <trkpt lat="43.15552" lon="-1.18574">
        <ele>218.3</ele>
      </trkpt>
      <trkpt lat="43.15745" lon="-1.18768">
        <ele>212.9</ele>
      </trkpt>
      <trkpt lat="43.16209" lon="-1.19186">
        <ele>204.7</ele>
      </trkpt>
      <trkpt lat="43.16231" lon="-1.19204">
        <ele>204.7</ele>
      </trkpt>
      <trkpt lat="43.1626" lon="-1.19223">
        <ele>204</ele>
      </trkpt>
      <trkpt lat="43.1647" lon="-1.19352">
        <ele>200.1</ele>
      </trkpt>
      <trkpt lat="43.16498" lon="-1.19367">
        <ele>201.1</ele>
      </trkpt>
      <trkpt lat="43.16541" lon="-1.19387">
        <ele>203</ele>
      </trkpt>
      <trkpt lat="43.16529" lon="-1.19476">
        <ele>204</ele>
      </trkpt>
      <trkpt lat="43.16516" lon="-1.19552">
        <ele>204</ele>
      </trkpt>
      <trkpt lat="43.16512" lon="-1.19585">
        <ele>203.9</ele>
      </trkpt>
      <trkpt lat="43.16513" lon="-1.19612">
        <ele>203</ele>
      </trkpt>
      <trkpt lat="43.16532" lon="-1.19761">
        <ele>200.1</ele>
      </trkpt>
      <trkpt lat="43.16589" lon="-1.20279">
        <ele>189.4</ele>
      </trkpt>
      <trkpt lat="43.16601" lon="-1.20355">
        <ele>189</ele>
      </trkpt>
      <trkpt lat="43.16609" lon="-1.2036">
        <ele>189</ele>
      </trkpt>
      <trkpt lat="43.16613" lon="-1.20371">
        <ele>188.7</ele>
      </trkpt>
      <trkpt lat="43.16612" lon="-1.20381">
        <ele>188.3</ele>
      </trkpt>
      <trkpt lat="43.16609" lon="-1.20388">
        <ele>188.1</ele>
      </trkpt>
      <trkpt lat="43.16601" lon="-1.20393">
        <ele>188.3</ele>
      </trkpt>
      <trkpt lat="43.16608" lon="-1.20447">
        <ele>187</ele>
      </trkpt>
      <trkpt lat="43.16773" lon="-1.21955">
        <ele>176.3</ele>
      </trkpt>
      <trkpt lat="43.1681" lon="-1.2225">
        <ele>174</ele>
      </trkpt>
      <trkpt lat="43.16828" lon="-1.22426">
        <ele>172.9</ele>
      </trkpt>
      <trkpt lat="43.16872" lon="-1.22817">
        <ele>170.7</ele>
      </trkpt>
      <trkpt lat="43.16892" lon="-1.22967">
        <ele>169</ele>
      </trkpt>
      <trkpt lat="43.1689" lon="-1.23216">
        <ele>163.3</ele>
      </trkpt>
      <trkpt lat="43.16888" lon="-1.23227">
        <ele>163.2</ele>
      </trkpt>
      <trkpt lat="43.16879" lon="-1.23248">
        <ele>163.3</ele>
      </trkpt>
      <trkpt lat="43.1687" lon="-1.23258">
        <ele>162.4</ele>
      </trkpt>
      <trkpt lat="43.16861" lon="-1.23264">
        <ele>161.5</ele>
      </trkpt>
      <trkpt lat="43.16693" lon="-1.2333">
        <ele>160</ele>
      </trkpt>
      <trkpt lat="43.1657" lon="-1.23381">
        <ele>160.5</ele>
      </trkpt>
      <trkpt lat="43.16568" lon="-1.23393">
        <ele>160.6</ele>
      </trkpt>
      <trkpt lat="43.16565" lon="-1.23395">
        <ele>160.7</ele>
      </trkpt>
      <trkpt lat="43.1656" lon="-1.23394">
        <ele>160.8</ele>
      </trkpt>
      <trkpt lat="43.16558" lon="-1.23392">
        <ele>160.9</ele>
      </trkpt>
      <trkpt lat="43.16556" lon="-1.23386">
        <ele>161</ele>
      </trkpt>
      <trkpt lat="43.16489" lon="-1.23411">
        <ele>162.9</ele>
      </trkpt>
      <trkpt lat="43.16454" lon="-1.23426">
        <ele>164.8</ele>
      </trkpt>
      <trkpt lat="43.16442" lon="-1.23436">
        <ele>165.1</ele>
      </trkpt>
      <trkpt lat="43.1643" lon="-1.2346">
        <ele>167.7</ele>
      </trkpt>
      <trkpt lat="43.16426" lon="-1.23481">
        <ele>169</ele>
      </trkpt>
      <trkpt lat="43.16422" lon="-1.23543">
        <ele>169.8</ele>
      </trkpt>
      <trkpt lat="43.16415" lon="-1.23588">
        <ele>171.4</ele>
      </trkpt>
      <trkpt lat="43.16407" lon="-1.23612">
        <ele>172.7</ele>
      </trkpt>
      <trkpt lat="43.16381" lon="-1.23677">
        <ele>171.2</ele>
      </trkpt>
      <trkpt lat="43.16362" lon="-1.23705">
        <ele>170.2</ele>
      </trkpt>
      <trkpt lat="43.16296" lon="-1.23793">
        <ele>163.5</ele>
      </trkpt>
      <trkpt lat="43.162" lon="-1.23875">
        <ele>163.4</ele>
      </trkpt>
      <trkpt lat="43.16195" lon="-1.23881">
        <ele>163.7</ele>
      </trkpt>
      <trkpt lat="43.16194" lon="-1.23885">
        <ele>163.9</ele>
      </trkpt>
      <trkpt lat="43.16197" lon="-1.23894">
        <ele>164.6</ele>
      </trkpt>
      <trkpt lat="43.16206" lon="-1.23905">
        <ele>165.2</ele>
      </trkpt>
      <trkpt lat="43.16249" lon="-1.23947">
        <ele>164.2</ele>
      </trkpt>
      <trkpt lat="43.16338" lon="-1.24071">
        <ele>160.6</ele>
      </trkpt>
      <trkpt lat="43.16377" lon="-1.2413">
        <ele>158.2</ele>
      </trkpt>
      <trkpt lat="43.16384" lon="-1.24144">
        <ele>158.4</ele>
      </trkpt>
      <trkpt lat="43.16392" lon="-1.24172">
        <ele>158.8</ele>
      </trkpt>
      <trkpt lat="43.16402" lon="-1.24217">
        <ele>160.6</ele>
      </trkpt>
      <trkpt lat="43.16408" lon="-1.24235">
        <ele>161.1</ele>
      </trkpt>
      <trkpt lat="43.16411" lon="-1.24243">
        <ele>160.9</ele>
      </trkpt>
      <trkpt lat="43.1643" lon="-1.24272">
        <ele>159.5</ele>
      </trkpt>
      <trkpt lat="43.16655" lon="-1.24583">
        <ele>156</ele>
      </trkpt>
      <trkpt lat="43.16675" lon="-1.24604">
        <ele>155.8</ele>
      </trkpt>
      <trkpt lat="43.16679" lon="-1.24678">
        <ele>157</ele>
      </trkpt>
      <trkpt lat="43.16676" lon="-1.24705">
        <ele>157</ele>
      </trkpt>
      <trkpt lat="43.16663" lon="-1.24744">
        <ele>157.1</ele>
      </trkpt>
      <trkpt lat="43.16635" lon="-1.24815">
        <ele>156.9</ele>
      </trkpt>
      <trkpt lat="43.16641" lon="-1.24824">
        <ele>156.8</ele>
      </trkpt>
      <trkpt lat="43.16647" lon="-1.24845">
        <ele>156.2</ele>
      </trkpt>
      <trkpt lat="43.16654" lon="-1.24968">
        <ele>156.4</ele>
      </trkpt>
      <trkpt lat="43.16667" lon="-1.25036">
        <ele>163.2</ele>
      </trkpt>
      <trkpt lat="43.16667" lon="-1.25046">
        <ele>164.6</ele>
      </trkpt>
      <trkpt lat="43.16665" lon="-1.25056">
        <ele>165.9</ele>
      </trkpt>
      <trkpt lat="43.1666" lon="-1.25066">
        <ele>167.1</ele>
      </trkpt>
      <trkpt lat="43.16633" lon="-1.25098">
        <ele>169.8</ele>
      </trkpt>
      <trkpt lat="43.16621" lon="-1.25107">
        <ele>171.3</ele>
      </trkpt>
      <trkpt lat="43.16584" lon="-1.2512">
        <ele>173.9</ele>
      </trkpt>
      <trkpt lat="43.1664" lon="-1.25145">
        <ele>177.7</ele>
      </trkpt>
      <trkpt lat="43.16733" lon="-1.25194">
        <ele>184.3</ele>
      </trkpt>
      <trkpt lat="43.16751" lon="-1.2521">
        <ele>186.7</ele>
      </trkpt>
      <trkpt lat="43.16765" lon="-1.25231">
        <ele>187.8</ele>
      </trkpt>
      <trkpt lat="43.16775" lon="-1.2525">
        <ele>187.3</ele>
      </trkpt>
      <trkpt lat="43.16781" lon="-1.25272">
        <ele>186.1</ele>
      </trkpt>
      <trkpt lat="43.16806" lon="-1.25394">
        <ele>175.6</ele>
      </trkpt>
      <trkpt lat="43.16811" lon="-1.25447">
        <ele>174.5</ele>
      </trkpt>
      <trkpt lat="43.16813" lon="-1.25584">
        <ele>169.7</ele>
      </trkpt>
      <trkpt lat="43.16811" lon="-1.25764">
        <ele>173.3</ele>
      </trkpt>
      <trkpt lat="43.16809" lon="-1.2583">
        <ele>174.9</ele>
      </trkpt>
      <trkpt lat="43.168" lon="-1.25943">
        <ele>180.1</ele>
      </trkpt>
      <trkpt lat="43.16801" lon="-1.25989">
        <ele>182</ele>
      </trkpt>
      <trkpt lat="43.16806" lon="-1.26024">
        <ele>182.9</ele>
      </trkpt>
      <trkpt lat="43.16837" lon="-1.26177">
        <ele>189.3</ele>
      </trkpt>
      <trkpt lat="43.16852" lon="-1.26231">
        <ele>188.8</ele>
      </trkpt>
      <trkpt lat="43.1687" lon="-1.26271">
        <ele>186.8</ele>
      </trkpt>
      <trkpt lat="43.16978" lon="-1.26455">
        <ele>185.9</ele>
      </trkpt>
      <trkpt lat="43.16995" lon="-1.26495">
        <ele>184.4</ele>
      </trkpt>
      <trkpt lat="43.17003" lon="-1.26523">
        <ele>182.2</ele>
      </trkpt>
      <trkpt lat="43.17007" lon="-1.26554">
        <ele>180.6</ele>
      </trkpt>
      <trkpt lat="43.17011" lon="-1.26615">
        <ele>176.7</ele>
      </trkpt>
      <trkpt lat="43.17015" lon="-1.26648">
        <ele>176.1</ele>
      </trkpt>
      <trkpt lat="43.17019" lon="-1.26666">
        <ele>176.3</ele>
      </trkpt>
      <trkpt lat="43.17028" lon="-1.26688">
        <ele>176.8</ele>
      </trkpt>
      <trkpt lat="43.17049" lon="-1.26719">
        <ele>176.9</ele>
      </trkpt>
      <trkpt lat="43.1706" lon="-1.2673">
        <ele>177.1</ele>
      </trkpt>
      <trkpt lat="43.1708" lon="-1.26744">
        <ele>176.9</ele>
      </trkpt>
      <trkpt lat="43.17238" lon="-1.26832">
        <ele>177.4</ele>
      </trkpt>
      <trkpt lat="43.17266" lon="-1.26853">
        <ele>177.5</ele>
      </trkpt>
      <trkpt lat="43.17278" lon="-1.26866">
        <ele>178</ele>
      </trkpt>
      <trkpt lat="43.17286" lon="-1.26878">
        <ele>177.6</ele>
      </trkpt>
      <trkpt lat="43.17292" lon="-1.2689">
        <ele>177.5</ele>
      </trkpt>
      <trkpt lat="43.17301" lon="-1.26917">
        <ele>177.3</ele>
      </trkpt>
      <trkpt lat="43.17306" lon="-1.26949">
        <ele>176</ele>
      </trkpt>
      <trkpt lat="43.17307" lon="-1.27001">
        <ele>174.9</ele>
      </trkpt>
      <trkpt lat="43.17296" lon="-1.27456">
        <ele>172.7</ele>
      </trkpt>
      <trkpt lat="43.17298" lon="-1.27498">
        <ele>172.5</ele>
      </trkpt>
      <trkpt lat="43.17294" lon="-1.27566">
        <ele>173.8</ele>
      </trkpt>
      <trkpt lat="43.17288" lon="-1.27753">
        <ele>174.9</ele>
      </trkpt>
      <trkpt lat="43.17291" lon="-1.2778">
        <ele>175.1</ele>
      </trkpt>
      <trkpt lat="43.17295" lon="-1.27795">
        <ele>175.2</ele>
      </trkpt>
      <trkpt lat="43.17307" lon="-1.27819">
        <ele>174.8</ele>
      </trkpt>
      <trkpt lat="43.17318" lon="-1.27832">
        <ele>174.6</ele>
      </trkpt>
      <trkpt lat="43.17328" lon="-1.27841">
        <ele>173.4</ele>
      </trkpt>
      <trkpt lat="43.17341" lon="-1.27848">
        <ele>172.6</ele>
      </trkpt>
      <trkpt lat="43.17366" lon="-1.27856">
        <ele>174</ele>
      </trkpt>
      <trkpt lat="43.17385" lon="-1.27865">
        <ele>175.5</ele>
      </trkpt>
      <trkpt lat="43.17393" lon="-1.27871">
        <ele>175.3</ele>
      </trkpt>
      <trkpt lat="43.17408" lon="-1.27887">
        <ele>175.4</ele>
      </trkpt>
      <trkpt lat="43.17421" lon="-1.27909">
        <ele>176.2</ele>
      </trkpt>
      <trkpt lat="43.1743" lon="-1.27934">
        <ele>176.5</ele>
      </trkpt>
      <trkpt lat="43.17437" lon="-1.27971">
        <ele>176.7</ele>
      </trkpt>
      <trkpt lat="43.17458" lon="-1.2816">
        <ele>178.5</ele>
      </trkpt>
      <trkpt lat="43.17529" lon="-1.2885">
        <ele>185.1</ele>
      </trkpt>
      <trkpt lat="43.17613" lon="-1.29645">
        <ele>196.4</ele>
      </trkpt>
      <trkpt lat="43.17624" lon="-1.29689">
        <ele>198.3</ele>
      </trkpt>
      <trkpt lat="43.17646" lon="-1.2975">
        <ele>199.5</ele>
      </trkpt>
      <trkpt lat="43.17654" lon="-1.29785">
        <ele>201.6</ele>
      </trkpt>
      <trkpt lat="43.17656" lon="-1.29803">
        <ele>202.1</ele>
      </trkpt>
      <trkpt lat="43.17657" lon="-1.29841">
        <ele>202.9</ele>
      </trkpt>
      <trkpt lat="43.17655" lon="-1.29866">
        <ele>203.6</ele>
      </trkpt>
      <trkpt lat="43.17637" lon="-1.30008">
        <ele>207.5</ele>
      </trkpt>
      <trkpt lat="43.17633" lon="-1.30059">
        <ele>209.2</ele>
      </trkpt>
      <trkpt lat="43.17634" lon="-1.30076">
        <ele>209.9</ele>
      </trkpt>
      <trkpt lat="43.17637" lon="-1.30094">
        <ele>210.5</ele>
      </trkpt>
      <trkpt lat="43.17642" lon="-1.3011">
        <ele>211</ele>
      </trkpt>
      <trkpt lat="43.17655" lon="-1.30133">
        <ele>212.1</ele>
      </trkpt>
      <trkpt lat="43.17672" lon="-1.30146">
        <ele>212.8</ele>
      </trkpt>
      <trkpt lat="43.17681" lon="-1.30149">
        <ele>213.4</ele>
      </trkpt>
      <trkpt lat="43.17691" lon="-1.3015">
        <ele>213.9</ele>
      </trkpt>
      <trkpt lat="43.17725" lon="-1.30143">
        <ele>216.5</ele>
      </trkpt>
      <trkpt lat="43.1774" lon="-1.30142">
        <ele>218.1</ele>
      </trkpt>
      <trkpt lat="43.17756" lon="-1.30145">
        <ele>219.9</ele>
      </trkpt>
      <trkpt lat="43.1777" lon="-1.30151">
        <ele>221.3</ele>
      </trkpt>
      <trkpt lat="43.17784" lon="-1.3016">
        <ele>222.7</ele>
      </trkpt>
      <trkpt lat="43.17794" lon="-1.30169">
        <ele>223.8</ele>
      </trkpt>
      <trkpt lat="43.17811" lon="-1.30192">
        <ele>225.4</ele>
      </trkpt>
      <trkpt lat="43.17849" lon="-1.30281">
        <ele>229.3</ele>
      </trkpt>
      <trkpt lat="43.17869" lon="-1.30347">
        <ele>234.1</ele>
      </trkpt>
      <trkpt lat="43.17916" lon="-1.30619">
        <ele>251</ele>
      </trkpt>
      <trkpt lat="43.17919" lon="-1.30644">
        <ele>251.7</ele>
      </trkpt>
      <trkpt lat="43.1792" lon="-1.3067">
        <ele>252.4</ele>
      </trkpt>
      <trkpt lat="43.17918" lon="-1.30691">
        <ele>251.2</ele>
      </trkpt>
      <trkpt lat="43.17911" lon="-1.30724">
        <ele>250.7</ele>
      </trkpt>
      <trkpt lat="43.17886" lon="-1.3081">
        <ele>245.3</ele>
      </trkpt>
      <trkpt lat="43.17862" lon="-1.3095">
        <ele>237.2</ele>
      </trkpt>
      <trkpt lat="43.17839" lon="-1.31035">
        <ele>230.9</ele>
      </trkpt>
      <trkpt lat="43.17825" lon="-1.31111">
        <ele>225.5</ele>
      </trkpt>
      <trkpt lat="43.1782" lon="-1.31152">
        <ele>221</ele>
      </trkpt>
      <trkpt lat="43.17818" lon="-1.31192">
        <ele>222.9</ele>
      </trkpt>
      <trkpt lat="43.17819" lon="-1.3123">
        <ele>225.2</ele>
      </trkpt>
      <trkpt lat="43.17827" lon="-1.31292">
        <ele>221.2</ele>
      </trkpt>
      <trkpt lat="43.17837" lon="-1.31336">
        <ele>215.8</ele>
      </trkpt>
      <trkpt lat="43.17884" lon="-1.31468">
        <ele>209.1</ele>
      </trkpt>
      <trkpt lat="43.17894" lon="-1.31514">
        <ele>206.4</ele>
      </trkpt>
      <trkpt lat="43.17907" lon="-1.31609">
        <ele>203.2</ele>
      </trkpt>
      <trkpt lat="43.17921" lon="-1.31651">
        <ele>200.1</ele>
      </trkpt>
      <trkpt lat="43.17982" lon="-1.31785">
        <ele>190</ele>
      </trkpt>
      <trkpt lat="43.1799" lon="-1.31799">
        <ele>189</ele>
      </trkpt>
      <trkpt lat="43.17999" lon="-1.31812">
        <ele>187.8</ele>
      </trkpt>
      <trkpt lat="43.1801" lon="-1.31823">
        <ele>185.1</ele>
      </trkpt>
      <trkpt lat="43.18045" lon="-1.31853">
        <ele>182.4</ele>
      </trkpt>
      <trkpt lat="43.18054" lon="-1.31868">
        <ele>182.7</ele>
      </trkpt>
      <trkpt lat="43.18067" lon="-1.3193">
        <ele>182.3</ele>
      </trkpt>
      <trkpt lat="43.18078" lon="-1.31954">
        <ele>180</ele>
      </trkpt>
      <trkpt lat="43.18094" lon="-1.31973">
        <ele>178.7</ele>
      </trkpt>
      <trkpt lat="43.18153" lon="-1.32022">
        <ele>180.3</ele>
      </trkpt>
      <trkpt lat="43.18162" lon="-1.32032">
        <ele>180.5</ele>
      </trkpt>
      <trkpt lat="43.18175" lon="-1.32055">
        <ele>182.1</ele>
      </trkpt>
      <trkpt lat="43.1818" lon="-1.3207">
        <ele>182.1</ele>
      </trkpt>
      <trkpt lat="43.18183" lon="-1.32085">
        <ele>181.2</ele>
      </trkpt>
      <trkpt lat="43.18184" lon="-1.32114">
        <ele>177.9</ele>
      </trkpt>
      <trkpt lat="43.18176" lon="-1.32156">
        <ele>171.5</ele>
      </trkpt>
      <trkpt lat="43.18163" lon="-1.32185">
        <ele>168.4</ele>
      </trkpt>
      <trkpt lat="43.18156" lon="-1.32195">
        <ele>167.2</ele>
      </trkpt>
      <trkpt lat="43.18112" lon="-1.32241">
        <ele>164</ele>
      </trkpt>
      <trkpt lat="43.18102" lon="-1.32257">
        <ele>164.2</ele>
      </trkpt>
      <trkpt lat="43.18097" lon="-1.32278">
        <ele>164.5</ele>
      </trkpt>
      <trkpt lat="43.18098" lon="-1.32308">
        <ele>165</ele>
      </trkpt>
      <trkpt lat="43.18104" lon="-1.32333">
        <ele>164.5</ele>
      </trkpt>
      <trkpt lat="43.18169" lon="-1.32509">
        <ele>168.4</ele>
      </trkpt>
      <trkpt lat="43.18178" lon="-1.32545">
        <ele>170.8</ele>
      </trkpt>
      <trkpt lat="43.18194" lon="-1.32638">
        <ele>173</ele>
      </trkpt>
      <trkpt lat="43.182" lon="-1.32659">
        <ele>173.4</ele>
      </trkpt>
      <trkpt lat="43.18212" lon="-1.32683">
        <ele>173.1</ele>
      </trkpt>
      <trkpt lat="43.18223" lon="-1.32697">
        <ele>172.9</ele>
      </trkpt>
      <trkpt lat="43.18388" lon="-1.32847">
        <ele>162.1</ele>
      </trkpt>
      <trkpt lat="43.18398" lon="-1.32861">
        <ele>160.7</ele>
      </trkpt>
      <trkpt lat="43.18406" lon="-1.32879">
        <ele>159.6</ele>
      </trkpt>
      <trkpt lat="43.18419" lon="-1.32923">
        <ele>157.7</ele>
      </trkpt>
      <trkpt lat="43.18424" lon="-1.32947">
        <ele>157</ele>
      </trkpt>
      <trkpt lat="43.18424" lon="-1.3296">
        <ele>156.3</ele>
      </trkpt>
      <trkpt lat="43.18421" lon="-1.32981">
        <ele>155.1</ele>
      </trkpt>
      <trkpt lat="43.18403" lon="-1.3303">
        <ele>151.8</ele>
      </trkpt>
      <trkpt lat="43.18401" lon="-1.3304">
        <ele>151</ele>
      </trkpt>
      <trkpt lat="43.18399" lon="-1.33072">
        <ele>149</ele>
      </trkpt>
      <trkpt lat="43.18407" lon="-1.33167">
        <ele>147.3</ele>
      </trkpt>
      <trkpt lat="43.18407" lon="-1.33189">
        <ele>147.3</ele>
      </trkpt>
      <trkpt lat="43.18405" lon="-1.33207">
        <ele>147.4</ele>
      </trkpt>
      <trkpt lat="43.18397" lon="-1.33243">
        <ele>147</ele>
      </trkpt>
      <trkpt lat="43.18376" lon="-1.33316">
        <ele>146.9</ele>
      </trkpt>
      <trkpt lat="43.1837" lon="-1.33334">
        <ele>147.4</ele>
      </trkpt>
      <trkpt lat="43.18363" lon="-1.33349">
        <ele>147.9</ele>
      </trkpt>
      <trkpt lat="43.18354" lon="-1.33364">
        <ele>148</ele>
      </trkpt>
      <trkpt lat="43.1827" lon="-1.33481">
        <ele>149.5</ele>
      </trkpt>
      <trkpt lat="43.18258" lon="-1.33501">
        <ele>150</ele>
      </trkpt>
      <trkpt lat="43.18251" lon="-1.33518">
        <ele>150</ele>
      </trkpt>
      <trkpt lat="43.18255" lon="-1.33522">
        <ele>149.9</ele>
      </trkpt>
      <trkpt lat="43.18256" lon="-1.33529">
        <ele>149.8</ele>
      </trkpt>
      <trkpt lat="43.18254" lon="-1.33535">
        <ele>149.9</ele>
      </trkpt>
      <trkpt lat="43.18252" lon="-1.33537">
        <ele>149.9</ele>
      </trkpt>
      <trkpt lat="43.18247" lon="-1.33538">
        <ele>150</ele>
      </trkpt>
      <trkpt lat="43.18246" lon="-1.3357">
        <ele>149.9</ele>
      </trkpt>
      <trkpt lat="43.18251" lon="-1.33661">
        <ele>147.6</ele>
      </trkpt>
      <trkpt lat="43.18252" lon="-1.33669">
        <ele>148.1</ele>
      </trkpt>
      <trkpt lat="43.18255" lon="-1.33676">
        <ele>148.5</ele>
      </trkpt>
      <trkpt lat="43.18241" lon="-1.33693">
        <ele>149.9</ele>
      </trkpt>
      <trkpt lat="43.18207" lon="-1.33717">
        <ele>148.6</ele>
      </trkpt>
      <trkpt lat="43.18193" lon="-1.33729">
        <ele>149</ele>
      </trkpt>
      <trkpt lat="43.18134" lon="-1.33787">
        <ele>151.4</ele>
      </trkpt>
      <trkpt lat="43.18122" lon="-1.33801">
        <ele>152.1</ele>
      </trkpt>
      <trkpt lat="43.18112" lon="-1.33817">
        <ele>151.6</ele>
      </trkpt>
      <trkpt lat="43.18105" lon="-1.33832">
        <ele>151.3</ele>
      </trkpt>
      <trkpt lat="43.18082" lon="-1.33887">
        <ele>149.9</ele>
      </trkpt>
      <trkpt lat="43.18072" lon="-1.33901">
        <ele>150.3</ele>
      </trkpt>
      <trkpt lat="43.18066" lon="-1.33906">
        <ele>150.2</ele>
      </trkpt>
      <trkpt lat="43.18039" lon="-1.3392">
        <ele>150.8</ele>
      </trkpt>
      <trkpt lat="43.18028" lon="-1.33928">
        <ele>151.4</ele>
      </trkpt>
      <trkpt lat="43.18006" lon="-1.33949">
        <ele>152.2</ele>
      </trkpt>
      <trkpt lat="43.1797" lon="-1.33978">
        <ele>153</ele>
      </trkpt>
      <trkpt lat="43.1789" lon="-1.34053">
        <ele>154</ele>
      </trkpt>
      <trkpt lat="43.17785" lon="-1.34181">
        <ele>155</ele>
      </trkpt>
      <trkpt lat="43.17776" lon="-1.34191">
        <ele>155</ele>
      </trkpt>
      <trkpt lat="43.1777" lon="-1.34195">
        <ele>155</ele>
      </trkpt>
      <trkpt lat="43.17768" lon="-1.34209">
        <ele>155.2</ele>
      </trkpt>
      <trkpt lat="43.17756" lon="-1.34231">
        <ele>154.7</ele>
      </trkpt>
      <trkpt lat="43.17745" lon="-1.34264">
        <ele>154.6</ele>
      </trkpt>
      <trkpt lat="43.17741" lon="-1.34267">
        <ele>154.2</ele>
      </trkpt>
      <trkpt lat="43.17734" lon="-1.34266">
        <ele>153.6</ele>
      </trkpt>
      <trkpt lat="43.17728" lon="-1.34271">
        <ele>153.2</ele>
      </trkpt>
      <trkpt lat="43.17723" lon="-1.34281">
        <ele>153.1</ele>
      </trkpt>
      <trkpt lat="43.17704" lon="-1.34354">
        <ele>153</ele>
      </trkpt>
      <trkpt lat="43.17684" lon="-1.34511">
        <ele>156.1</ele>
      </trkpt>
      <trkpt lat="43.17679" lon="-1.3459">
        <ele>159.2</ele>
      </trkpt>
      <trkpt lat="43.17665" lon="-1.34656">
        <ele>155.9</ele>
      </trkpt>
      <trkpt lat="43.17657" lon="-1.3468">
        <ele>156.8</ele>
      </trkpt>
      <trkpt lat="43.17572" lon="-1.34805">
        <ele>156.9</ele>
      </trkpt>
      <trkpt lat="43.17584" lon="-1.34825">
        <ele>160.4</ele>
      </trkpt>
      <trkpt lat="43.17586" lon="-1.34835">
        <ele>161.1</ele>
      </trkpt>
      <trkpt lat="43.17585" lon="-1.34853">
        <ele>161.9</ele>
      </trkpt>
      <trkpt lat="43.17579" lon="-1.34875">
        <ele>163.6</ele>
      </trkpt>
      <trkpt lat="43.17573" lon="-1.34889">
        <ele>164.9</ele>
      </trkpt>
      <trkpt lat="43.17558" lon="-1.34916">
        <ele>166.4</ele>
      </trkpt>
      <trkpt lat="43.17521" lon="-1.34961">
        <ele>169.6</ele>
      </trkpt>
      <trkpt lat="43.17514" lon="-1.34971">
        <ele>171.2</ele>
      </trkpt>
      <trkpt lat="43.17511" lon="-1.34981">
        <ele>172.3</ele>
      </trkpt>
      <trkpt lat="43.17512" lon="-1.34992">
        <ele>173.6</ele>
      </trkpt>
      <trkpt lat="43.17518" lon="-1.35003">
        <ele>174.5</ele>
      </trkpt>
      <trkpt lat="43.17526" lon="-1.35008">
        <ele>174.6</ele>
      </trkpt>
      <trkpt lat="43.17531" lon="-1.35008">
        <ele>174.8</ele>
      </trkpt>
      <trkpt lat="43.17536" lon="-1.35006">
        <ele>175</ele>
      </trkpt>
      <trkpt lat="43.17546" lon="-1.34997">
        <ele>175.3</ele>
      </trkpt>
      <trkpt lat="43.17578" lon="-1.34958">
        <ele>177.2</ele>
      </trkpt>
      <trkpt lat="43.17598" lon="-1.34944">
        <ele>178.5</ele>
      </trkpt>
      <trkpt lat="43.17634" lon="-1.34927">
        <ele>181.7</ele>
      </trkpt>
      <trkpt lat="43.17643" lon="-1.34925">
        <ele>182.6</ele>
      </trkpt>
      <trkpt lat="43.17651" lon="-1.34926">
        <ele>183.2</ele>
      </trkpt>
      <trkpt lat="43.17658" lon="-1.34929">
        <ele>183.8</ele>
      </trkpt>
      <trkpt lat="43.17664" lon="-1.34934">
        <ele>184.4</ele>
      </trkpt>
      <trkpt lat="43.17671" lon="-1.34943">
        <ele>184.2</ele>
      </trkpt>
      <trkpt lat="43.17684" lon="-1.34968">
        <ele>185.7</ele>
      </trkpt>
      <trkpt lat="43.17699" lon="-1.35013">
        <ele>190.7</ele>
      </trkpt>
      <trkpt lat="43.17704" lon="-1.35024">
        <ele>191.8</ele>
      </trkpt>
      <trkpt lat="43.17712" lon="-1.35032">
        <ele>191</ele>
      </trkpt>
      <trkpt lat="43.17717" lon="-1.35033">
        <ele>189.6</ele>
      </trkpt>
      <trkpt lat="43.17737" lon="-1.3503">
        <ele>190.5</ele>
      </trkpt>
      <trkpt lat="43.17749" lon="-1.35032">
        <ele>192.4</ele>
      </trkpt>
      <trkpt lat="43.17755" lon="-1.35035">
        <ele>193.4</ele>
      </trkpt>
      <trkpt lat="43.17763" lon="-1.35042">
        <ele>194.8</ele>
      </trkpt>
      <trkpt lat="43.17773" lon="-1.35058">
        <ele>196.6</ele>
      </trkpt>
      <trkpt lat="43.1778" lon="-1.35078">
        <ele>197.8</ele>
      </trkpt>
      <trkpt lat="43.17781" lon="-1.35093">
        <ele>198</ele>
      </trkpt>
      <trkpt lat="43.17776" lon="-1.35106">
        <ele>197.1</ele>
      </trkpt>
      <trkpt lat="43.17767" lon="-1.35113">
        <ele>198</ele>
      </trkpt>
      <trkpt lat="43.17761" lon="-1.35114">
        <ele>198.5</ele>
      </trkpt>
      <trkpt lat="43.17754" lon="-1.35113">
        <ele>199</ele>
      </trkpt>
      <trkpt lat="43.17747" lon="-1.3511">
        <ele>199.8</ele>
      </trkpt>
      <trkpt lat="43.17699" lon="-1.35069">
        <ele>204.1</ele>
      </trkpt>
      <trkpt lat="43.17693" lon="-1.35066">
        <ele>205.2</ele>
      </trkpt>
      <trkpt lat="43.17686" lon="-1.35065">
        <ele>204.7</ele>
      </trkpt>
      <trkpt lat="43.17672" lon="-1.35071">
        <ele>205.5</ele>
      </trkpt>
      <trkpt lat="43.17634" lon="-1.351">
        <ele>208.5</ele>
      </trkpt>
      <trkpt lat="43.17614" lon="-1.3512">
        <ele>210</ele>
      </trkpt>
      <trkpt lat="43.17607" lon="-1.35131">
        <ele>210.4</ele>
      </trkpt>
      <trkpt lat="43.17597" lon="-1.35155">
        <ele>211.8</ele>
      </trkpt>
      <trkpt lat="43.17588" lon="-1.35187">
        <ele>215</ele>
      </trkpt>
      <trkpt lat="43.17586" lon="-1.35202">
        <ele>216.3</ele>
      </trkpt>
      <trkpt lat="43.17585" lon="-1.35242">
        <ele>218.3</ele>
      </trkpt>
      <trkpt lat="43.17588" lon="-1.35324">
        <ele>222.6</ele>
      </trkpt>
      <trkpt lat="43.17587" lon="-1.35342">
        <ele>224.4</ele>
      </trkpt>
      <trkpt lat="43.17585" lon="-1.3535">
        <ele>224.9</ele>
      </trkpt>
      <trkpt lat="43.17581" lon="-1.35358">
        <ele>225</ele>
      </trkpt>
      <trkpt lat="43.17575" lon="-1.35365">
        <ele>225.9</ele>
      </trkpt>
      <trkpt lat="43.17566" lon="-1.35371">
        <ele>226.4</ele>
      </trkpt>
      <trkpt lat="43.17555" lon="-1.35375">
        <ele>225.5</ele>
      </trkpt>
      <trkpt lat="43.17517" lon="-1.35382">
        <ele>228.2</ele>
      </trkpt>
      <trkpt lat="43.175" lon="-1.35392">
        <ele>230.8</ele>
      </trkpt>
      <trkpt lat="43.17493" lon="-1.35399">
        <ele>230.6</ele>
      </trkpt>
      <trkpt lat="43.17475" lon="-1.35424">
        <ele>233.4</ele>
      </trkpt>
      <trkpt lat="43.17466" lon="-1.35447">
        <ele>232.7</ele>
      </trkpt>
      <trkpt lat="43.17443" lon="-1.35545">
        <ele>240.9</ele>
      </trkpt>
      <trkpt lat="43.17424" lon="-1.35601">
        <ele>244.7</ele>
      </trkpt>
      <trkpt lat="43.17414" lon="-1.35637">
        <ele>247.1</ele>
      </trkpt>
      <trkpt lat="43.17385" lon="-1.35696">
        <ele>249.6</ele>
      </trkpt>
      <trkpt lat="43.1738" lon="-1.35722">
        <ele>251.5</ele>
      </trkpt>
      <trkpt lat="43.1738" lon="-1.35737">
        <ele>252.2</ele>
      </trkpt>
      <trkpt lat="43.17383" lon="-1.35764">
        <ele>253.3</ele>
      </trkpt>
      <trkpt lat="43.17389" lon="-1.35791">
        <ele>254.1</ele>
      </trkpt>
      <trkpt lat="43.17393" lon="-1.35801">
        <ele>254.5</ele>
      </trkpt>
      <trkpt lat="43.17402" lon="-1.35812">
        <ele>254.3</ele>
      </trkpt>
      <trkpt lat="43.17413" lon="-1.35817">
        <ele>255.4</ele>
      </trkpt>
      <trkpt lat="43.17421" lon="-1.35818">
        <ele>256.3</ele>
      </trkpt>
      <trkpt lat="43.17482" lon="-1.35814">
        <ele>261</ele>
      </trkpt>
      <trkpt lat="43.17544" lon="-1.35816">
        <ele>265.3</ele>
      </trkpt>
      <trkpt lat="43.17567" lon="-1.35819">
        <ele>266.1</ele>
      </trkpt>
      <trkpt lat="43.17604" lon="-1.35828">
        <ele>269</ele>
      </trkpt>
      <trkpt lat="43.17626" lon="-1.3584">
        <ele>270.6</ele>
      </trkpt>
      <trkpt lat="43.17671" lon="-1.35881">
        <ele>275.9</ele>
      </trkpt>
      <trkpt lat="43.17693" lon="-1.35909">
        <ele>277.9</ele>
      </trkpt>
      <trkpt lat="43.17707" lon="-1.35936">
        <ele>279.8</ele>
      </trkpt>
      <trkpt lat="43.17711" lon="-1.3595">
        <ele>280</ele>
      </trkpt>
      <trkpt lat="43.17724" lon="-1.36022">
        <ele>284.5</ele>
      </trkpt>
      <trkpt lat="43.17738" lon="-1.36068">
        <ele>290.6</ele>
      </trkpt>
      <trkpt lat="43.17739" lon="-1.36087">
        <ele>291.3</ele>
      </trkpt>
      <trkpt lat="43.17735" lon="-1.36125">
        <ele>291.2</ele>
      </trkpt>
      <trkpt lat="43.17735" lon="-1.36139">
        <ele>290.7</ele>
      </trkpt>
      <trkpt lat="43.17737" lon="-1.36151">
        <ele>289.9</ele>
      </trkpt>
      <trkpt lat="43.17752" lon="-1.36191">
        <ele>292.7</ele>
      </trkpt>
      <trkpt lat="43.17754" lon="-1.36209">
        <ele>295</ele>
      </trkpt>
      <trkpt lat="43.1775" lon="-1.36228">
        <ele>295.1</ele>
      </trkpt>
      <trkpt lat="43.17735" lon="-1.3626">
        <ele>297.3</ele>
      </trkpt>
      <trkpt lat="43.17731" lon="-1.36273">
        <ele>297.6</ele>
      </trkpt>
      <trkpt lat="43.17725" lon="-1.36302">
        <ele>299.3</ele>
      </trkpt>
      <trkpt lat="43.17719" lon="-1.36348">
        <ele>304.7</ele>
      </trkpt>
      <trkpt lat="43.17716" lon="-1.36357">
        <ele>304.2</ele>
      </trkpt>
      <trkpt lat="43.17696" lon="-1.36386">
        <ele>302.8</ele>
      </trkpt>
      <trkpt lat="43.17693" lon="-1.36399">
        <ele>302.9</ele>
      </trkpt>
      <trkpt lat="43.17694" lon="-1.36412">
        <ele>304.5</ele>
      </trkpt>
      <trkpt lat="43.17702" lon="-1.36424">
        <ele>304</ele>
      </trkpt>
      <trkpt lat="43.1771" lon="-1.3643">
        <ele>304.2</ele>
      </trkpt>
      <trkpt lat="43.17736" lon="-1.36442">
        <ele>307.6</ele>
      </trkpt>
      <trkpt lat="43.1778" lon="-1.36458">
        <ele>312.4</ele>
      </trkpt>
      <trkpt lat="43.17789" lon="-1.36463">
        <ele>313.7</ele>
      </trkpt>
      <trkpt lat="43.178" lon="-1.36476">
        <ele>313.9</ele>
      </trkpt>
      <trkpt lat="43.17804" lon="-1.3649">
        <ele>315.3</ele>
      </trkpt>
      <trkpt lat="43.17801" lon="-1.36525">
        <ele>316.1</ele>
      </trkpt>
      <trkpt lat="43.17791" lon="-1.36561">
        <ele>320.1</ele>
      </trkpt>
      <trkpt lat="43.17781" lon="-1.36585">
        <ele>321.4</ele>
      </trkpt>
      <trkpt lat="43.17741" lon="-1.3666">
        <ele>327.5</ele>
      </trkpt>
      <trkpt lat="43.17733" lon="-1.36683">
        <ele>328.8</ele>
      </trkpt>
      <trkpt lat="43.1773" lon="-1.3671">
        <ele>329.8</ele>
      </trkpt>
      <trkpt lat="43.17729" lon="-1.36777">
        <ele>332.6</ele>
      </trkpt>
      <trkpt lat="43.17732" lon="-1.3683">
        <ele>335.4</ele>
      </trkpt>
      <trkpt lat="43.17738" lon="-1.36883">
        <ele>337.6</ele>
      </trkpt>
      <trkpt lat="43.17739" lon="-1.36915">
        <ele>338.8</ele>
      </trkpt>
      <trkpt lat="43.17736" lon="-1.36938">
        <ele>340.8</ele>
      </trkpt>
      <trkpt lat="43.17726" lon="-1.36978">
        <ele>341.7</ele>
      </trkpt>
      <trkpt lat="43.17724" lon="-1.36995">
        <ele>342.7</ele>
      </trkpt>
      <trkpt lat="43.17727" lon="-1.37004">
        <ele>343.1</ele>
      </trkpt>
      <trkpt lat="43.1773" lon="-1.37008">
        <ele>342.7</ele>
      </trkpt>
      <trkpt lat="43.17735" lon="-1.37011">
        <ele>342.4</ele>
      </trkpt>
      <trkpt lat="43.17746" lon="-1.37012">
        <ele>343</ele>
      </trkpt>
      <trkpt lat="43.17773" lon="-1.37006">
        <ele>346.1</ele>
      </trkpt>
      <trkpt lat="43.17803" lon="-1.37011">
        <ele>347.7</ele>
      </trkpt>
      <trkpt lat="43.17832" lon="-1.3701">
        <ele>349.6</ele>
      </trkpt>
      <trkpt lat="43.17853" lon="-1.37012">
        <ele>352.4</ele>
      </trkpt>
      <trkpt lat="43.17902" lon="-1.37028">
        <ele>355.3</ele>
      </trkpt>
      <trkpt lat="43.1793" lon="-1.37028">
        <ele>358.3</ele>
      </trkpt>
      <trkpt lat="43.17951" lon="-1.37032">
        <ele>360.1</ele>
      </trkpt>
      <trkpt lat="43.17998" lon="-1.37056">
        <ele>364.2</ele>
      </trkpt>
      <trkpt lat="43.18006" lon="-1.37062">
        <ele>365.7</ele>
      </trkpt>
      <trkpt lat="43.18032" lon="-1.37095">
        <ele>367.3</ele>
      </trkpt>
      <trkpt lat="43.18047" lon="-1.37127">
        <ele>369.5</ele>
      </trkpt>
      <trkpt lat="43.18054" lon="-1.37154">
        <ele>370.4</ele>
      </trkpt>
      <trkpt lat="43.18054" lon="-1.37295">
        <ele>375.6</ele>
      </trkpt>
      <trkpt lat="43.18059" lon="-1.37322">
        <ele>379</ele>
      </trkpt>
      <trkpt lat="43.18067" lon="-1.3734">
        <ele>380.7</ele>
      </trkpt>
      <trkpt lat="43.18079" lon="-1.37352">
        <ele>381.8</ele>
      </trkpt>
      <trkpt lat="43.18115" lon="-1.37371">
        <ele>384.8</ele>
      </trkpt>
      <trkpt lat="43.18121" lon="-1.37375">
        <ele>385.5</ele>
      </trkpt>
      <trkpt lat="43.18126" lon="-1.37381">
        <ele>385.2</ele>
      </trkpt>
      <trkpt lat="43.18131" lon="-1.37393">
        <ele>384.6</ele>
      </trkpt>
      <trkpt lat="43.18134" lon="-1.37432">
        <ele>387.1</ele>
      </trkpt>
      <trkpt lat="43.18137" lon="-1.3744">
        <ele>387.1</ele>
      </trkpt>
      <trkpt lat="43.18141" lon="-1.37444">
        <ele>387.5</ele>
      </trkpt>
      <trkpt lat="43.18146" lon="-1.37447">
        <ele>387.4</ele>
      </trkpt>
      <trkpt lat="43.18173" lon="-1.37454">
        <ele>390.7</ele>
      </trkpt>
      <trkpt lat="43.18188" lon="-1.3746">
        <ele>392.4</ele>
      </trkpt>
      <trkpt lat="43.1822" lon="-1.37476">
        <ele>393</ele>
      </trkpt>
      <trkpt lat="43.18233" lon="-1.37486">
        <ele>395</ele>
      </trkpt>
      <trkpt lat="43.18291" lon="-1.37546">
        <ele>400.5</ele>
      </trkpt>
      <trkpt lat="43.18304" lon="-1.37551">
        <ele>403.5</ele>
      </trkpt>
      <trkpt lat="43.18331" lon="-1.37554">
        <ele>405.6</ele>
      </trkpt>
      <trkpt lat="43.18338" lon="-1.37559">
        <ele>406</ele>
      </trkpt>
      <trkpt lat="43.18341" lon="-1.37568">
        <ele>406.8</ele>
      </trkpt>
      <trkpt lat="43.18341" lon="-1.37574">
        <ele>406.8</ele>
      </trkpt>
      <trkpt lat="43.18338" lon="-1.37583">
        <ele>406.2</ele>
      </trkpt>
      <trkpt lat="43.18325" lon="-1.37596">
        <ele>408.4</ele>
      </trkpt>
      <trkpt lat="43.1829" lon="-1.37615">
        <ele>407.8</ele>
      </trkpt>
      <trkpt lat="43.18281" lon="-1.37618">
        <ele>407.4</ele>
      </trkpt>
      <trkpt lat="43.18259" lon="-1.3762">
        <ele>408.5</ele>
      </trkpt>
      <trkpt lat="43.18234" lon="-1.37615">
        <ele>410.2</ele>
      </trkpt>
      <trkpt lat="43.18194" lon="-1.37603">
        <ele>411.9</ele>
      </trkpt>
      <trkpt lat="43.18179" lon="-1.37604">
        <ele>411.4</ele>
      </trkpt>
      <trkpt lat="43.18102" lon="-1.37641">
        <ele>420</ele>
      </trkpt>
      <trkpt lat="43.18086" lon="-1.37647">
        <ele>421.3</ele>
      </trkpt>
      <trkpt lat="43.18074" lon="-1.37649">
        <ele>422.8</ele>
      </trkpt>
      <trkpt lat="43.18064" lon="-1.37649">
        <ele>423.5</ele>
      </trkpt>
      <trkpt lat="43.18056" lon="-1.37647">
        <ele>423.1</ele>
      </trkpt>
      <trkpt lat="43.18031" lon="-1.37635">
        <ele>423.6</ele>
      </trkpt>
      <trkpt lat="43.17988" lon="-1.37624">
        <ele>429.6</ele>
      </trkpt>
      <trkpt lat="43.17968" lon="-1.37613">
        <ele>430.1</ele>
      </trkpt>
      <trkpt lat="43.17932" lon="-1.37586">
        <ele>434.1</ele>
      </trkpt>
      <trkpt lat="43.17878" lon="-1.37532">
        <ele>437</ele>
      </trkpt>
      <trkpt lat="43.17868" lon="-1.37532">
        <ele>438.1</ele>
      </trkpt>
      <trkpt lat="43.17863" lon="-1.37535">
        <ele>439.9</ele>
      </trkpt>
      <trkpt lat="43.17843" lon="-1.37553">
        <ele>441.9</ele>
      </trkpt>
      <trkpt lat="43.17816" lon="-1.37568">
        <ele>442.5</ele>
      </trkpt>
      <trkpt lat="43.17804" lon="-1.3758">
        <ele>443.4</ele>
      </trkpt>
      <trkpt lat="43.17801" lon="-1.37586">
        <ele>443.7</ele>
      </trkpt>
      <trkpt lat="43.17798" lon="-1.37604">
        <ele>444.6</ele>
      </trkpt>
      <trkpt lat="43.17798" lon="-1.37618">
        <ele>445.5</ele>
      </trkpt>
      <trkpt lat="43.17811" lon="-1.377">
        <ele>450.5</ele>
      </trkpt>
      <trkpt lat="43.17821" lon="-1.37742">
        <ele>453.5</ele>
      </trkpt>
      <trkpt lat="43.17828" lon="-1.37763">
        <ele>454.9</ele>
      </trkpt>
      <trkpt lat="43.17834" lon="-1.37777">
        <ele>456.4</ele>
      </trkpt>
      <trkpt lat="43.17845" lon="-1.37795">
        <ele>456.3</ele>
      </trkpt>
      <trkpt lat="43.17857" lon="-1.37805">
        <ele>457</ele>
      </trkpt>
      <trkpt lat="43.17869" lon="-1.37809">
        <ele>458.2</ele>
      </trkpt>
      <trkpt lat="43.1788" lon="-1.37811">
        <ele>459.1</ele>
      </trkpt>
      <trkpt lat="43.17929" lon="-1.37814">
        <ele>462.7</ele>
      </trkpt>
      <trkpt lat="43.17949" lon="-1.37821">
        <ele>464.2</ele>
      </trkpt>
      <trkpt lat="43.17981" lon="-1.3784">
        <ele>467.1</ele>
      </trkpt>
      <trkpt lat="43.18013" lon="-1.37869">
        <ele>469.8</ele>
      </trkpt>
      <trkpt lat="43.18023" lon="-1.37876">
        <ele>471.2</ele>
      </trkpt>
      <trkpt lat="43.18073" lon="-1.37899">
        <ele>474.7</ele>
      </trkpt>
      <trkpt lat="43.18085" lon="-1.37906">
        <ele>475.7</ele>
      </trkpt>
      <trkpt lat="43.18095" lon="-1.37914">
        <ele>475.9</ele>
      </trkpt>
      <trkpt lat="43.18119" lon="-1.37938">
        <ele>479</ele>
      </trkpt>
      <trkpt lat="43.18152" lon="-1.37979">
        <ele>482</ele>
      </trkpt>
      <trkpt lat="43.18184" lon="-1.38023">
        <ele>484.2</ele>
      </trkpt>
      <trkpt lat="43.182" lon="-1.3805">
        <ele>488.6</ele>
      </trkpt>
      <trkpt lat="43.18207" lon="-1.38074">
        <ele>490.9</ele>
      </trkpt>
      <trkpt lat="43.18208" lon="-1.38084">
        <ele>491.4</ele>
      </trkpt>
      <trkpt lat="43.18207" lon="-1.38094">
        <ele>491.5</ele>
      </trkpt>
      <trkpt lat="43.18202" lon="-1.38108">
        <ele>490.8</ele>
      </trkpt>
      <trkpt lat="43.18196" lon="-1.38118">
        <ele>491.4</ele>
      </trkpt>
      <trkpt lat="43.18181" lon="-1.38136">
        <ele>492.8</ele>
      </trkpt>
      <trkpt lat="43.1817" lon="-1.38147">
        <ele>494.3</ele>
      </trkpt>
      <trkpt lat="43.18154" lon="-1.38158">
        <ele>495.1</ele>
      </trkpt>
      <trkpt lat="43.1812" lon="-1.3817">
        <ele>497.1</ele>
      </trkpt>
      <trkpt lat="43.18107" lon="-1.38177">
        <ele>497.5</ele>
      </trkpt>
      <trkpt lat="43.18102" lon="-1.38184">
        <ele>497.3</ele>
      </trkpt>
      <trkpt lat="43.18081" lon="-1.38227">
        <ele>501.9</ele>
      </trkpt>
      <trkpt lat="43.18029" lon="-1.38298">
        <ele>507.4</ele>
      </trkpt>
      <trkpt lat="43.18011" lon="-1.38316">
        <ele>510.2</ele>
      </trkpt>
      <trkpt lat="43.17964" lon="-1.38354">
        <ele>513.8</ele>
      </trkpt>
      <trkpt lat="43.17939" lon="-1.38385">
        <ele>515.6</ele>
      </trkpt>
      <trkpt lat="43.17912" lon="-1.38411">
        <ele>518.4</ele>
      </trkpt>
      <trkpt lat="43.17904" lon="-1.38422">
        <ele>518.5</ele>
      </trkpt>
      <trkpt lat="43.17901" lon="-1.38438">
        <ele>519.3</ele>
      </trkpt>
      <trkpt lat="43.1791" lon="-1.38518">
        <ele>522.7</ele>
      </trkpt>
      <trkpt lat="43.17912" lon="-1.38571">
        <ele>527.6</ele>
      </trkpt>
      <trkpt lat="43.17907" lon="-1.38593">
        <ele>531.4</ele>
      </trkpt>
      <trkpt lat="43.17894" lon="-1.38625">
        <ele>530.7</ele>
      </trkpt>
      <trkpt lat="43.17893" lon="-1.38634">
        <ele>531.4</ele>
      </trkpt>
      <trkpt lat="43.17896" lon="-1.38651">
        <ele>530.4</ele>
      </trkpt>
      <trkpt lat="43.17904" lon="-1.38663">
        <ele>530.3</ele>
      </trkpt>
      <trkpt lat="43.17917" lon="-1.38672">
        <ele>532.5</ele>
      </trkpt>
      <trkpt lat="43.17933" lon="-1.38675">
        <ele>532.9</ele>
      </trkpt>
      <trkpt lat="43.17954" lon="-1.38675">
        <ele>534.3</ele>
      </trkpt>
      <trkpt lat="43.17972" lon="-1.38672">
        <ele>536.3</ele>
      </trkpt>
      <trkpt lat="43.17993" lon="-1.38665">
        <ele>536.9</ele>
      </trkpt>
      <trkpt lat="43.18062" lon="-1.38635">
        <ele>544</ele>
      </trkpt>
      <trkpt lat="43.18076" lon="-1.38632">
        <ele>545.6</ele>
      </trkpt>
      <trkpt lat="43.18083" lon="-1.38633">
        <ele>545.3</ele>
      </trkpt>
      <trkpt lat="43.1809" lon="-1.38635">
        <ele>546.2</ele>
      </trkpt>
      <trkpt lat="43.18106" lon="-1.38647">
        <ele>547.1</ele>
      </trkpt>
      <trkpt lat="43.1813" lon="-1.3869">
        <ele>549.2</ele>
      </trkpt>
      <trkpt lat="43.18137" lon="-1.38698">
        <ele>549.7</ele>
      </trkpt>
      <trkpt lat="43.18153" lon="-1.38709">
        <ele>551</ele>
      </trkpt>
      <trkpt lat="43.18171" lon="-1.38716">
        <ele>553</ele>
      </trkpt>
      <trkpt lat="43.18239" lon="-1.38734">
        <ele>558.7</ele>
      </trkpt>
      <trkpt lat="43.1831" lon="-1.38748">
        <ele>566.2</ele>
      </trkpt>
      <trkpt lat="43.18317" lon="-1.38751">
        <ele>566.6</ele>
      </trkpt>
      <trkpt lat="43.18324" lon="-1.38758">
        <ele>567.2</ele>
      </trkpt>
      <trkpt lat="43.18327" lon="-1.38773">
        <ele>566</ele>
      </trkpt>
      <trkpt lat="43.18322" lon="-1.38786">
        <ele>566.3</ele>
      </trkpt>
      <trkpt lat="43.18306" lon="-1.3881">
        <ele>567.7</ele>
      </trkpt>
      <trkpt lat="43.18297" lon="-1.38827">
        <ele>567.8</ele>
      </trkpt>
      <trkpt lat="43.18264" lon="-1.38901">
        <ele>574.4</ele>
      </trkpt>
      <trkpt lat="43.18252" lon="-1.38919">
        <ele>574.4</ele>
      </trkpt>
      <trkpt lat="43.18222" lon="-1.38949">
        <ele>576.4</ele>
      </trkpt>
      <trkpt lat="43.18209" lon="-1.38968">
        <ele>578</ele>
      </trkpt>
      <trkpt lat="43.18206" lon="-1.38976">
        <ele>578.9</ele>
      </trkpt>
      <trkpt lat="43.18205" lon="-1.3899">
        <ele>579.1</ele>
      </trkpt>
      <trkpt lat="43.18207" lon="-1.38998">
        <ele>580.3</ele>
      </trkpt>
      <trkpt lat="43.18223" lon="-1.39029">
        <ele>581.4</ele>
      </trkpt>
      <trkpt lat="43.18227" lon="-1.39047">
        <ele>583.9</ele>
      </trkpt>
      <trkpt lat="43.18224" lon="-1.39096">
        <ele>585.5</ele>
      </trkpt>
      <trkpt lat="43.18226" lon="-1.39129">
        <ele>588.6</ele>
      </trkpt>
      <trkpt lat="43.18225" lon="-1.39153">
        <ele>589.9</ele>
      </trkpt>
      <trkpt lat="43.18218" lon="-1.39171">
        <ele>589.9</ele>
      </trkpt>
      <trkpt lat="43.18204" lon="-1.39184">
        <ele>591.7</ele>
      </trkpt>
      <trkpt lat="43.18184" lon="-1.39195">
        <ele>592.6</ele>
      </trkpt>
      <trkpt lat="43.18156" lon="-1.39203">
        <ele>594</ele>
      </trkpt>
      <trkpt lat="43.18151" lon="-1.39207">
        <ele>594.7</ele>
      </trkpt>
      <trkpt lat="43.18143" lon="-1.39222">
        <ele>597.3</ele>
      </trkpt>
      <trkpt lat="43.1814" lon="-1.39245">
        <ele>597.5</ele>
      </trkpt>
      <trkpt lat="43.1814" lon="-1.39292">
        <ele>600.6</ele>
      </trkpt>
      <trkpt lat="43.18137" lon="-1.39342">
        <ele>601.4</ele>
      </trkpt>
      <trkpt lat="43.18139" lon="-1.39379">
        <ele>603.7</ele>
      </trkpt>
      <trkpt lat="43.18136" lon="-1.39404">
        <ele>605.8</ele>
      </trkpt>
      <trkpt lat="43.18128" lon="-1.39426">
        <ele>608.3</ele>
      </trkpt>
      <trkpt lat="43.1811" lon="-1.39452">
        <ele>610.7</ele>
      </trkpt>
      <trkpt lat="43.18103" lon="-1.39458">
        <ele>611.7</ele>
      </trkpt>
      <trkpt lat="43.18077" lon="-1.39474">
        <ele>610.8</ele>
      </trkpt>
      <trkpt lat="43.18047" lon="-1.39514">
        <ele>615.8</ele>
      </trkpt>
      <trkpt lat="43.1804" lon="-1.39525">
        <ele>617.2</ele>
      </trkpt>
      <trkpt lat="43.18035" lon="-1.39537">
        <ele>618.1</ele>
      </trkpt>
      <trkpt lat="43.18022" lon="-1.39578">
        <ele>619.6</ele>
      </trkpt>
      <trkpt lat="43.18017" lon="-1.39588">
        <ele>620.6</ele>
      </trkpt>
      <trkpt lat="43.18004" lon="-1.39603">
        <ele>621.4</ele>
      </trkpt>
      <trkpt lat="43.17986" lon="-1.39612">
        <ele>623.5</ele>
      </trkpt>
      <trkpt lat="43.17952" lon="-1.39619">
        <ele>625.7</ele>
      </trkpt>
      <trkpt lat="43.17933" lon="-1.39625">
        <ele>626.4</ele>
      </trkpt>
      <trkpt lat="43.17894" lon="-1.39649">
        <ele>630.5</ele>
      </trkpt>
      <trkpt lat="43.17869" lon="-1.3966">
        <ele>631.6</ele>
      </trkpt>
      <trkpt lat="43.17834" lon="-1.39665">
        <ele>633.7</ele>
      </trkpt>
      <trkpt lat="43.17822" lon="-1.39677">
        <ele>634.2</ele>
      </trkpt>
      <trkpt lat="43.17815" lon="-1.39691">
        <ele>635.9</ele>
      </trkpt>
      <trkpt lat="43.17795" lon="-1.39743">
        <ele>639.8</ele>
      </trkpt>
      <trkpt lat="43.17769" lon="-1.39827">
        <ele>645.5</ele>
      </trkpt>
      <trkpt lat="43.17761" lon="-1.39848">
        <ele>647.4</ele>
      </trkpt>
      <trkpt lat="43.17727" lon="-1.39921">
        <ele>652.6</ele>
      </trkpt>
      <trkpt lat="43.17699" lon="-1.39992">
        <ele>656.7</ele>
      </trkpt>
      <trkpt lat="43.17667" lon="-1.40089">
        <ele>661.6</ele>
      </trkpt>
      <trkpt lat="43.17661" lon="-1.40101">
        <ele>662.8</ele>
      </trkpt>
      <trkpt lat="43.17645" lon="-1.40119">
        <ele>664.5</ele>
      </trkpt>
      <trkpt lat="43.17596" lon="-1.40152">
        <ele>667.8</ele>
      </trkpt>
      <trkpt lat="43.17585" lon="-1.40162">
        <ele>668.3</ele>
      </trkpt>
      <trkpt lat="43.17579" lon="-1.4017">
        <ele>669.5</ele>
      </trkpt>
      <trkpt lat="43.17575" lon="-1.40178">
        <ele>670.3</ele>
      </trkpt>
      <trkpt lat="43.1757" lon="-1.40201">
        <ele>671.8</ele>
      </trkpt>
      <trkpt lat="43.17569" lon="-1.40224">
        <ele>672.4</ele>
      </trkpt>
      <trkpt lat="43.1757" lon="-1.40244">
        <ele>671.7</ele>
      </trkpt>
      <trkpt lat="43.17575" lon="-1.4027">
        <ele>669.5</ele>
      </trkpt>
      <trkpt lat="43.17584" lon="-1.40292">
        <ele>667.6</ele>
      </trkpt>
      <trkpt lat="43.17642" lon="-1.404">
        <ele>661</ele>
      </trkpt>
      <trkpt lat="43.17696" lon="-1.40494">
        <ele>655.1</ele>
      </trkpt>
      <trkpt lat="43.17714" lon="-1.40531">
        <ele>653.3</ele>
      </trkpt>
      <trkpt lat="43.17725" lon="-1.40565">
        <ele>651.2</ele>
      </trkpt>
      <trkpt lat="43.17729" lon="-1.40585">
        <ele>650.2</ele>
      </trkpt>
      <trkpt lat="43.17734" lon="-1.40628">
        <ele>645.4</ele>
      </trkpt>
      <trkpt lat="43.17737" lon="-1.40637">
        <ele>644.4</ele>
      </trkpt>
      <trkpt lat="43.17742" lon="-1.40642">
        <ele>644.4</ele>
      </trkpt>
      <trkpt lat="43.17748" lon="-1.40644">
        <ele>644.8</ele>
      </trkpt>
      <trkpt lat="43.17757" lon="-1.40643">
        <ele>644.4</ele>
      </trkpt>
      <trkpt lat="43.17825" lon="-1.40626">
        <ele>641.2</ele>
      </trkpt>
      <trkpt lat="43.17849" lon="-1.40624">
        <ele>640.3</ele>
      </trkpt>
      <trkpt lat="43.17894" lon="-1.40627">
        <ele>638.2</ele>
      </trkpt>
      <trkpt lat="43.17916" lon="-1.40631">
        <ele>636.3</ele>
      </trkpt>
      <trkpt lat="43.17933" lon="-1.40637">
        <ele>635.1</ele>
      </trkpt>
      <trkpt lat="43.18002" lon="-1.4067">
        <ele>630.3</ele>
      </trkpt>
      <trkpt lat="43.18009" lon="-1.40671">
        <ele>630</ele>
      </trkpt>
      <trkpt lat="43.18027" lon="-1.40669">
        <ele>629.8</ele>
      </trkpt>
      <trkpt lat="43.18031" lon="-1.4067">
        <ele>629.3</ele>
      </trkpt>
      <trkpt lat="43.18034" lon="-1.40673">
        <ele>628.6</ele>
      </trkpt>
      <trkpt lat="43.18035" lon="-1.40678">
        <ele>627.9</ele>
      </trkpt>
      <trkpt lat="43.1803" lon="-1.40686">
        <ele>627.6</ele>
      </trkpt>
      <trkpt lat="43.18012" lon="-1.40689">
        <ele>627.2</ele>
      </trkpt>
      <trkpt lat="43.17984" lon="-1.40684">
        <ele>626.8</ele>
      </trkpt>
      <trkpt lat="43.17944" lon="-1.40671">
        <ele>624.7</ele>
      </trkpt>
      <trkpt lat="43.17932" lon="-1.4067">
        <ele>624.6</ele>
      </trkpt>
      <trkpt lat="43.17866" lon="-1.40676">
        <ele>621.6</ele>
      </trkpt>
      <trkpt lat="43.17849" lon="-1.4068">
        <ele>621.5</ele>
      </trkpt>
      <trkpt lat="43.17833" lon="-1.40687">
        <ele>620.5</ele>
      </trkpt>
      <trkpt lat="43.17818" lon="-1.40696">
        <ele>619.7</ele>
      </trkpt>
      <trkpt lat="43.17804" lon="-1.40707">
        <ele>618.7</ele>
      </trkpt>
      <trkpt lat="43.17785" lon="-1.40726">
        <ele>617.4</ele>
      </trkpt>
      <trkpt lat="43.1772" lon="-1.40821">
        <ele>610.9</ele>
      </trkpt>
      <trkpt lat="43.17713" lon="-1.40827">
        <ele>610.5</ele>
      </trkpt>
      <trkpt lat="43.17706" lon="-1.4083">
        <ele>610.8</ele>
      </trkpt>
      <trkpt lat="43.177" lon="-1.4083">
        <ele>611.6</ele>
      </trkpt>
      <trkpt lat="43.17695" lon="-1.40827">
        <ele>612.6</ele>
      </trkpt>
      <trkpt lat="43.17688" lon="-1.40814">
        <ele>610.5</ele>
      </trkpt>
      <trkpt lat="43.17681" lon="-1.40759">
        <ele>610.8</ele>
      </trkpt>
      <trkpt lat="43.17676" lon="-1.40733">
        <ele>609.4</ele>
      </trkpt>
      <trkpt lat="43.17668" lon="-1.40703">
        <ele>607.8</ele>
      </trkpt>
      <trkpt lat="43.17637" lon="-1.40616">
        <ele>604.8</ele>
      </trkpt>
      <trkpt lat="43.17634" lon="-1.40611">
        <ele>605</ele>
      </trkpt>
      <trkpt lat="43.1763" lon="-1.4061">
        <ele>604.3</ele>
      </trkpt>
      <trkpt lat="43.17626" lon="-1.40613">
        <ele>602.8</ele>
      </trkpt>
      <trkpt lat="43.17625" lon="-1.40618">
        <ele>601.5</ele>
      </trkpt>
      <trkpt lat="43.17626" lon="-1.40625">
        <ele>600.3</ele>
      </trkpt>
      <trkpt lat="43.1764" lon="-1.40657">
        <ele>600.5</ele>
      </trkpt>
      <trkpt lat="43.1765" lon="-1.40708">
        <ele>598.7</ele>
      </trkpt>
      <trkpt lat="43.17659" lon="-1.40817">
        <ele>594.1</ele>
      </trkpt>
      <trkpt lat="43.1766" lon="-1.40883">
        <ele>589.7</ele>
      </trkpt>
      <trkpt lat="43.17663" lon="-1.40897">
        <ele>588.9</ele>
      </trkpt>
      <trkpt lat="43.17668" lon="-1.40908">
        <ele>588.6</ele>
      </trkpt>
      <trkpt lat="43.17674" lon="-1.40915">
        <ele>587.4</ele>
      </trkpt>
      <trkpt lat="43.17681" lon="-1.4092">
        <ele>585.9</ele>
      </trkpt>
      <trkpt lat="43.17689" lon="-1.40921">
        <ele>585.5</ele>
      </trkpt>
      <trkpt lat="43.17699" lon="-1.4092">
        <ele>585</ele>
      </trkpt>
      <trkpt lat="43.17714" lon="-1.40915">
        <ele>584</ele>
      </trkpt>
      <trkpt lat="43.17739" lon="-1.40903">
        <ele>582.5</ele>
      </trkpt>
      <trkpt lat="43.17762" lon="-1.40887">
        <ele>581</ele>
      </trkpt>
      <trkpt lat="43.17811" lon="-1.40838">
        <ele>577.6</ele>
      </trkpt>
      <trkpt lat="43.17821" lon="-1.4083">
        <ele>577.7</ele>
      </trkpt>
      <trkpt lat="43.17832" lon="-1.40824">
        <ele>577</ele>
      </trkpt>
      <trkpt lat="43.17845" lon="-1.40821">
        <ele>576.9</ele>
      </trkpt>
      <trkpt lat="43.17876" lon="-1.40822">
        <ele>575.2</ele>
      </trkpt>
      <trkpt lat="43.179" lon="-1.4083">
        <ele>573.9</ele>
      </trkpt>
      <trkpt lat="43.17909" lon="-1.40839">
        <ele>573.4</ele>
      </trkpt>
      <trkpt lat="43.17916" lon="-1.40851">
        <ele>572.6</ele>
      </trkpt>
      <trkpt lat="43.1793" lon="-1.40882">
        <ele>571.9</ele>
      </trkpt>
      <trkpt lat="43.17946" lon="-1.40905">
        <ele>570.6</ele>
      </trkpt>
      <trkpt lat="43.17971" lon="-1.40927">
        <ele>567.8</ele>
      </trkpt>
      <trkpt lat="43.18004" lon="-1.40948">
        <ele>565.5</ele>
      </trkpt>
      <trkpt lat="43.18021" lon="-1.40952">
        <ele>563.2</ele>
      </trkpt>
      <trkpt lat="43.18032" lon="-1.40952">
        <ele>562.5</ele>
      </trkpt>
      <trkpt lat="43.18115" lon="-1.40935">
        <ele>558.3</ele>
      </trkpt>
      <trkpt lat="43.18146" lon="-1.40931">
        <ele>557.1</ele>
      </trkpt>
      <trkpt lat="43.18162" lon="-1.40935">
        <ele>556.8</ele>
      </trkpt>
      <trkpt lat="43.1819" lon="-1.40951">
        <ele>554.3</ele>
      </trkpt>
      <trkpt lat="43.18206" lon="-1.40956">
        <ele>553.9</ele>
      </trkpt>
      <trkpt lat="43.18228" lon="-1.40959">
        <ele>553.6</ele>
      </trkpt>
      <trkpt lat="43.18231" lon="-1.40962">
        <ele>553.1</ele>
      </trkpt>
      <trkpt lat="43.18232" lon="-1.40967">
        <ele>552.6</ele>
      </trkpt>
      <trkpt lat="43.18231" lon="-1.40972">
        <ele>552</ele>
      </trkpt>
      <trkpt lat="43.18228" lon="-1.40975">
        <ele>551.5</ele>
      </trkpt>
      <trkpt lat="43.18217" lon="-1.40976">
        <ele>550.9</ele>
      </trkpt>
      <trkpt lat="43.18153" lon="-1.40966">
        <ele>547.8</ele>
      </trkpt>
      <trkpt lat="43.18139" lon="-1.40968">
        <ele>546.2</ele>
      </trkpt>
      <trkpt lat="43.18118" lon="-1.40977">
        <ele>544.4</ele>
      </trkpt>
      <trkpt lat="43.18053" lon="-1.41018">
        <ele>539.9</ele>
      </trkpt>
      <trkpt lat="43.1803" lon="-1.41025">
        <ele>538</ele>
      </trkpt>
      <trkpt lat="43.18014" lon="-1.41026">
        <ele>537.2</ele>
      </trkpt>
      <trkpt lat="43.18001" lon="-1.41025">
        <ele>537.1</ele>
      </trkpt>
      <trkpt lat="43.17956" lon="-1.4101">
        <ele>534.7</ele>
      </trkpt>
      <trkpt lat="43.17904" lon="-1.40995">
        <ele>531.2</ele>
      </trkpt>
      <trkpt lat="43.1789" lon="-1.40983">
        <ele>531</ele>
      </trkpt>
      <trkpt lat="43.17876" lon="-1.4096">
        <ele>530</ele>
      </trkpt>
      <trkpt lat="43.17871" lon="-1.40955">
        <ele>529.1</ele>
      </trkpt>
      <trkpt lat="43.17865" lon="-1.40951">
        <ele>527.6</ele>
      </trkpt>
      <trkpt lat="43.17858" lon="-1.4095">
        <ele>526.8</ele>
      </trkpt>
      <trkpt lat="43.17851" lon="-1.40952">
        <ele>527.6</ele>
      </trkpt>
      <trkpt lat="43.17844" lon="-1.40956">
        <ele>527.7</ele>
      </trkpt>
      <trkpt lat="43.17835" lon="-1.40965">
        <ele>526.3</ele>
      </trkpt>
      <trkpt lat="43.17825" lon="-1.40978">
        <ele>524.8</ele>
      </trkpt>
      <trkpt lat="43.17784" lon="-1.41045">
        <ele>520.3</ele>
      </trkpt>
      <trkpt lat="43.17765" lon="-1.4107">
        <ele>517.9</ele>
      </trkpt>
      <trkpt lat="43.17701" lon="-1.41143">
        <ele>514.4</ele>
      </trkpt>
      <trkpt lat="43.17686" lon="-1.41155">
        <ele>514.5</ele>
      </trkpt>
      <trkpt lat="43.17668" lon="-1.41166">
        <ele>513.1</ele>
      </trkpt>
      <trkpt lat="43.17662" lon="-1.41172">
        <ele>512.6</ele>
      </trkpt>
      <trkpt lat="43.1766" lon="-1.41178">
        <ele>512.1</ele>
      </trkpt>
      <trkpt lat="43.17662" lon="-1.41184">
        <ele>511.4</ele>
      </trkpt>
      <trkpt lat="43.17667" lon="-1.41186">
        <ele>510.9</ele>
      </trkpt>
      <trkpt lat="43.17673" lon="-1.41185">
        <ele>510</ele>
      </trkpt>
      <trkpt lat="43.17691" lon="-1.41175">
        <ele>509.3</ele>
      </trkpt>
      <trkpt lat="43.17705" lon="-1.41165">
        <ele>507.6</ele>
      </trkpt>
      <trkpt lat="43.17805" lon="-1.41067">
        <ele>504.5</ele>
      </trkpt>
      <trkpt lat="43.17813" lon="-1.41057">
        <ele>503.2</ele>
      </trkpt>
      <trkpt lat="43.17827" lon="-1.41028">
        <ele>503.8</ele>
      </trkpt>
      <trkpt lat="43.17838" lon="-1.41019">
        <ele>504</ele>
      </trkpt>
      <trkpt lat="43.17844" lon="-1.4102">
        <ele>504.7</ele>
      </trkpt>
      <trkpt lat="43.17851" lon="-1.41027">
        <ele>504</ele>
      </trkpt>
      <trkpt lat="43.17858" lon="-1.41039">
        <ele>502.5</ele>
      </trkpt>
      <trkpt lat="43.17866" lon="-1.41063">
        <ele>500</ele>
      </trkpt>
      <trkpt lat="43.17888" lon="-1.4116">
        <ele>495.2</ele>
      </trkpt>
      <trkpt lat="43.17895" lon="-1.41178">
        <ele>493.3</ele>
      </trkpt>
      <trkpt lat="43.17913" lon="-1.41206">
        <ele>490.1</ele>
      </trkpt>
      <trkpt lat="43.17942" lon="-1.41243">
        <ele>488.7</ele>
      </trkpt>
      <trkpt lat="43.17959" lon="-1.41257">
        <ele>487.5</ele>
      </trkpt>
      <trkpt lat="43.17975" lon="-1.41262">
        <ele>487.1</ele>
      </trkpt>
      <trkpt lat="43.17994" lon="-1.4126">
        <ele>485.2</ele>
      </trkpt>
      <trkpt lat="43.18005" lon="-1.41255">
        <ele>484.8</ele>
      </trkpt>
      <trkpt lat="43.1802" lon="-1.41245">
        <ele>484.5</ele>
      </trkpt>
      <trkpt lat="43.1805" lon="-1.41222">
        <ele>483.3</ele>
      </trkpt>
      <trkpt lat="43.18063" lon="-1.41216">
        <ele>483.1</ele>
      </trkpt>
      <trkpt lat="43.18084" lon="-1.41211">
        <ele>482.4</ele>
      </trkpt>
      <trkpt lat="43.18103" lon="-1.41209">
        <ele>481.8</ele>
      </trkpt>
      <trkpt lat="43.1811" lon="-1.41211">
        <ele>481.1</ele>
      </trkpt>
      <trkpt lat="43.18119" lon="-1.41218">
        <ele>481.2</ele>
      </trkpt>
      <trkpt lat="43.18122" lon="-1.41225">
        <ele>480.8</ele>
      </trkpt>
      <trkpt lat="43.18123" lon="-1.41235">
        <ele>480.4</ele>
      </trkpt>
      <trkpt lat="43.1812" lon="-1.41267">
        <ele>478.3</ele>
      </trkpt>
      <trkpt lat="43.18109" lon="-1.41309">
        <ele>474.6</ele>
      </trkpt>
      <trkpt lat="43.18097" lon="-1.41342">
        <ele>473</ele>
      </trkpt>
      <trkpt lat="43.18067" lon="-1.41398">
        <ele>468.9</ele>
      </trkpt>
      <trkpt lat="43.1803" lon="-1.4146">
        <ele>463</ele>
      </trkpt>
      <trkpt lat="43.18024" lon="-1.41477">
        <ele>462.6</ele>
      </trkpt>
      <trkpt lat="43.18024" lon="-1.41486">
        <ele>462.1</ele>
      </trkpt>
      <trkpt lat="43.18031" lon="-1.41502">
        <ele>461.6</ele>
      </trkpt>
      <trkpt lat="43.18037" lon="-1.41508">
        <ele>460.5</ele>
      </trkpt>
      <trkpt lat="43.18045" lon="-1.41512">
        <ele>459.6</ele>
      </trkpt>
      <trkpt lat="43.18055" lon="-1.41514">
        <ele>459</ele>
      </trkpt>
      <trkpt lat="43.18092" lon="-1.41514">
        <ele>457</ele>
      </trkpt>
      <trkpt lat="43.18182" lon="-1.41506">
        <ele>454.6</ele>
      </trkpt>
      <trkpt lat="43.18191" lon="-1.41508">
        <ele>454</ele>
      </trkpt>
      <trkpt lat="43.18198" lon="-1.41512">
        <ele>453.5</ele>
      </trkpt>
      <trkpt lat="43.18202" lon="-1.41517">
        <ele>453</ele>
      </trkpt>
      <trkpt lat="43.18204" lon="-1.41527">
        <ele>451.2</ele>
      </trkpt>
      <trkpt lat="43.18202" lon="-1.41538">
        <ele>451.3</ele>
      </trkpt>
      <trkpt lat="43.18196" lon="-1.4155">
        <ele>450.3</ele>
      </trkpt>
      <trkpt lat="43.1817" lon="-1.4158">
        <ele>447.3</ele>
      </trkpt>
      <trkpt lat="43.18154" lon="-1.41606">
        <ele>446.5</ele>
      </trkpt>
      <trkpt lat="43.1814" lon="-1.41653">
        <ele>445.6</ele>
      </trkpt>
      <trkpt lat="43.18134" lon="-1.41665">
        <ele>444.1</ele>
      </trkpt>
      <trkpt lat="43.18126" lon="-1.41675">
        <ele>443.6</ele>
      </trkpt>
      <trkpt lat="43.18107" lon="-1.4169">
        <ele>440.9</ele>
      </trkpt>
      <trkpt lat="43.181" lon="-1.41699">
        <ele>441.8</ele>
      </trkpt>
      <trkpt lat="43.18095" lon="-1.41709">
        <ele>442.6</ele>
      </trkpt>
      <trkpt lat="43.18089" lon="-1.41731">
        <ele>442.6</ele>
      </trkpt>
      <trkpt lat="43.18084" lon="-1.41734">
        <ele>440.3</ele>
      </trkpt>
      <trkpt lat="43.1808" lon="-1.41732">
        <ele>438.6</ele>
      </trkpt>
      <trkpt lat="43.18078" lon="-1.41726">
        <ele>437.5</ele>
      </trkpt>
      <trkpt lat="43.18078" lon="-1.41719">
        <ele>436.9</ele>
      </trkpt>
      <trkpt lat="43.18084" lon="-1.41703">
        <ele>438.1</ele>
      </trkpt>
      <trkpt lat="43.18091" lon="-1.41691">
        <ele>437.5</ele>
      </trkpt>
      <trkpt lat="43.18109" lon="-1.41669">
        <ele>435.9</ele>
      </trkpt>
      <trkpt lat="43.18116" lon="-1.41658">
        <ele>436.6</ele>
      </trkpt>
      <trkpt lat="43.18124" lon="-1.41637">
        <ele>437.3</ele>
      </trkpt>
      <trkpt lat="43.18134" lon="-1.41596">
        <ele>436.1</ele>
      </trkpt>
      <trkpt lat="43.18134" lon="-1.41587">
        <ele>435.1</ele>
      </trkpt>
      <trkpt lat="43.18131" lon="-1.41581">
        <ele>435</ele>
      </trkpt>
      <trkpt lat="43.18125" lon="-1.41578">
        <ele>435.4</ele>
      </trkpt>
      <trkpt lat="43.18117" lon="-1.41579">
        <ele>434.8</ele>
      </trkpt>
      <trkpt lat="43.18096" lon="-1.4159">
        <ele>432.6</ele>
      </trkpt>
      <trkpt lat="43.18071" lon="-1.41609">
        <ele>429.5</ele>
      </trkpt>
      <trkpt lat="43.18006" lon="-1.41664">
        <ele>423.9</ele>
      </trkpt>
      <trkpt lat="43.17987" lon="-1.41675">
        <ele>423</ele>
      </trkpt>
      <trkpt lat="43.1798" lon="-1.41677">
        <ele>423.4</ele>
      </trkpt>
      <trkpt lat="43.17951" lon="-1.41678">
        <ele>422.1</ele>
      </trkpt>
      <trkpt lat="43.17947" lon="-1.4168">
        <ele>421.3</ele>
      </trkpt>
      <trkpt lat="43.17945" lon="-1.41685">
        <ele>420.4</ele>
      </trkpt>
      <trkpt lat="43.17946" lon="-1.41691">
        <ele>419.5</ele>
      </trkpt>
      <trkpt lat="43.17949" lon="-1.41696">
        <ele>418.5</ele>
      </trkpt>
      <trkpt lat="43.17959" lon="-1.41699">
        <ele>417.1</ele>
      </trkpt>
      <trkpt lat="43.17984" lon="-1.41695">
        <ele>416.7</ele>
      </trkpt>
      <trkpt lat="43.18014" lon="-1.41683">
        <ele>415.9</ele>
      </trkpt>
      <trkpt lat="43.18022" lon="-1.41682">
        <ele>415</ele>
      </trkpt>
      <trkpt lat="43.18035" lon="-1.41686">
        <ele>414.4</ele>
      </trkpt>
      <trkpt lat="43.18039" lon="-1.41693">
        <ele>414.3</ele>
      </trkpt>
      <trkpt lat="43.18039" lon="-1.417">
        <ele>414.9</ele>
      </trkpt>
      <trkpt lat="43.18036" lon="-1.41709">
        <ele>415</ele>
      </trkpt>
      <trkpt lat="43.17997" lon="-1.41746">
        <ele>409</ele>
      </trkpt>
      <trkpt lat="43.17993" lon="-1.41753">
        <ele>408.1</ele>
      </trkpt>
      <trkpt lat="43.17991" lon="-1.41762">
        <ele>407.2</ele>
      </trkpt>
      <trkpt lat="43.17991" lon="-1.41772">
        <ele>406.7</ele>
      </trkpt>
      <trkpt lat="43.17994" lon="-1.41788">
        <ele>406</ele>
      </trkpt>
      <trkpt lat="43.18009" lon="-1.41844">
        <ele>404.9</ele>
      </trkpt>
      <trkpt lat="43.1801" lon="-1.4187">
        <ele>404.1</ele>
      </trkpt>
      <trkpt lat="43.18007" lon="-1.41938">
        <ele>400.5</ele>
      </trkpt>
      <trkpt lat="43.18008" lon="-1.41969">
        <ele>398.5</ele>
      </trkpt>
      <trkpt lat="43.18014" lon="-1.42036">
        <ele>395.9</ele>
      </trkpt>
      <trkpt lat="43.18026" lon="-1.42093">
        <ele>391</ele>
      </trkpt>
      <trkpt lat="43.18032" lon="-1.42115">
        <ele>391.5</ele>
      </trkpt>
      <trkpt lat="43.1804" lon="-1.42136">
        <ele>389.9</ele>
      </trkpt>
      <trkpt lat="43.18067" lon="-1.42193">
        <ele>388</ele>
      </trkpt>
      <trkpt lat="43.18087" lon="-1.42229">
        <ele>384</ele>
      </trkpt>
      <trkpt lat="43.1813" lon="-1.42295">
        <ele>383.4</ele>
      </trkpt>
      <trkpt lat="43.18132" lon="-1.42301">
        <ele>381.8</ele>
      </trkpt>
      <trkpt lat="43.18131" lon="-1.42309">
        <ele>379.2</ele>
      </trkpt>
      <trkpt lat="43.18127" lon="-1.42312">
        <ele>377.5</ele>
      </trkpt>
      <trkpt lat="43.18122" lon="-1.42311">
        <ele>376.1</ele>
      </trkpt>
      <trkpt lat="43.18079" lon="-1.42251">
        <ele>374.4</ele>
      </trkpt>
      <trkpt lat="43.18074" lon="-1.42246">
        <ele>374.9</ele>
      </trkpt>
      <trkpt lat="43.18068" lon="-1.42245">
        <ele>374.1</ele>
      </trkpt>
      <trkpt lat="43.18063" lon="-1.42249">
        <ele>372.9</ele>
      </trkpt>
      <trkpt lat="43.18062" lon="-1.42259">
        <ele>371.5</ele>
      </trkpt>
      <trkpt lat="43.18067" lon="-1.42276">
        <ele>369.9</ele>
      </trkpt>
      <trkpt lat="43.18077" lon="-1.42296">
        <ele>368.8</ele>
      </trkpt>
      <trkpt lat="43.18149" lon="-1.42427">
        <ele>360.9</ele>
      </trkpt>
      <trkpt lat="43.18206" lon="-1.42544">
        <ele>355.6</ele>
      </trkpt>
      <trkpt lat="43.18231" lon="-1.42592">
        <ele>357.7</ele>
      </trkpt>
      <trkpt lat="43.18279" lon="-1.42675">
        <ele>352</ele>
      </trkpt>
      <trkpt lat="43.18286" lon="-1.42695">
        <ele>354.9</ele>
      </trkpt>
      <trkpt lat="43.18288" lon="-1.42709">
        <ele>355.5</ele>
      </trkpt>
      <trkpt lat="43.18285" lon="-1.42739">
        <ele>354.6</ele>
      </trkpt>
      <trkpt lat="43.18281" lon="-1.42754">
        <ele>353.1</ele>
      </trkpt>
      <trkpt lat="43.18263" lon="-1.4279">
        <ele>352.6</ele>
      </trkpt>
      <trkpt lat="43.18251" lon="-1.42808">
        <ele>350.2</ele>
      </trkpt>
      <trkpt lat="43.182" lon="-1.42866">
        <ele>346.3</ele>
      </trkpt>
      <trkpt lat="43.18168" lon="-1.42892">
        <ele>346.1</ele>
      </trkpt>
      <trkpt lat="43.18151" lon="-1.42908">
        <ele>345.1</ele>
      </trkpt>
      <trkpt lat="43.18138" lon="-1.42923">
        <ele>344.7</ele>
      </trkpt>
      <trkpt lat="43.18126" lon="-1.42941">
        <ele>344</ele>
      </trkpt>
      <trkpt lat="43.18118" lon="-1.42962">
        <ele>344.3</ele>
      </trkpt>
      <trkpt lat="43.18113" lon="-1.42985">
        <ele>344.2</ele>
      </trkpt>
      <trkpt lat="43.1811" lon="-1.43011">
        <ele>343.5</ele>
      </trkpt>
      <trkpt lat="43.18109" lon="-1.43046">
        <ele>342.2</ele>
      </trkpt>
      <trkpt lat="43.1811" lon="-1.43071">
        <ele>341.4</ele>
      </trkpt>
      <trkpt lat="43.18113" lon="-1.43094">
        <ele>341</ele>
      </trkpt>
      <trkpt lat="43.18123" lon="-1.43137">
        <ele>339.1</ele>
      </trkpt>
      <trkpt lat="43.18141" lon="-1.43195">
        <ele>338.8</ele>
      </trkpt>
      <trkpt lat="43.18149" lon="-1.43232">
        <ele>337.3</ele>
      </trkpt>
      <trkpt lat="43.18151" lon="-1.43313">
        <ele>335.4</ele>
      </trkpt>
      <trkpt lat="43.18141" lon="-1.43599">
        <ele>327.7</ele>
      </trkpt>
      <trkpt lat="43.18118" lon="-1.43758">
        <ele>324.5</ele>
      </trkpt>
      <trkpt lat="43.18116" lon="-1.43864">
        <ele>323.6</ele>
      </trkpt>
      <trkpt lat="43.18118" lon="-1.43883">
        <ele>323.5</ele>
      </trkpt>
      <trkpt lat="43.18125" lon="-1.43913">
        <ele>322.6</ele>
      </trkpt>
      <trkpt lat="43.18175" lon="-1.44025">
        <ele>319.4</ele>
      </trkpt>
      <trkpt lat="43.18182" lon="-1.44056">
        <ele>318.9</ele>
      </trkpt>
      <trkpt lat="43.18183" lon="-1.4409">
        <ele>318.3</ele>
      </trkpt>
      <trkpt lat="43.18168" lon="-1.44317">
        <ele>319.9</ele>
      </trkpt>
      <trkpt lat="43.18166" lon="-1.44331">
        <ele>320</ele>
      </trkpt>
      <trkpt lat="43.18159" lon="-1.44354">
        <ele>318.5</ele>
      </trkpt>
      <trkpt lat="43.18153" lon="-1.44366">
        <ele>317.8</ele>
      </trkpt>
      <trkpt lat="43.18117" lon="-1.44419">
        <ele>315.8</ele>
      </trkpt>
      <trkpt lat="43.18028" lon="-1.44543">
        <ele>309.9</ele>
      </trkpt>
      <trkpt lat="43.1802" lon="-1.44561">
        <ele>312.6</ele>
      </trkpt>
      <trkpt lat="43.18018" lon="-1.44576">
        <ele>314</ele>
      </trkpt>
      <trkpt lat="43.18021" lon="-1.44603">
        <ele>312</ele>
      </trkpt>
      <trkpt lat="43.18043" lon="-1.44678">
        <ele>308.4</ele>
      </trkpt>
      <trkpt lat="43.1807" lon="-1.44791">
        <ele>305.1</ele>
      </trkpt>
      <trkpt lat="43.18083" lon="-1.44853">
        <ele>304</ele>
      </trkpt>
      <trkpt lat="43.18086" lon="-1.44876">
        <ele>304</ele>
      </trkpt>
      <trkpt lat="43.18091" lon="-1.45079">
        <ele>298.6</ele>
      </trkpt>
      <trkpt lat="43.1809" lon="-1.45107">
        <ele>297.7</ele>
      </trkpt>
      <trkpt lat="43.18081" lon="-1.45171">
        <ele>297.2</ele>
      </trkpt>
      <trkpt lat="43.18065" lon="-1.45242">
        <ele>296.5</ele>
      </trkpt>
      <trkpt lat="43.18032" lon="-1.45367">
        <ele>293.7</ele>
      </trkpt>
      <trkpt lat="43.1803" lon="-1.45388">
        <ele>293</ele>
      </trkpt>
      <trkpt lat="43.18035" lon="-1.45414">
        <ele>292.1</ele>
      </trkpt>
      <trkpt lat="43.18048" lon="-1.45452">
        <ele>290.7</ele>
      </trkpt>
      <trkpt lat="43.18056" lon="-1.45481">
        <ele>291.7</ele>
      </trkpt>
      <trkpt lat="43.18056" lon="-1.45522">
        <ele>291</ele>
      </trkpt>
      <trkpt lat="43.18059" lon="-1.45533">
        <ele>290.9</ele>
      </trkpt>
      <trkpt lat="43.18066" lon="-1.45541">
        <ele>290.9</ele>
      </trkpt>
      <trkpt lat="43.18084" lon="-1.45553">
        <ele>291.1</ele>
      </trkpt>
      <trkpt lat="43.18088" lon="-1.45558">
        <ele>291.1</ele>
      </trkpt>
      <trkpt lat="43.18093" lon="-1.45571">
        <ele>290.8</ele>
      </trkpt>
      <trkpt lat="43.181" lon="-1.45605">
        <ele>289.8</ele>
      </trkpt>
      <trkpt lat="43.18105" lon="-1.45621">
        <ele>289.5</ele>
      </trkpt>
      <trkpt lat="43.18109" lon="-1.45629">
        <ele>289.3</ele>
      </trkpt>
      <trkpt lat="43.18141" lon="-1.45676">
        <ele>288.7</ele>
      </trkpt>
      <trkpt lat="43.18154" lon="-1.457">
        <ele>287.8</ele>
      </trkpt>
      <trkpt lat="43.18159" lon="-1.45714">
        <ele>287.3</ele>
      </trkpt>
      <trkpt lat="43.1818" lon="-1.45755">
        <ele>286.4</ele>
      </trkpt>
      <trkpt lat="43.18199" lon="-1.45779">
        <ele>286.2</ele>
      </trkpt>
      <trkpt lat="43.1821" lon="-1.45789">
        <ele>286.3</ele>
      </trkpt>
      <trkpt lat="43.18273" lon="-1.45827">
        <ele>285.2</ele>
      </trkpt>
      <trkpt lat="43.18298" lon="-1.45851">
        <ele>285.1</ele>
      </trkpt>
      <trkpt lat="43.18309" lon="-1.45862">
        <ele>284.9</ele>
      </trkpt>
      <trkpt lat="43.18344" lon="-1.45905">
        <ele>284</ele>
      </trkpt>
      <trkpt lat="43.18354" lon="-1.45924">
        <ele>284.2</ele>
      </trkpt>
      <trkpt lat="43.18359" lon="-1.4595">
        <ele>283.6</ele>
      </trkpt>
      <trkpt lat="43.18363" lon="-1.46068">
        <ele>281.6</ele>
      </trkpt>
      <trkpt lat="43.18368" lon="-1.46112">
        <ele>281</ele>
      </trkpt>
      <trkpt lat="43.18376" lon="-1.46164">
        <ele>280.6</ele>
      </trkpt>
      <trkpt lat="43.1839" lon="-1.4623">
        <ele>280.9</ele>
      </trkpt>
      <trkpt lat="43.18394" lon="-1.46256">
        <ele>280.5</ele>
      </trkpt>
      <trkpt lat="43.18395" lon="-1.46277">
        <ele>279.9</ele>
      </trkpt>
      <trkpt lat="43.18388" lon="-1.46349">
        <ele>279.3</ele>
      </trkpt>
      <trkpt lat="43.1839" lon="-1.46398">
        <ele>279.4</ele>
      </trkpt>
      <trkpt lat="43.18418" lon="-1.46566">
        <ele>284.1</ele>
      </trkpt>
      <trkpt lat="43.18421" lon="-1.4659">
        <ele>284.5</ele>
      </trkpt>
      <trkpt lat="43.18421" lon="-1.46619">
        <ele>285.4</ele>
      </trkpt>
      <trkpt lat="43.18416" lon="-1.46662">
        <ele>287.6</ele>
      </trkpt>
      <trkpt lat="43.1841" lon="-1.46696">
        <ele>286.5</ele>
      </trkpt>
      <trkpt lat="43.18406" lon="-1.46712">
        <ele>286</ele>
      </trkpt>
      <trkpt lat="43.1838" lon="-1.46787">
        <ele>283.8</ele>
      </trkpt>
      <trkpt lat="43.1833" lon="-1.4692">
        <ele>273.5</ele>
      </trkpt>
      <trkpt lat="43.18276" lon="-1.47037">
        <ele>272.4</ele>
      </trkpt>
      <trkpt lat="43.18259" lon="-1.47082">
        <ele>272.6</ele>
      </trkpt>
      <trkpt lat="43.18226" lon="-1.47144">
        <ele>271.1</ele>
      </trkpt>
      <trkpt lat="43.18173" lon="-1.47274">
        <ele>266.2</ele>
      </trkpt>
      <trkpt lat="43.18073" lon="-1.47564">
        <ele>262.4</ele>
      </trkpt>
      <trkpt lat="43.18057" lon="-1.47606">
        <ele>262</ele>
      </trkpt>
      <trkpt lat="43.18006" lon="-1.47708">
        <ele>260.5</ele>
      </trkpt>
      <trkpt lat="43.18009" lon="-1.47715">
        <ele>260.6</ele>
        <extensions>
          <visugpx:TrkExtension xmlns:visugpx="https://www.visugpx.com/editgpx/">
            <visugpx:node>3</visugpx:node>
            </visugpx:TrkExtension>
        </extensions>
      </trkpt>
      <trkpt lat="43.18008" lon="-1.47724">
        <ele>260.7</ele>
      </trkpt>
      <trkpt lat="43.18003" lon="-1.47731">
        <ele>260.6</ele>
      </trkpt>
      <trkpt lat="43.17999" lon="-1.47732">
        <ele>260.6</ele>
      </trkpt>
      <trkpt lat="43.17995" lon="-1.47731">
        <ele>260.2</ele>
      </trkpt>
      <trkpt lat="43.17991" lon="-1.47725">
        <ele>260</ele>
      </trkpt>
      <trkpt lat="43.1799" lon="-1.47715">
        <ele>259.8</ele>
      </trkpt>
      <trkpt lat="43.17993" lon="-1.47709">
        <ele>259.9</ele>
      </trkpt>
      <trkpt lat="43.1798" lon="-1.4771">
        <ele>258.7</ele>
        <extensions>
          <visugpx:TrkExtension xmlns:visugpx="https://www.visugpx.com/editgpx/">
            <visugpx:node>4</visugpx:node>
            </visugpx:TrkExtension>
        </extensions>
      </trkpt>
      <trkpt lat="43.17966" lon="-1.47713">
        <ele>258</ele>
      </trkpt>
      <trkpt lat="43.17894" lon="-1.47737">
        <ele>254.2</ele>
      </trkpt>
      <trkpt lat="43.17868" lon="-1.47751">
        <ele>255.2</ele>
      </trkpt>
      <trkpt lat="43.17832" lon="-1.47797">
        <ele>260.4</ele>
      </trkpt>
      <trkpt lat="43.17678" lon="-1.47934">
        <ele>260.8</ele>
      </trkpt>
      <trkpt lat="43.17666" lon="-1.47947">
        <ele>261.1</ele>
      </trkpt>
      <trkpt lat="43.17646" lon="-1.47979">
        <ele>263.2</ele>
      </trkpt>
      <trkpt lat="43.17618" lon="-1.48058">
        <ele>266.7</ele>
      </trkpt>
      <trkpt lat="43.17612" lon="-1.48071">
        <ele>267.8</ele>
      </trkpt>
      <trkpt lat="43.17568" lon="-1.48155">
        <ele>270.6</ele>
      </trkpt>
      <trkpt lat="43.17561" lon="-1.48165">
        <ele>271.4</ele>
      </trkpt>
      <trkpt lat="43.17555" lon="-1.48196">
        <ele>272.1</ele>
      </trkpt>
      <trkpt lat="43.17542" lon="-1.48304">
        <ele>277</ele>
      </trkpt>
      <trkpt lat="43.17533" lon="-1.48332">
        <ele>276.5</ele>
      </trkpt>
      <trkpt lat="43.1752" lon="-1.48346">
        <ele>276.2</ele>
      </trkpt>
      <trkpt lat="43.17406" lon="-1.48444">
        <ele>275.8</ele>
      </trkpt>
      <trkpt lat="43.17396" lon="-1.48451">
        <ele>276.4</ele>
      </trkpt>
      <trkpt lat="43.17388" lon="-1.48452">
        <ele>277</ele>
      </trkpt>
      <trkpt lat="43.17369" lon="-1.48464">
        <ele>277</ele>
      </trkpt>
      <trkpt lat="43.1734" lon="-1.48491">
        <ele>277.9</ele>
      </trkpt>
      <trkpt lat="43.17275" lon="-1.48537">
        <ele>276.7</ele>
      </trkpt>
      <trkpt lat="43.17258" lon="-1.48556">
        <ele>276</ele>
      </trkpt>
      <trkpt lat="43.17211" lon="-1.486">
        <ele>275.6</ele>
      </trkpt>
      <trkpt lat="43.17164" lon="-1.48653">
        <ele>275.6</ele>
      </trkpt>
      <trkpt lat="43.17135" lon="-1.48693">
        <ele>274.4</ele>
      </trkpt>
      <trkpt lat="43.17106" lon="-1.48724">
        <ele>273.1</ele>
      </trkpt>
      <trkpt lat="43.17078" lon="-1.48745">
        <ele>271.3</ele>
      </trkpt>
      <trkpt lat="43.17066" lon="-1.48746">
        <ele>270.7</ele>
      </trkpt>
      <trkpt lat="43.17021" lon="-1.48743">
        <ele>267</ele>
        <extensions>
          <visugpx:TrkExtension xmlns:visugpx="https://www.visugpx.com/editgpx/">
            <visugpx:node>5</visugpx:node>
            </visugpx:TrkExtension>
        </extensions>
      </trkpt>
      <trkpt lat="43.17009" lon="-1.48742">
        <ele>266.6</ele>
      </trkpt>
      <trkpt lat="43.16996" lon="-1.48737">
        <ele>266.1</ele>
      </trkpt>
      <trkpt lat="43.16974" lon="-1.48715">
        <ele>265.1</ele>
      </trkpt>
      <trkpt lat="43.16964" lon="-1.4871">
        <ele>264.4</ele>
      </trkpt>
      <trkpt lat="43.16899" lon="-1.48697">
        <ele>260.2</ele>
      </trkpt>
      <trkpt lat="43.1689" lon="-1.48697">
        <ele>259</ele>
      </trkpt>
      <trkpt lat="43.16871" lon="-1.48692">
        <ele>258.7</ele>
      </trkpt>
      <trkpt lat="43.16788" lon="-1.48649">
        <ele>252.3</ele>
      </trkpt>
      <trkpt lat="43.16777" lon="-1.48641">
        <ele>250.7</ele>
      </trkpt>
      <trkpt lat="43.16752" lon="-1.48613">
        <ele>249.2</ele>
      </trkpt>
      <trkpt lat="43.16726" lon="-1.48572">
        <ele>249.2</ele>
      </trkpt>
      <trkpt lat="43.16721" lon="-1.48569">
        <ele>249.1</ele>
      </trkpt>
      <trkpt lat="43.16715" lon="-1.48569">
        <ele>249.4</ele>
      </trkpt>
      <trkpt lat="43.1671" lon="-1.48573">
        <ele>249.6</ele>
      </trkpt>
      <trkpt lat="43.16707" lon="-1.48581">
        <ele>249.7</ele>
      </trkpt>
      <trkpt lat="43.16686" lon="-1.48715">
        <ele>263.6</ele>
      </trkpt>
      <trkpt lat="43.16673" lon="-1.4876">
        <ele>267.1</ele>
      </trkpt>
      <trkpt lat="43.16643" lon="-1.48841">
        <ele>274.5</ele>
      </trkpt>
      <trkpt lat="43.16638" lon="-1.48852">
        <ele>275.8</ele>
      </trkpt>
      <trkpt lat="43.16632" lon="-1.4886">
        <ele>277</ele>
      </trkpt>
      <trkpt lat="43.166" lon="-1.48894">
        <ele>279.5</ele>
      </trkpt>
      <trkpt lat="43.16592" lon="-1.489">
        <ele>280.5</ele>
      </trkpt>
      <trkpt lat="43.16578" lon="-1.48954">
        <ele>280.3</ele>
      </trkpt>
      <trkpt lat="43.16543" lon="-1.49055">
        <ele>270.8</ele>
      </trkpt>
      <trkpt lat="43.1653" lon="-1.49082">
        <ele>268.7</ele>
      </trkpt>
      <trkpt lat="43.16518" lon="-1.49099">
        <ele>267.6</ele>
      </trkpt>
      <trkpt lat="43.16479" lon="-1.49146">
        <ele>262.3</ele>
      </trkpt>
      <trkpt lat="43.16462" lon="-1.49175">
        <ele>259.2</ele>
      </trkpt>
      <trkpt lat="43.16454" lon="-1.49193">
        <ele>257.4</ele>
      </trkpt>
      <trkpt lat="43.16451" lon="-1.49205">
        <ele>256.1</ele>
      </trkpt>
      <trkpt lat="43.16452" lon="-1.49221">
        <ele>254.4</ele>
      </trkpt>
      <trkpt lat="43.16459" lon="-1.4926">
        <ele>251.7</ele>
      </trkpt>
      <trkpt lat="43.16459" lon="-1.49278">
        <ele>251</ele>
      </trkpt>
      <trkpt lat="43.16456" lon="-1.49295">
        <ele>250.2</ele>
      </trkpt>
      <trkpt lat="43.16449" lon="-1.49311">
        <ele>249.5</ele>
      </trkpt>
      <trkpt lat="43.16441" lon="-1.49324">
        <ele>249.3</ele>
      </trkpt>
      <trkpt lat="43.16363" lon="-1.4942">
        <ele>246.5</ele>
      </trkpt>
      <trkpt lat="43.16353" lon="-1.49436">
        <ele>245.5</ele>
      </trkpt>
      <trkpt lat="43.1632" lon="-1.49502">
        <ele>239.9</ele>
      </trkpt>
      <trkpt lat="43.16302" lon="-1.49531">
        <ele>236.7</ele>
      </trkpt>
      <trkpt lat="43.16292" lon="-1.4954">
        <ele>235.6</ele>
      </trkpt>
      <trkpt lat="43.16255" lon="-1.49558">
        <ele>231.2</ele>
      </trkpt>
      <trkpt lat="43.16239" lon="-1.49563">
        <ele>229.7</ele>
      </trkpt>
      <trkpt lat="43.16223" lon="-1.49565">
        <ele>228.4</ele>
      </trkpt>
      <trkpt lat="43.1619" lon="-1.49564">
        <ele>225.4</ele>
        <extensions>
          <visugpx:TrkExtension xmlns:visugpx="https://www.visugpx.com/editgpx/">
            <visugpx:node>6</visugpx:node>
            </visugpx:TrkExtension>
        </extensions>
      </trkpt>
      <trkpt lat="43.16187" lon="-1.49577">
        <ele>223.7</ele>
      </trkpt>
      <trkpt lat="43.16179" lon="-1.49576">
        <ele>223.6</ele>
      </trkpt>
      <trkpt lat="43.16162" lon="-1.49581">
        <ele>222.9</ele>
      </trkpt>
      <trkpt lat="43.16153" lon="-1.49587">
        <ele>222.5</ele>
      </trkpt>
      <trkpt lat="43.1612" lon="-1.49625">
        <ele>221.7</ele>
      </trkpt>
      <trkpt lat="43.16021" lon="-1.49757">
        <ele>221.8</ele>
      </trkpt>
      <trkpt lat="43.15972" lon="-1.49825">
        <ele>222.4</ele>
      </trkpt>
      <trkpt lat="43.15956" lon="-1.49855">
        <ele>223.1</ele>
      </trkpt>
      <trkpt lat="43.15899" lon="-1.49985">
        <ele>220.1</ele>
      </trkpt>
      <trkpt lat="43.1589" lon="-1.5">
        <ele>217.7</ele>
      </trkpt>
      <trkpt lat="43.15872" lon="-1.50024">
        <ele>218.9</ele>
      </trkpt>
      <trkpt lat="43.15853" lon="-1.50042">
        <ele>218</ele>
      </trkpt>
      <trkpt lat="43.15841" lon="-1.50051">
        <ele>217.3</ele>
      </trkpt>
      <trkpt lat="43.15726" lon="-1.50127">
        <ele>215.9</ele>
      </trkpt>
      <trkpt lat="43.1571" lon="-1.50136">
        <ele>215.7</ele>
      </trkpt>
      <trkpt lat="43.15665" lon="-1.50155">
        <ele>217.4</ele>
      </trkpt>
      <trkpt lat="43.15603" lon="-1.50177">
        <ele>220.8</ele>
      </trkpt>
      <trkpt lat="43.15574" lon="-1.50194">
        <ele>222.3</ele>
      </trkpt>
      <trkpt lat="43.15404" lon="-1.50334">
        <ele>223.6</ele>
      </trkpt>
      <trkpt lat="43.15374" lon="-1.50363">
        <ele>224.2</ele>
      </trkpt>
      <trkpt lat="43.15292" lon="-1.50459">
        <ele>223.9</ele>
      </trkpt>
      <trkpt lat="43.15267" lon="-1.50491">
        <ele>224.8</ele>
      </trkpt>
      <trkpt lat="43.1525" lon="-1.50516">
        <ele>222.6</ele>
      </trkpt>
      <trkpt lat="43.1523" lon="-1.50551">
        <ele>223.2</ele>
      </trkpt>
      <trkpt lat="43.15211" lon="-1.50596">
        <ele>218.6</ele>
      </trkpt>
      <trkpt lat="43.15196" lon="-1.50649">
        <ele>218.3</ele>
      </trkpt>
      <trkpt lat="43.15188" lon="-1.50694">
        <ele>213.9</ele>
      </trkpt>
      <trkpt lat="43.15183" lon="-1.50737">
        <ele>212.9</ele>
      </trkpt>
      <trkpt lat="43.15187" lon="-1.50773">
        <ele>212.9</ele>
      </trkpt>
      <trkpt lat="43.15192" lon="-1.50798">
        <ele>212.9</ele>
      </trkpt>
      <trkpt lat="43.15198" lon="-1.50813">
        <ele>213.6</ele>
      </trkpt>
      <trkpt lat="43.15197" lon="-1.50823">
        <ele>213.5</ele>
      </trkpt>
      <trkpt lat="43.15194" lon="-1.50832">
        <ele>213</ele>
      </trkpt>
      <trkpt lat="43.1519" lon="-1.50871">
        <ele>213.1</ele>
      </trkpt>
      <trkpt lat="43.15191" lon="-1.50909">
        <ele>214.3</ele>
      </trkpt>
      <trkpt lat="43.152" lon="-1.50963">
        <ele>217.3</ele>
      </trkpt>
      <trkpt lat="43.15211" lon="-1.5101">
        <ele>219.8</ele>
      </trkpt>
      <trkpt lat="43.15222" lon="-1.51047">
        <ele>219</ele>
      </trkpt>
      <trkpt lat="43.15237" lon="-1.51089">
        <ele>220.1</ele>
      </trkpt>
      <trkpt lat="43.15317" lon="-1.51285">
        <ele>218.8</ele>
      </trkpt>
      <trkpt lat="43.15327" lon="-1.5132">
        <ele>218.4</ele>
      </trkpt>
      <trkpt lat="43.15337" lon="-1.51362">
        <ele>220.6</ele>
      </trkpt>
      <trkpt lat="43.15343" lon="-1.51395">
        <ele>220.4</ele>
      </trkpt>
      <trkpt lat="43.15352" lon="-1.51477">
        <ele>218.6</ele>
      </trkpt>
      <trkpt lat="43.15354" lon="-1.51525">
        <ele>221.1</ele>
      </trkpt>
      <trkpt lat="43.15353" lon="-1.51573">
        <ele>222.3</ele>
      </trkpt>
      <trkpt lat="43.1535" lon="-1.51614">
        <ele>224.1</ele>
      </trkpt>
      <trkpt lat="43.1534" lon="-1.51682">
        <ele>226.8</ele>
      </trkpt>
      <trkpt lat="43.15329" lon="-1.51731">
        <ele>229.2</ele>
      </trkpt>
      <trkpt lat="43.15311" lon="-1.51791">
        <ele>230.7</ele>
        <extensions>
          <visugpx:TrkExtension xmlns:visugpx="https://www.visugpx.com/editgpx/">
            <visugpx:node>7</visugpx:node>
            </visugpx:TrkExtension>
        </extensions>
      </trkpt>
      <trkpt lat="43.15276" lon="-1.51857">
        <ele>233.16</ele>
        <time>2025-03-03T22:36:51Z</time>
      </trkpt>
      <trkpt lat="43.15282" lon="-1.51859">
        <ele>234.08</ele>
        <time>2025-03-03T22:36:53Z</time>
      </trkpt>
      <trkpt lat="43.15286" lon="-1.51864">
        <ele>234.68</ele>
        <time>2025-03-03T22:36:56Z</time>
      </trkpt>
      <trkpt lat="43.15289" lon="-1.51871">
        <ele>235.04</ele>
        <time>2025-03-03T22:36:59Z</time>
      </trkpt>
      <trkpt lat="43.15291" lon="-1.51879">
        <ele>235.27</ele>
        <time>2025-03-03T22:37:01Z</time>
      </trkpt>
      <trkpt lat="43.153" lon="-1.51892">
        <ele>235.84</ele>
        <time>2025-03-03T22:37:04Z</time>
      </trkpt>
      <trkpt lat="43.15313" lon="-1.519">
        <ele>237.68</ele>
        <time>2025-03-03T22:37:07Z</time>
      </trkpt>
      <trkpt lat="43.15346" lon="-1.5194">
        <ele>245.46</ele>
        <time>2025-03-03T22:37:10Z</time>
      </trkpt>
      <trkpt lat="43.15349" lon="-1.51946">
        <ele>246.74</ele>
        <time>2025-03-03T22:37:12Z</time>
      </trkpt>
      <trkpt lat="43.15352" lon="-1.51965">
        <ele>249.56</ele>
        <time>2025-03-03T22:37:15Z</time>
      </trkpt>
      <trkpt lat="43.15348" lon="-1.51978">
        <ele>250.27</ele>
        <time>2025-03-03T22:37:18Z</time>
      </trkpt>
      <trkpt lat="43.1534" lon="-1.51996">
        <ele>251.79</ele>
        <time>2025-03-03T22:37:21Z</time>
      </trkpt>
      <trkpt lat="43.15325" lon="-1.52025">
        <ele>255.21</ele>
        <time>2025-03-03T22:37:23Z</time>
      </trkpt>
      <trkpt lat="43.15299" lon="-1.52063">
        <ele>259.87</ele>
        <time>2025-03-03T22:37:26Z</time>
      </trkpt>
      <trkpt lat="43.15263" lon="-1.52132">
        <ele>266.93</ele>
        <time>2025-03-03T22:37:29Z</time>
      </trkpt>
      <trkpt lat="43.15257" lon="-1.52149">
        <ele>267.45</ele>
        <time>2025-03-03T22:37:32Z</time>
      </trkpt>
      <trkpt lat="43.15255" lon="-1.52158">
        <ele>267.78</ele>
        <time>2025-03-03T22:37:34Z</time>
      </trkpt>
      <trkpt lat="43.15255" lon="-1.52189">
        <ele>268.71</ele>
        <time>2025-03-03T22:37:37Z</time>
      </trkpt>
      <trkpt lat="43.15259" lon="-1.52213">
        <ele>271.37</ele>
        <time>2025-03-03T22:37:40Z</time>
      </trkpt>
      <trkpt lat="43.15256" lon="-1.52278">
        <ele>272.79</ele>
        <time>2025-03-03T22:37:43Z</time>
      </trkpt>
      <trkpt lat="43.15255" lon="-1.52305">
        <ele>271.98</ele>
        <time>2025-03-03T22:37:45Z</time>
      </trkpt>
      <trkpt lat="43.15255" lon="-1.52342">
        <ele>277.71</ele>
        <time>2025-03-03T22:37:47Z</time>
      </trkpt>
      <trkpt lat="43.15252" lon="-1.5236">
        <ele>279.49</ele>
        <time>2025-03-03T22:37:50Z</time>
      </trkpt>
      <trkpt lat="43.15238" lon="-1.524">
        <ele>282.18</ele>
        <time>2025-03-03T22:37:52Z</time>
      </trkpt>
      <trkpt lat="43.15235" lon="-1.52415">
        <ele>284.73</ele>
        <time>2025-03-03T22:37:54Z</time>
      </trkpt>
      <trkpt lat="43.15235" lon="-1.52452">
        <ele>289.18</ele>
        <time>2025-03-03T22:37:56Z</time>
      </trkpt>
      <trkpt lat="43.15252" lon="-1.52533">
        <ele>301.45</ele>
        <time>2025-03-03T22:37:59Z</time>
      </trkpt>
      <trkpt lat="43.15255" lon="-1.52539">
        <ele>303.19</ele>
        <time>2025-03-03T22:38:01Z</time>
      </trkpt>
      <trkpt lat="43.15258" lon="-1.52542">
        <ele>304.89</ele>
        <time>2025-03-03T22:38:03Z</time>
      </trkpt>
      <trkpt lat="43.15264" lon="-1.52543">
        <ele>307.58</ele>
        <time>2025-03-03T22:38:05Z</time>
      </trkpt>
      <trkpt lat="43.15269" lon="-1.52537">
        <ele>309.07</ele>
        <time>2025-03-03T22:38:08Z</time>
      </trkpt>
      <trkpt lat="43.15271" lon="-1.5249">
        <ele>306.57</ele>
        <time>2025-03-03T22:38:11Z</time>
      </trkpt>
      <trkpt lat="43.15279" lon="-1.52456">
        <ele>308.94</ele>
        <time>2025-03-03T22:38:13Z</time>
      </trkpt>
      <trkpt lat="43.15294" lon="-1.52436">
        <ele>312.23</ele>
        <time>2025-03-03T22:38:16Z</time>
      </trkpt>
      <trkpt lat="43.15302" lon="-1.52431">
        <ele>314.43</ele>
        <time>2025-03-03T22:38:19Z</time>
      </trkpt>
      <trkpt lat="43.15322" lon="-1.52425">
        <ele>320.86</ele>
        <time>2025-03-03T22:38:22Z</time>
      </trkpt>
      <trkpt lat="43.15329" lon="-1.52419">
        <ele>322.7</ele>
        <time>2025-03-03T22:38:25Z</time>
      </trkpt>
      <trkpt lat="43.15334" lon="-1.52411">
        <ele>323.23</ele>
        <time>2025-03-03T22:38:28Z</time>
      </trkpt>
      <trkpt lat="43.1534" lon="-1.52385">
        <ele>321.91</ele>
        <time>2025-03-03T22:38:31Z</time>
      </trkpt>
      <trkpt lat="43.15345" lon="-1.52363">
        <ele>321.8</ele>
        <time>2025-03-03T22:38:34Z</time>
      </trkpt>
      <trkpt lat="43.1535" lon="-1.5232">
        <ele>318.83</ele>
        <time>2025-03-03T22:38:36Z</time>
      </trkpt>
      <trkpt lat="43.15352" lon="-1.52313">
        <ele>318.86</ele>
        <time>2025-03-03T22:38:39Z</time>
      </trkpt>
      <trkpt lat="43.15356" lon="-1.52311">
        <ele>320.27</ele>
        <time>2025-03-03T22:38:42Z</time>
      </trkpt>
      <trkpt lat="43.15363" lon="-1.52315">
        <ele>323.98</ele>
        <time>2025-03-03T22:38:45Z</time>
      </trkpt>
      <trkpt lat="43.15364" lon="-1.52322">
        <ele>325.37</ele>
        <time>2025-03-03T22:38:48Z</time>
      </trkpt>
      <trkpt lat="43.1536" lon="-1.52352">
        <ele>326.67</ele>
        <time>2025-03-03T22:38:51Z</time>
      </trkpt>
      <trkpt lat="43.15361" lon="-1.52364">
        <ele>328.08</ele>
        <time>2025-03-03T22:38:54Z</time>
      </trkpt>
      <trkpt lat="43.15369" lon="-1.52394">
        <ele>332.96</ele>
        <time>2025-03-03T22:38:56Z</time>
      </trkpt>
      <trkpt lat="43.15374" lon="-1.52435">
        <ele>340.44</ele>
        <time>2025-03-03T22:38:59Z</time>
      </trkpt>
      <trkpt lat="43.15357" lon="-1.52482">
        <ele>342.61</ele>
        <time>2025-03-03T22:39:02Z</time>
      </trkpt>
      <trkpt lat="43.15355" lon="-1.52503">
        <ele>344.84</ele>
        <time>2025-03-03T22:39:05Z</time>
      </trkpt>
      <trkpt lat="43.15356" lon="-1.52514">
        <ele>346.33</ele>
        <time>2025-03-03T22:39:08Z</time>
      </trkpt>
      <trkpt lat="43.15372" lon="-1.52582">
        <ele>356.77</ele>
        <time>2025-03-03T22:39:11Z</time>
      </trkpt>
      <trkpt lat="43.15375" lon="-1.52623">
        <ele>360.68</ele>
        <time>2025-03-03T22:39:14Z</time>
      </trkpt>
      <trkpt lat="43.15381" lon="-1.52652">
        <ele>363.07</ele>
        <time>2025-03-03T22:39:17Z</time>
      </trkpt>
      <trkpt lat="43.1539" lon="-1.52674">
        <ele>365.12</ele>
        <time>2025-03-03T22:39:19Z</time>
      </trkpt>
      <trkpt lat="43.15399" lon="-1.52691">
        <ele>368.27</ele>
        <time>2025-03-03T22:39:22Z</time>
      </trkpt>
      <trkpt lat="43.1542" lon="-1.52723">
        <ele>373.59</ele>
        <time>2025-03-03T22:39:25Z</time>
      </trkpt>
      <trkpt lat="43.15433" lon="-1.52733">
        <ele>375.36</ele>
        <time>2025-03-03T22:39:28Z</time>
      </trkpt>
      <trkpt lat="43.15443" lon="-1.52733">
        <ele>377.56</ele>
        <time>2025-03-03T22:39:31Z</time>
      </trkpt>
      <trkpt lat="43.15446" lon="-1.52729">
        <ele>378.69</ele>
        <time>2025-03-03T22:39:34Z</time>
      </trkpt>
      <trkpt lat="43.15447" lon="-1.52724">
        <ele>379.51</ele>
        <time>2025-03-03T22:39:37Z</time>
      </trkpt>
      <trkpt lat="43.15442" lon="-1.52684">
        <ele>383.71</ele>
        <time>2025-03-03T22:39:39Z</time>
      </trkpt>
      <trkpt lat="43.15443" lon="-1.52659">
        <ele>386.57</ele>
        <time>2025-03-03T22:39:42Z</time>
      </trkpt>
      <trkpt lat="43.15446" lon="-1.52629">
        <ele>388.79</ele>
        <time>2025-03-03T22:39:45Z</time>
      </trkpt>
      <trkpt lat="43.15457" lon="-1.52571">
        <ele>392.55</ele>
        <time>2025-03-03T22:39:48Z</time>
      </trkpt>
      <trkpt lat="43.1547" lon="-1.52535">
        <ele>394.73</ele>
        <time>2025-03-03T22:39:51Z</time>
      </trkpt>
      <trkpt lat="43.15488" lon="-1.52489">
        <ele>401.82</ele>
        <time>2025-03-03T22:39:54Z</time>
      </trkpt>
      <trkpt lat="43.15505" lon="-1.52453">
        <ele>406.66</ele>
        <time>2025-03-03T22:39:57Z</time>
      </trkpt>
      <trkpt lat="43.15523" lon="-1.52425">
        <ele>411.17</ele>
        <time>2025-03-03T22:40:00Z</time>
      </trkpt>
      <trkpt lat="43.15533" lon="-1.52411">
        <ele>414.36</ele>
        <time>2025-03-03T22:40:02Z</time>
      </trkpt>
      <trkpt lat="43.15552" lon="-1.52392">
        <ele>418.14</ele>
        <time>2025-03-03T22:40:05Z</time>
      </trkpt>
      <trkpt lat="43.15571" lon="-1.52382">
        <ele>420.76</ele>
        <time>2025-03-03T22:40:08Z</time>
      </trkpt>
      <trkpt lat="43.15582" lon="-1.52376">
        <ele>421.52</ele>
        <time>2025-03-03T22:40:11Z</time>
      </trkpt>
      <trkpt lat="43.15596" lon="-1.52372">
        <ele>423.69</ele>
        <time>2025-03-03T22:40:14Z</time>
      </trkpt>
      <trkpt lat="43.15604" lon="-1.52372">
        <ele>425.73</ele>
        <time>2025-03-03T22:40:17Z</time>
      </trkpt>
      <trkpt lat="43.15606" lon="-1.52375">
        <ele>427.12</ele>
        <time>2025-03-03T22:40:20Z</time>
      </trkpt>
      <trkpt lat="43.15606" lon="-1.5238">
        <ele>428.76</ele>
        <time>2025-03-03T22:40:22Z</time>
      </trkpt>
      <trkpt lat="43.15603" lon="-1.52388">
        <ele>430.44</ele>
        <time>2025-03-03T22:40:25Z</time>
      </trkpt>
      <trkpt lat="43.15592" lon="-1.52403">
        <ele>430.32</ele>
        <time>2025-03-03T22:40:28Z</time>
      </trkpt>
      <trkpt lat="43.15587" lon="-1.52414">
        <ele>430.7</ele>
        <time>2025-03-03T22:40:31Z</time>
      </trkpt>
      <trkpt lat="43.15567" lon="-1.52498">
        <ele>434.67</ele>
        <time>2025-03-03T22:40:34Z</time>
      </trkpt>
      <trkpt lat="43.15566" lon="-1.52511">
        <ele>435.39</ele>
        <time>2025-03-03T22:40:37Z</time>
      </trkpt>
      <trkpt lat="43.15568" lon="-1.52534">
        <ele>437.77</ele>
        <time>2025-03-03T22:40:40Z</time>
      </trkpt>
      <trkpt lat="43.15572" lon="-1.52546">
        <ele>439.99</ele>
        <time>2025-03-03T22:40:43Z</time>
      </trkpt>
      <trkpt lat="43.15585" lon="-1.52573">
        <ele>444.59</ele>
        <time>2025-03-03T22:40:45Z</time>
      </trkpt>
      <trkpt lat="43.15594" lon="-1.52583">
        <ele>447.04</ele>
        <time>2025-03-03T22:40:48Z</time>
      </trkpt>
      <trkpt lat="43.15616" lon="-1.526">
        <ele>451.93</ele>
        <time>2025-03-03T22:40:51Z</time>
      </trkpt>
      <trkpt lat="43.15628" lon="-1.52606">
        <ele>453.85</ele>
        <time>2025-03-03T22:40:54Z</time>
      </trkpt>
      <trkpt lat="43.1566" lon="-1.52614">
        <ele>456.77</ele>
        <time>2025-03-03T22:40:57Z</time>
      </trkpt>
      <trkpt lat="43.15735" lon="-1.52607">
        <ele>464.1</ele>
        <time>2025-03-03T22:41:00Z</time>
      </trkpt>
      <trkpt lat="43.15771" lon="-1.52597">
        <ele>465.92</ele>
        <time>2025-03-03T22:41:03Z</time>
      </trkpt>
      <trkpt lat="43.15807" lon="-1.52579">
        <ele>475.15</ele>
        <time>2025-03-03T22:41:06Z</time>
      </trkpt>
      <trkpt lat="43.15813" lon="-1.52577">
        <ele>476.05</ele>
        <time>2025-03-03T22:41:08Z</time>
      </trkpt>
      <trkpt lat="43.15825" lon="-1.52581">
        <ele>477.05</ele>
        <time>2025-03-03T22:41:11Z</time>
      </trkpt>
      <trkpt lat="43.1586" lon="-1.52604">
        <ele>476.86</ele>
        <time>2025-03-03T22:41:14Z</time>
      </trkpt>
      <trkpt lat="43.15887" lon="-1.52637">
        <ele>475.01</ele>
        <time>2025-03-03T22:41:17Z</time>
      </trkpt>
      <trkpt lat="43.15914" lon="-1.5266">
        <ele>468.68</ele>
        <time>2025-03-03T22:41:20Z</time>
      </trkpt>
      <trkpt lat="43.16009" lon="-1.52771">
        <ele>481.41</ele>
        <time>2025-03-03T22:41:23Z</time>
      </trkpt>
      <trkpt lat="43.16065" lon="-1.52832">
        <ele>493.87</ele>
        <time>2025-03-03T22:41:26Z</time>
      </trkpt>
      <trkpt lat="43.16104" lon="-1.52865">
        <ele>504.68</ele>
        <time>2025-03-03T22:41:28Z</time>
      </trkpt>
      <trkpt lat="43.16125" lon="-1.52887">
        <ele>508.15</ele>
        <time>2025-03-03T22:41:31Z</time>
      </trkpt>
      <trkpt lat="43.16146" lon="-1.52902">
        <ele>511.35</ele>
        <time>2025-03-03T22:41:34Z</time>
      </trkpt>
      <trkpt lat="43.16212" lon="-1.5294">
        <ele>520.35</ele>
        <time>2025-03-03T22:41:37Z</time>
      </trkpt>
      <trkpt lat="43.16226" lon="-1.52947">
        <ele>522.27</ele>
        <time>2025-03-03T22:41:40Z</time>
      </trkpt>
      <trkpt lat="43.16251" lon="-1.52952">
        <ele>526.05</ele>
        <time>2025-03-03T22:41:43Z</time>
      </trkpt>
      <trkpt lat="43.16272" lon="-1.52952">
        <ele>528.69</ele>
        <time>2025-03-03T22:41:46Z</time>
      </trkpt>
      <trkpt lat="43.163" lon="-1.52949">
        <ele>532.39</ele>
        <time>2025-03-03T22:41:49Z</time>
      </trkpt>
      <trkpt lat="43.16333" lon="-1.52941">
        <ele>536.33</ele>
        <time>2025-03-03T22:41:51Z</time>
      </trkpt>
      <trkpt lat="43.16364" lon="-1.52941">
        <ele>534.84</ele>
        <time>2025-03-03T22:41:54Z</time>
      </trkpt>
      <trkpt lat="43.16425" lon="-1.52955">
        <ele>532.62</ele>
        <time>2025-03-03T22:41:57Z</time>
      </trkpt>
      <trkpt lat="43.16451" lon="-1.52967">
        <ele>536.61</ele>
        <time>2025-03-03T22:42:02Z</time>
      </trkpt>
      <trkpt lat="43.16518" lon="-1.5299">
        <ele>542.23</ele>
        <time>2025-03-03T22:42:06Z</time>
      </trkpt>
      <trkpt lat="43.16556" lon="-1.52995">
        <ele>546.09</ele>
        <time>2025-03-03T22:42:10Z</time>
      </trkpt>
      <trkpt lat="43.16571" lon="-1.52999">
        <ele>546.43</ele>
        <time>2025-03-03T22:42:15Z</time>
      </trkpt>
      <trkpt lat="43.16636" lon="-1.53031">
        <ele>552.81</ele>
        <time>2025-03-03T22:42:19Z</time>
      </trkpt>
      <trkpt lat="43.16648" lon="-1.53039">
        <ele>554.18</ele>
        <time>2025-03-03T22:42:23Z</time>
      </trkpt>
      <trkpt lat="43.16679" lon="-1.5307">
        <ele>561.77</ele>
        <time>2025-03-03T22:42:28Z</time>
      </trkpt>
      <trkpt lat="43.16712" lon="-1.53075">
        <ele>564.23</ele>
        <time>2025-03-03T22:42:32Z</time>
      </trkpt>
      <trkpt lat="43.16771" lon="-1.53092">
        <ele>567.96</ele>
        <time>2025-03-03T22:42:36Z</time>
      </trkpt>
      <trkpt lat="43.16786" lon="-1.53099">
        <ele>568.96</ele>
        <time>2025-03-03T22:42:41Z</time>
      </trkpt>
      <trkpt lat="43.16799" lon="-1.53107">
        <ele>570.33</ele>
        <time>2025-03-03T22:42:45Z</time>
      </trkpt>
      <trkpt lat="43.16827" lon="-1.53132">
        <ele>575.39</ele>
        <time>2025-03-03T22:42:49Z</time>
      </trkpt>
      <trkpt lat="43.16854" lon="-1.53161">
        <ele>580.86</ele>
        <time>2025-03-03T22:42:54Z</time>
      </trkpt>
      <trkpt lat="43.16876" lon="-1.53198">
        <ele>584.03</ele>
        <time>2025-03-03T22:42:58Z</time>
      </trkpt>
      <trkpt lat="43.16916" lon="-1.53255">
        <ele>582.62</ele>
        <time>2025-03-03T22:43:02Z</time>
      </trkpt>
      <trkpt lat="43.16973" lon="-1.53305">
        <ele>585.7</ele>
        <time>2025-03-03T22:43:07Z</time>
      </trkpt>
      <trkpt lat="43.16987" lon="-1.5332">
        <ele>583.97</ele>
        <time>2025-03-03T22:43:11Z</time>
      </trkpt>
      <trkpt lat="43.17001" lon="-1.53341">
        <ele>583.51</ele>
        <time>2025-03-03T22:43:15Z</time>
      </trkpt>
      <trkpt lat="43.17033" lon="-1.53401">
        <ele>586.14</ele>
        <time>2025-03-03T22:43:20Z</time>
      </trkpt>
      <trkpt lat="43.17048" lon="-1.53426">
        <ele>586.17</ele>
        <time>2025-03-03T22:43:23Z</time>
      </trkpt>
      <trkpt lat="43.17055" lon="-1.53442">
        <ele>586</ele>
        <time>2025-03-03T22:43:26Z</time>
      </trkpt>
      <trkpt lat="43.17057" lon="-1.53461">
        <ele>584.77</ele>
        <time>2025-03-03T22:43:28Z</time>
      </trkpt>
      <trkpt lat="43.17054" lon="-1.53509">
        <ele>582.93</ele>
        <time>2025-03-03T22:43:31Z</time>
      </trkpt>
      <trkpt lat="43.17057" lon="-1.53532">
        <ele>583.18</ele>
        <time>2025-03-03T22:43:34Z</time>
      </trkpt>
      <trkpt lat="43.17062" lon="-1.53557">
        <ele>584.57</ele>
        <time>2025-03-03T22:43:37Z</time>
      </trkpt>
      <trkpt lat="43.17072" lon="-1.53579">
        <ele>586.39</ele>
        <time>2025-03-03T22:43:40Z</time>
      </trkpt>
      <trkpt lat="43.17093" lon="-1.53613">
        <ele>588.57</ele>
        <time>2025-03-03T22:43:43Z</time>
      </trkpt>
      <trkpt lat="43.17108" lon="-1.53633">
        <ele>588.95</ele>
        <time>2025-03-03T22:43:46Z</time>
      </trkpt>
      <trkpt lat="43.17125" lon="-1.5365">
        <ele>588.98</ele>
        <time>2025-03-03T22:43:49Z</time>
      </trkpt>
      <trkpt lat="43.17145" lon="-1.53665">
        <ele>589.56</ele>
        <time>2025-03-03T22:43:52Z</time>
      </trkpt>
      <trkpt lat="43.17167" lon="-1.53673">
        <ele>590.29</ele>
        <time>2025-03-03T22:43:55Z</time>
      </trkpt>
      <trkpt lat="43.1719" lon="-1.53688">
        <ele>591.15</ele>
        <time>2025-03-03T22:43:58Z</time>
      </trkpt>
      <trkpt lat="43.17227" lon="-1.53726">
        <ele>587.13</ele>
        <time>2025-03-03T22:44:01Z</time>
      </trkpt>
      <trkpt lat="43.17258" lon="-1.5377">
        <ele>589.61</ele>
        <time>2025-03-03T22:44:04Z</time>
      </trkpt>
      <trkpt lat="43.17265" lon="-1.53778">
        <ele>591.83</ele>
        <time>2025-03-03T22:44:06Z</time>
      </trkpt>
      <trkpt lat="43.17291" lon="-1.53794">
        <ele>598.47</ele>
        <time>2025-03-03T22:44:09Z</time>
      </trkpt>
      <trkpt lat="43.17299" lon="-1.53803">
        <ele>601.22</ele>
        <time>2025-03-03T22:44:12Z</time>
      </trkpt>
      <trkpt lat="43.17357" lon="-1.53888">
        <ele>609.37</ele>
        <time>2025-03-03T22:44:15Z</time>
      </trkpt>
      <trkpt lat="43.17375" lon="-1.5391">
        <ele>614.01</ele>
        <time>2025-03-03T22:44:18Z</time>
      </trkpt>
      <trkpt lat="43.17416" lon="-1.53945">
        <ele>622.78</ele>
        <time>2025-03-03T22:44:21Z</time>
      </trkpt>
      <trkpt lat="43.17439" lon="-1.5396">
        <ele>624.73</ele>
        <time>2025-03-03T22:44:24Z</time>
      </trkpt>
      <trkpt lat="43.17478" lon="-1.53977">
        <ele>630.73</ele>
        <time>2025-03-03T22:44:27Z</time>
      </trkpt>
      <trkpt lat="43.17499" lon="-1.53989">
        <ele>635.22</ele>
        <time>2025-03-03T22:44:30Z</time>
      </trkpt>
      <trkpt lat="43.17549" lon="-1.5403">
        <ele>639.86</ele>
        <time>2025-03-03T22:44:33Z</time>
      </trkpt>
      <trkpt lat="43.17557" lon="-1.54039">
        <ele>641.51</ele>
        <time>2025-03-03T22:44:36Z</time>
      </trkpt>
      <trkpt lat="43.17563" lon="-1.54047">
        <ele>642.97</ele>
        <time>2025-03-03T22:44:39Z</time>
      </trkpt>
      <trkpt lat="43.17571" lon="-1.54062">
        <ele>644.7</ele>
        <time>2025-03-03T22:44:42Z</time>
      </trkpt>
      <trkpt lat="43.17573" lon="-1.54071">
        <ele>645.44</ele>
        <time>2025-03-03T22:44:45Z</time>
      </trkpt>
      <trkpt lat="43.17573" lon="-1.54084">
        <ele>644.84</ele>
        <time>2025-03-03T22:44:47Z</time>
      </trkpt>
      <trkpt lat="43.17569" lon="-1.54098">
        <ele>642.38</ele>
        <time>2025-03-03T22:44:50Z</time>
      </trkpt>
      <trkpt lat="43.17568" lon="-1.54106">
        <ele>641.81</ele>
        <time>2025-03-03T22:44:53Z</time>
      </trkpt>
      <trkpt lat="43.17568" lon="-1.54116">
        <ele>641.84</ele>
        <time>2025-03-03T22:44:56Z</time>
      </trkpt>
      <trkpt lat="43.17574" lon="-1.5415">
        <ele>643.67</ele>
        <time>2025-03-03T22:44:59Z</time>
      </trkpt>
      <trkpt lat="43.17577" lon="-1.54162">
        <ele>643.97</ele>
        <time>2025-03-03T22:45:02Z</time>
      </trkpt>
      <trkpt lat="43.17598" lon="-1.54212">
        <ele>649.73</ele>
        <time>2025-03-03T22:45:05Z</time>
      </trkpt>
      <trkpt lat="43.17608" lon="-1.54231">
        <ele>654.35</ele>
        <time>2025-03-03T22:45:08Z</time>
      </trkpt>
      <trkpt lat="43.17617" lon="-1.54242">
        <ele>657.25</ele>
        <time>2025-03-03T22:45:11Z</time>
      </trkpt>
      <trkpt lat="43.17655" lon="-1.54283">
        <ele>664.48</ele>
        <time>2025-03-03T22:45:14Z</time>
      </trkpt>
      <trkpt lat="43.17669" lon="-1.54324">
        <ele>663.67</ele>
        <time>2025-03-03T22:45:17Z</time>
      </trkpt>
      <trkpt lat="43.17682" lon="-1.54344">
        <ele>664.01</ele>
        <time>2025-03-03T22:45:20Z</time>
      </trkpt>
      <trkpt lat="43.17717" lon="-1.54386">
        <ele>668.27</ele>
        <time>2025-03-03T22:45:23Z</time>
      </trkpt>
      <trkpt lat="43.17781" lon="-1.54457">
        <ele>672.61</ele>
        <time>2025-03-03T22:45:25Z</time>
      </trkpt>
      <trkpt lat="43.17816" lon="-1.54517">
        <ele>669.84</ele>
        <time>2025-03-03T22:45:28Z</time>
      </trkpt>
      <trkpt lat="43.17834" lon="-1.54541">
        <ele>669.97</ele>
        <time>2025-03-03T22:45:31Z</time>
      </trkpt>
      <trkpt lat="43.17841" lon="-1.54546">
        <ele>670.53</ele>
        <time>2025-03-03T22:45:34Z</time>
      </trkpt>
      <trkpt lat="43.17848" lon="-1.54549">
        <ele>671.84</ele>
        <time>2025-03-03T22:45:37Z</time>
      </trkpt>
      <trkpt lat="43.1787" lon="-1.54554">
        <ele>675.63</ele>
        <time>2025-03-03T22:45:40Z</time>
      </trkpt>
      <trkpt lat="43.17925" lon="-1.54571">
        <ele>672.77</ele>
        <time>2025-03-03T22:45:43Z</time>
      </trkpt>
      <trkpt lat="43.17969" lon="-1.54566">
        <ele>674.66</ele>
        <time>2025-03-03T22:45:46Z</time>
      </trkpt>
      <trkpt lat="43.18005" lon="-1.54564">
        <ele>670.44</ele>
        <time>2025-03-03T22:45:49Z</time>
      </trkpt>
      <trkpt lat="43.18052" lon="-1.54566">
        <ele>667.9</ele>
        <time>2025-03-03T22:45:52Z</time>
      </trkpt>
      <trkpt lat="43.18093" lon="-1.54562">
        <ele>670.38</ele>
        <time>2025-03-03T22:45:55Z</time>
      </trkpt>
      <trkpt lat="43.18131" lon="-1.54551">
        <ele>668.24</ele>
        <time>2025-03-03T22:45:58Z</time>
      </trkpt>
      <trkpt lat="43.18154" lon="-1.54534">
        <ele>670.48</ele>
        <time>2025-03-03T22:46:01Z</time>
      </trkpt>
      <trkpt lat="43.18181" lon="-1.54506">
        <ele>672.86</ele>
        <time>2025-03-03T22:46:03Z</time>
      </trkpt>
      <trkpt lat="43.18203" lon="-1.54489">
        <ele>670.85</ele>
        <time>2025-03-03T22:46:06Z</time>
      </trkpt>
      <trkpt lat="43.18216" lon="-1.54476">
        <ele>669.16</ele>
        <time>2025-03-03T22:46:09Z</time>
      </trkpt>
      <trkpt lat="43.18235" lon="-1.54461">
        <ele>667.87</ele>
        <time>2025-03-03T22:46:12Z</time>
      </trkpt>
      <trkpt lat="43.18271" lon="-1.54444">
        <ele>665.45</ele>
        <time>2025-03-03T22:46:15Z</time>
      </trkpt>
      <trkpt lat="43.183" lon="-1.54419">
        <ele>666.69</ele>
        <time>2025-03-03T22:46:18Z</time>
      </trkpt>
      <trkpt lat="43.18344" lon="-1.54367">
        <ele>668.39</ele>
        <time>2025-03-03T22:46:21Z</time>
      </trkpt>
      <trkpt lat="43.18366" lon="-1.54334">
        <ele>670.31</ele>
        <time>2025-03-03T22:46:24Z</time>
      </trkpt>
      <trkpt lat="43.18391" lon="-1.5432">
        <ele>670.15</ele>
        <time>2025-03-03T22:46:27Z</time>
      </trkpt>
      <trkpt lat="43.18398" lon="-1.5434">
        <ele>667.52</ele>
        <time>2025-03-03T22:46:30Z</time>
      </trkpt>
      <trkpt lat="43.1841" lon="-1.54364">
        <ele>664.13</ele>
        <time>2025-03-03T22:46:33Z</time>
      </trkpt>
      <trkpt lat="43.18442" lon="-1.54409">
        <ele>662.58</ele>
        <time>2025-03-03T22:46:36Z</time>
      </trkpt>
      <trkpt lat="43.18503" lon="-1.54472">
        <ele>666.57</ele>
        <time>2025-03-03T22:46:39Z</time>
      </trkpt>
      <trkpt lat="43.18523" lon="-1.54505">
        <ele>662.12</ele>
        <time>2025-03-03T22:46:42Z</time>
      </trkpt>
      <trkpt lat="43.18543" lon="-1.54537">
        <ele>661.35</ele>
        <time>2025-03-03T22:46:44Z</time>
      </trkpt>
      <trkpt lat="43.18576" lon="-1.54556">
        <ele>664.68</ele>
        <time>2025-03-03T22:46:47Z</time>
      </trkpt>
      <trkpt lat="43.18585" lon="-1.54578">
        <ele>663.24</ele>
        <time>2025-03-03T22:46:50Z</time>
      </trkpt>
      <trkpt lat="43.18583" lon="-1.54589">
        <ele>661.59</ele>
        <time>2025-03-03T22:46:53Z</time>
      </trkpt>
      <trkpt lat="43.18566" lon="-1.54614">
        <ele>656.39</ele>
        <time>2025-03-03T22:46:56Z</time>
      </trkpt>
      <trkpt lat="43.1856" lon="-1.54627">
        <ele>655.52</ele>
        <time>2025-03-03T22:46:59Z</time>
      </trkpt>
      <trkpt lat="43.18558" lon="-1.54641">
        <ele>655.75</ele>
        <time>2025-03-03T22:47:02Z</time>
      </trkpt>
      <trkpt lat="43.1856" lon="-1.54667">
        <ele>659.1</ele>
        <time>2025-03-03T22:47:05Z</time>
      </trkpt>
      <trkpt lat="43.18541" lon="-1.54729">
        <ele>660.48</ele>
        <time>2025-03-03T22:47:08Z</time>
      </trkpt>
      <trkpt lat="43.18529" lon="-1.54806">
        <ele>661.59</ele>
        <time>2025-03-03T22:47:11Z</time>
      </trkpt>
      <trkpt lat="43.18529" lon="-1.54822">
        <ele>661.53</ele>
        <time>2025-03-03T22:47:14Z</time>
      </trkpt>
      <trkpt lat="43.18533" lon="-1.54837">
        <ele>662.44</ele>
        <time>2025-03-03T22:47:17Z</time>
      </trkpt>
      <trkpt lat="43.18543" lon="-1.54852">
        <ele>664.57</ele>
        <time>2025-03-03T22:47:20Z</time>
      </trkpt>
      <trkpt lat="43.18579" lon="-1.5489">
        <ele>672.36</ele>
        <time>2025-03-03T22:47:22Z</time>
      </trkpt>
      <trkpt lat="43.18586" lon="-1.54903">
        <ele>672.32</ele>
        <time>2025-03-03T22:47:25Z</time>
      </trkpt>
      <trkpt lat="43.18598" lon="-1.54949">
        <ele>669.52</ele>
        <time>2025-03-03T22:47:28Z</time>
      </trkpt>
      <trkpt lat="43.18603" lon="-1.54962">
        <ele>670.22</ele>
        <time>2025-03-03T22:47:31Z</time>
      </trkpt>
      <trkpt lat="43.18626" lon="-1.55006">
        <ele>673.8</ele>
        <time>2025-03-03T22:47:34Z</time>
      </trkpt>
      <trkpt lat="43.18637" lon="-1.5504">
        <ele>672.87</ele>
        <time>2025-03-03T22:47:37Z</time>
      </trkpt>
      <trkpt lat="43.18643" lon="-1.55048">
        <ele>672.03</ele>
        <time>2025-03-03T22:47:40Z</time>
      </trkpt>
      <trkpt lat="43.1865" lon="-1.5505">
        <ele>671.84</ele>
        <time>2025-03-03T22:47:43Z</time>
      </trkpt>
      <trkpt lat="43.18662" lon="-1.55046">
        <ele>672.34</ele>
        <time>2025-03-03T22:47:46Z</time>
      </trkpt>
      <trkpt lat="43.18685" lon="-1.55034">
        <ele>671.46</ele>
        <time>2025-03-03T22:47:49Z</time>
      </trkpt>
      <trkpt lat="43.18712" lon="-1.55013">
        <ele>668.67</ele>
        <time>2025-03-03T22:47:52Z</time>
      </trkpt>
      <trkpt lat="43.18721" lon="-1.54999">
        <ele>669.58</ele>
        <time>2025-03-03T22:47:55Z</time>
      </trkpt>
      <trkpt lat="43.18736" lon="-1.54966">
        <ele>675.44</ele>
        <time>2025-03-03T22:47:58Z</time>
      </trkpt>
      <trkpt lat="43.18747" lon="-1.54947">
        <ele>678.81</ele>
        <time>2025-03-03T22:48:00Z</time>
      </trkpt>
      <trkpt lat="43.18765" lon="-1.54932">
        <ele>675.27</ele>
        <time>2025-03-03T22:48:03Z</time>
      </trkpt>
      <trkpt lat="43.18788" lon="-1.54927">
        <ele>667.35</ele>
        <time>2025-03-03T22:48:06Z</time>
      </trkpt>
      <trkpt lat="43.18808" lon="-1.54909">
        <ele>664</ele>
        <time>2025-03-03T22:48:09Z</time>
      </trkpt>
      <trkpt lat="43.18822" lon="-1.54888">
        <ele>663.81</ele>
        <time>2025-03-03T22:48:12Z</time>
      </trkpt>
      <trkpt lat="43.18829" lon="-1.54855">
        <ele>669.06</ele>
        <time>2025-03-03T22:48:15Z</time>
      </trkpt>
      <trkpt lat="43.18837" lon="-1.54839">
        <ele>669.11</ele>
        <time>2025-03-03T22:48:18Z</time>
      </trkpt>
      <trkpt lat="43.18848" lon="-1.5483">
        <ele>667.93</ele>
        <time>2025-03-03T22:48:21Z</time>
      </trkpt>
      <trkpt lat="43.18895" lon="-1.54828">
        <ele>655.81</ele>
        <time>2025-03-03T22:48:24Z</time>
      </trkpt>
      <trkpt lat="43.18924" lon="-1.54813">
        <ele>653.14</ele>
        <time>2025-03-03T22:48:27Z</time>
      </trkpt>
      <trkpt lat="43.18958" lon="-1.54805">
        <ele>649.61</ele>
        <time>2025-03-03T22:48:30Z</time>
      </trkpt>
      <trkpt lat="43.18971" lon="-1.54806">
        <ele>648.82</ele>
        <time>2025-03-03T22:48:33Z</time>
      </trkpt>
      <trkpt lat="43.18986" lon="-1.54818">
        <ele>645.91</ele>
        <time>2025-03-03T22:48:36Z</time>
      </trkpt>
      <trkpt lat="43.18995" lon="-1.54829">
        <ele>643.55</ele>
        <time>2025-03-03T22:48:39Z</time>
      </trkpt>
      <trkpt lat="43.19007" lon="-1.5485">
        <ele>639.44</ele>
        <time>2025-03-03T22:48:41Z</time>
      </trkpt>
      <trkpt lat="43.19012" lon="-1.54868">
        <ele>635.48</ele>
        <time>2025-03-03T22:48:44Z</time>
      </trkpt>
      <trkpt lat="43.1901" lon="-1.54896">
        <ele>628.15</ele>
        <time>2025-03-03T22:48:47Z</time>
      </trkpt>
      <trkpt lat="43.19013" lon="-1.54916">
        <ele>625.09</ele>
        <time>2025-03-03T22:48:50Z</time>
      </trkpt>
      <trkpt lat="43.19018" lon="-1.54927">
        <ele>623.3</ele>
        <time>2025-03-03T22:48:53Z</time>
      </trkpt>
      <trkpt lat="43.19029" lon="-1.5493">
        <ele>624.15</ele>
        <time>2025-03-03T22:48:56Z</time>
      </trkpt>
      <trkpt lat="43.19044" lon="-1.54929">
        <ele>623.82</ele>
        <time>2025-03-03T22:48:59Z</time>
      </trkpt>
      <trkpt lat="43.19063" lon="-1.54925">
        <ele>623.37</ele>
        <time>2025-03-03T22:49:02Z</time>
      </trkpt>
      <trkpt lat="43.1909" lon="-1.54903">
        <ele>622.4</ele>
        <time>2025-03-03T22:49:05Z</time>
      </trkpt>
      <trkpt lat="43.19109" lon="-1.54881">
        <ele>620.55</ele>
        <time>2025-03-03T22:49:08Z</time>
      </trkpt>
      <trkpt lat="43.19122" lon="-1.54869">
        <ele>618.14</ele>
        <time>2025-03-03T22:49:11Z</time>
      </trkpt>
      <trkpt lat="43.19135" lon="-1.54864">
        <ele>614.99</ele>
        <time>2025-03-03T22:49:14Z</time>
      </trkpt>
      <trkpt lat="43.19148" lon="-1.54865">
        <ele>610.24</ele>
        <time>2025-03-03T22:49:17Z</time>
      </trkpt>
      <trkpt lat="43.19157" lon="-1.54868">
        <ele>606.53</ele>
        <time>2025-03-03T22:49:19Z</time>
      </trkpt>
      <trkpt lat="43.19171" lon="-1.5489">
        <ele>600.81</ele>
        <time>2025-03-03T22:49:22Z</time>
      </trkpt>
      <trkpt lat="43.1918" lon="-1.549">
        <ele>597.74</ele>
        <time>2025-03-03T22:49:25Z</time>
      </trkpt>
      <trkpt lat="43.19196" lon="-1.54912">
        <ele>593.36</ele>
        <time>2025-03-03T22:49:28Z</time>
      </trkpt>
      <trkpt lat="43.19229" lon="-1.54926">
        <ele>584.24</ele>
        <time>2025-03-03T22:49:31Z</time>
      </trkpt>
      <trkpt lat="43.19244" lon="-1.54929">
        <ele>582.31</ele>
        <time>2025-03-03T22:49:34Z</time>
      </trkpt>
      <trkpt lat="43.19257" lon="-1.54937">
        <ele>580.58</ele>
        <time>2025-03-03T22:49:37Z</time>
      </trkpt>
      <trkpt lat="43.1929" lon="-1.54965">
        <ele>573.63</ele>
        <time>2025-03-03T22:49:40Z</time>
      </trkpt>
      <trkpt lat="43.19313" lon="-1.54976">
        <ele>569.41</ele>
        <time>2025-03-03T22:49:43Z</time>
      </trkpt>
      <trkpt lat="43.19352" lon="-1.54984">
        <ele>564.83</ele>
        <time>2025-03-03T22:49:46Z</time>
      </trkpt>
      <trkpt lat="43.19363" lon="-1.54991">
        <ele>563.63</ele>
        <time>2025-03-03T22:49:49Z</time>
      </trkpt>
      <trkpt lat="43.19377" lon="-1.55008">
        <ele>562.03</ele>
        <time>2025-03-03T22:49:52Z</time>
      </trkpt>
      <trkpt lat="43.19385" lon="-1.55012">
        <ele>561.95</ele>
        <time>2025-03-03T22:49:55Z</time>
      </trkpt>
      <trkpt lat="43.19394" lon="-1.55013">
        <ele>562.5</ele>
        <time>2025-03-03T22:49:57Z</time>
      </trkpt>
      <trkpt lat="43.19373" lon="-1.54978">
        <ele>564.26</ele>
        <time>2025-03-03T22:49:59Z</time>
      </trkpt>
      <trkpt lat="43.1936" lon="-1.54963">
        <ele>564.09</ele>
        <time>2025-03-03T22:50:00Z</time>
      </trkpt>
      <trkpt lat="43.19334" lon="-1.54938">
        <ele>565.81</ele>
        <time>2025-03-03T22:50:02Z</time>
      </trkpt>
      <trkpt lat="43.19297" lon="-1.5489">
        <ele>566.82</ele>
        <time>2025-03-03T22:50:03Z</time>
      </trkpt>
      <trkpt lat="43.1925" lon="-1.54838">
        <ele>567.74</ele>
        <time>2025-03-03T22:50:05Z</time>
      </trkpt>
      <trkpt lat="43.19234" lon="-1.54801">
        <ele>567.6</ele>
        <time>2025-03-03T22:50:06Z</time>
      </trkpt>
      <trkpt lat="43.19219" lon="-1.54757">
        <ele>565.9</ele>
        <time>2025-03-03T22:50:08Z</time>
      </trkpt>
      <trkpt lat="43.19198" lon="-1.5473">
        <ele>572.3</ele>
        <time>2025-03-03T22:50:09Z</time>
      </trkpt>
      <trkpt lat="43.19193" lon="-1.54691">
        <ele>568.75</ele>
        <time>2025-03-03T22:50:10Z</time>
      </trkpt>
      <trkpt lat="43.19203" lon="-1.5467">
        <ele>566.34</ele>
        <time>2025-03-03T22:50:12Z</time>
      </trkpt>
      <trkpt lat="43.19222" lon="-1.54652">
        <ele>563.17</ele>
        <time>2025-03-03T22:50:13Z</time>
      </trkpt>
      <trkpt lat="43.19245" lon="-1.54652">
        <ele>563.14</ele>
        <time>2025-03-03T22:50:15Z</time>
      </trkpt>
      <trkpt lat="43.19291" lon="-1.54669">
        <ele>559.01</ele>
        <time>2025-03-03T22:50:16Z</time>
      </trkpt>
      <trkpt lat="43.19316" lon="-1.54676">
        <ele>554.33</ele>
        <time>2025-03-03T22:50:18Z</time>
      </trkpt>
      <trkpt lat="43.19336" lon="-1.54662">
        <ele>552.64</ele>
        <time>2025-03-03T22:50:19Z</time>
      </trkpt>
      <trkpt lat="43.19369" lon="-1.54624">
        <ele>554.99</ele>
        <time>2025-03-03T22:50:21Z</time>
      </trkpt>
      <trkpt lat="43.19383" lon="-1.54581">
        <ele>563.28</ele>
        <time>2025-03-03T22:50:22Z</time>
      </trkpt>
      <trkpt lat="43.19394" lon="-1.54557">
        <ele>564.82</ele>
        <time>2025-03-03T22:50:23Z</time>
      </trkpt>
      <trkpt lat="43.19413" lon="-1.54547">
        <ele>557.81</ele>
        <time>2025-03-03T22:50:25Z</time>
      </trkpt>
      <trkpt lat="43.19448" lon="-1.54558">
        <ele>549.27</ele>
        <time>2025-03-03T22:50:26Z</time>
      </trkpt>
      <trkpt lat="43.19473" lon="-1.54555">
        <ele>549.05</ele>
        <time>2025-03-03T22:50:28Z</time>
      </trkpt>
      <trkpt lat="43.19525" lon="-1.54533">
        <ele>551.49</ele>
        <time>2025-03-03T22:50:29Z</time>
      </trkpt>
      <trkpt lat="43.19546" lon="-1.54522">
        <ele>553.87</ele>
        <time>2025-03-03T22:50:31Z</time>
      </trkpt>
      <trkpt lat="43.19569" lon="-1.54524">
        <ele>554.28</ele>
        <time>2025-03-03T22:50:32Z</time>
      </trkpt>
      <trkpt lat="43.19607" lon="-1.54544">
        <ele>547.59</ele>
        <time>2025-03-03T22:50:33Z</time>
      </trkpt>
      <trkpt lat="43.19628" lon="-1.54537">
        <ele>546.17</ele>
        <time>2025-03-03T22:50:35Z</time>
      </trkpt>
      <trkpt lat="43.19644" lon="-1.54522">
        <ele>545.96</ele>
        <time>2025-03-03T22:50:36Z</time>
      </trkpt>
      <trkpt lat="43.19647" lon="-1.5449">
        <ele>549.73</ele>
        <time>2025-03-03T22:50:38Z</time>
      </trkpt>
      <trkpt lat="43.19643" lon="-1.54434">
        <ele>551.8</ele>
        <time>2025-03-03T22:50:39Z</time>
      </trkpt>
      <trkpt lat="43.19625" lon="-1.54349">
        <ele>554.61</ele>
        <time>2025-03-03T22:50:41Z</time>
      </trkpt>
      <trkpt lat="43.19609" lon="-1.5432">
        <ele>557.43</ele>
        <time>2025-03-03T22:50:42Z</time>
      </trkpt>
      <trkpt lat="43.19603" lon="-1.54293">
        <ele>556.32</ele>
        <time>2025-03-03T22:50:44Z</time>
      </trkpt>
      <trkpt lat="43.19614" lon="-1.54239">
        <ele>548.35</ele>
        <time>2025-03-03T22:50:45Z</time>
      </trkpt>
      <trkpt lat="43.19627" lon="-1.54216">
        <ele>546.72</ele>
        <time>2025-03-03T22:50:46Z</time>
      </trkpt>
      <trkpt lat="43.19643" lon="-1.54205">
        <ele>546.36</ele>
        <time>2025-03-03T22:50:48Z</time>
      </trkpt>
      <trkpt lat="43.1967" lon="-1.54205">
        <ele>543.77</ele>
        <time>2025-03-03T22:50:49Z</time>
      </trkpt>
      <trkpt lat="43.19693" lon="-1.54189">
        <ele>546.23</ele>
        <time>2025-03-03T22:50:51Z</time>
      </trkpt>
      <trkpt lat="43.19759" lon="-1.54124">
        <ele>559.88</ele>
        <time>2025-03-03T22:50:52Z</time>
      </trkpt>
      <trkpt lat="43.19778" lon="-1.54128">
        <ele>557.09</ele>
        <time>2025-03-03T22:50:54Z</time>
      </trkpt>
      <trkpt lat="43.19807" lon="-1.54143">
        <ele>559.87</ele>
        <time>2025-03-03T22:50:55Z</time>
      </trkpt>
      <trkpt lat="43.19815" lon="-1.54152">
        <ele>560.83</ele>
        <time>2025-03-03T22:50:56Z</time>
      </trkpt>
      <trkpt lat="43.19818" lon="-1.54171">
        <ele>558.97</ele>
        <time>2025-03-03T22:50:58Z</time>
      </trkpt>
      <trkpt lat="43.19813" lon="-1.54186">
        <ele>555.13</ele>
        <time>2025-03-03T22:50:59Z</time>
      </trkpt>
      <trkpt lat="43.19812" lon="-1.54211">
        <ele>550.77</ele>
        <time>2025-03-03T22:51:01Z</time>
      </trkpt>
      <trkpt lat="43.19818" lon="-1.54242">
        <ele>548.04</ele>
        <time>2025-03-03T22:51:02Z</time>
      </trkpt>
      <trkpt lat="43.19839" lon="-1.54304">
        <ele>535.64</ele>
        <time>2025-03-03T22:51:04Z</time>
      </trkpt>
      <trkpt lat="43.19852" lon="-1.5432">
        <ele>536.21</ele>
        <time>2025-03-03T22:51:05Z</time>
      </trkpt>
      <trkpt lat="43.19889" lon="-1.54333">
        <ele>547.19</ele>
        <time>2025-03-03T22:51:07Z</time>
      </trkpt>
      <trkpt lat="43.19906" lon="-1.54344">
        <ele>547.47</ele>
        <time>2025-03-03T22:51:08Z</time>
      </trkpt>
      <trkpt lat="43.19917" lon="-1.54358">
        <ele>543.74</ele>
        <time>2025-03-03T22:51:09Z</time>
      </trkpt>
      <trkpt lat="43.19928" lon="-1.5438">
        <ele>541.84</ele>
        <time>2025-03-03T22:51:11Z</time>
      </trkpt>
      <trkpt lat="43.19945" lon="-1.54396">
        <ele>543.14</ele>
        <time>2025-03-03T22:51:12Z</time>
      </trkpt>
      <trkpt lat="43.19964" lon="-1.54436">
        <ele>540.97</ele>
        <time>2025-03-03T22:51:14Z</time>
      </trkpt>
      <trkpt lat="43.19974" lon="-1.54474">
        <ele>537.32</ele>
        <time>2025-03-03T22:51:15Z</time>
      </trkpt>
      <trkpt lat="43.20006" lon="-1.54541">
        <ele>538.81</ele>
        <time>2025-03-03T22:51:17Z</time>
      </trkpt>
      <trkpt lat="43.20043" lon="-1.54597">
        <ele>532.76</ele>
        <time>2025-03-03T22:51:18Z</time>
      </trkpt>
      <trkpt lat="43.20058" lon="-1.54601">
        <ele>532.15</ele>
        <time>2025-03-03T22:51:19Z</time>
      </trkpt>
      <trkpt lat="43.2007" lon="-1.54598">
        <ele>531.48</ele>
        <time>2025-03-03T22:51:21Z</time>
      </trkpt>
      <trkpt lat="43.20095" lon="-1.54579">
        <ele>533.96</ele>
        <time>2025-03-03T22:51:22Z</time>
      </trkpt>
      <trkpt lat="43.20127" lon="-1.54559">
        <ele>532.89</ele>
        <time>2025-03-03T22:51:24Z</time>
      </trkpt>
      <trkpt lat="43.20143" lon="-1.54534">
        <ele>534.3</ele>
        <time>2025-03-03T22:51:25Z</time>
      </trkpt>
      <trkpt lat="43.20148" lon="-1.54517">
        <ele>537.81</ele>
        <time>2025-03-03T22:51:27Z</time>
      </trkpt>
      <trkpt lat="43.20149" lon="-1.54495">
        <ele>543.24</ele>
        <time>2025-03-03T22:51:28Z</time>
      </trkpt>
      <trkpt lat="43.20161" lon="-1.54484">
        <ele>545.01</ele>
        <time>2025-03-03T22:51:30Z</time>
      </trkpt>
      <trkpt lat="43.20176" lon="-1.54489">
        <ele>544.48</ele>
        <time>2025-03-03T22:51:31Z</time>
      </trkpt>
      <trkpt lat="43.20187" lon="-1.54515">
        <ele>539.52</ele>
        <time>2025-03-03T22:51:32Z</time>
      </trkpt>
      <trkpt lat="43.20199" lon="-1.54557">
        <ele>532.8</ele>
        <time>2025-03-03T22:51:34Z</time>
      </trkpt>
      <trkpt lat="43.20198" lon="-1.54592">
        <ele>527.76</ele>
        <time>2025-03-03T22:51:35Z</time>
      </trkpt>
      <trkpt lat="43.20176" lon="-1.54666">
        <ele>516.52</ele>
        <time>2025-03-03T22:51:37Z</time>
      </trkpt>
      <trkpt lat="43.2018" lon="-1.54687">
        <ele>516.24</ele>
        <time>2025-03-03T22:51:38Z</time>
      </trkpt>
      <trkpt lat="43.20196" lon="-1.54749">
        <ele>514.52</ele>
        <time>2025-03-03T22:51:40Z</time>
      </trkpt>
      <trkpt lat="43.2021" lon="-1.54794">
        <ele>512.63</ele>
        <time>2025-03-03T22:51:41Z</time>
      </trkpt>
      <trkpt lat="43.2022" lon="-1.54815">
        <ele>513.3</ele>
        <time>2025-03-03T22:51:42Z</time>
      </trkpt>
      <trkpt lat="43.20233" lon="-1.5482">
        <ele>516.23</ele>
        <time>2025-03-03T22:51:44Z</time>
      </trkpt>
      <trkpt lat="43.20254" lon="-1.5482">
        <ele>520.97</ele>
        <time>2025-03-03T22:51:45Z</time>
      </trkpt>
      <trkpt lat="43.20276" lon="-1.54825">
        <ele>520.72</ele>
        <time>2025-03-03T22:51:47Z</time>
      </trkpt>
      <trkpt lat="43.20299" lon="-1.54834">
        <ele>513.83</ele>
        <time>2025-03-03T22:51:48Z</time>
      </trkpt>
      <trkpt lat="43.20313" lon="-1.54833">
        <ele>513.65</ele>
        <time>2025-03-03T22:51:50Z</time>
      </trkpt>
      <trkpt lat="43.20341" lon="-1.54822">
        <ele>519.81</ele>
        <time>2025-03-03T22:51:51Z</time>
      </trkpt>
      <trkpt lat="43.20351" lon="-1.54825">
        <ele>521.5</ele>
        <time>2025-03-03T22:51:53Z</time>
      </trkpt>
      <trkpt lat="43.20355" lon="-1.54839">
        <ele>519.88</ele>
        <time>2025-03-03T22:51:54Z</time>
      </trkpt>
      <trkpt lat="43.20353" lon="-1.5486">
        <ele>514.32</ele>
        <time>2025-03-03T22:51:55Z</time>
      </trkpt>
      <trkpt lat="43.20353" lon="-1.5488">
        <ele>510.64</ele>
        <time>2025-03-03T22:51:57Z</time>
      </trkpt>
      <trkpt lat="43.2036" lon="-1.549">
        <ele>508.45</ele>
        <time>2025-03-03T22:51:58Z</time>
      </trkpt>
      <trkpt lat="43.20375" lon="-1.54928">
        <ele>506.67</ele>
        <time>2025-03-03T22:52:00Z</time>
      </trkpt>
      <trkpt lat="43.20389" lon="-1.54946">
        <ele>508.51</ele>
        <time>2025-03-03T22:52:01Z</time>
      </trkpt>
      <trkpt lat="43.20399" lon="-1.54952">
        <ele>510.08</ele>
        <time>2025-03-03T22:52:03Z</time>
      </trkpt>
      <trkpt lat="43.20419" lon="-1.54968">
        <ele>512.01</ele>
        <time>2025-03-03T22:52:04Z</time>
      </trkpt>
      <trkpt lat="43.20425" lon="-1.54982">
        <ele>511.02</ele>
        <time>2025-03-03T22:52:05Z</time>
      </trkpt>
      <trkpt lat="43.20431" lon="-1.55005">
        <ele>508.72</ele>
        <time>2025-03-03T22:52:07Z</time>
      </trkpt>
      <trkpt lat="43.20434" lon="-1.55044">
        <ele>509.82</ele>
        <time>2025-03-03T22:52:08Z</time>
      </trkpt>
      <trkpt lat="43.20433" lon="-1.55059">
        <ele>512.11</ele>
        <time>2025-03-03T22:52:10Z</time>
      </trkpt>
      <trkpt lat="43.20428" lon="-1.55069">
        <ele>513.31</ele>
        <time>2025-03-03T22:52:11Z</time>
      </trkpt>
      <trkpt lat="43.20393" lon="-1.55093">
        <ele>503.78</ele>
        <time>2025-03-03T22:52:13Z</time>
      </trkpt>
      <trkpt lat="43.20386" lon="-1.55103">
        <ele>501.74</ele>
        <time>2025-03-03T22:52:14Z</time>
      </trkpt>
      <trkpt lat="43.20381" lon="-1.55117">
        <ele>500.47</ele>
        <time>2025-03-03T22:52:16Z</time>
      </trkpt>
      <trkpt lat="43.20377" lon="-1.55133">
        <ele>499.5</ele>
        <time>2025-03-03T22:52:17Z</time>
      </trkpt>
      <trkpt lat="43.20375" lon="-1.55155">
        <ele>497.07</ele>
        <time>2025-03-03T22:52:18Z</time>
      </trkpt>
      <trkpt lat="43.20374" lon="-1.55187">
        <ele>493.64</ele>
        <time>2025-03-03T22:52:20Z</time>
      </trkpt>
      <trkpt lat="43.20376" lon="-1.55221">
        <ele>488.12</ele>
        <time>2025-03-03T22:52:21Z</time>
      </trkpt>
      <trkpt lat="43.2038" lon="-1.5524">
        <ele>485.48</ele>
        <time>2025-03-03T22:52:23Z</time>
      </trkpt>
      <trkpt lat="43.20391" lon="-1.55258">
        <ele>485.5</ele>
        <time>2025-03-03T22:52:24Z</time>
      </trkpt>
      <trkpt lat="43.20428" lon="-1.55282">
        <ele>487.47</ele>
        <time>2025-03-03T22:52:26Z</time>
      </trkpt>
      <trkpt lat="43.20455" lon="-1.55302">
        <ele>487.23</ele>
        <time>2025-03-03T22:52:27Z</time>
      </trkpt>
      <trkpt lat="43.20485" lon="-1.55329">
        <ele>486.25</ele>
        <time>2025-03-03T22:52:28Z</time>
      </trkpt>
      <trkpt lat="43.20507" lon="-1.55357">
        <ele>486.9</ele>
        <time>2025-03-03T22:52:30Z</time>
      </trkpt>
      <trkpt lat="43.20519" lon="-1.55381">
        <ele>490.26</ele>
        <time>2025-03-03T22:52:31Z</time>
      </trkpt>
      <trkpt lat="43.20518" lon="-1.554">
        <ele>490.85</ele>
        <time>2025-03-03T22:52:33Z</time>
      </trkpt>
      <trkpt lat="43.20509" lon="-1.55415">
        <ele>488.75</ele>
        <time>2025-03-03T22:52:34Z</time>
      </trkpt>
      <trkpt lat="43.20472" lon="-1.55456">
        <ele>483.08</ele>
        <time>2025-03-03T22:52:36Z</time>
      </trkpt>
      <trkpt lat="43.20443" lon="-1.55523">
        <ele>473.66</ele>
        <time>2025-03-03T22:52:37Z</time>
      </trkpt>
      <trkpt lat="43.20439" lon="-1.55538">
        <ele>470.57</ele>
        <time>2025-03-03T22:52:39Z</time>
      </trkpt>
      <trkpt lat="43.20437" lon="-1.55552">
        <ele>468.57</ele>
        <time>2025-03-03T22:52:40Z</time>
      </trkpt>
      <trkpt lat="43.20441" lon="-1.55587">
        <ele>466.83</ele>
        <time>2025-03-03T22:52:41Z</time>
      </trkpt>
      <trkpt lat="43.20451" lon="-1.55622">
        <ele>466.24</ele>
        <time>2025-03-03T22:52:43Z</time>
      </trkpt>
      <trkpt lat="43.20463" lon="-1.55653">
        <ele>466.82</ele>
        <time>2025-03-03T22:52:44Z</time>
      </trkpt>
      <trkpt lat="43.2048" lon="-1.55686">
        <ele>465.19</ele>
        <time>2025-03-03T22:52:46Z</time>
      </trkpt>
      <trkpt lat="43.20502" lon="-1.55702">
        <ele>462.89</ele>
        <time>2025-03-03T22:52:47Z</time>
      </trkpt>
      <trkpt lat="43.20527" lon="-1.55714">
        <ele>458.59</ele>
        <time>2025-03-03T22:52:49Z</time>
      </trkpt>
      <trkpt lat="43.20552" lon="-1.55716">
        <ele>456.18</ele>
        <time>2025-03-03T22:52:50Z</time>
      </trkpt>
      <trkpt lat="43.20567" lon="-1.55713">
        <ele>455.57</ele>
        <time>2025-03-03T22:52:51Z</time>
      </trkpt>
      <trkpt lat="43.20606" lon="-1.55697">
        <ele>454.88</ele>
        <time>2025-03-03T22:52:53Z</time>
      </trkpt>
      <trkpt lat="43.20618" lon="-1.5569">
        <ele>455.22</ele>
        <time>2025-03-03T22:52:54Z</time>
      </trkpt>
      <trkpt lat="43.20633" lon="-1.55678">
        <ele>456.76</ele>
        <time>2025-03-03T22:52:56Z</time>
      </trkpt>
      <trkpt lat="43.20648" lon="-1.55663">
        <ele>459.07</ele>
        <time>2025-03-03T22:52:57Z</time>
      </trkpt>
      <trkpt lat="43.20671" lon="-1.55625">
        <ele>462.92</ele>
        <time>2025-03-03T22:52:59Z</time>
      </trkpt>
      <trkpt lat="43.20724" lon="-1.55558">
        <ele>468.68</ele>
        <time>2025-03-03T22:53:00Z</time>
      </trkpt>
      <trkpt lat="43.20755" lon="-1.55509">
        <ele>481.39</ele>
        <time>2025-03-03T22:53:02Z</time>
      </trkpt>
      <trkpt lat="43.20769" lon="-1.55483">
        <ele>482.54</ele>
        <time>2025-03-03T22:53:03Z</time>
      </trkpt>
      <trkpt lat="43.20784" lon="-1.55464">
        <ele>481.94</ele>
        <time>2025-03-03T22:53:04Z</time>
      </trkpt>
      <trkpt lat="43.20791" lon="-1.55467">
        <ele>481.23</ele>
        <time>2025-03-03T22:53:06Z</time>
      </trkpt>
      <trkpt lat="43.20795" lon="-1.55476">
        <ele>479.85</ele>
        <time>2025-03-03T22:53:07Z</time>
      </trkpt>
      <trkpt lat="43.20799" lon="-1.55505">
        <ele>475.8</ele>
        <time>2025-03-03T22:53:09Z</time>
      </trkpt>
      <trkpt lat="43.20798" lon="-1.55522">
        <ele>472.63</ele>
        <time>2025-03-03T22:53:10Z</time>
      </trkpt>
      <trkpt lat="43.20791" lon="-1.55566">
        <ele>463.98</ele>
        <time>2025-03-03T22:53:12Z</time>
      </trkpt>
      <trkpt lat="43.20786" lon="-1.55582">
        <ele>460.64</ele>
        <time>2025-03-03T22:53:13Z</time>
      </trkpt>
      <trkpt lat="43.20766" lon="-1.55639">
        <ele>452.47</ele>
        <time>2025-03-03T22:53:15Z</time>
      </trkpt>
      <trkpt lat="43.20754" lon="-1.55678">
        <ele>446.03</ele>
        <time>2025-03-03T22:53:16Z</time>
      </trkpt>
      <trkpt lat="43.20753" lon="-1.55691">
        <ele>444.76</ele>
        <time>2025-03-03T22:53:17Z</time>
      </trkpt>
      <trkpt lat="43.20755" lon="-1.55707">
        <ele>444.34</ele>
        <time>2025-03-03T22:53:19Z</time>
      </trkpt>
      <trkpt lat="43.20759" lon="-1.55724">
        <ele>444.2</ele>
        <time>2025-03-03T22:53:20Z</time>
      </trkpt>
      <trkpt lat="43.20771" lon="-1.55749">
        <ele>442.65</ele>
        <time>2025-03-03T22:53:22Z</time>
      </trkpt>
      <trkpt lat="43.20776" lon="-1.55754">
        <ele>442.2</ele>
        <time>2025-03-03T22:53:23Z</time>
      </trkpt>
      <trkpt lat="43.20783" lon="-1.55757">
        <ele>441.24</ele>
        <time>2025-03-03T22:53:25Z</time>
      </trkpt>
      <trkpt lat="43.20833" lon="-1.55729">
        <ele>438.82</ele>
        <time>2025-03-03T22:53:26Z</time>
      </trkpt>
      <trkpt lat="43.20892" lon="-1.55716">
        <ele>433.78</ele>
        <time>2025-03-03T22:53:27Z</time>
      </trkpt>
      <trkpt lat="43.20928" lon="-1.55683">
        <ele>438.84</ele>
        <time>2025-03-03T22:53:29Z</time>
      </trkpt>
      <trkpt lat="43.20941" lon="-1.55682">
        <ele>436.79</ele>
        <time>2025-03-03T22:53:30Z</time>
      </trkpt>
      <trkpt lat="43.20972" lon="-1.5569">
        <ele>432.23</ele>
        <time>2025-03-03T22:53:32Z</time>
      </trkpt>
      <trkpt lat="43.21005" lon="-1.55703">
        <ele>428.67</ele>
        <time>2025-03-03T22:53:33Z</time>
      </trkpt>
      <trkpt lat="43.21038" lon="-1.55725">
        <ele>423.4</ele>
        <time>2025-03-03T22:53:35Z</time>
      </trkpt>
      <trkpt lat="43.21061" lon="-1.55731">
        <ele>422.04</ele>
        <time>2025-03-03T22:53:36Z</time>
      </trkpt>
      <trkpt lat="43.21078" lon="-1.55729">
        <ele>422.61</ele>
        <time>2025-03-03T22:53:38Z</time>
      </trkpt>
      <trkpt lat="43.21095" lon="-1.55711">
        <ele>424.93</ele>
        <time>2025-03-03T22:53:39Z</time>
      </trkpt>
      <trkpt lat="43.21111" lon="-1.55679">
        <ele>424.55</ele>
        <time>2025-03-03T22:53:40Z</time>
      </trkpt>
      <trkpt lat="43.21116" lon="-1.5566">
        <ele>424</ele>
        <time>2025-03-03T22:53:42Z</time>
      </trkpt>
      <trkpt lat="43.21102" lon="-1.55596">
        <ele>434.17</ele>
        <time>2025-03-03T22:53:43Z</time>
      </trkpt>
      <trkpt lat="43.21103" lon="-1.55571">
        <ele>437.86</ele>
        <time>2025-03-03T22:53:45Z</time>
      </trkpt>
      <trkpt lat="43.21118" lon="-1.55539">
        <ele>437.86</ele>
        <time>2025-03-03T22:53:46Z</time>
      </trkpt>
      <trkpt lat="43.21146" lon="-1.55508">
        <ele>434.02</ele>
        <time>2025-03-03T22:53:48Z</time>
      </trkpt>
      <trkpt lat="43.21173" lon="-1.55483">
        <ele>430.32</ele>
        <time>2025-03-03T22:53:49Z</time>
      </trkpt>
      <trkpt lat="43.2119" lon="-1.55484">
        <ele>427.16</ele>
        <time>2025-03-03T22:53:50Z</time>
      </trkpt>
      <trkpt lat="43.21199" lon="-1.55501">
        <ele>427.86</ele>
        <time>2025-03-03T22:53:52Z</time>
      </trkpt>
      <trkpt lat="43.212" lon="-1.55522">
        <ele>431.72</ele>
        <time>2025-03-03T22:53:53Z</time>
      </trkpt>
      <trkpt lat="43.21188" lon="-1.55554">
        <ele>432.08</ele>
        <time>2025-03-03T22:53:55Z</time>
      </trkpt>
      <trkpt lat="43.2117" lon="-1.55595">
        <ele>430.3</ele>
        <time>2025-03-03T22:53:56Z</time>
      </trkpt>
      <trkpt lat="43.21168" lon="-1.55608">
        <ele>431.3</ele>
        <time>2025-03-03T22:53:58Z</time>
      </trkpt>
      <trkpt lat="43.21173" lon="-1.55624">
        <ele>434.59</ele>
        <time>2025-03-03T22:53:59Z</time>
      </trkpt>
      <trkpt lat="43.21185" lon="-1.55655">
        <ele>442.23</ele>
        <time>2025-03-03T22:54:01Z</time>
      </trkpt>
      <trkpt lat="43.2119" lon="-1.5568">
        <ele>445.66</ele>
        <time>2025-03-03T22:54:02Z</time>
      </trkpt>
      <trkpt lat="43.21189" lon="-1.55702">
        <ele>446.45</ele>
        <time>2025-03-03T22:54:03Z</time>
      </trkpt>
      <trkpt lat="43.21201" lon="-1.55729">
        <ele>455.32</ele>
        <time>2025-03-03T22:54:05Z</time>
      </trkpt>
      <trkpt lat="43.21207" lon="-1.55751">
        <ele>460.59</ele>
        <time>2025-03-03T22:54:06Z</time>
      </trkpt>
      <trkpt lat="43.21206" lon="-1.55768">
        <ele>459.52</ele>
        <time>2025-03-03T22:54:08Z</time>
      </trkpt>
      <trkpt lat="43.21195" lon="-1.55787">
        <ele>455.54</ele>
        <time>2025-03-03T22:54:09Z</time>
      </trkpt>
      <trkpt lat="43.21189" lon="-1.55802">
        <ele>454.29</ele>
        <time>2025-03-03T22:54:11Z</time>
      </trkpt>
      <trkpt lat="43.21189" lon="-1.55816">
        <ele>455.5</ele>
        <time>2025-03-03T22:54:12Z</time>
      </trkpt>
      <trkpt lat="43.21199" lon="-1.55842">
        <ele>461.34</ele>
        <time>2025-03-03T22:54:13Z</time>
      </trkpt>
      <trkpt lat="43.21199" lon="-1.55866">
        <ele>464.26</ele>
        <time>2025-03-03T22:54:15Z</time>
      </trkpt>
      <trkpt lat="43.21194" lon="-1.55887">
        <ele>465.57</ele>
        <time>2025-03-03T22:54:16Z</time>
      </trkpt>
      <trkpt lat="43.21184" lon="-1.5591">
        <ele>466.59</ele>
        <time>2025-03-03T22:54:18Z</time>
      </trkpt>
      <trkpt lat="43.21156" lon="-1.55939">
        <ele>464.32</ele>
        <time>2025-03-03T22:54:19Z</time>
      </trkpt>
      <trkpt lat="43.21109" lon="-1.55998">
        <ele>470.26</ele>
        <time>2025-03-03T22:54:21Z</time>
      </trkpt>
      <trkpt lat="43.21109" lon="-1.56008">
        <ele>470.57</ele>
        <time>2025-03-03T22:54:22Z</time>
      </trkpt>
      <trkpt lat="43.21112" lon="-1.56016">
        <ele>471.14</ele>
        <time>2025-03-03T22:54:24Z</time>
      </trkpt>
      <trkpt lat="43.21121" lon="-1.56022">
        <ele>472.03</ele>
        <time>2025-03-03T22:54:25Z</time>
      </trkpt>
      <trkpt lat="43.21223" lon="-1.56083">
        <ele>486.07</ele>
        <time>2025-03-03T22:54:26Z</time>
      </trkpt>
      <trkpt lat="43.21264" lon="-1.56119">
        <ele>492.04</ele>
        <time>2025-03-03T22:54:28Z</time>
      </trkpt>
      <trkpt lat="43.21286" lon="-1.56124">
        <ele>494.79</ele>
        <time>2025-03-03T22:54:29Z</time>
      </trkpt>
      <trkpt lat="43.21303" lon="-1.56118">
        <ele>496.19</ele>
        <time>2025-03-03T22:54:31Z</time>
      </trkpt>
      <trkpt lat="43.21312" lon="-1.56109">
        <ele>496.36</ele>
        <time>2025-03-03T22:54:32Z</time>
      </trkpt>
      <trkpt lat="43.21318" lon="-1.5609">
        <ele>496.48</ele>
        <time>2025-03-03T22:54:34Z</time>
      </trkpt>
      <trkpt lat="43.2132" lon="-1.56059">
        <ele>496.61</ele>
        <time>2025-03-03T22:54:35Z</time>
      </trkpt>
      <trkpt lat="43.21325" lon="-1.56032">
        <ele>497.33</ele>
        <time>2025-03-03T22:54:36Z</time>
      </trkpt>
      <trkpt lat="43.21334" lon="-1.55994">
        <ele>496.62</ele>
        <time>2025-03-03T22:54:38Z</time>
      </trkpt>
      <trkpt lat="43.21345" lon="-1.55963">
        <ele>495.8</ele>
        <time>2025-03-03T22:54:39Z</time>
      </trkpt>
      <trkpt lat="43.21367" lon="-1.55914">
        <ele>496.99</ele>
        <time>2025-03-03T22:54:41Z</time>
      </trkpt>
      <trkpt lat="43.21382" lon="-1.5589">
        <ele>498.11</ele>
        <time>2025-03-03T22:54:42Z</time>
      </trkpt>
      <trkpt lat="43.21391" lon="-1.55881">
        <ele>499.12</ele>
        <time>2025-03-03T22:54:44Z</time>
      </trkpt>
      <trkpt lat="43.21419" lon="-1.55843">
        <ele>499.45</ele>
        <time>2025-03-03T22:54:45Z</time>
      </trkpt>
      <trkpt lat="43.21427" lon="-1.55836">
        <ele>499.49</ele>
        <time>2025-03-03T22:54:47Z</time>
      </trkpt>
      <trkpt lat="43.21456" lon="-1.55826">
        <ele>500.7</ele>
        <time>2025-03-03T22:54:48Z</time>
      </trkpt>
      <trkpt lat="43.21465" lon="-1.55819">
        <ele>501.13</ele>
        <time>2025-03-03T22:54:49Z</time>
      </trkpt>
      <trkpt lat="43.21468" lon="-1.55806">
        <ele>500.58</ele>
        <time>2025-03-03T22:54:51Z</time>
      </trkpt>
      <trkpt lat="43.21469" lon="-1.55793">
        <ele>499.71</ele>
        <time>2025-03-03T22:54:52Z</time>
      </trkpt>
      <trkpt lat="43.21468" lon="-1.55742">
        <ele>498.27</ele>
        <time>2025-03-03T22:54:54Z</time>
      </trkpt>
      <trkpt lat="43.21475" lon="-1.5571">
        <ele>498.54</ele>
        <time>2025-03-03T22:54:55Z</time>
      </trkpt>
      <trkpt lat="43.21483" lon="-1.557">
        <ele>499.32</ele>
        <time>2025-03-03T22:54:57Z</time>
      </trkpt>
      <trkpt lat="43.2151" lon="-1.55679">
        <ele>503.49</ele>
        <time>2025-03-03T22:54:58Z</time>
      </trkpt>
      <trkpt lat="43.21513" lon="-1.55673">
        <ele>504.07</ele>
        <time>2025-03-03T22:54:59Z</time>
      </trkpt>
      <trkpt lat="43.21517" lon="-1.5566">
        <ele>504.63</ele>
        <time>2025-03-03T22:55:01Z</time>
      </trkpt>
      <trkpt lat="43.21527" lon="-1.55573">
        <ele>504.63</ele>
        <time>2025-03-03T22:55:02Z</time>
      </trkpt>
      <trkpt lat="43.21531" lon="-1.5556">
        <ele>506.14</ele>
        <time>2025-03-03T22:55:04Z</time>
      </trkpt>
      <trkpt lat="43.21543" lon="-1.55543">
        <ele>510.14</ele>
        <time>2025-03-03T22:55:05Z</time>
      </trkpt>
      <trkpt lat="43.21547" lon="-1.55535">
        <ele>511.18</ele>
        <time>2025-03-03T22:55:07Z</time>
      </trkpt>
      <trkpt lat="43.21549" lon="-1.55522">
        <ele>511.37</ele>
        <time>2025-03-03T22:55:08Z</time>
      </trkpt>
      <trkpt lat="43.21546" lon="-1.55507">
        <ele>510.05</ele>
        <time>2025-03-03T22:55:10Z</time>
      </trkpt>
      <trkpt lat="43.21537" lon="-1.55477">
        <ele>504.12</ele>
        <time>2025-03-03T22:55:11Z</time>
      </trkpt>
      <trkpt lat="43.21534" lon="-1.55466">
        <ele>502.69</ele>
        <time>2025-03-03T22:55:12Z</time>
      </trkpt>
      <trkpt lat="43.21535" lon="-1.5544">
        <ele>501.86</ele>
        <time>2025-03-03T22:55:14Z</time>
      </trkpt>
      <trkpt lat="43.21538" lon="-1.55429">
        <ele>501.77</ele>
        <time>2025-03-03T22:55:15Z</time>
      </trkpt>
      <trkpt lat="43.21547" lon="-1.55407">
        <ele>502.06</ele>
        <time>2025-03-03T22:55:17Z</time>
      </trkpt>
      <trkpt lat="43.21553" lon="-1.55399">
        <ele>503.14</ele>
        <time>2025-03-03T22:55:18Z</time>
      </trkpt>
      <trkpt lat="43.21561" lon="-1.55391">
        <ele>504.03</ele>
        <time>2025-03-03T22:55:20Z</time>
      </trkpt>
      <trkpt lat="43.21579" lon="-1.55378">
        <ele>506.76</ele>
        <time>2025-03-03T22:55:21Z</time>
      </trkpt>
      <trkpt lat="43.21612" lon="-1.55349">
        <ele>510.21</ele>
        <time>2025-03-03T22:55:22Z</time>
      </trkpt>
      <trkpt lat="43.21621" lon="-1.55338">
        <ele>509.96</ele>
        <time>2025-03-03T22:55:24Z</time>
      </trkpt>
      <trkpt lat="43.21631" lon="-1.55321">
        <ele>508.96</ele>
        <time>2025-03-03T22:55:25Z</time>
      </trkpt>
      <trkpt lat="43.21637" lon="-1.55304">
        <ele>507.1</ele>
        <time>2025-03-03T22:55:27Z</time>
      </trkpt>
      <trkpt lat="43.21645" lon="-1.55268">
        <ele>506.75</ele>
        <time>2025-03-03T22:55:28Z</time>
      </trkpt>
      <trkpt lat="43.21671" lon="-1.55173">
        <ele>505.2</ele>
        <time>2025-03-03T22:55:30Z</time>
      </trkpt>
      <trkpt lat="43.21678" lon="-1.55155">
        <ele>504.54</ele>
        <time>2025-03-03T22:55:31Z</time>
      </trkpt>
      <trkpt lat="43.21688" lon="-1.5514">
        <ele>505.26</ele>
        <time>2025-03-03T22:55:33Z</time>
      </trkpt>
      <trkpt lat="43.21696" lon="-1.55137">
        <ele>506.22</ele>
        <time>2025-03-03T22:55:34Z</time>
      </trkpt>
      <trkpt lat="43.21706" lon="-1.55141">
        <ele>506</ele>
        <time>2025-03-03T22:55:35Z</time>
      </trkpt>
      <trkpt lat="43.21721" lon="-1.55169">
        <ele>506.3</ele>
        <time>2025-03-03T22:55:37Z</time>
      </trkpt>
      <trkpt lat="43.21752" lon="-1.55218">
        <ele>509</ele>
        <time>2025-03-03T22:55:38Z</time>
      </trkpt>
      <trkpt lat="43.21779" lon="-1.55269">
        <ele>507.66</ele>
        <time>2025-03-03T22:55:40Z</time>
      </trkpt>
      <trkpt lat="43.21789" lon="-1.5528">
        <ele>505.26</ele>
        <time>2025-03-03T22:55:41Z</time>
      </trkpt>
      <trkpt lat="43.21805" lon="-1.55291">
        <ele>502.09</ele>
        <time>2025-03-03T22:55:43Z</time>
      </trkpt>
      <trkpt lat="43.21838" lon="-1.55309">
        <ele>492.85</ele>
        <time>2025-03-03T22:55:44Z</time>
      </trkpt>
      <trkpt lat="43.21849" lon="-1.55323">
        <ele>491.27</ele>
        <time>2025-03-03T22:55:45Z</time>
      </trkpt>
      <trkpt lat="43.21855" lon="-1.5534">
        <ele>491.08</ele>
        <time>2025-03-03T22:55:47Z</time>
      </trkpt>
      <trkpt lat="43.21856" lon="-1.55353">
        <ele>491.35</ele>
        <time>2025-03-03T22:55:48Z</time>
      </trkpt>
      <trkpt lat="43.21846" lon="-1.55405">
        <ele>502.15</ele>
        <time>2025-03-03T22:55:50Z</time>
      </trkpt>
      <trkpt lat="43.21845" lon="-1.55436">
        <ele>506.84</ele>
        <time>2025-03-03T22:55:51Z</time>
      </trkpt>
      <trkpt lat="43.21848" lon="-1.55456">
        <ele>507.06</ele>
        <time>2025-03-03T22:55:53Z</time>
      </trkpt>
      <trkpt lat="43.21881" lon="-1.55515">
        <ele>498.11</ele>
        <time>2025-03-03T22:55:54Z</time>
      </trkpt>
      <trkpt lat="43.21891" lon="-1.55537">
        <ele>496.89</ele>
        <time>2025-03-03T22:55:56Z</time>
      </trkpt>
      <trkpt lat="43.21898" lon="-1.5561">
        <ele>502.1</ele>
        <time>2025-03-03T22:55:57Z</time>
      </trkpt>
      <trkpt lat="43.21909" lon="-1.55633">
        <ele>499.65</ele>
        <time>2025-03-03T22:55:58Z</time>
      </trkpt>
      <trkpt lat="43.21932" lon="-1.55647">
        <ele>493.55</ele>
        <time>2025-03-03T22:56:00Z</time>
      </trkpt>
      <trkpt lat="43.21954" lon="-1.5565">
        <ele>487.2</ele>
        <time>2025-03-03T22:56:01Z</time>
      </trkpt>
      <trkpt lat="43.21985" lon="-1.55651">
        <ele>480.36</ele>
        <time>2025-03-03T22:56:03Z</time>
      </trkpt>
      <trkpt lat="43.21996" lon="-1.55658">
        <ele>479.72</ele>
        <time>2025-03-03T22:56:04Z</time>
      </trkpt>
      <trkpt lat="43.22002" lon="-1.55672">
        <ele>480.32</ele>
        <time>2025-03-03T22:56:06Z</time>
      </trkpt>
      <trkpt lat="43.22002" lon="-1.55689">
        <ele>482.07</ele>
        <time>2025-03-03T22:56:07Z</time>
      </trkpt>
      <trkpt lat="43.21999" lon="-1.5572">
        <ele>486.82</ele>
        <time>2025-03-03T22:56:09Z</time>
      </trkpt>
      <trkpt lat="43.22002" lon="-1.55729">
        <ele>487.65</ele>
        <time>2025-03-03T22:56:10Z</time>
      </trkpt>
      <trkpt lat="43.22009" lon="-1.55733">
        <ele>487.57</ele>
        <time>2025-03-03T22:56:11Z</time>
      </trkpt>
      <trkpt lat="43.22024" lon="-1.5573">
        <ele>485.2</ele>
        <time>2025-03-03T22:56:13Z</time>
      </trkpt>
      <trkpt lat="43.22062" lon="-1.55716">
        <ele>480.73</ele>
        <time>2025-03-03T22:56:14Z</time>
      </trkpt>
      <trkpt lat="43.22087" lon="-1.55702">
        <ele>477.49</ele>
        <time>2025-03-03T22:56:16Z</time>
      </trkpt>
      <trkpt lat="43.22104" lon="-1.55689">
        <ele>474.22</ele>
        <time>2025-03-03T22:56:17Z</time>
      </trkpt>
      <trkpt lat="43.22119" lon="-1.55669">
        <ele>470.4</ele>
        <time>2025-03-03T22:56:19Z</time>
      </trkpt>
      <trkpt lat="43.22171" lon="-1.55588">
        <ele>464.56</ele>
        <time>2025-03-03T22:56:20Z</time>
      </trkpt>
      <trkpt lat="43.22178" lon="-1.5557">
        <ele>464.02</ele>
        <time>2025-03-03T22:56:21Z</time>
      </trkpt>
      <trkpt lat="43.22191" lon="-1.5552">
        <ele>462.89</ele>
        <time>2025-03-03T22:56:23Z</time>
      </trkpt>
      <trkpt lat="43.22197" lon="-1.55508">
        <ele>462.55</ele>
        <time>2025-03-03T22:56:24Z</time>
      </trkpt>
      <trkpt lat="43.2221" lon="-1.55498">
        <ele>461.85</ele>
        <time>2025-03-03T22:56:26Z</time>
      </trkpt>
      <trkpt lat="43.22241" lon="-1.55481">
        <ele>459.72</ele>
        <time>2025-03-03T22:56:27Z</time>
      </trkpt>
      <trkpt lat="43.22257" lon="-1.55468">
        <ele>458.13</ele>
        <time>2025-03-03T22:56:29Z</time>
      </trkpt>
      <trkpt lat="43.22294" lon="-1.55502">
        <ele>453.37</ele>
        <time>2025-03-03T22:56:32Z</time>
      </trkpt>
      <trkpt lat="43.22298" lon="-1.55513">
        <ele>452.05</ele>
        <time>2025-03-03T22:56:36Z</time>
      </trkpt>
      <trkpt lat="43.22296" lon="-1.55526">
        <ele>452.42</ele>
        <time>2025-03-03T22:56:39Z</time>
      </trkpt>
      <trkpt lat="43.22286" lon="-1.55542">
        <ele>453.9</ele>
        <time>2025-03-03T22:56:43Z</time>
      </trkpt>
      <trkpt lat="43.22262" lon="-1.5557">
        <ele>457.14</ele>
        <time>2025-03-03T22:56:46Z</time>
      </trkpt>
      <trkpt lat="43.22242" lon="-1.55604">
        <ele>459.42</ele>
        <time>2025-03-03T22:56:49Z</time>
      </trkpt>
      <trkpt lat="43.22215" lon="-1.5567">
        <ele>466.75</ele>
        <time>2025-03-03T22:56:53Z</time>
      </trkpt>
      <trkpt lat="43.22213" lon="-1.55679">
        <ele>467.29</ele>
        <time>2025-03-03T22:56:56Z</time>
      </trkpt>
      <trkpt lat="43.22214" lon="-1.55689">
        <ele>467.72</ele>
        <time>2025-03-03T22:57:00Z</time>
      </trkpt>
      <trkpt lat="43.22221" lon="-1.55694">
        <ele>467.97</ele>
        <time>2025-03-03T22:57:03Z</time>
      </trkpt>
      <trkpt lat="43.22229" lon="-1.55693">
        <ele>468.51</ele>
        <time>2025-03-03T22:57:07Z</time>
      </trkpt>
      <trkpt lat="43.22257" lon="-1.55668">
        <ele>464.33</ele>
        <time>2025-03-03T22:57:10Z</time>
      </trkpt>
      <trkpt lat="43.22264" lon="-1.55665">
        <ele>462.7</ele>
        <time>2025-03-03T22:57:13Z</time>
      </trkpt>
      <trkpt lat="43.22272" lon="-1.55668">
        <ele>462.17</ele>
        <time>2025-03-03T22:57:17Z</time>
      </trkpt>
      <trkpt lat="43.22309" lon="-1.55688">
        <ele>461.74</ele>
        <time>2025-03-03T22:57:20Z</time>
      </trkpt>
      <trkpt lat="43.22372" lon="-1.55714">
        <ele>455.66</ele>
        <time>2025-03-03T22:57:23Z</time>
      </trkpt>
      <trkpt lat="43.22384" lon="-1.55725">
        <ele>455.05</ele>
        <time>2025-03-03T22:57:26Z</time>
      </trkpt>
      <trkpt lat="43.22419" lon="-1.55788">
        <ele>459.29</ele>
        <time>2025-03-03T22:57:29Z</time>
      </trkpt>
      <trkpt lat="43.22428" lon="-1.55797">
        <ele>458.87</ele>
        <time>2025-03-03T22:57:32Z</time>
      </trkpt>
      <trkpt lat="43.22448" lon="-1.55808">
        <ele>455.73</ele>
        <time>2025-03-03T22:57:35Z</time>
      </trkpt>
      <trkpt lat="43.22499" lon="-1.55856">
        <ele>456.2</ele>
        <time>2025-03-03T22:57:38Z</time>
      </trkpt>
      <trkpt lat="43.22517" lon="-1.5587">
        <ele>455.7</ele>
        <time>2025-03-03T22:57:41Z</time>
      </trkpt>
      <trkpt lat="43.22537" lon="-1.55871">
        <ele>452.18</ele>
        <time>2025-03-03T22:57:44Z</time>
      </trkpt>
      <trkpt lat="43.22555" lon="-1.55881">
        <ele>450.68</ele>
        <time>2025-03-03T22:57:47Z</time>
      </trkpt>
      <trkpt lat="43.22574" lon="-1.55911">
        <ele>455.64</ele>
        <time>2025-03-03T22:57:50Z</time>
      </trkpt>
      <trkpt lat="43.22579" lon="-1.55914">
        <ele>456.32</ele>
        <time>2025-03-03T22:57:53Z</time>
      </trkpt>
      <trkpt lat="43.22586" lon="-1.55909">
        <ele>455.2</ele>
        <time>2025-03-03T22:57:56Z</time>
      </trkpt>
      <trkpt lat="43.22596" lon="-1.55879">
        <ele>449.04</ele>
        <time>2025-03-03T22:57:59Z</time>
      </trkpt>
      <trkpt lat="43.22606" lon="-1.55866">
        <ele>446.67</ele>
        <time>2025-03-03T22:58:02Z</time>
      </trkpt>
      <trkpt lat="43.22645" lon="-1.55827">
        <ele>443.23</ele>
        <time>2025-03-03T22:58:05Z</time>
      </trkpt>
      <trkpt lat="43.22658" lon="-1.5582">
        <ele>442.52</ele>
        <time>2025-03-03T22:58:08Z</time>
      </trkpt>
      <trkpt lat="43.22678" lon="-1.55816">
        <ele>441.64</ele>
        <time>2025-03-03T22:58:11Z</time>
      </trkpt>
      <trkpt lat="43.22701" lon="-1.55815">
        <ele>439.85</ele>
        <time>2025-03-03T22:58:14Z</time>
      </trkpt>
      <trkpt lat="43.22721" lon="-1.55818">
        <ele>439.42</ele>
        <time>2025-03-03T22:58:17Z</time>
      </trkpt>
      <trkpt lat="43.22736" lon="-1.55814">
        <ele>438.39</ele>
        <time>2025-03-03T22:58:20Z</time>
      </trkpt>
      <trkpt lat="43.2275" lon="-1.55807">
        <ele>436.46</ele>
        <time>2025-03-03T22:58:23Z</time>
      </trkpt>
      <trkpt lat="43.22765" lon="-1.55808">
        <ele>437.29</ele>
        <time>2025-03-03T22:58:26Z</time>
      </trkpt>
      <trkpt lat="43.22803" lon="-1.5582">
        <ele>439.32</ele>
        <time>2025-03-03T22:58:29Z</time>
      </trkpt>
      <trkpt lat="43.22832" lon="-1.55816">
        <ele>437.97</ele>
        <time>2025-03-03T22:58:32Z</time>
      </trkpt>
      <trkpt lat="43.22848" lon="-1.55818">
        <ele>438.01</ele>
        <time>2025-03-03T22:58:35Z</time>
      </trkpt>
      <trkpt lat="43.2289" lon="-1.55834">
        <ele>437.34</ele>
        <time>2025-03-03T22:58:38Z</time>
      </trkpt>
      <trkpt lat="43.22929" lon="-1.55858">
        <ele>445.84</ele>
        <time>2025-03-03T22:58:41Z</time>
      </trkpt>
      <trkpt lat="43.22942" lon="-1.55858">
        <ele>447.85</ele>
        <time>2025-03-03T22:58:44Z</time>
      </trkpt>
      <trkpt lat="43.2296" lon="-1.55848">
        <ele>448.71</ele>
        <time>2025-03-03T22:58:47Z</time>
      </trkpt>
      <trkpt lat="43.22972" lon="-1.55828">
        <ele>443.18</ele>
        <time>2025-03-03T22:58:50Z</time>
      </trkpt>
      <trkpt lat="43.22978" lon="-1.55801">
        <ele>436.05</ele>
        <time>2025-03-03T22:58:53Z</time>
      </trkpt>
      <trkpt lat="43.22989" lon="-1.55783">
        <ele>433.8</ele>
        <time>2025-03-03T22:58:56Z</time>
      </trkpt>
      <trkpt lat="43.23003" lon="-1.55772">
        <ele>434.57</ele>
        <time>2025-03-03T22:58:59Z</time>
      </trkpt>
      <trkpt lat="43.2307" lon="-1.55749">
        <ele>440.2</ele>
        <time>2025-03-03T22:59:02Z</time>
      </trkpt>
      <trkpt lat="43.23081" lon="-1.55739">
        <ele>440.16</ele>
        <time>2025-03-03T22:59:05Z</time>
      </trkpt>
      <trkpt lat="43.231" lon="-1.55703">
        <ele>439.34</ele>
        <time>2025-03-03T22:59:07Z</time>
      </trkpt>
      <trkpt lat="43.2312" lon="-1.55686">
        <ele>440.09</ele>
        <time>2025-03-03T22:59:09Z</time>
      </trkpt>
      <trkpt lat="43.23153" lon="-1.55671">
        <ele>443.4</ele>
        <time>2025-03-03T22:59:12Z</time>
      </trkpt>
      <trkpt lat="43.23169" lon="-1.55653">
        <ele>441.7</ele>
        <time>2025-03-03T22:59:14Z</time>
      </trkpt>
      <trkpt lat="43.23182" lon="-1.55635">
        <ele>439.12</ele>
        <time>2025-03-03T22:59:17Z</time>
      </trkpt>
      <trkpt lat="43.23211" lon="-1.55607">
        <ele>442.46</ele>
        <time>2025-03-03T22:59:19Z</time>
      </trkpt>
      <trkpt lat="43.23224" lon="-1.55579">
        <ele>443.83</ele>
        <time>2025-03-03T22:59:22Z</time>
      </trkpt>
      <trkpt lat="43.23231" lon="-1.55515">
        <ele>438.77</ele>
        <time>2025-03-03T22:59:24Z</time>
      </trkpt>
      <trkpt lat="43.23237" lon="-1.55485">
        <ele>436.25</ele>
        <time>2025-03-03T22:59:27Z</time>
      </trkpt>
      <trkpt lat="43.23243" lon="-1.55467">
        <ele>434.77</ele>
        <time>2025-03-03T22:59:29Z</time>
      </trkpt>
      <trkpt lat="43.23254" lon="-1.55453">
        <ele>434.76</ele>
        <time>2025-03-03T22:59:32Z</time>
      </trkpt>
      <trkpt lat="43.2329" lon="-1.55432">
        <ele>437.82</ele>
        <time>2025-03-03T22:59:34Z</time>
      </trkpt>
      <trkpt lat="43.23296" lon="-1.55424">
        <ele>438.21</ele>
        <time>2025-03-03T22:59:36Z</time>
      </trkpt>
      <trkpt lat="43.2331" lon="-1.55393">
        <ele>436.08</ele>
        <time>2025-03-03T22:59:39Z</time>
      </trkpt>
      <trkpt lat="43.23361" lon="-1.5531">
        <ele>435.38</ele>
        <time>2025-03-03T22:59:41Z</time>
      </trkpt>
      <trkpt lat="43.23389" lon="-1.55291">
        <ele>436.42</ele>
        <time>2025-03-03T22:59:44Z</time>
      </trkpt>
      <trkpt lat="43.23429" lon="-1.55279">
        <ele>434.17</ele>
        <time>2025-03-03T22:59:46Z</time>
      </trkpt>
      <trkpt lat="43.23447" lon="-1.55264">
        <ele>432.48</ele>
        <time>2025-03-03T22:59:49Z</time>
      </trkpt>
      <trkpt lat="43.2346" lon="-1.55263">
        <ele>432.39</ele>
        <time>2025-03-03T22:59:51Z</time>
      </trkpt>
      <trkpt lat="43.2347" lon="-1.5527">
        <ele>433.13</ele>
        <time>2025-03-03T22:59:54Z</time>
      </trkpt>
      <trkpt lat="43.23479" lon="-1.55302">
        <ele>432.28</ele>
        <time>2025-03-03T22:59:56Z</time>
      </trkpt>
      <trkpt lat="43.23519" lon="-1.55365">
        <ele>422.35</ele>
        <time>2025-03-03T22:59:59Z</time>
      </trkpt>
      <trkpt lat="43.23526" lon="-1.55383">
        <ele>421.92</ele>
        <time>2025-03-03T23:00:01Z</time>
      </trkpt>
      <trkpt lat="43.23526" lon="-1.55414">
        <ele>423.23</ele>
        <time>2025-03-03T23:00:03Z</time>
      </trkpt>
      <trkpt lat="43.23517" lon="-1.55445">
        <ele>420.89</ele>
        <time>2025-03-03T23:00:06Z</time>
      </trkpt>
      <trkpt lat="43.23507" lon="-1.55467">
        <ele>416.21</ele>
        <time>2025-03-03T23:00:08Z</time>
      </trkpt>
      <trkpt lat="43.23483" lon="-1.55498">
        <ele>411.33</ele>
        <time>2025-03-03T23:00:11Z</time>
      </trkpt>
      <trkpt lat="43.23453" lon="-1.55521">
        <ele>416.27</ele>
        <time>2025-03-03T23:00:13Z</time>
      </trkpt>
      <trkpt lat="43.23445" lon="-1.55532">
        <ele>417.73</ele>
        <time>2025-03-03T23:00:16Z</time>
      </trkpt>
      <trkpt lat="43.23441" lon="-1.55547">
        <ele>416.6</ele>
        <time>2025-03-03T23:00:18Z</time>
      </trkpt>
      <trkpt lat="43.23438" lon="-1.55574">
        <ele>411.91</ele>
        <time>2025-03-03T23:00:21Z</time>
      </trkpt>
      <trkpt lat="43.23442" lon="-1.55597">
        <ele>405.95</ele>
        <time>2025-03-03T23:00:23Z</time>
      </trkpt>
      <trkpt lat="43.23447" lon="-1.55614">
        <ele>402.01</ele>
        <time>2025-03-03T23:00:26Z</time>
      </trkpt>
      <trkpt lat="43.23446" lon="-1.55631">
        <ele>401.08</ele>
        <time>2025-03-03T23:00:28Z</time>
      </trkpt>
      <trkpt lat="43.23448" lon="-1.55649">
        <ele>400.82</ele>
        <time>2025-03-03T23:00:30Z</time>
      </trkpt>
      <trkpt lat="43.23453" lon="-1.55658">
        <ele>399.97</ele>
        <time>2025-03-03T23:00:33Z</time>
      </trkpt>
      <trkpt lat="43.23498" lon="-1.55685">
        <ele>391.95</ele>
        <time>2025-03-03T23:00:35Z</time>
      </trkpt>
      <trkpt lat="43.23513" lon="-1.55699">
        <ele>388.65</ele>
        <time>2025-03-03T23:00:38Z</time>
      </trkpt>
      <trkpt lat="43.23531" lon="-1.55718">
        <ele>383.94</ele>
        <time>2025-03-03T23:00:40Z</time>
      </trkpt>
      <trkpt lat="43.23535" lon="-1.55727">
        <ele>382.72</ele>
        <time>2025-03-03T23:00:43Z</time>
      </trkpt>
      <trkpt lat="43.23537" lon="-1.55736">
        <ele>382.26</ele>
        <time>2025-03-03T23:00:45Z</time>
      </trkpt>
      <trkpt lat="43.23536" lon="-1.55747">
        <ele>382.82</ele>
        <time>2025-03-03T23:00:48Z</time>
      </trkpt>
      <trkpt lat="43.23532" lon="-1.55764">
        <ele>381.77</ele>
        <time>2025-03-03T23:00:50Z</time>
      </trkpt>
      <trkpt lat="43.23519" lon="-1.55781">
        <ele>379.83</ele>
        <time>2025-03-03T23:00:53Z</time>
      </trkpt>
      <trkpt lat="43.23489" lon="-1.55808">
        <ele>378.32</ele>
        <time>2025-03-03T23:00:55Z</time>
      </trkpt>
      <trkpt lat="43.23475" lon="-1.55829">
        <ele>377.42</ele>
        <time>2025-03-03T23:00:57Z</time>
      </trkpt>
      <trkpt lat="43.23462" lon="-1.55862">
        <ele>373.88</ele>
        <time>2025-03-03T23:01:00Z</time>
      </trkpt>
      <trkpt lat="43.23446" lon="-1.55896">
        <ele>373.01</ele>
        <time>2025-03-03T23:01:02Z</time>
      </trkpt>
      <trkpt lat="43.23441" lon="-1.559">
        <ele>374.17</ele>
        <time>2025-03-03T23:01:05Z</time>
      </trkpt>
      <trkpt lat="43.2344" lon="-1.55908">
        <ele>373.86</ele>
        <time>2025-03-03T23:01:07Z</time>
      </trkpt>
      <trkpt lat="43.23444" lon="-1.55912">
        <ele>372.37</ele>
        <time>2025-03-03T23:01:10Z</time>
      </trkpt>
      <trkpt lat="43.23451" lon="-1.55911">
        <ele>370.45</ele>
        <time>2025-03-03T23:01:12Z</time>
      </trkpt>
      <trkpt lat="43.23477" lon="-1.55893">
        <ele>364.84</ele>
        <time>2025-03-03T23:01:15Z</time>
      </trkpt>
      <trkpt lat="43.23502" lon="-1.55872">
        <ele>363.68</ele>
        <time>2025-03-03T23:01:17Z</time>
      </trkpt>
      <trkpt lat="43.23513" lon="-1.55859">
        <ele>363.59</ele>
        <time>2025-03-03T23:01:20Z</time>
      </trkpt>
      <trkpt lat="43.23523" lon="-1.55853">
        <ele>362.57</ele>
        <time>2025-03-03T23:01:22Z</time>
      </trkpt>
      <trkpt lat="43.23535" lon="-1.55851">
        <ele>361.13</ele>
        <time>2025-03-03T23:01:24Z</time>
      </trkpt>
      <trkpt lat="43.23552" lon="-1.55855">
        <ele>358.55</ele>
        <time>2025-03-03T23:01:27Z</time>
      </trkpt>
      <trkpt lat="43.23568" lon="-1.55853">
        <ele>356.22</ele>
        <time>2025-03-03T23:01:29Z</time>
      </trkpt>
      <trkpt lat="43.23586" lon="-1.55837">
        <ele>354.23</ele>
        <time>2025-03-03T23:01:32Z</time>
      </trkpt>
      <trkpt lat="43.23608" lon="-1.55807">
        <ele>351.11</ele>
        <time>2025-03-03T23:01:34Z</time>
      </trkpt>
      <trkpt lat="43.23629" lon="-1.55752">
        <ele>346.16</ele>
        <time>2025-03-03T23:01:37Z</time>
      </trkpt>
      <trkpt lat="43.23627" lon="-1.55725">
        <ele>345.97</ele>
        <time>2025-03-03T23:01:39Z</time>
      </trkpt>
      <trkpt lat="43.23614" lon="-1.55693">
        <ele>348.14</ele>
        <time>2025-03-03T23:01:42Z</time>
      </trkpt>
      <trkpt lat="43.23613" lon="-1.55688">
        <ele>348.67</ele>
        <time>2025-03-03T23:01:44Z</time>
      </trkpt>
      <trkpt lat="43.23614" lon="-1.55679">
        <ele>348.45</ele>
        <time>2025-03-03T23:01:47Z</time>
      </trkpt>
      <trkpt lat="43.23621" lon="-1.55673">
        <ele>346.39</ele>
        <time>2025-03-03T23:01:49Z</time>
      </trkpt>
      <trkpt lat="43.23637" lon="-1.55671">
        <ele>340.48</ele>
        <time>2025-03-03T23:01:51Z</time>
      </trkpt>
      <trkpt lat="43.23657" lon="-1.55673">
        <ele>335.14</ele>
        <time>2025-03-03T23:01:54Z</time>
      </trkpt>
      <trkpt lat="43.23694" lon="-1.55662">
        <ele>329.76</ele>
        <time>2025-03-03T23:01:56Z</time>
      </trkpt>
      <trkpt lat="43.23719" lon="-1.55639">
        <ele>327.7</ele>
        <time>2025-03-03T23:01:59Z</time>
      </trkpt>
      <trkpt lat="43.23749" lon="-1.5559">
        <ele>321.07</ele>
        <time>2025-03-03T23:02:01Z</time>
      </trkpt>
      <trkpt lat="43.23789" lon="-1.55499">
        <ele>314.02</ele>
        <time>2025-03-03T23:02:04Z</time>
      </trkpt>
      <trkpt lat="43.23795" lon="-1.55479">
        <ele>311.55</ele>
        <time>2025-03-03T23:02:06Z</time>
      </trkpt>
      <trkpt lat="43.23796" lon="-1.55464">
        <ele>311.39</ele>
        <time>2025-03-03T23:02:09Z</time>
      </trkpt>
      <trkpt lat="43.23795" lon="-1.55438">
        <ele>311.54</ele>
        <time>2025-03-03T23:02:11Z</time>
      </trkpt>
      <trkpt lat="43.23796" lon="-1.55433">
        <ele>310.36</ele>
        <time>2025-03-03T23:02:14Z</time>
      </trkpt>
      <trkpt lat="43.23802" lon="-1.55432">
        <ele>307.83</ele>
        <time>2025-03-03T23:02:16Z</time>
      </trkpt>
      <trkpt lat="43.23808" lon="-1.55447">
        <ele>305.78</ele>
        <time>2025-03-03T23:02:18Z</time>
      </trkpt>
      <trkpt lat="43.23819" lon="-1.55495">
        <ele>297.76</ele>
        <time>2025-03-03T23:02:21Z</time>
      </trkpt>
      <trkpt lat="43.23819" lon="-1.55521">
        <ele>296.39</ele>
        <time>2025-03-03T23:02:23Z</time>
      </trkpt>
      <trkpt lat="43.23815" lon="-1.55556">
        <ele>296.93</ele>
        <time>2025-03-03T23:02:26Z</time>
      </trkpt>
      <trkpt lat="43.23818" lon="-1.55614">
        <ele>290.7</ele>
        <time>2025-03-03T23:02:28Z</time>
      </trkpt>
      <trkpt lat="43.23815" lon="-1.55639">
        <ele>288.51</ele>
        <time>2025-03-03T23:02:31Z</time>
      </trkpt>
      <trkpt lat="43.23807" lon="-1.55673">
        <ele>286.27</ele>
        <time>2025-03-03T23:02:33Z</time>
      </trkpt>
      <trkpt lat="43.23792" lon="-1.55723">
        <ele>285.45</ele>
        <time>2025-03-03T23:02:36Z</time>
      </trkpt>
      <trkpt lat="43.23781" lon="-1.55741">
        <ele>288.27</ele>
        <time>2025-03-03T23:02:38Z</time>
      </trkpt>
      <trkpt lat="43.23766" lon="-1.55756">
        <ele>294.92</ele>
        <time>2025-03-03T23:02:41Z</time>
      </trkpt>
      <trkpt lat="43.2376" lon="-1.55767">
        <ele>297.66</ele>
        <time>2025-03-03T23:02:43Z</time>
      </trkpt>
      <trkpt lat="43.23756" lon="-1.55777">
        <ele>298.86</ele>
        <time>2025-03-03T23:02:45Z</time>
      </trkpt>
      <trkpt lat="43.23755" lon="-1.55785">
        <ele>299.74</ele>
        <time>2025-03-03T23:02:48Z</time>
      </trkpt>
      <trkpt lat="43.23757" lon="-1.55792">
        <ele>299.39</ele>
        <time>2025-03-03T23:02:50Z</time>
      </trkpt>
      <trkpt lat="43.23762" lon="-1.55796">
        <ele>297.12</ele>
        <time>2025-03-03T23:02:53Z</time>
      </trkpt>
      <trkpt lat="43.23778" lon="-1.55798">
        <ele>288.42</ele>
        <time>2025-03-03T23:02:55Z</time>
      </trkpt>
      <trkpt lat="43.23795" lon="-1.55804">
        <ele>281.1</ele>
        <time>2025-03-03T23:02:58Z</time>
      </trkpt>
      <trkpt lat="43.23811" lon="-1.55817">
        <ele>275.4</ele>
        <time>2025-03-03T23:03:00Z</time>
      </trkpt>
      <trkpt lat="43.23826" lon="-1.55837">
        <ele>271.38</ele>
        <time>2025-03-03T23:03:03Z</time>
      </trkpt>
      <trkpt lat="43.23835" lon="-1.5586">
        <ele>272.28</ele>
        <time>2025-03-03T23:03:05Z</time>
      </trkpt>
      <trkpt lat="43.2386" lon="-1.55904">
        <ele>265.49</ele>
        <time>2025-03-03T23:03:08Z</time>
      </trkpt>
      <trkpt lat="43.23866" lon="-1.55907">
        <ele>264.45</ele>
        <time>2025-03-03T23:03:10Z</time>
      </trkpt>
      <trkpt lat="43.23881" lon="-1.559">
        <ele>262.23</ele>
        <time>2025-03-03T23:03:12Z</time>
      </trkpt>
      <trkpt lat="43.23891" lon="-1.55895">
        <ele>261.44</ele>
        <time>2025-03-03T23:03:15Z</time>
      </trkpt>
      <trkpt lat="43.23902" lon="-1.55893">
        <ele>262.46</ele>
        <time>2025-03-03T23:03:17Z</time>
      </trkpt>
      <trkpt lat="43.23912" lon="-1.55896">
        <ele>263.55</ele>
        <time>2025-03-03T23:03:20Z</time>
      </trkpt>
      <trkpt lat="43.23946" lon="-1.55925">
        <ele>266.9</ele>
        <time>2025-03-03T23:03:22Z</time>
      </trkpt>
      <trkpt lat="43.23964" lon="-1.55929">
        <ele>270.02</ele>
        <time>2025-03-03T23:03:25Z</time>
      </trkpt>
      <trkpt lat="43.23974" lon="-1.55928">
        <ele>271.83</ele>
        <time>2025-03-03T23:03:27Z</time>
      </trkpt>
      <trkpt lat="43.23981" lon="-1.55923">
        <ele>273.21</ele>
        <time>2025-03-03T23:03:30Z</time>
      </trkpt>
      <trkpt lat="43.23985" lon="-1.55914">
        <ele>274.49</ele>
        <time>2025-03-03T23:03:32Z</time>
      </trkpt>
      <trkpt lat="43.23985" lon="-1.55908">
        <ele>275.29</ele>
        <time>2025-03-03T23:03:34Z</time>
      </trkpt>
      <trkpt lat="43.23983" lon="-1.5586">
        <ele>279.35</ele>
        <time>2025-03-03T23:03:37Z</time>
      </trkpt>
      <trkpt lat="43.23984" lon="-1.55853">
        <ele>279.79</ele>
        <time>2025-03-03T23:03:39Z</time>
      </trkpt>
      <trkpt lat="43.23994" lon="-1.55793">
        <ele>282.83</ele>
        <time>2025-03-03T23:03:42Z</time>
      </trkpt>
      <trkpt lat="43.24" lon="-1.55776">
        <ele>285.06</ele>
        <time>2025-03-03T23:03:44Z</time>
      </trkpt>
      <trkpt lat="43.24007" lon="-1.55763">
        <ele>286.89</ele>
        <time>2025-03-03T23:03:47Z</time>
      </trkpt>
      <trkpt lat="43.2402" lon="-1.5575">
        <ele>290.38</ele>
        <time>2025-03-03T23:03:49Z</time>
      </trkpt>
      <trkpt lat="43.24079" lon="-1.55718">
        <ele>295.23</ele>
        <time>2025-03-03T23:03:52Z</time>
      </trkpt>
      <trkpt lat="43.24082" lon="-1.55713">
        <ele>295.17</ele>
        <time>2025-03-03T23:03:54Z</time>
      </trkpt>
      <trkpt lat="43.24082" lon="-1.5568">
        <ele>293.25</ele>
        <time>2025-03-03T23:03:57Z</time>
      </trkpt>
      <trkpt lat="43.24087" lon="-1.55664">
        <ele>293.88</ele>
        <time>2025-03-03T23:03:59Z</time>
      </trkpt>
      <trkpt lat="43.241" lon="-1.55643">
        <ele>297.08</ele>
        <time>2025-03-03T23:04:01Z</time>
      </trkpt>
      <trkpt lat="43.24107" lon="-1.55626">
        <ele>298.86</ele>
        <time>2025-03-03T23:04:04Z</time>
      </trkpt>
      <trkpt lat="43.24109" lon="-1.55615">
        <ele>299.43</ele>
        <time>2025-03-03T23:04:06Z</time>
      </trkpt>
      <trkpt lat="43.24109" lon="-1.55602">
        <ele>299.65</ele>
        <time>2025-03-03T23:04:09Z</time>
      </trkpt>
      <trkpt lat="43.24098" lon="-1.5554">
        <ele>298.01</ele>
        <time>2025-03-03T23:04:11Z</time>
      </trkpt>
      <trkpt lat="43.24099" lon="-1.55524">
        <ele>298.77</ele>
        <time>2025-03-03T23:04:14Z</time>
      </trkpt>
      <trkpt lat="43.24117" lon="-1.55461">
        <ele>305.76</ele>
        <time>2025-03-03T23:04:16Z</time>
      </trkpt>
      <trkpt lat="43.2412" lon="-1.55434">
        <ele>308.48</ele>
        <time>2025-03-03T23:04:19Z</time>
      </trkpt>
      <trkpt lat="43.24117" lon="-1.5542">
        <ele>309.68</ele>
        <time>2025-03-03T23:04:21Z</time>
      </trkpt>
      <trkpt lat="43.24086" lon="-1.55336">
        <ele>301.44</ele>
        <time>2025-03-03T23:04:24Z</time>
      </trkpt>
      <trkpt lat="43.24083" lon="-1.55321">
        <ele>300.91</ele>
        <time>2025-03-03T23:04:26Z</time>
      </trkpt>
      <trkpt lat="43.24084" lon="-1.55306">
        <ele>301.01</ele>
        <time>2025-03-03T23:04:28Z</time>
      </trkpt>
      <trkpt lat="43.24092" lon="-1.55285">
        <ele>301.67</ele>
        <time>2025-03-03T23:04:31Z</time>
      </trkpt>
      <trkpt lat="43.24104" lon="-1.55274">
        <ele>300.92</ele>
        <time>2025-03-03T23:04:33Z</time>
      </trkpt>
      <trkpt lat="43.24114" lon="-1.55273">
        <ele>300.48</ele>
        <time>2025-03-03T23:04:36Z</time>
      </trkpt>
      <trkpt lat="43.24145" lon="-1.55281">
        <ele>301.54</ele>
        <time>2025-03-03T23:04:38Z</time>
      </trkpt>
      <trkpt lat="43.24157" lon="-1.55282">
        <ele>302.09</ele>
        <time>2025-03-03T23:04:41Z</time>
      </trkpt>
      <trkpt lat="43.24181" lon="-1.55273">
        <ele>301.33</ele>
        <time>2025-03-03T23:04:43Z</time>
      </trkpt>
      <trkpt lat="43.24197" lon="-1.55272">
        <ele>301.48</ele>
        <time>2025-03-03T23:04:46Z</time>
      </trkpt>
      <trkpt lat="43.24203" lon="-1.55268">
        <ele>301.33</ele>
        <time>2025-03-03T23:04:48Z</time>
      </trkpt>
      <trkpt lat="43.24238" lon="-1.55208">
        <ele>299.12</ele>
        <time>2025-03-03T23:04:51Z</time>
      </trkpt>
      <trkpt lat="43.24246" lon="-1.55199">
        <ele>299.03</ele>
        <time>2025-03-03T23:04:53Z</time>
      </trkpt>
      <trkpt lat="43.24256" lon="-1.55193">
        <ele>299.65</ele>
        <time>2025-03-03T23:04:55Z</time>
      </trkpt>
      <trkpt lat="43.24279" lon="-1.55185">
        <ele>302.3</ele>
        <time>2025-03-03T23:04:58Z</time>
      </trkpt>
      <trkpt lat="43.24285" lon="-1.5518">
        <ele>303.64</ele>
        <time>2025-03-03T23:05:00Z</time>
      </trkpt>
      <trkpt lat="43.24287" lon="-1.55171">
        <ele>304.25</ele>
        <time>2025-03-03T23:05:03Z</time>
      </trkpt>
      <trkpt lat="43.24286" lon="-1.55163">
        <ele>304.52</ele>
        <time>2025-03-03T23:05:05Z</time>
      </trkpt>
      <trkpt lat="43.24281" lon="-1.55153">
        <ele>304.38</ele>
        <time>2025-03-03T23:05:08Z</time>
      </trkpt>
      <trkpt lat="43.24248" lon="-1.55104">
        <ele>301.27</ele>
        <time>2025-03-03T23:05:10Z</time>
      </trkpt>
      <trkpt lat="43.24245" lon="-1.55093">
        <ele>301.37</ele>
        <time>2025-03-03T23:05:13Z</time>
      </trkpt>
      <trkpt lat="43.24241" lon="-1.55061">
        <ele>304.06</ele>
        <time>2025-03-03T23:05:15Z</time>
      </trkpt>
      <trkpt lat="43.24238" lon="-1.55047">
        <ele>304.08</ele>
        <time>2025-03-03T23:05:18Z</time>
      </trkpt>
      <trkpt lat="43.24231" lon="-1.55029">
        <ele>302.86</ele>
        <time>2025-03-03T23:05:20Z</time>
      </trkpt>
      <trkpt lat="43.24229" lon="-1.55016">
        <ele>301.6</ele>
        <time>2025-03-03T23:05:22Z</time>
      </trkpt>
      <trkpt lat="43.2423" lon="-1.55003">
        <ele>301.27</ele>
        <time>2025-03-03T23:05:25Z</time>
      </trkpt>
      <trkpt lat="43.24235" lon="-1.54988">
        <ele>302.17</ele>
        <time>2025-03-03T23:05:27Z</time>
      </trkpt>
      <trkpt lat="43.24258" lon="-1.54955">
        <ele>306.04</ele>
        <time>2025-03-03T23:05:30Z</time>
      </trkpt>
      <trkpt lat="43.24267" lon="-1.54939">
        <ele>306.97</ele>
        <time>2025-03-03T23:05:32Z</time>
      </trkpt>
      <trkpt lat="43.24273" lon="-1.5492">
        <ele>308.27</ele>
        <time>2025-03-03T23:05:35Z</time>
      </trkpt>
      <trkpt lat="43.24276" lon="-1.54843">
        <ele>310.48</ele>
        <time>2025-03-03T23:05:37Z</time>
      </trkpt>
      <trkpt lat="43.24277" lon="-1.54773">
        <ele>311.74</ele>
        <time>2025-03-03T23:05:40Z</time>
      </trkpt>
      <trkpt lat="43.24281" lon="-1.54755">
        <ele>311.64</ele>
        <time>2025-03-03T23:05:42Z</time>
      </trkpt>
      <trkpt lat="43.24287" lon="-1.54743">
        <ele>312.21</ele>
        <time>2025-03-03T23:05:45Z</time>
      </trkpt>
      <trkpt lat="43.2436" lon="-1.5464">
        <ele>315.85</ele>
        <time>2025-03-03T23:05:47Z</time>
      </trkpt>
      <trkpt lat="43.24371" lon="-1.54629">
        <ele>315.69</ele>
        <time>2025-03-03T23:05:49Z</time>
      </trkpt>
      <trkpt lat="43.2439" lon="-1.54622">
        <ele>316.3</ele>
        <time>2025-03-03T23:05:52Z</time>
      </trkpt>
      <trkpt lat="43.24418" lon="-1.54618">
        <ele>317.82</ele>
        <time>2025-03-03T23:05:54Z</time>
      </trkpt>
      <trkpt lat="43.24423" lon="-1.54614">
        <ele>317.93</ele>
        <time>2025-03-03T23:05:57Z</time>
      </trkpt>
      <trkpt lat="43.24425" lon="-1.54608">
        <ele>317.82</ele>
        <time>2025-03-03T23:05:59Z</time>
      </trkpt>
      <trkpt lat="43.2443" lon="-1.54566">
        <ele>318.61</ele>
        <time>2025-03-03T23:06:02Z</time>
      </trkpt>
      <trkpt lat="43.24446" lon="-1.54493">
        <ele>322.04</ele>
        <time>2025-03-03T23:06:04Z</time>
      </trkpt>
      <trkpt lat="43.24453" lon="-1.54476">
        <ele>322.64</ele>
        <time>2025-03-03T23:06:07Z</time>
      </trkpt>
      <trkpt lat="43.2446" lon="-1.54464">
        <ele>323.14</ele>
        <time>2025-03-03T23:06:09Z</time>
      </trkpt>
      <trkpt lat="43.24465" lon="-1.5446">
        <ele>323.6</ele>
        <time>2025-03-03T23:06:12Z</time>
      </trkpt>
      <trkpt lat="43.24475" lon="-1.54456">
        <ele>324.4</ele>
        <time>2025-03-03T23:06:14Z</time>
      </trkpt>
      <trkpt lat="43.24487" lon="-1.54458">
        <ele>325.27</ele>
        <time>2025-03-03T23:06:16Z</time>
      </trkpt>
      <trkpt lat="43.24501" lon="-1.54464">
        <ele>326.36</ele>
        <time>2025-03-03T23:06:19Z</time>
      </trkpt>
      <trkpt lat="43.24532" lon="-1.54483">
        <ele>327.26</ele>
        <time>2025-03-03T23:06:21Z</time>
      </trkpt>
      <trkpt lat="43.24549" lon="-1.54491">
        <ele>328.52</ele>
        <time>2025-03-03T23:06:24Z</time>
      </trkpt>
      <trkpt lat="43.24569" lon="-1.54495">
        <ele>329.72</ele>
        <time>2025-03-03T23:06:26Z</time>
      </trkpt>
      <trkpt lat="43.24606" lon="-1.54495">
        <ele>329.58</ele>
        <time>2025-03-03T23:06:29Z</time>
      </trkpt>
      <trkpt lat="43.24613" lon="-1.54497">
        <ele>329.51</ele>
        <time>2025-03-03T23:06:31Z</time>
      </trkpt>
      <trkpt lat="43.24622" lon="-1.54513">
        <ele>330.24</ele>
        <time>2025-03-03T23:06:34Z</time>
      </trkpt>
      <trkpt lat="43.24627" lon="-1.5457">
        <ele>336.55</ele>
        <time>2025-03-03T23:06:36Z</time>
      </trkpt>
      <trkpt lat="43.2463" lon="-1.54583">
        <ele>337.54</ele>
        <time>2025-03-03T23:06:39Z</time>
      </trkpt>
      <trkpt lat="43.24637" lon="-1.54594">
        <ele>338.26</ele>
        <time>2025-03-03T23:06:41Z</time>
      </trkpt>
      <trkpt lat="43.24647" lon="-1.54605">
        <ele>338.49</ele>
        <time>2025-03-03T23:06:43Z</time>
      </trkpt>
      <trkpt lat="43.24674" lon="-1.54624">
        <ele>339.08</ele>
        <time>2025-03-03T23:06:46Z</time>
      </trkpt>
      <trkpt lat="43.24682" lon="-1.54635">
        <ele>341.4</ele>
        <time>2025-03-03T23:06:48Z</time>
      </trkpt>
      <trkpt lat="43.24687" lon="-1.54655">
        <ele>346.53</ele>
        <time>2025-03-03T23:06:51Z</time>
      </trkpt>
      <trkpt lat="43.2469" lon="-1.54661">
        <ele>347.92</ele>
        <time>2025-03-03T23:06:53Z</time>
      </trkpt>
      <trkpt lat="43.24741" lon="-1.54706">
        <ele>353.47</ele>
        <time>2025-03-03T23:06:56Z</time>
      </trkpt>
      <trkpt lat="43.2475" lon="-1.54708">
        <ele>353.49</ele>
        <time>2025-03-03T23:06:58Z</time>
      </trkpt>
      <trkpt lat="43.24758" lon="-1.54706">
        <ele>353.86</ele>
        <time>2025-03-03T23:07:01Z</time>
      </trkpt>
      <trkpt lat="43.24786" lon="-1.54685">
        <ele>352.8</ele>
        <time>2025-03-03T23:07:03Z</time>
      </trkpt>
      <trkpt lat="43.24828" lon="-1.54664">
        <ele>353.03</ele>
        <time>2025-03-03T23:07:06Z</time>
      </trkpt>
      <trkpt lat="43.24848" lon="-1.54657">
        <ele>356.78</ele>
        <time>2025-03-03T23:07:08Z</time>
      </trkpt>
      <trkpt lat="43.24852" lon="-1.5465">
        <ele>356.96</ele>
        <time>2025-03-03T23:07:10Z</time>
      </trkpt>
      <trkpt lat="43.24854" lon="-1.54641">
        <ele>356.31</ele>
        <time>2025-03-03T23:07:13Z</time>
      </trkpt>
      <trkpt lat="43.24852" lon="-1.54607">
        <ele>352.14</ele>
        <time>2025-03-03T23:07:15Z</time>
      </trkpt>
      <trkpt lat="43.24853" lon="-1.54592">
        <ele>350.86</ele>
        <time>2025-03-03T23:07:18Z</time>
      </trkpt>
      <trkpt lat="43.24861" lon="-1.54546">
        <ele>350.64</ele>
        <time>2025-03-03T23:07:20Z</time>
      </trkpt>
      <trkpt lat="43.24864" lon="-1.54475">
        <ele>345.84</ele>
        <time>2025-03-03T23:07:23Z</time>
      </trkpt>
      <trkpt lat="43.24868" lon="-1.5446">
        <ele>346.65</ele>
        <time>2025-03-03T23:07:25Z</time>
      </trkpt>
      <trkpt lat="43.24875" lon="-1.54444">
        <ele>348.69</ele>
        <time>2025-03-03T23:07:28Z</time>
      </trkpt>
      <trkpt lat="43.24893" lon="-1.54415">
        <ele>355.65</ele>
        <time>2025-03-03T23:07:30Z</time>
      </trkpt>
      <trkpt lat="43.24897" lon="-1.54406">
        <ele>357.47</ele>
        <time>2025-03-03T23:07:33Z</time>
      </trkpt>
      <trkpt lat="43.24899" lon="-1.54396">
        <ele>357.82</ele>
        <time>2025-03-03T23:07:35Z</time>
      </trkpt>
      <trkpt lat="43.24898" lon="-1.54362">
        <ele>355.61</ele>
        <time>2025-03-03T23:07:37Z</time>
      </trkpt>
      <trkpt lat="43.24902" lon="-1.54332">
        <ele>358.64</ele>
        <time>2025-03-03T23:07:40Z</time>
      </trkpt>
      <trkpt lat="43.24902" lon="-1.54312">
        <ele>359.12</ele>
        <time>2025-03-03T23:07:43Z</time>
      </trkpt>
      <trkpt lat="43.24903" lon="-1.54286">
        <ele>360.14</ele>
        <time>2025-03-03T23:07:45Z</time>
      </trkpt>
      <trkpt lat="43.24901" lon="-1.54264">
        <ele>357</ele>
        <time>2025-03-03T23:07:48Z</time>
      </trkpt>
      <trkpt lat="43.24901" lon="-1.54243">
        <ele>354.73</ele>
        <time>2025-03-03T23:07:51Z</time>
      </trkpt>
      <trkpt lat="43.24903" lon="-1.54228">
        <ele>354.3</ele>
        <time>2025-03-03T23:07:54Z</time>
      </trkpt>
      <trkpt lat="43.24909" lon="-1.5421">
        <ele>355.42</ele>
        <time>2025-03-03T23:07:57Z</time>
      </trkpt>
      <trkpt lat="43.24928" lon="-1.54166">
        <ele>364.13</ele>
        <time>2025-03-03T23:08:00Z</time>
      </trkpt>
      <trkpt lat="43.24932" lon="-1.54147">
        <ele>366.41</ele>
        <time>2025-03-03T23:08:03Z</time>
      </trkpt>
      <trkpt lat="43.24938" lon="-1.541">
        <ele>367.42</ele>
        <time>2025-03-03T23:08:06Z</time>
      </trkpt>
      <trkpt lat="43.24943" lon="-1.54077">
        <ele>367.15</ele>
        <time>2025-03-03T23:08:09Z</time>
      </trkpt>
      <trkpt lat="43.24949" lon="-1.54063">
        <ele>367.03</ele>
        <time>2025-03-03T23:08:12Z</time>
      </trkpt>
      <trkpt lat="43.24958" lon="-1.5405">
        <ele>367.42</ele>
        <time>2025-03-03T23:08:14Z</time>
      </trkpt>
      <trkpt lat="43.24966" lon="-1.54042">
        <ele>368.39</ele>
        <time>2025-03-03T23:08:17Z</time>
      </trkpt>
      <trkpt lat="43.24975" lon="-1.54038">
        <ele>369.73</ele>
        <time>2025-03-03T23:08:20Z</time>
      </trkpt>
      <trkpt lat="43.24982" lon="-1.54038">
        <ele>370.92</ele>
        <time>2025-03-03T23:08:23Z</time>
      </trkpt>
      <trkpt lat="43.24989" lon="-1.54042">
        <ele>373.42</ele>
        <time>2025-03-03T23:08:26Z</time>
      </trkpt>
      <trkpt lat="43.25015" lon="-1.54062">
        <ele>386.92</ele>
        <time>2025-03-03T23:08:29Z</time>
      </trkpt>
      <trkpt lat="43.25023" lon="-1.54065">
        <ele>390.02</ele>
        <time>2025-03-03T23:08:32Z</time>
      </trkpt>
      <trkpt lat="43.25053" lon="-1.5407">
        <ele>395.63</ele>
        <time>2025-03-03T23:08:35Z</time>
      </trkpt>
      <trkpt lat="43.25082" lon="-1.54067">
        <ele>395.7</ele>
        <time>2025-03-03T23:08:38Z</time>
      </trkpt>
      <trkpt lat="43.25102" lon="-1.5406">
        <ele>394.1</ele>
        <time>2025-03-03T23:08:41Z</time>
      </trkpt>
      <trkpt lat="43.25126" lon="-1.54048">
        <ele>391.48</ele>
        <time>2025-03-03T23:08:43Z</time>
      </trkpt>
      <trkpt lat="43.25137" lon="-1.54045">
        <ele>392.1</ele>
        <time>2025-03-03T23:08:46Z</time>
      </trkpt>
      <trkpt lat="43.25152" lon="-1.54044">
        <ele>394.48</ele>
        <time>2025-03-03T23:08:49Z</time>
      </trkpt>
      <trkpt lat="43.25177" lon="-1.54047">
        <ele>399.95</ele>
        <time>2025-03-03T23:08:52Z</time>
      </trkpt>
      <trkpt lat="43.25249" lon="-1.54084">
        <ele>402.35</ele>
        <time>2025-03-03T23:08:55Z</time>
      </trkpt>
      <trkpt lat="43.25268" lon="-1.54097">
        <ele>405.63</ele>
        <time>2025-03-03T23:08:58Z</time>
      </trkpt>
      <trkpt lat="43.25332" lon="-1.54109">
        <ele>405.6</ele>
        <time>2025-03-03T23:09:01Z</time>
      </trkpt>
      <trkpt lat="43.25341" lon="-1.54113">
        <ele>406.46</ele>
        <time>2025-03-03T23:09:04Z</time>
      </trkpt>
      <trkpt lat="43.25375" lon="-1.54139">
        <ele>415.53</ele>
        <time>2025-03-03T23:09:07Z</time>
      </trkpt>
      <trkpt lat="43.25382" lon="-1.54141">
        <ele>415.83</ele>
        <time>2025-03-03T23:09:10Z</time>
      </trkpt>
      <trkpt lat="43.25403" lon="-1.54138">
        <ele>413.49</ele>
        <time>2025-03-03T23:09:13Z</time>
      </trkpt>
      <trkpt lat="43.25427" lon="-1.54126">
        <ele>410.47</ele>
        <time>2025-03-03T23:09:15Z</time>
      </trkpt>
      <trkpt lat="43.25442" lon="-1.54123">
        <ele>410.71</ele>
        <time>2025-03-03T23:09:18Z</time>
      </trkpt>
      <trkpt lat="43.25451" lon="-1.54126">
        <ele>411.62</ele>
        <time>2025-03-03T23:09:21Z</time>
      </trkpt>
      <trkpt lat="43.25523" lon="-1.54188">
        <ele>420.93</ele>
        <time>2025-03-03T23:09:24Z</time>
      </trkpt>
      <trkpt lat="43.25561" lon="-1.54204">
        <ele>423.95</ele>
        <time>2025-03-03T23:09:27Z</time>
      </trkpt>
      <trkpt lat="43.25605" lon="-1.54214">
        <ele>426.23</ele>
        <time>2025-03-03T23:09:30Z</time>
      </trkpt>
      <trkpt lat="43.25618" lon="-1.54219">
        <ele>427.24</ele>
        <time>2025-03-03T23:09:33Z</time>
      </trkpt>
      <trkpt lat="43.25659" lon="-1.5424">
        <ele>430.9</ele>
        <time>2025-03-03T23:09:36Z</time>
      </trkpt>
      <trkpt lat="43.2578" lon="-1.54319">
        <ele>425.46</ele>
        <time>2025-03-03T23:09:39Z</time>
      </trkpt>
      <trkpt lat="43.25832" lon="-1.54347">
        <ele>416.6</ele>
        <time>2025-03-03T23:09:42Z</time>
      </trkpt>
      <trkpt lat="43.25858" lon="-1.54353">
        <ele>412.43</ele>
        <time>2025-03-03T23:09:44Z</time>
      </trkpt>
      <trkpt lat="43.25871" lon="-1.54353">
        <ele>409.77</ele>
        <time>2025-03-03T23:09:47Z</time>
      </trkpt>
      <trkpt lat="43.25887" lon="-1.54348">
        <ele>407.24</ele>
        <time>2025-03-03T23:09:50Z</time>
      </trkpt>
      <trkpt lat="43.25901" lon="-1.5434">
        <ele>404.43</ele>
        <time>2025-03-03T23:09:53Z</time>
      </trkpt>
      <trkpt lat="43.2591" lon="-1.54331">
        <ele>403.39</ele>
        <time>2025-03-03T23:09:56Z</time>
      </trkpt>
      <trkpt lat="43.25916" lon="-1.5432">
        <ele>403.77</ele>
        <time>2025-03-03T23:09:59Z</time>
      </trkpt>
      <trkpt lat="43.25923" lon="-1.54295">
        <ele>406.77</ele>
        <time>2025-03-03T23:10:02Z</time>
      </trkpt>
      <trkpt lat="43.25928" lon="-1.54281">
        <ele>407.2</ele>
        <time>2025-03-03T23:10:05Z</time>
      </trkpt>
      <trkpt lat="43.25935" lon="-1.54276">
        <ele>405.76</ele>
        <time>2025-03-03T23:10:08Z</time>
      </trkpt>
      <trkpt lat="43.25945" lon="-1.54274">
        <ele>402.89</ele>
        <time>2025-03-03T23:10:11Z</time>
      </trkpt>
      <trkpt lat="43.26012" lon="-1.54278">
        <ele>390.89</ele>
        <time>2025-03-03T23:10:14Z</time>
      </trkpt>
      <trkpt lat="43.26054" lon="-1.54272">
        <ele>386.61</ele>
        <time>2025-03-03T23:10:16Z</time>
      </trkpt>
      <trkpt lat="43.26065" lon="-1.54274">
        <ele>383.05</ele>
        <time>2025-03-03T23:10:19Z</time>
      </trkpt>
      <trkpt lat="43.26087" lon="-1.54284">
        <ele>374.61</ele>
        <time>2025-03-03T23:10:22Z</time>
      </trkpt>
      <trkpt lat="43.26101" lon="-1.54285">
        <ele>370.88</ele>
        <time>2025-03-03T23:10:25Z</time>
      </trkpt>
      <trkpt lat="43.2611" lon="-1.54279">
        <ele>370.02</ele>
        <time>2025-03-03T23:10:28Z</time>
      </trkpt>
      <trkpt lat="43.26176" lon="-1.54225">
        <ele>358.67</ele>
        <time>2025-03-03T23:10:31Z</time>
      </trkpt>
      <trkpt lat="43.26186" lon="-1.54215">
        <ele>357.64</ele>
        <time>2025-03-03T23:10:34Z</time>
      </trkpt>
      <trkpt lat="43.26193" lon="-1.54201">
        <ele>357.44</ele>
        <time>2025-03-03T23:10:37Z</time>
      </trkpt>
      <trkpt lat="43.26206" lon="-1.54168">
        <ele>355.92</ele>
        <time>2025-03-03T23:10:40Z</time>
      </trkpt>
      <trkpt lat="43.2622" lon="-1.54106">
        <ele>354.29</ele>
        <time>2025-03-03T23:10:43Z</time>
      </trkpt>
      <trkpt lat="43.26223" lon="-1.54079">
        <ele>355.36</ele>
        <time>2025-03-03T23:10:45Z</time>
      </trkpt>
      <trkpt lat="43.26226" lon="-1.54072">
        <ele>355.36</ele>
        <time>2025-03-03T23:10:48Z</time>
      </trkpt>
      <trkpt lat="43.26231" lon="-1.54069">
        <ele>354.14</ele>
        <time>2025-03-03T23:10:51Z</time>
      </trkpt>
      <trkpt lat="43.26233" lon="-1.54073">
        <ele>352.88</ele>
        <time>2025-03-03T23:10:54Z</time>
      </trkpt>
      <trkpt lat="43.26232" lon="-1.54111">
        <ele>350.6</ele>
        <time>2025-03-03T23:10:57Z</time>
      </trkpt>
      <trkpt lat="43.2624" lon="-1.5418">
        <ele>344.82</ele>
        <time>2025-03-03T23:11:00Z</time>
      </trkpt>
      <trkpt lat="43.2624" lon="-1.54201">
        <ele>343.46</ele>
        <time>2025-03-03T23:11:03Z</time>
      </trkpt>
      <trkpt lat="43.26239" lon="-1.54219">
        <ele>341.85</ele>
        <time>2025-03-03T23:11:06Z</time>
      </trkpt>
      <trkpt lat="43.26235" lon="-1.54235">
        <ele>340.39</ele>
        <time>2025-03-03T23:11:09Z</time>
      </trkpt>
      <trkpt lat="43.2623" lon="-1.54249">
        <ele>339.08</ele>
        <time>2025-03-03T23:11:12Z</time>
      </trkpt>
      <trkpt lat="43.26215" lon="-1.54275">
        <ele>337.42</ele>
        <time>2025-03-03T23:11:14Z</time>
      </trkpt>
      <trkpt lat="43.26217" lon="-1.54283">
        <ele>335.6</ele>
        <time>2025-03-03T23:11:17Z</time>
      </trkpt>
      <trkpt lat="43.26222" lon="-1.54284">
        <ele>334.08</ele>
        <time>2025-03-03T23:11:20Z</time>
      </trkpt>
      <trkpt lat="43.26228" lon="-1.54281">
        <ele>333.56</ele>
        <time>2025-03-03T23:11:23Z</time>
      </trkpt>
      <trkpt lat="43.26266" lon="-1.5423">
        <ele>332.68</ele>
        <time>2025-03-03T23:11:26Z</time>
      </trkpt>
      <trkpt lat="43.2628" lon="-1.54205">
        <ele>329.17</ele>
        <time>2025-03-03T23:11:29Z</time>
      </trkpt>
      <trkpt lat="43.26301" lon="-1.5416">
        <ele>322.05</ele>
        <time>2025-03-03T23:11:32Z</time>
      </trkpt>
      <trkpt lat="43.26322" lon="-1.5413">
        <ele>316.7</ele>
        <time>2025-03-03T23:11:35Z</time>
      </trkpt>
      <trkpt lat="43.26335" lon="-1.54118">
        <ele>313.92</ele>
        <time>2025-03-03T23:11:38Z</time>
      </trkpt>
      <trkpt lat="43.26354" lon="-1.54111">
        <ele>308.18</ele>
        <time>2025-03-03T23:11:41Z</time>
      </trkpt>
      <trkpt lat="43.26364" lon="-1.54097">
        <ele>305.82</ele>
        <time>2025-03-03T23:11:44Z</time>
      </trkpt>
      <trkpt lat="43.26365" lon="-1.54081">
        <ele>306.21</ele>
        <time>2025-03-03T23:11:46Z</time>
      </trkpt>
      <trkpt lat="43.26361" lon="-1.54067">
        <ele>307.44</ele>
        <time>2025-03-03T23:11:49Z</time>
      </trkpt>
      <trkpt lat="43.26338" lon="-1.54033">
        <ele>314.26</ele>
        <time>2025-03-03T23:11:52Z</time>
      </trkpt>
      <trkpt lat="43.26318" lon="-1.53965">
        <ele>314</ele>
        <time>2025-03-03T23:11:55Z</time>
      </trkpt>
      <trkpt lat="43.26319" lon="-1.53949">
        <ele>312.99</ele>
        <time>2025-03-03T23:11:58Z</time>
      </trkpt>
      <trkpt lat="43.26325" lon="-1.5394">
        <ele>310.72</ele>
        <time>2025-03-03T23:12:01Z</time>
      </trkpt>
      <trkpt lat="43.26333" lon="-1.53937">
        <ele>307.58</ele>
        <time>2025-03-03T23:12:04Z</time>
      </trkpt>
      <trkpt lat="43.26371" lon="-1.53961">
        <ele>295.46</ele>
        <time>2025-03-03T23:12:07Z</time>
      </trkpt>
      <trkpt lat="43.26423" lon="-1.5398">
        <ele>286.51</ele>
        <time>2025-03-03T23:12:10Z</time>
      </trkpt>
      <trkpt lat="43.26443" lon="-1.53982">
        <ele>283.83</ele>
        <time>2025-03-03T23:12:13Z</time>
      </trkpt>
      <trkpt lat="43.26465" lon="-1.53979">
        <ele>280.92</ele>
        <time>2025-03-03T23:12:15Z</time>
      </trkpt>
      <trkpt lat="43.26497" lon="-1.53967">
        <ele>279.24</ele>
        <time>2025-03-03T23:12:18Z</time>
      </trkpt>
      <trkpt lat="43.26532" lon="-1.53926">
        <ele>283.85</ele>
        <time>2025-03-03T23:12:21Z</time>
      </trkpt>
      <trkpt lat="43.2654" lon="-1.53923">
        <ele>282.4</ele>
        <time>2025-03-03T23:12:24Z</time>
      </trkpt>
      <trkpt lat="43.26549" lon="-1.53928">
        <ele>278.27</ele>
        <time>2025-03-03T23:12:27Z</time>
      </trkpt>
      <trkpt lat="43.26573" lon="-1.53956">
        <ele>266.55</ele>
        <time>2025-03-03T23:12:30Z</time>
      </trkpt>
      <trkpt lat="43.26595" lon="-1.53962">
        <ele>263.28</ele>
        <time>2025-03-03T23:12:33Z</time>
      </trkpt>
      <trkpt lat="43.26634" lon="-1.53951">
        <ele>260.44</ele>
        <time>2025-03-03T23:12:36Z</time>
      </trkpt>
      <trkpt lat="43.26653" lon="-1.53932">
        <ele>262.32</ele>
        <time>2025-03-03T23:12:39Z</time>
      </trkpt>
      <trkpt lat="43.26681" lon="-1.53924">
        <ele>260.32</ele>
        <time>2025-03-03T23:12:42Z</time>
      </trkpt>
      <trkpt lat="43.26732" lon="-1.53932">
        <ele>251.61</ele>
        <time>2025-03-03T23:12:45Z</time>
      </trkpt>
      <trkpt lat="43.26754" lon="-1.53944">
        <ele>248.46</ele>
        <time>2025-03-03T23:12:47Z</time>
      </trkpt>
      <trkpt lat="43.26762" lon="-1.53959">
        <ele>244.74</ele>
        <time>2025-03-03T23:12:50Z</time>
      </trkpt>
      <trkpt lat="43.2677" lon="-1.53992">
        <ele>239.19</ele>
        <time>2025-03-03T23:12:53Z</time>
      </trkpt>
      <trkpt lat="43.26798" lon="-1.54034">
        <ele>233.25</ele>
        <time>2025-03-03T23:12:56Z</time>
      </trkpt>
      <trkpt lat="43.26816" lon="-1.54054">
        <ele>230.05</ele>
        <time>2025-03-03T23:12:59Z</time>
      </trkpt>
      <trkpt lat="43.26814" lon="-1.5406">
        <ele>229.16</ele>
        <time>2025-03-03T23:13:00Z</time>
      </trkpt>
      <trkpt lat="43.26809" lon="-1.54065">
        <ele>228.59</ele>
        <time>2025-03-03T23:13:01Z</time>
      </trkpt>
      <trkpt lat="43.26802" lon="-1.54069">
        <ele>227.97</ele>
        <time>2025-03-03T23:13:02Z</time>
      </trkpt>
      <trkpt lat="43.268" lon="-1.54074">
        <ele>226.92</ele>
        <time>2025-03-03T23:13:03Z</time>
      </trkpt>
      <trkpt lat="43.26802" lon="-1.54083">
        <ele>225.04</ele>
        <time>2025-03-03T23:13:04Z</time>
      </trkpt>
      <trkpt lat="43.26812" lon="-1.54086">
        <ele>223.85</ele>
        <time>2025-03-03T23:13:05Z</time>
      </trkpt>
      <trkpt lat="43.26825" lon="-1.54092">
        <ele>221.95</ele>
        <time>2025-03-03T23:13:10Z</time>
      </trkpt>
      <trkpt lat="43.26854" lon="-1.54096">
        <ele>218.43</ele>
        <time>2025-03-03T23:13:15Z</time>
      </trkpt>
      <trkpt lat="43.26867" lon="-1.54103">
        <ele>216.45</ele>
        <time>2025-03-03T23:13:20Z</time>
      </trkpt>
      <trkpt lat="43.26909" lon="-1.54139">
        <ele>214</ele>
        <time>2025-03-03T23:13:25Z</time>
      </trkpt>
      <trkpt lat="43.26936" lon="-1.5412">
        <ele>212.21</ele>
        <time>2025-03-03T23:13:31Z</time>
      </trkpt>
      <trkpt lat="43.26945" lon="-1.54154">
        <ele>210.99</ele>
        <time>2025-03-03T23:13:34Z</time>
      </trkpt>
      <trkpt lat="43.26963" lon="-1.5417">
        <ele>207.91</ele>
        <time>2025-03-03T23:13:38Z</time>
      </trkpt>
      <trkpt lat="43.26975" lon="-1.54175">
        <ele>205.57</ele>
        <time>2025-03-03T23:13:42Z</time>
      </trkpt>
      <trkpt lat="43.27019" lon="-1.54162">
        <ele>199.58</ele>
        <time>2025-03-03T23:13:50Z</time>
      </trkpt>
      <trkpt lat="43.27028" lon="-1.54159">
        <ele>198.51</ele>
        <time>2025-03-03T23:13:53Z</time>
      </trkpt>
      <trkpt lat="43.27039" lon="-1.5416">
        <ele>197.05</ele>
        <time>2025-03-03T23:13:57Z</time>
      </trkpt>
      <trkpt lat="43.27069" lon="-1.54171">
        <ele>192.35</ele>
        <time>2025-03-03T23:14:00Z</time>
      </trkpt>
      <trkpt lat="43.27143" lon="-1.54205">
        <ele>185.19</ele>
        <time>2025-03-03T23:14:04Z</time>
      </trkpt>
      <trkpt lat="43.27167" lon="-1.54219">
        <ele>186.14</ele>
        <time>2025-03-03T23:14:08Z</time>
      </trkpt>
      <trkpt lat="43.27221" lon="-1.54259">
        <ele>190.55</ele>
        <time>2025-03-03T23:14:12Z</time>
      </trkpt>
      <trkpt lat="43.27235" lon="-1.54273">
        <ele>192.37</ele>
        <time>2025-03-03T23:14:16Z</time>
      </trkpt>
      <trkpt lat="43.27259" lon="-1.54325">
        <ele>194.58</ele>
        <time>2025-03-03T23:14:20Z</time>
      </trkpt>
      <trkpt lat="43.27274" lon="-1.54352">
        <ele>195.24</ele>
        <time>2025-03-03T23:14:24Z</time>
      </trkpt>
      <trkpt lat="43.27318" lon="-1.54403">
        <ele>196.87</ele>
        <time>2025-03-03T23:14:28Z</time>
      </trkpt>
      <trkpt lat="43.2734" lon="-1.54422">
        <ele>194.7</ele>
        <time>2025-03-03T23:14:32Z</time>
      </trkpt>
      <trkpt lat="43.27366" lon="-1.5443">
        <ele>191.89</ele>
        <time>2025-03-03T23:14:36Z</time>
      </trkpt>
      <trkpt lat="43.27394" lon="-1.54434">
        <ele>189.86</ele>
        <time>2025-03-03T23:14:40Z</time>
      </trkpt>
      <trkpt lat="43.27414" lon="-1.54431">
        <ele>187.3</ele>
        <time>2025-03-03T23:14:44Z</time>
      </trkpt>
      <trkpt lat="43.27427" lon="-1.54427">
        <ele>184.34</ele>
        <time>2025-03-03T23:14:48Z</time>
      </trkpt>
      <trkpt lat="43.27483" lon="-1.54393">
        <ele>175.73</ele>
        <time>2025-03-03T23:14:53Z</time>
      </trkpt>
      <trkpt lat="43.27497" lon="-1.54386">
        <ele>173.63</ele>
        <time>2025-03-03T23:14:57Z</time>
      </trkpt>
      <trkpt lat="43.27507" lon="-1.54386">
        <ele>171.84</ele>
        <time>2025-03-03T23:15:01Z</time>
      </trkpt>
      <trkpt lat="43.2752" lon="-1.54389">
        <ele>169.4</ele>
        <time>2025-03-03T23:15:05Z</time>
      </trkpt>
      <trkpt lat="43.27571" lon="-1.5443">
        <ele>169.85</ele>
        <time>2025-03-03T23:15:09Z</time>
      </trkpt>
      <trkpt lat="43.27584" lon="-1.54443">
        <ele>171.64</ele>
        <time>2025-03-03T23:15:13Z</time>
      </trkpt>
      <trkpt lat="43.27602" lon="-1.54489">
        <ele>172.39</ele>
        <time>2025-03-03T23:15:17Z</time>
      </trkpt>
      <trkpt lat="43.27618" lon="-1.54523">
        <ele>168.49</ele>
        <time>2025-03-03T23:15:21Z</time>
      </trkpt>
      <trkpt lat="43.27639" lon="-1.54545">
        <ele>165.22</ele>
        <time>2025-03-03T23:15:25Z</time>
      </trkpt>
      <trkpt lat="43.27661" lon="-1.54557">
        <ele>164.49</ele>
        <time>2025-03-03T23:15:29Z</time>
      </trkpt>
      <trkpt lat="43.27716" lon="-1.54592">
        <ele>162.45</ele>
        <time>2025-03-03T23:15:34Z</time>
      </trkpt>
      <trkpt lat="43.27806" lon="-1.5468">
        <ele>160.57</ele>
        <time>2025-03-03T23:15:38Z</time>
      </trkpt>
      <trkpt lat="43.27833" lon="-1.54709">
        <ele>161.96</ele>
        <time>2025-03-03T23:15:43Z</time>
      </trkpt>
      <trkpt lat="43.27928" lon="-1.5485">
        <ele>180.49</ele>
        <time>2025-03-03T23:15:48Z</time>
      </trkpt>
      <trkpt lat="43.2796" lon="-1.54907">
        <ele>182.43</ele>
        <time>2025-03-03T23:15:52Z</time>
      </trkpt>
      <trkpt lat="43.27973" lon="-1.54917">
        <ele>182.01</ele>
        <time>2025-03-03T23:15:57Z</time>
      </trkpt>
      <trkpt lat="43.27984" lon="-1.54919">
        <ele>181.88</ele>
        <time>2025-03-03T23:16:02Z</time>
      </trkpt>
      <trkpt lat="43.28036" lon="-1.54907">
        <ele>179.5</ele>
        <time>2025-03-03T23:16:07Z</time>
      </trkpt>
      <trkpt lat="43.28065" lon="-1.54906">
        <ele>176.54</ele>
        <time>2025-03-03T23:16:11Z</time>
      </trkpt>
      <trkpt lat="43.28097" lon="-1.54911">
        <ele>175.67</ele>
        <time>2025-03-03T23:16:16Z</time>
      </trkpt>
      <trkpt lat="43.2812" lon="-1.54919">
        <ele>175.8</ele>
        <time>2025-03-03T23:16:21Z</time>
      </trkpt>
      <trkpt lat="43.28195" lon="-1.54954">
        <ele>172.99</ele>
        <time>2025-03-03T23:16:25Z</time>
      </trkpt>
      <trkpt lat="43.28223" lon="-1.54963">
        <ele>172.67</ele>
        <time>2025-03-03T23:16:30Z</time>
      </trkpt>
      <trkpt lat="43.28245" lon="-1.54961">
        <ele>171.9</ele>
        <time>2025-03-03T23:16:35Z</time>
      </trkpt>
      <trkpt lat="43.28271" lon="-1.54953">
        <ele>169.77</ele>
        <time>2025-03-03T23:16:39Z</time>
      </trkpt>
      <trkpt lat="43.28289" lon="-1.54941">
        <ele>167.4</ele>
        <time>2025-03-03T23:16:44Z</time>
      </trkpt>
      <trkpt lat="43.28306" lon="-1.54925">
        <ele>165.03</ele>
        <time>2025-03-03T23:16:49Z</time>
      </trkpt>
      <trkpt lat="43.28325" lon="-1.54899">
        <ele>163.16</ele>
        <time>2025-03-03T23:16:54Z</time>
      </trkpt>
      <trkpt lat="43.28353" lon="-1.54855">
        <ele>156.34</ele>
        <time>2025-03-03T23:16:58Z</time>
      </trkpt>
      <trkpt lat="43.28369" lon="-1.54841">
        <ele>152.06</ele>
        <time>2025-03-03T23:17:03Z</time>
      </trkpt>
      <trkpt lat="43.28378" lon="-1.54841">
        <ele>151.34</ele>
        <time>2025-03-03T23:17:08Z</time>
      </trkpt>
      <trkpt lat="43.28386" lon="-1.54842">
        <ele>150.55</ele>
        <time>2025-03-03T23:17:11Z</time>
      </trkpt>
      <trkpt lat="43.284" lon="-1.54853">
        <ele>151.21</ele>
        <time>2025-03-03T23:17:14Z</time>
      </trkpt>
      <trkpt lat="43.28412" lon="-1.54868">
        <ele>151.57</ele>
        <time>2025-03-03T23:17:18Z</time>
      </trkpt>
      <trkpt lat="43.28418" lon="-1.54893">
        <ele>151.32</ele>
        <time>2025-03-03T23:17:21Z</time>
      </trkpt>
      <trkpt lat="43.28417" lon="-1.54919">
        <ele>152.58</ele>
        <time>2025-03-03T23:17:25Z</time>
      </trkpt>
      <trkpt lat="43.28408" lon="-1.54983">
        <ele>158</ele>
        <time>2025-03-03T23:17:28Z</time>
      </trkpt>
      <trkpt lat="43.28401" lon="-1.55044">
        <ele>155.09</ele>
        <time>2025-03-03T23:17:31Z</time>
      </trkpt>
      <trkpt lat="43.28403" lon="-1.55082">
        <ele>155.59</ele>
        <time>2025-03-03T23:17:35Z</time>
      </trkpt>
      <trkpt lat="43.28414" lon="-1.55116">
        <ele>156.43</ele>
        <time>2025-03-03T23:17:38Z</time>
      </trkpt>
      <trkpt lat="43.28428" lon="-1.55141">
        <ele>155.82</ele>
        <time>2025-03-03T23:17:41Z</time>
      </trkpt>
      <trkpt lat="43.28445" lon="-1.55153">
        <ele>157.01</ele>
        <time>2025-03-03T23:17:45Z</time>
      </trkpt>
      <trkpt lat="43.28463" lon="-1.55156">
        <ele>156.19</ele>
        <time>2025-03-03T23:17:48Z</time>
      </trkpt>
      <trkpt lat="43.28497" lon="-1.55151">
        <ele>152.31</ele>
        <time>2025-03-03T23:17:51Z</time>
      </trkpt>
      <trkpt lat="43.28532" lon="-1.55136">
        <ele>149.57</ele>
        <time>2025-03-03T23:17:55Z</time>
      </trkpt>
      <trkpt lat="43.28551" lon="-1.55131">
        <ele>150.5</ele>
        <time>2025-03-03T23:17:58Z</time>
      </trkpt>
      <trkpt lat="43.28572" lon="-1.55133">
        <ele>151.72</ele>
        <time>2025-03-03T23:18:02Z</time>
      </trkpt>
      <trkpt lat="43.28604" lon="-1.55141">
        <ele>152.59</ele>
        <time>2025-03-03T23:18:05Z</time>
      </trkpt>
      <trkpt lat="43.28622" lon="-1.55148">
        <ele>153.3</ele>
        <time>2025-03-03T23:18:08Z</time>
      </trkpt>
      <trkpt lat="43.28638" lon="-1.55161">
        <ele>153.35</ele>
        <time>2025-03-03T23:18:12Z</time>
      </trkpt>
      <trkpt lat="43.28668" lon="-1.5521">
        <ele>153.38</ele>
        <time>2025-03-03T23:18:15Z</time>
      </trkpt>
      <trkpt lat="43.28682" lon="-1.55246">
        <ele>153.29</ele>
        <time>2025-03-03T23:18:18Z</time>
      </trkpt>
      <trkpt lat="43.2871" lon="-1.55375">
        <ele>142.34</ele>
        <time>2025-03-03T23:18:22Z</time>
      </trkpt>
      <trkpt lat="43.28722" lon="-1.554">
        <ele>137.78</ele>
        <time>2025-03-03T23:18:25Z</time>
      </trkpt>
      <trkpt lat="43.28792" lon="-1.55492">
        <ele>127.28</ele>
        <time>2025-03-03T23:18:28Z</time>
      </trkpt>
      <trkpt lat="43.28815" lon="-1.55526">
        <ele>119.62</ele>
        <time>2025-03-03T23:18:32Z</time>
      </trkpt>
      <trkpt lat="43.2883" lon="-1.55565">
        <ele>114.86</ele>
        <time>2025-03-03T23:18:35Z</time>
      </trkpt>
      <trkpt lat="43.28834" lon="-1.55591">
        <ele>113.44</ele>
        <time>2025-03-03T23:18:38Z</time>
      </trkpt>
      <trkpt lat="43.28844" lon="-1.55715">
        <ele>109.74</ele>
        <time>2025-03-03T23:18:42Z</time>
      </trkpt>
      <trkpt lat="43.2885" lon="-1.55765">
        <ele>111.8</ele>
        <time>2025-03-03T23:18:45Z</time>
      </trkpt>
      <trkpt lat="43.28858" lon="-1.55797">
        <ele>111.41</ele>
        <time>2025-03-03T23:18:49Z</time>
      </trkpt>
      <trkpt lat="43.28872" lon="-1.55833">
        <ele>109.47</ele>
        <time>2025-03-03T23:18:52Z</time>
      </trkpt>
      <trkpt lat="43.28882" lon="-1.55853">
        <ele>108.72</ele>
        <time>2025-03-03T23:18:55Z</time>
      </trkpt>
      <trkpt lat="43.28892" lon="-1.55868">
        <ele>107.79</ele>
        <time>2025-03-03T23:18:59Z</time>
      </trkpt>
      <trkpt lat="43.28945" lon="-1.55908">
        <ele>101.93</ele>
        <time>2025-03-03T23:19:02Z</time>
      </trkpt>
      <trkpt lat="43.29003" lon="-1.55948">
        <ele>98.03</ele>
        <time>2025-03-03T23:19:05Z</time>
      </trkpt>
      <trkpt lat="43.29008" lon="-1.55945">
        <ele>98.02</ele>
        <time>2025-03-03T23:19:09Z</time>
      </trkpt>
      <trkpt lat="43.29012" lon="-1.5594">
        <ele>98</ele>
        <time>2025-03-03T23:19:12Z</time>
      </trkpt>
      <trkpt lat="43.29015" lon="-1.55931">
        <ele>98</ele>
        <time>2025-03-03T23:19:15Z</time>
      </trkpt>
      <trkpt lat="43.29015" lon="-1.55903">
        <ele>97.73</ele>
        <time>2025-03-03T23:19:19Z</time>
      </trkpt>
      <trkpt lat="43.29017" lon="-1.55897">
        <ele>97.55</ele>
        <time>2025-03-03T23:19:22Z</time>
      </trkpt>
      <trkpt lat="43.29023" lon="-1.55895">
        <ele>97.36</ele>
        <time>2025-03-03T23:19:26Z</time>
      </trkpt>
      <trkpt lat="43.29041" lon="-1.55916">
        <ele>97.51</ele>
        <time>2025-03-03T23:19:29Z</time>
      </trkpt>
      <trkpt lat="43.29049" lon="-1.55923">
        <ele>97.56</ele>
        <time>2025-03-03T23:19:32Z</time>
      </trkpt>
      <trkpt lat="43.29086" lon="-1.55931">
        <ele>97.41</ele>
        <time>2025-03-03T23:19:36Z</time>
      </trkpt>
      <trkpt lat="43.29128" lon="-1.55951">
        <ele>95.32</ele>
        <time>2025-03-03T23:19:39Z</time>
      </trkpt>
      <trkpt lat="43.29172" lon="-1.55962">
        <ele>87.1</ele>
        <time>2025-03-03T23:19:42Z</time>
      </trkpt>
      <trkpt lat="43.29183" lon="-1.55969">
        <ele>85.19</ele>
        <time>2025-03-03T23:19:46Z</time>
      </trkpt>
      <trkpt lat="43.29202" lon="-1.55988">
        <ele>82.82</ele>
        <time>2025-03-03T23:19:49Z</time>
      </trkpt>
      <trkpt lat="43.29212" lon="-1.55994">
        <ele>81.94</ele>
        <time>2025-03-03T23:19:52Z</time>
      </trkpt>
      <trkpt lat="43.29241" lon="-1.56003">
        <ele>80.43</ele>
        <time>2025-03-03T23:19:56Z</time>
      </trkpt>
      <trkpt lat="43.29254" lon="-1.56012">
        <ele>80.1</ele>
        <time>2025-03-03T23:19:59Z</time>
      </trkpt>
      <trkpt lat="43.29275" lon="-1.56042">
        <ele>78.31</ele>
        <time>2025-03-03T23:20:03Z</time>
      </trkpt>
      <trkpt lat="43.29287" lon="-1.56072">
        <ele>77.61</ele>
        <time>2025-03-03T23:20:07Z</time>
      </trkpt>
      <trkpt lat="43.29294" lon="-1.56086">
        <ele>77.6</ele>
        <time>2025-03-03T23:20:11Z</time>
      </trkpt>
      <trkpt lat="43.29307" lon="-1.56103">
        <ele>78.66</ele>
        <time>2025-03-03T23:20:15Z</time>
      </trkpt>
      <trkpt lat="43.29339" lon="-1.56137">
        <ele>75.73</ele>
        <time>2025-03-03T23:20:19Z</time>
      </trkpt>
      <trkpt lat="43.29393" lon="-1.5618">
        <ele>69.91</ele>
        <time>2025-03-03T23:20:23Z</time>
      </trkpt>
      <trkpt lat="43.29401" lon="-1.56191">
        <ele>70.44</ele>
        <time>2025-03-03T23:20:27Z</time>
      </trkpt>
      <trkpt lat="43.29407" lon="-1.56207">
        <ele>70.04</ele>
        <time>2025-03-03T23:20:31Z</time>
      </trkpt>
      <trkpt lat="43.29412" lon="-1.56249">
        <ele>68.04</ele>
        <time>2025-03-03T23:20:35Z</time>
      </trkpt>
      <trkpt lat="43.29424" lon="-1.56288">
        <ele>69.12</ele>
        <time>2025-03-03T23:20:39Z</time>
      </trkpt>
      <trkpt lat="43.29426" lon="-1.56304">
        <ele>69.35</ele>
        <time>2025-03-03T23:20:43Z</time>
      </trkpt>
      <trkpt lat="43.29426" lon="-1.56327">
        <ele>70.13</ele>
        <time>2025-03-03T23:20:47Z</time>
      </trkpt>
      <trkpt lat="43.29428" lon="-1.56345">
        <ele>70.06</ele>
        <time>2025-03-03T23:20:51Z</time>
      </trkpt>
      <trkpt lat="43.29436" lon="-1.5637">
        <ele>68.99</ele>
        <time>2025-03-03T23:20:55Z</time>
      </trkpt>
      <trkpt lat="43.29444" lon="-1.56381">
        <ele>68.28</ele>
        <time>2025-03-03T23:20:59Z</time>
      </trkpt>
      <trkpt lat="43.29465" lon="-1.56402">
        <ele>66</ele>
        <time>2025-03-03T23:21:03Z</time>
      </trkpt>
      <trkpt lat="43.29516" lon="-1.5645">
        <ele>60.42</ele>
        <time>2025-03-03T23:21:07Z</time>
      </trkpt>
      <trkpt lat="43.29609" lon="-1.56564">
        <ele>57.06</ele>
        <time>2025-03-03T23:21:11Z</time>
      </trkpt>
      <trkpt lat="43.29628" lon="-1.56583">
        <ele>57.77</ele>
        <time>2025-03-03T23:21:15Z</time>
      </trkpt>
      <trkpt lat="43.29647" lon="-1.5661">
        <ele>59.63</ele>
        <time>2025-03-03T23:21:19Z</time>
      </trkpt>
      <trkpt lat="43.29675" lon="-1.56674">
        <ele>60.12</ele>
        <time>2025-03-03T23:21:23Z</time>
      </trkpt>
      <trkpt lat="43.2968" lon="-1.56691">
        <ele>59.92</ele>
        <time>2025-03-03T23:21:27Z</time>
      </trkpt>
      <trkpt lat="43.29691" lon="-1.56708">
        <ele>58.95</ele>
        <time>2025-03-03T23:21:31Z</time>
      </trkpt>
      <trkpt lat="43.29706" lon="-1.56723">
        <ele>57.82</ele>
        <time>2025-03-03T23:21:35Z</time>
      </trkpt>
      <trkpt lat="43.29726" lon="-1.56748">
        <ele>56.69</ele>
        <time>2025-03-03T23:21:39Z</time>
      </trkpt>
      <trkpt lat="43.2978" lon="-1.56801">
        <ele>51.14</ele>
        <time>2025-03-03T23:21:43Z</time>
      </trkpt>
      <trkpt lat="43.29817" lon="-1.56832">
        <ele>50.98</ele>
        <time>2025-03-03T23:21:47Z</time>
      </trkpt>
      <trkpt lat="43.29837" lon="-1.56857">
        <ele>51.86</ele>
        <time>2025-03-03T23:21:51Z</time>
      </trkpt>
      <trkpt lat="43.29872" lon="-1.56923">
        <ele>48.37</ele>
        <time>2025-03-03T23:21:55Z</time>
      </trkpt>
      <trkpt lat="43.29878" lon="-1.56938">
        <ele>48.61</ele>
        <time>2025-03-03T23:21:59Z</time>
      </trkpt>
      <trkpt lat="43.2991" lon="-1.57037">
        <ele>50.41</ele>
        <time>2025-03-03T23:22:03Z</time>
      </trkpt>
      <trkpt lat="43.29958" lon="-1.57132">
        <ele>48.88</ele>
        <time>2025-03-03T23:22:07Z</time>
      </trkpt>
      <trkpt lat="43.29978" lon="-1.57164">
        <ele>49.92</ele>
        <time>2025-03-03T23:22:11Z</time>
      </trkpt>
      <trkpt lat="43.29997" lon="-1.57171">
        <ele>50.14</ele>
        <time>2025-03-03T23:22:14Z</time>
      </trkpt>
      <trkpt lat="43.30018" lon="-1.57189">
        <ele>50.92</ele>
        <time>2025-03-03T23:22:16Z</time>
      </trkpt>
      <trkpt lat="43.30047" lon="-1.57219">
        <ele>51.37</ele>
        <time>2025-03-03T23:22:19Z</time>
      </trkpt>
      <trkpt lat="43.30077" lon="-1.57259">
        <ele>48.82</ele>
        <time>2025-03-03T23:22:22Z</time>
      </trkpt>
      <trkpt lat="43.30114" lon="-1.57292">
        <ele>49.63</ele>
        <time>2025-03-03T23:22:25Z</time>
      </trkpt>
      <trkpt lat="43.30127" lon="-1.57308">
        <ele>50.04</ele>
        <time>2025-03-03T23:22:28Z</time>
      </trkpt>
      <trkpt lat="43.30133" lon="-1.57319">
        <ele>50.1</ele>
        <time>2025-03-03T23:22:31Z</time>
      </trkpt>
      <trkpt lat="43.30167" lon="-1.57387">
        <ele>49.95</ele>
        <time>2025-03-03T23:22:33Z</time>
      </trkpt>
      <trkpt lat="43.30176" lon="-1.57403">
        <ele>51.47</ele>
        <time>2025-03-03T23:22:36Z</time>
      </trkpt>
      <trkpt lat="43.3021" lon="-1.57449">
        <ele>53.09</ele>
        <time>2025-03-03T23:22:39Z</time>
      </trkpt>
      <trkpt lat="43.30216" lon="-1.57454">
        <ele>52.37</ele>
        <time>2025-03-03T23:22:42Z</time>
      </trkpt>
      <trkpt lat="43.30223" lon="-1.57457">
        <ele>50.79</ele>
        <time>2025-03-03T23:22:45Z</time>
      </trkpt>
      <trkpt lat="43.30257" lon="-1.57461">
        <ele>47.55</ele>
        <time>2025-03-03T23:22:48Z</time>
      </trkpt>
      <trkpt lat="43.30282" lon="-1.57459">
        <ele>47.96</ele>
        <time>2025-03-03T23:22:50Z</time>
      </trkpt>
      <trkpt lat="43.30303" lon="-1.57454">
        <ele>50.11</ele>
        <time>2025-03-03T23:22:53Z</time>
      </trkpt>
      <trkpt lat="43.30313" lon="-1.57448">
        <ele>51.5</ele>
        <time>2025-03-03T23:22:56Z</time>
      </trkpt>
      <trkpt lat="43.30329" lon="-1.57433">
        <ele>53.58</ele>
        <time>2025-03-03T23:22:59Z</time>
      </trkpt>
      <trkpt lat="43.30368" lon="-1.57387">
        <ele>49.04</ele>
        <time>2025-03-03T23:23:02Z</time>
      </trkpt>
      <trkpt lat="43.30399" lon="-1.57355">
        <ele>45.14</ele>
        <time>2025-03-03T23:23:04Z</time>
      </trkpt>
      <trkpt lat="43.30417" lon="-1.57342">
        <ele>44.23</ele>
        <time>2025-03-03T23:23:07Z</time>
      </trkpt>
      <trkpt lat="43.30479" lon="-1.57306">
        <ele>49</ele>
        <time>2025-03-03T23:23:10Z</time>
      </trkpt>
      <trkpt lat="43.3051" lon="-1.5728">
        <ele>47.41</ele>
        <time>2025-03-03T23:23:13Z</time>
      </trkpt>
      <trkpt lat="43.30548" lon="-1.57262">
        <ele>45.12</ele>
        <time>2025-03-03T23:23:16Z</time>
      </trkpt>
      <trkpt lat="43.30576" lon="-1.57246">
        <ele>44.86</ele>
        <time>2025-03-03T23:23:19Z</time>
      </trkpt>
      <trkpt lat="43.30597" lon="-1.57238">
        <ele>44.99</ele>
        <time>2025-03-03T23:23:21Z</time>
      </trkpt>
      <trkpt lat="43.30646" lon="-1.57238">
        <ele>44.73</ele>
        <time>2025-03-03T23:23:24Z</time>
      </trkpt>
      <trkpt lat="43.30667" lon="-1.57243">
        <ele>44.01</ele>
        <time>2025-03-03T23:23:27Z</time>
      </trkpt>
      <trkpt lat="43.30718" lon="-1.57267">
        <ele>46.81</ele>
        <time>2025-03-03T23:23:30Z</time>
      </trkpt>
      <trkpt lat="43.30733" lon="-1.57271">
        <ele>47.08</ele>
        <time>2025-03-03T23:23:33Z</time>
      </trkpt>
      <trkpt lat="43.30748" lon="-1.57272">
        <ele>47.2</ele>
        <time>2025-03-03T23:23:35Z</time>
      </trkpt>
      <trkpt lat="43.30793" lon="-1.57266">
        <ele>47.73</ele>
        <time>2025-03-03T23:23:38Z</time>
      </trkpt>
      <trkpt lat="43.30864" lon="-1.57271">
        <ele>47</ele>
        <time>2025-03-03T23:23:41Z</time>
      </trkpt>
      <trkpt lat="43.30882" lon="-1.57266">
        <ele>47</ele>
        <time>2025-03-03T23:23:44Z</time>
      </trkpt>
      <trkpt lat="43.30908" lon="-1.57256">
        <ele>46.43</ele>
        <time>2025-03-03T23:23:47Z</time>
      </trkpt>
      <trkpt lat="43.30943" lon="-1.57238">
        <ele>47.1</ele>
        <time>2025-03-03T23:23:50Z</time>
      </trkpt>
      <trkpt lat="43.30953" lon="-1.57224">
        <ele>46.7</ele>
        <time>2025-03-03T23:23:52Z</time>
      </trkpt>
      <trkpt lat="43.30954" lon="-1.57219">
        <ele>46.52</ele>
        <time>2025-03-03T23:23:56Z</time>
      </trkpt>
      <trkpt lat="43.30959" lon="-1.57213">
        <ele>46.74</ele>
        <time>2025-03-03T23:23:59Z</time>
      </trkpt>
      <trkpt lat="43.30964" lon="-1.57214">
        <ele>47.13</ele>
        <time>2025-03-03T23:24:02Z</time>
      </trkpt>
      <trkpt lat="43.30968" lon="-1.57222">
        <ele>47.69</ele>
        <time>2025-03-03T23:24:05Z</time>
      </trkpt>
      <trkpt lat="43.30977" lon="-1.57229">
        <ele>48.26</ele>
        <time>2025-03-03T23:24:08Z</time>
        <extensions>
          <visugpx:TrkExtension xmlns:visugpx="https://www.visugpx.com/editgpx/">
            <visugpx:node>8</visugpx:node>
            </visugpx:TrkExtension>
        </extensions>
      </trkpt>
      <trkpt lat="43.30977" lon="-1.57229">
        <ele>48.26</ele>
        <time>2025-03-03T23:24:08Z</time>
      </trkpt>
      <trkpt lat="43.31008" lon="-1.57233">
        <ele>47.89</ele>
        <time>2025-03-03T23:24:11Z</time>
      </trkpt>
      <trkpt lat="43.31051" lon="-1.57243">
        <ele>44.37</ele>
        <time>2025-03-03T23:24:14Z</time>
      </trkpt>
      <trkpt lat="43.31078" lon="-1.57255">
        <ele>44</ele>
        <time>2025-03-03T23:24:18Z</time>
      </trkpt>
      <trkpt lat="43.31101" lon="-1.57274">
        <ele>45.16</ele>
        <time>2025-03-03T23:24:21Z</time>
      </trkpt>
      <trkpt lat="43.31158" lon="-1.57333">
        <ele>48.29</ele>
        <time>2025-03-03T23:24:24Z</time>
      </trkpt>
      <trkpt lat="43.31222" lon="-1.57392">
        <ele>49.35</ele>
        <time>2025-03-03T23:24:27Z</time>
      </trkpt>
      <trkpt lat="43.31256" lon="-1.57422">
        <ele>49.47</ele>
        <time>2025-03-03T23:24:30Z</time>
      </trkpt>
      <trkpt lat="43.31333" lon="-1.57478">
        <ele>51.25</ele>
        <time>2025-03-03T23:24:33Z</time>
      </trkpt>
      <trkpt lat="43.31352" lon="-1.57495">
        <ele>51.46</ele>
        <time>2025-03-03T23:24:37Z</time>
      </trkpt>
      <trkpt lat="43.3136" lon="-1.57506">
        <ele>51.25</ele>
        <time>2025-03-03T23:24:40Z</time>
      </trkpt>
      <trkpt lat="43.3137" lon="-1.57529">
        <ele>51.69</ele>
        <time>2025-03-03T23:24:43Z</time>
      </trkpt>
      <trkpt lat="43.31382" lon="-1.57566">
        <ele>51.4</ele>
        <time>2025-03-03T23:24:46Z</time>
      </trkpt>
      <trkpt lat="43.31394" lon="-1.57607">
        <ele>54.58</ele>
        <time>2025-03-03T23:24:49Z</time>
      </trkpt>
      <trkpt lat="43.31394" lon="-1.57607">
        <ele>54.58</ele>
        <time>2025-03-03T23:24:49Z</time>
      </trkpt>
      <trkpt lat="43.31441" lon="-1.57772">
        <ele>57.76</ele>
        <time>2025-03-03T23:24:54Z</time>
      </trkpt>
      <trkpt lat="43.31497" lon="-1.5798">
        <ele>53.73</ele>
        <time>2025-03-03T23:24:59Z</time>
      </trkpt>
      <trkpt lat="43.31503" lon="-1.58012">
        <ele>55.41</ele>
        <time>2025-03-03T23:25:04Z</time>
      </trkpt>
      <trkpt lat="43.31503" lon="-1.58036">
        <ele>55.78</ele>
        <time>2025-03-03T23:25:08Z</time>
      </trkpt>
      <trkpt lat="43.31501" lon="-1.58057">
        <ele>55.2</ele>
        <time>2025-03-03T23:25:13Z</time>
      </trkpt>
      <trkpt lat="43.31493" lon="-1.58082">
        <ele>57.42</ele>
        <time>2025-03-03T23:25:18Z</time>
      </trkpt>
      <trkpt lat="43.31462" lon="-1.58163">
        <ele>57.18</ele>
        <time>2025-03-03T23:25:23Z</time>
      </trkpt>
      <trkpt lat="43.31458" lon="-1.58187">
        <ele>56.94</ele>
        <time>2025-03-03T23:25:27Z</time>
      </trkpt>
      <trkpt lat="43.31456" lon="-1.58225">
        <ele>58.06</ele>
        <time>2025-03-03T23:25:32Z</time>
      </trkpt>
      <trkpt lat="43.31458" lon="-1.58249">
        <ele>58.49</ele>
        <time>2025-03-03T23:25:37Z</time>
      </trkpt>
      <trkpt lat="43.31464" lon="-1.58271">
        <ele>58.82</ele>
        <time>2025-03-03T23:25:42Z</time>
      </trkpt>
      <trkpt lat="43.31472" lon="-1.58276">
        <ele>58.94</ele>
        <time>2025-03-03T23:25:43Z</time>
      </trkpt>
      <trkpt lat="43.31477" lon="-1.58287">
        <ele>60.09</ele>
        <time>2025-03-03T23:25:45Z</time>
      </trkpt>
      <trkpt lat="43.31476" lon="-1.58299">
        <ele>60.85</ele>
        <time>2025-03-03T23:25:47Z</time>
      </trkpt>
      <trkpt lat="43.31482" lon="-1.58322">
        <ele>62.69</ele>
        <time>2025-03-03T23:25:48Z</time>
      </trkpt>
      <trkpt lat="43.31543" lon="-1.5839">
        <ele>69.08</ele>
        <time>2025-03-03T23:25:50Z</time>
      </trkpt>
      <trkpt lat="43.3156" lon="-1.58416">
        <ele>70.28</ele>
        <time>2025-03-03T23:25:51Z</time>
      </trkpt>
      <trkpt lat="43.31583" lon="-1.58482">
        <ele>72.93</ele>
        <time>2025-03-03T23:25:53Z</time>
      </trkpt>
      <trkpt lat="43.31623" lon="-1.58668">
        <ele>86.24</ele>
        <time>2025-03-03T23:25:55Z</time>
      </trkpt>
      <trkpt lat="43.31634" lon="-1.58693">
        <ele>85.89</ele>
        <time>2025-03-03T23:25:56Z</time>
      </trkpt>
      <trkpt lat="43.31648" lon="-1.58716">
        <ele>87.85</ele>
        <time>2025-03-03T23:25:58Z</time>
      </trkpt>
      <trkpt lat="43.31697" lon="-1.58753">
        <ele>101.01</ele>
        <time>2025-03-03T23:26:00Z</time>
      </trkpt>
      <trkpt lat="43.31721" lon="-1.58781">
        <ele>109.19</ele>
        <time>2025-03-03T23:26:01Z</time>
      </trkpt>
      <trkpt lat="43.31721" lon="-1.5879">
        <ele>110.23</ele>
        <time>2025-03-03T23:26:03Z</time>
      </trkpt>
      <trkpt lat="43.31717" lon="-1.58796">
        <ele>110.64</ele>
        <time>2025-03-03T23:26:04Z</time>
      </trkpt>
      <trkpt lat="43.31656" lon="-1.58801">
        <ele>105.35</ele>
        <time>2025-03-03T23:26:06Z</time>
      </trkpt>
      <trkpt lat="43.31617" lon="-1.58807">
        <ele>106.92</ele>
        <time>2025-03-03T23:26:08Z</time>
      </trkpt>
      <trkpt lat="43.31586" lon="-1.58821">
        <ele>111.08</ele>
        <time>2025-03-03T23:26:09Z</time>
      </trkpt>
      <trkpt lat="43.31551" lon="-1.58832">
        <ele>114.16</ele>
        <time>2025-03-03T23:26:11Z</time>
      </trkpt>
      <trkpt lat="43.31501" lon="-1.58834">
        <ele>107.38</ele>
        <time>2025-03-03T23:26:13Z</time>
      </trkpt>
      <trkpt lat="43.31494" lon="-1.58837">
        <ele>106.84</ele>
        <time>2025-03-03T23:26:14Z</time>
      </trkpt>
      <trkpt lat="43.3149" lon="-1.58842">
        <ele>107.22</ele>
        <time>2025-03-03T23:26:16Z</time>
      </trkpt>
      <trkpt lat="43.3149" lon="-1.58851">
        <ele>108.83</ele>
        <time>2025-03-03T23:26:17Z</time>
      </trkpt>
      <trkpt lat="43.31491" lon="-1.58856">
        <ele>110.15</ele>
        <time>2025-03-03T23:26:19Z</time>
      </trkpt>
      <trkpt lat="43.31496" lon="-1.5886">
        <ele>112</ele>
        <time>2025-03-03T23:26:21Z</time>
      </trkpt>
      <trkpt lat="43.31503" lon="-1.5886">
        <ele>113.26</ele>
        <time>2025-03-03T23:26:22Z</time>
      </trkpt>
      <trkpt lat="43.31515" lon="-1.58855">
        <ele>114.18</ele>
        <time>2025-03-03T23:26:24Z</time>
      </trkpt>
      <trkpt lat="43.31529" lon="-1.58853">
        <ele>115.91</ele>
        <time>2025-03-03T23:26:25Z</time>
      </trkpt>
      <trkpt lat="43.31544" lon="-1.58856">
        <ele>117.09</ele>
        <time>2025-03-03T23:26:27Z</time>
      </trkpt>
      <trkpt lat="43.31544" lon="-1.58856">
        <ele>117.09</ele>
        <time>2025-03-03T23:26:27Z</time>
      </trkpt>
      <trkpt lat="43.31553" lon="-1.58857">
        <ele>118.28</ele>
        <time>2025-03-03T23:26:28Z</time>
      </trkpt>
      <trkpt lat="43.31597" lon="-1.58856">
        <ele>119.78</ele>
        <time>2025-03-03T23:26:30Z</time>
      </trkpt>
      <trkpt lat="43.3163" lon="-1.58861">
        <ele>122.23</ele>
        <time>2025-03-03T23:26:31Z</time>
      </trkpt>
      <trkpt lat="43.31652" lon="-1.58867">
        <ele>123.89</ele>
        <time>2025-03-03T23:26:32Z</time>
      </trkpt>
      <trkpt lat="43.31696" lon="-1.58872">
        <ele>122.54</ele>
        <time>2025-03-03T23:26:34Z</time>
      </trkpt>
      <trkpt lat="43.31705" lon="-1.58875">
        <ele>122.41</ele>
        <time>2025-03-03T23:26:35Z</time>
      </trkpt>
      <trkpt lat="43.31748" lon="-1.58922">
        <ele>127.89</ele>
        <time>2025-03-03T23:26:36Z</time>
      </trkpt>
      <trkpt lat="43.31764" lon="-1.5893">
        <ele>127.86</ele>
        <time>2025-03-03T23:26:38Z</time>
      </trkpt>
      <trkpt lat="43.31792" lon="-1.58932">
        <ele>127.49</ele>
        <time>2025-03-03T23:26:39Z</time>
      </trkpt>
      <trkpt lat="43.31801" lon="-1.58936">
        <ele>128.07</ele>
        <time>2025-03-03T23:26:40Z</time>
      </trkpt>
      <trkpt lat="43.31806" lon="-1.58942">
        <ele>128.72</ele>
        <time>2025-03-03T23:26:41Z</time>
      </trkpt>
      <trkpt lat="43.31812" lon="-1.58951">
        <ele>129.36</ele>
        <time>2025-03-03T23:26:43Z</time>
      </trkpt>
      <trkpt lat="43.31814" lon="-1.58961">
        <ele>129.53</ele>
        <time>2025-03-03T23:26:44Z</time>
      </trkpt>
      <trkpt lat="43.31815" lon="-1.58969">
        <ele>129.64</ele>
        <time>2025-03-03T23:26:45Z</time>
      </trkpt>
      <trkpt lat="43.31813" lon="-1.58977">
        <ele>129.63</ele>
        <time>2025-03-03T23:26:47Z</time>
      </trkpt>
      <trkpt lat="43.31789" lon="-1.5902">
        <ele>128.85</ele>
        <time>2025-03-03T23:26:48Z</time>
      </trkpt>
      <trkpt lat="43.31781" lon="-1.59031">
        <ele>128.36</ele>
        <time>2025-03-03T23:26:49Z</time>
      </trkpt>
      <trkpt lat="43.31775" lon="-1.59035">
        <ele>127.85</ele>
        <time>2025-03-03T23:26:51Z</time>
      </trkpt>
      <trkpt lat="43.31768" lon="-1.59037">
        <ele>127.47</ele>
        <time>2025-03-03T23:26:52Z</time>
      </trkpt>
      <trkpt lat="43.31737" lon="-1.5903">
        <ele>128.66</ele>
        <time>2025-03-03T23:26:53Z</time>
      </trkpt>
      <trkpt lat="43.31722" lon="-1.59029">
        <ele>129.75</ele>
        <time>2025-03-03T23:26:54Z</time>
      </trkpt>
      <trkpt lat="43.3171" lon="-1.59032">
        <ele>131.76</ele>
        <time>2025-03-03T23:26:56Z</time>
      </trkpt>
      <trkpt lat="43.31699" lon="-1.59039">
        <ele>132.47</ele>
        <time>2025-03-03T23:26:57Z</time>
      </trkpt>
      <trkpt lat="43.3169" lon="-1.59048">
        <ele>132.01</ele>
        <time>2025-03-03T23:26:58Z</time>
      </trkpt>
      <trkpt lat="43.31672" lon="-1.59078">
        <ele>131.03</ele>
        <time>2025-03-03T23:27:00Z</time>
      </trkpt>
      <trkpt lat="43.31655" lon="-1.59093">
        <ele>131.37</ele>
        <time>2025-03-03T23:27:01Z</time>
      </trkpt>
      <trkpt lat="43.31644" lon="-1.59098">
        <ele>131.74</ele>
        <time>2025-03-03T23:27:02Z</time>
      </trkpt>
      <trkpt lat="43.31611" lon="-1.59107">
        <ele>133.63</ele>
        <time>2025-03-03T23:27:04Z</time>
      </trkpt>
      <trkpt lat="43.31603" lon="-1.59114">
        <ele>134.53</ele>
        <time>2025-03-03T23:27:05Z</time>
      </trkpt>
      <trkpt lat="43.31598" lon="-1.59124">
        <ele>134.77</ele>
        <time>2025-03-03T23:27:06Z</time>
      </trkpt>
      <trkpt lat="43.31593" lon="-1.59156">
        <ele>134.44</ele>
        <time>2025-03-03T23:27:08Z</time>
      </trkpt>
      <trkpt lat="43.31587" lon="-1.59177">
        <ele>135.79</ele>
        <time>2025-03-03T23:27:09Z</time>
      </trkpt>
      <trkpt lat="43.3156" lon="-1.59242">
        <ele>138.1</ele>
        <time>2025-03-03T23:27:10Z</time>
      </trkpt>
      <trkpt lat="43.31543" lon="-1.59295">
        <ele>145.24</ele>
        <time>2025-03-03T23:27:11Z</time>
      </trkpt>
      <trkpt lat="43.31513" lon="-1.59339">
        <ele>156.9</ele>
        <time>2025-03-03T23:27:13Z</time>
      </trkpt>
      <trkpt lat="43.31515" lon="-1.59348">
        <ele>156.83</ele>
        <time>2025-03-03T23:27:14Z</time>
      </trkpt>
      <trkpt lat="43.31517" lon="-1.59351">
        <ele>156.47</ele>
        <time>2025-03-03T23:27:15Z</time>
      </trkpt>
      <trkpt lat="43.3153" lon="-1.59359">
        <ele>154.3</ele>
        <time>2025-03-03T23:27:17Z</time>
      </trkpt>
      <trkpt lat="43.31538" lon="-1.59366">
        <ele>153.21</ele>
        <time>2025-03-03T23:27:18Z</time>
      </trkpt>
      <trkpt lat="43.31545" lon="-1.5938">
        <ele>153.46</ele>
        <time>2025-03-03T23:27:19Z</time>
      </trkpt>
      <trkpt lat="43.3155" lon="-1.59401">
        <ele>155.08</ele>
        <time>2025-03-03T23:27:21Z</time>
      </trkpt>
      <trkpt lat="43.31555" lon="-1.59407">
        <ele>154.81</ele>
        <time>2025-03-03T23:27:22Z</time>
      </trkpt>
      <trkpt lat="43.31562" lon="-1.59411">
        <ele>153.65</ele>
        <time>2025-03-03T23:27:23Z</time>
      </trkpt>
      <trkpt lat="43.31588" lon="-1.59417">
        <ele>148.55</ele>
        <time>2025-03-03T23:27:25Z</time>
      </trkpt>
      <trkpt lat="43.31595" lon="-1.59422">
        <ele>148.84</ele>
        <time>2025-03-03T23:27:26Z</time>
      </trkpt>
      <trkpt lat="43.31601" lon="-1.59427">
        <ele>149.42</ele>
        <time>2025-03-03T23:27:27Z</time>
      </trkpt>
      <trkpt lat="43.31622" lon="-1.59469">
        <ele>157.93</ele>
        <time>2025-03-03T23:27:28Z</time>
      </trkpt>
      <trkpt lat="43.31631" lon="-1.59475">
        <ele>158.23</ele>
        <time>2025-03-03T23:27:30Z</time>
      </trkpt>
      <trkpt lat="43.31652" lon="-1.59481">
        <ele>156.11</ele>
        <time>2025-03-03T23:27:31Z</time>
      </trkpt>
      <trkpt lat="43.31659" lon="-1.59487">
        <ele>155.88</ele>
        <time>2025-03-03T23:27:32Z</time>
      </trkpt>
      <trkpt lat="43.31683" lon="-1.59514">
        <ele>156.11</ele>
        <time>2025-03-03T23:27:34Z</time>
      </trkpt>
      <trkpt lat="43.31705" lon="-1.59529">
        <ele>154.3</ele>
        <time>2025-03-03T23:27:35Z</time>
      </trkpt>
      <trkpt lat="43.31724" lon="-1.59555">
        <ele>154.56</ele>
        <time>2025-03-03T23:27:36Z</time>
      </trkpt>
      <trkpt lat="43.31732" lon="-1.59569">
        <ele>155.04</ele>
        <time>2025-03-03T23:27:38Z</time>
      </trkpt>
      <trkpt lat="43.31738" lon="-1.59581">
        <ele>155.79</ele>
        <time>2025-03-03T23:27:39Z</time>
      </trkpt>
      <trkpt lat="43.3174" lon="-1.59594">
        <ele>156.17</ele>
        <time>2025-03-03T23:27:40Z</time>
      </trkpt>
      <trkpt lat="43.3174" lon="-1.59608">
        <ele>157.1</ele>
        <time>2025-03-03T23:27:41Z</time>
      </trkpt>
      <trkpt lat="43.31738" lon="-1.59623">
        <ele>158.42</ele>
        <time>2025-03-03T23:27:43Z</time>
      </trkpt>
      <trkpt lat="43.31724" lon="-1.59657">
        <ele>165.61</ele>
        <time>2025-03-03T23:27:44Z</time>
      </trkpt>
      <trkpt lat="43.31724" lon="-1.59667">
        <ele>166.61</ele>
        <time>2025-03-03T23:27:45Z</time>
      </trkpt>
      <trkpt lat="43.31725" lon="-1.59674">
        <ele>166.91</ele>
        <time>2025-03-03T23:27:47Z</time>
      </trkpt>
      <trkpt lat="43.31738" lon="-1.59683">
        <ele>163.8</ele>
        <time>2025-03-03T23:27:48Z</time>
      </trkpt>
      <trkpt lat="43.31744" lon="-1.59691">
        <ele>162.54</ele>
        <time>2025-03-03T23:27:49Z</time>
      </trkpt>
      <trkpt lat="43.31758" lon="-1.59718">
        <ele>167.07</ele>
        <time>2025-03-03T23:27:51Z</time>
      </trkpt>
      <trkpt lat="43.31764" lon="-1.59721">
        <ele>166.83</ele>
        <time>2025-03-03T23:27:52Z</time>
      </trkpt>
      <trkpt lat="43.31782" lon="-1.59721">
        <ele>163.35</ele>
        <time>2025-03-03T23:27:53Z</time>
      </trkpt>
      <trkpt lat="43.31794" lon="-1.59725">
        <ele>162.82</ele>
        <time>2025-03-03T23:27:55Z</time>
      </trkpt>
      <trkpt lat="43.31813" lon="-1.59751">
        <ele>164.33</ele>
        <time>2025-03-03T23:27:56Z</time>
      </trkpt>
      <trkpt lat="43.31826" lon="-1.59763">
        <ele>165.52</ele>
        <time>2025-03-03T23:27:57Z</time>
      </trkpt>
      <trkpt lat="43.31865" lon="-1.59784">
        <ele>165.38</ele>
        <time>2025-03-03T23:27:58Z</time>
      </trkpt>
      <trkpt lat="43.31871" lon="-1.59791">
        <ele>166.67</ele>
        <time>2025-03-03T23:28:00Z</time>
      </trkpt>
      <trkpt lat="43.3188" lon="-1.59813">
        <ele>170.53</ele>
        <time>2025-03-03T23:28:01Z</time>
      </trkpt>
      <trkpt lat="43.31884" lon="-1.59819">
        <ele>171.26</ele>
        <time>2025-03-03T23:28:02Z</time>
      </trkpt>
      <trkpt lat="43.31893" lon="-1.59823">
        <ele>171.43</ele>
        <time>2025-03-03T23:28:04Z</time>
      </trkpt>
      <trkpt lat="43.3192" lon="-1.59822">
        <ele>168.8</ele>
        <time>2025-03-03T23:28:05Z</time>
      </trkpt>
      <trkpt lat="43.31933" lon="-1.59829">
        <ele>168.05</ele>
        <time>2025-03-03T23:28:06Z</time>
      </trkpt>
      <trkpt lat="43.31958" lon="-1.5985">
        <ele>170.79</ele>
        <time>2025-03-03T23:28:08Z</time>
      </trkpt>
      <trkpt lat="43.31971" lon="-1.59856">
        <ele>172.57</ele>
        <time>2025-03-03T23:28:09Z</time>
      </trkpt>
      <trkpt lat="43.31976" lon="-1.59855">
        <ele>173.13</ele>
        <time>2025-03-03T23:28:10Z</time>
      </trkpt>
      <trkpt lat="43.32001" lon="-1.59835">
        <ele>172.48</ele>
        <time>2025-03-03T23:28:11Z</time>
      </trkpt>
      <trkpt lat="43.32021" lon="-1.59824">
        <ele>174.46</ele>
        <time>2025-03-03T23:28:13Z</time>
      </trkpt>
      <trkpt lat="43.32027" lon="-1.59816">
        <ele>174.09</ele>
        <time>2025-03-03T23:28:14Z</time>
      </trkpt>
      <trkpt lat="43.32043" lon="-1.59788">
        <ele>171.93</ele>
        <time>2025-03-03T23:28:15Z</time>
      </trkpt>
      <trkpt lat="43.32053" lon="-1.59779">
        <ele>172.39</ele>
        <time>2025-03-03T23:28:17Z</time>
      </trkpt>
      <trkpt lat="43.32061" lon="-1.5978">
        <ele>173.66</ele>
        <time>2025-03-03T23:28:18Z</time>
      </trkpt>
      <trkpt lat="43.32103" lon="-1.59803">
        <ele>177.88</ele>
        <time>2025-03-03T23:28:19Z</time>
      </trkpt>
      <trkpt lat="43.32139" lon="-1.59812">
        <ele>177.38</ele>
        <time>2025-03-03T23:28:21Z</time>
      </trkpt>
      <trkpt lat="43.32155" lon="-1.5982">
        <ele>176.99</ele>
        <time>2025-03-03T23:28:22Z</time>
      </trkpt>
      <trkpt lat="43.32172" lon="-1.59841">
        <ele>176.9</ele>
        <time>2025-03-03T23:28:23Z</time>
      </trkpt>
      <trkpt lat="43.32184" lon="-1.59866">
        <ele>176.34</ele>
        <time>2025-03-03T23:28:25Z</time>
      </trkpt>
      <trkpt lat="43.32187" lon="-1.59887">
        <ele>176.22</ele>
        <time>2025-03-03T23:28:26Z</time>
      </trkpt>
      <trkpt lat="43.3219" lon="-1.59928">
        <ele>178.76</ele>
        <time>2025-03-03T23:28:27Z</time>
      </trkpt>
      <trkpt lat="43.32189" lon="-1.59943">
        <ele>181.31</ele>
        <time>2025-03-03T23:28:28Z</time>
      </trkpt>
      <trkpt lat="43.32183" lon="-1.59968">
        <ele>187.37</ele>
        <time>2025-03-03T23:28:30Z</time>
      </trkpt>
      <trkpt lat="43.32182" lon="-1.5998">
        <ele>189.85</ele>
        <time>2025-03-03T23:28:31Z</time>
      </trkpt>
      <trkpt lat="43.32183" lon="-1.59985">
        <ele>190.65</ele>
        <time>2025-03-03T23:28:32Z</time>
      </trkpt>
      <trkpt lat="43.32188" lon="-1.5999">
        <ele>191.22</ele>
        <time>2025-03-03T23:28:34Z</time>
      </trkpt>
      <trkpt lat="43.32192" lon="-1.59992">
        <ele>191.52</ele>
        <time>2025-03-03T23:28:35Z</time>
      </trkpt>
      <trkpt lat="43.32203" lon="-1.5999">
        <ele>190.53</ele>
        <time>2025-03-03T23:28:36Z</time>
      </trkpt>
      <trkpt lat="43.32231" lon="-1.59953">
        <ele>181.35</ele>
        <time>2025-03-03T23:28:38Z</time>
      </trkpt>
      <trkpt lat="43.32243" lon="-1.59946">
        <ele>179.48</ele>
        <time>2025-03-03T23:28:39Z</time>
      </trkpt>
      <trkpt lat="43.32253" lon="-1.59949">
        <ele>179.61</ele>
        <time>2025-03-03T23:28:40Z</time>
      </trkpt>
      <trkpt lat="43.32266" lon="-1.59959">
        <ele>180.6</ele>
        <time>2025-03-03T23:28:42Z</time>
      </trkpt>
      <trkpt lat="43.32287" lon="-1.59983">
        <ele>185.93</ele>
        <time>2025-03-03T23:28:43Z</time>
      </trkpt>
      <trkpt lat="43.32307" lon="-1.59998">
        <ele>187.98</ele>
        <time>2025-03-03T23:28:44Z</time>
      </trkpt>
      <trkpt lat="43.3233" lon="-1.60011">
        <ele>184.76</ele>
        <time>2025-03-03T23:28:45Z</time>
      </trkpt>
      <trkpt lat="43.32368" lon="-1.60026">
        <ele>177.92</ele>
        <time>2025-03-03T23:28:47Z</time>
      </trkpt>
      <trkpt lat="43.32378" lon="-1.60034">
        <ele>176.59</ele>
        <time>2025-03-03T23:28:48Z</time>
      </trkpt>
      <trkpt lat="43.32389" lon="-1.60045">
        <ele>175.47</ele>
        <time>2025-03-03T23:28:49Z</time>
      </trkpt>
      <trkpt lat="43.32425" lon="-1.60098">
        <ele>176.35</ele>
        <time>2025-03-03T23:28:51Z</time>
      </trkpt>
      <trkpt lat="43.32431" lon="-1.60102">
        <ele>176.16</ele>
        <time>2025-03-03T23:28:52Z</time>
      </trkpt>
      <trkpt lat="43.32439" lon="-1.60104">
        <ele>175.02</ele>
        <time>2025-03-03T23:28:53Z</time>
      </trkpt>
      <trkpt lat="43.32447" lon="-1.60099">
        <ele>173.1</ele>
        <time>2025-03-03T23:28:55Z</time>
      </trkpt>
      <trkpt lat="43.32491" lon="-1.6006">
        <ele>170.89</ele>
        <time>2025-03-03T23:28:56Z</time>
      </trkpt>
      <trkpt lat="43.32499" lon="-1.60055">
        <ele>171.03</ele>
        <time>2025-03-03T23:28:57Z</time>
      </trkpt>
      <trkpt lat="43.32508" lon="-1.60053">
        <ele>171.21</ele>
        <time>2025-03-03T23:28:58Z</time>
      </trkpt>
      <trkpt lat="43.32518" lon="-1.60054">
        <ele>171.15</ele>
        <time>2025-03-03T23:29:00Z</time>
      </trkpt>
      <trkpt lat="43.32538" lon="-1.60067">
        <ele>170.05</ele>
        <time>2025-03-03T23:29:01Z</time>
      </trkpt>
      <trkpt lat="43.32538" lon="-1.60067">
        <ele>170.05</ele>
        <time>2025-03-03T23:29:01Z</time>
      </trkpt>
      <trkpt lat="43.32561" lon="-1.60086">
        <ele>169.3</ele>
        <time>2025-03-03T23:29:03Z</time>
      </trkpt>
      <trkpt lat="43.32579" lon="-1.60097">
        <ele>166.8</ele>
        <time>2025-03-03T23:29:05Z</time>
      </trkpt>
      <trkpt lat="43.32605" lon="-1.60106">
        <ele>165.96</ele>
        <time>2025-03-03T23:29:08Z</time>
      </trkpt>
      <trkpt lat="43.32685" lon="-1.60133">
        <ele>167.52</ele>
        <time>2025-03-03T23:29:10Z</time>
      </trkpt>
      <trkpt lat="43.32715" lon="-1.60151">
        <ele>167.68</ele>
        <time>2025-03-03T23:29:12Z</time>
      </trkpt>
      <trkpt lat="43.32751" lon="-1.60178">
        <ele>165.25</ele>
        <time>2025-03-03T23:29:14Z</time>
      </trkpt>
      <trkpt lat="43.32773" lon="-1.60187">
        <ele>163.21</ele>
        <time>2025-03-03T23:29:16Z</time>
      </trkpt>
      <trkpt lat="43.32793" lon="-1.60191">
        <ele>163.11</ele>
        <time>2025-03-03T23:29:19Z</time>
      </trkpt>
      <trkpt lat="43.329" lon="-1.60203">
        <ele>160.43</ele>
        <time>2025-03-03T23:29:21Z</time>
      </trkpt>
      <trkpt lat="43.32981" lon="-1.60215">
        <ele>159.2</ele>
        <time>2025-03-03T23:29:23Z</time>
      </trkpt>
      <trkpt lat="43.33019" lon="-1.60227">
        <ele>157.21</ele>
        <time>2025-03-03T23:29:25Z</time>
      </trkpt>
      <trkpt lat="43.33095" lon="-1.60262">
        <ele>152.81</ele>
        <time>2025-03-03T23:29:27Z</time>
      </trkpt>
      <trkpt lat="43.3311" lon="-1.60273">
        <ele>151.65</ele>
        <time>2025-03-03T23:29:30Z</time>
      </trkpt>
      <trkpt lat="43.33132" lon="-1.60297">
        <ele>151.68</ele>
        <time>2025-03-03T23:29:32Z</time>
      </trkpt>
      <trkpt lat="43.33143" lon="-1.60315">
        <ele>151.99</ele>
        <time>2025-03-03T23:29:34Z</time>
      </trkpt>
      <trkpt lat="43.33157" lon="-1.60359">
        <ele>149.15</ele>
        <time>2025-03-03T23:29:36Z</time>
      </trkpt>
      <trkpt lat="43.33175" lon="-1.60406">
        <ele>145.5</ele>
        <time>2025-03-03T23:29:38Z</time>
      </trkpt>
      <trkpt lat="43.33178" lon="-1.60435">
        <ele>141.4</ele>
        <time>2025-03-03T23:29:41Z</time>
      </trkpt>
      <trkpt lat="43.33185" lon="-1.60465">
        <ele>139.4</ele>
        <time>2025-03-03T23:29:43Z</time>
      </trkpt>
      <trkpt lat="43.33199" lon="-1.60487">
        <ele>140.39</ele>
        <time>2025-03-03T23:29:45Z</time>
      </trkpt>
      <trkpt lat="43.33213" lon="-1.60497">
        <ele>142.34</ele>
        <time>2025-03-03T23:29:47Z</time>
      </trkpt>
      <trkpt lat="43.33235" lon="-1.60503">
        <ele>146.35</ele>
        <time>2025-03-03T23:29:49Z</time>
      </trkpt>
      <trkpt lat="43.33244" lon="-1.60512">
        <ele>147.4</ele>
        <time>2025-03-03T23:29:52Z</time>
      </trkpt>
      <trkpt lat="43.33248" lon="-1.60523">
        <ele>146.97</ele>
        <time>2025-03-03T23:29:54Z</time>
      </trkpt>
      <trkpt lat="43.33244" lon="-1.60569">
        <ele>140.43</ele>
        <time>2025-03-03T23:29:56Z</time>
      </trkpt>
      <trkpt lat="43.33249" lon="-1.606">
        <ele>136.82</ele>
        <time>2025-03-03T23:29:58Z</time>
      </trkpt>
      <trkpt lat="43.33268" lon="-1.6065">
        <ele>132.48</ele>
        <time>2025-03-03T23:30:00Z</time>
      </trkpt>
      <trkpt lat="43.33317" lon="-1.60728">
        <ele>126.68</ele>
        <time>2025-03-03T23:30:03Z</time>
      </trkpt>
      <trkpt lat="43.33332" lon="-1.60734">
        <ele>128.84</ele>
        <time>2025-03-03T23:30:05Z</time>
      </trkpt>
      <trkpt lat="43.33344" lon="-1.60745">
        <ele>130.64</ele>
        <time>2025-03-03T23:30:07Z</time>
      </trkpt>
      <trkpt lat="43.33354" lon="-1.60767">
        <ele>129.83</ele>
        <time>2025-03-03T23:30:09Z</time>
      </trkpt>
      <trkpt lat="43.33354" lon="-1.60787">
        <ele>126.75</ele>
        <time>2025-03-03T23:30:11Z</time>
      </trkpt>
      <trkpt lat="43.3336" lon="-1.60812">
        <ele>123.55</ele>
        <time>2025-03-03T23:30:14Z</time>
      </trkpt>
      <trkpt lat="43.33374" lon="-1.60836">
        <ele>120.95</ele>
        <time>2025-03-03T23:30:16Z</time>
      </trkpt>
      <trkpt lat="43.3339" lon="-1.60851">
        <ele>119.96</ele>
        <time>2025-03-03T23:30:18Z</time>
      </trkpt>
      <trkpt lat="43.33402" lon="-1.60853">
        <ele>121.07</ele>
        <time>2025-03-03T23:30:20Z</time>
      </trkpt>
      <trkpt lat="43.33424" lon="-1.60844">
        <ele>125.88</ele>
        <time>2025-03-03T23:30:22Z</time>
      </trkpt>
      <trkpt lat="43.33434" lon="-1.60846">
        <ele>127.13</ele>
        <time>2025-03-03T23:30:25Z</time>
      </trkpt>
      <trkpt lat="43.33442" lon="-1.60858">
        <ele>126.14</ele>
        <time>2025-03-03T23:30:27Z</time>
      </trkpt>
      <trkpt lat="43.33443" lon="-1.60875">
        <ele>123.61</ele>
        <time>2025-03-03T23:30:29Z</time>
      </trkpt>
      <trkpt lat="43.33434" lon="-1.60917">
        <ele>115.06</ele>
        <time>2025-03-03T23:30:31Z</time>
      </trkpt>
      <trkpt lat="43.33435" lon="-1.60941">
        <ele>112.75</ele>
        <time>2025-03-03T23:30:33Z</time>
      </trkpt>
      <trkpt lat="43.33442" lon="-1.60955">
        <ele>112.65</ele>
        <time>2025-03-03T23:30:36Z</time>
      </trkpt>
      <trkpt lat="43.33458" lon="-1.60972">
        <ele>118.15</ele>
        <time>2025-03-03T23:30:38Z</time>
      </trkpt>
      <trkpt lat="43.33462" lon="-1.60988">
        <ele>118.87</ele>
        <time>2025-03-03T23:30:40Z</time>
      </trkpt>
      <trkpt lat="43.33459" lon="-1.61001">
        <ele>116.69</ele>
        <time>2025-03-03T23:30:42Z</time>
      </trkpt>
      <trkpt lat="43.3344" lon="-1.61015">
        <ele>109.11</ele>
        <time>2025-03-03T23:30:44Z</time>
      </trkpt>
      <trkpt lat="43.3343" lon="-1.61044">
        <ele>106.83</ele>
        <time>2025-03-03T23:30:47Z</time>
      </trkpt>
      <trkpt lat="43.3343" lon="-1.61078">
        <ele>107.58</ele>
        <time>2025-03-03T23:30:49Z</time>
      </trkpt>
      <trkpt lat="43.33424" lon="-1.61102">
        <ele>103.28</ele>
        <time>2025-03-03T23:30:51Z</time>
      </trkpt>
      <trkpt lat="43.33421" lon="-1.61124">
        <ele>100.33</ele>
        <time>2025-03-03T23:30:53Z</time>
      </trkpt>
      <trkpt lat="43.33423" lon="-1.6117">
        <ele>97.44</ele>
        <time>2025-03-03T23:30:55Z</time>
      </trkpt>
      <trkpt lat="43.33432" lon="-1.612">
        <ele>95.06</ele>
        <time>2025-03-03T23:30:57Z</time>
      </trkpt>
      <trkpt lat="43.33441" lon="-1.61214">
        <ele>94.23</ele>
        <time>2025-03-03T23:31:00Z</time>
      </trkpt>
      <trkpt lat="43.33448" lon="-1.61219">
        <ele>95.05</ele>
        <time>2025-03-03T23:31:02Z</time>
      </trkpt>
      <trkpt lat="43.33458" lon="-1.61218">
        <ele>98.28</ele>
        <time>2025-03-03T23:31:04Z</time>
      </trkpt>
      <trkpt lat="43.33472" lon="-1.61222">
        <ele>100.76</ele>
        <time>2025-03-03T23:31:06Z</time>
      </trkpt>
      <trkpt lat="43.3348" lon="-1.61233">
        <ele>100.71</ele>
        <time>2025-03-03T23:31:08Z</time>
      </trkpt>
      <trkpt lat="43.33502" lon="-1.6128">
        <ele>93.88</ele>
        <time>2025-03-03T23:31:11Z</time>
      </trkpt>
      <trkpt lat="43.33531" lon="-1.61302">
        <ele>94.75</ele>
        <time>2025-03-03T23:31:13Z</time>
      </trkpt>
      <trkpt lat="43.33539" lon="-1.61318">
        <ele>93.37</ele>
        <time>2025-03-03T23:31:15Z</time>
      </trkpt>
      <trkpt lat="43.33539" lon="-1.61368">
        <ele>85.51</ele>
        <time>2025-03-03T23:31:17Z</time>
      </trkpt>
      <trkpt lat="43.33546" lon="-1.61386">
        <ele>83.88</ele>
        <time>2025-03-03T23:31:19Z</time>
      </trkpt>
      <trkpt lat="43.33567" lon="-1.61407">
        <ele>85.97</ele>
        <time>2025-03-03T23:31:22Z</time>
      </trkpt>
      <trkpt lat="43.33576" lon="-1.61419">
        <ele>85.6</ele>
        <time>2025-03-03T23:31:24Z</time>
      </trkpt>
      <trkpt lat="43.33591" lon="-1.6145">
        <ele>81.46</ele>
        <time>2025-03-03T23:31:26Z</time>
      </trkpt>
      <trkpt lat="43.33603" lon="-1.61468">
        <ele>78.96</ele>
        <time>2025-03-03T23:31:28Z</time>
      </trkpt>
      <trkpt lat="43.33616" lon="-1.61479">
        <ele>78.26</ele>
        <time>2025-03-03T23:31:30Z</time>
      </trkpt>
      <trkpt lat="43.33654" lon="-1.61499">
        <ele>80.08</ele>
        <time>2025-03-03T23:31:33Z</time>
      </trkpt>
      <trkpt lat="43.33696" lon="-1.61543">
        <ele>75.36</ele>
        <time>2025-03-03T23:31:35Z</time>
      </trkpt>
      <trkpt lat="43.33789" lon="-1.61574">
        <ele>61.85</ele>
        <time>2025-03-03T23:31:37Z</time>
      </trkpt>
      <trkpt lat="43.33807" lon="-1.61573">
        <ele>60.56</ele>
        <time>2025-03-03T23:31:39Z</time>
      </trkpt>
      <trkpt lat="43.33835" lon="-1.61566">
        <ele>59.74</ele>
        <time>2025-03-03T23:31:41Z</time>
      </trkpt>
      <trkpt lat="43.33868" lon="-1.6157">
        <ele>59.61</ele>
        <time>2025-03-03T23:31:44Z</time>
      </trkpt>
      <trkpt lat="43.33893" lon="-1.61562">
        <ele>61.52</ele>
        <time>2025-03-03T23:31:46Z</time>
      </trkpt>
      <trkpt lat="43.33921" lon="-1.61563">
        <ele>55.14</ele>
        <time>2025-03-03T23:31:48Z</time>
      </trkpt>
      <trkpt lat="43.33942" lon="-1.61558">
        <ele>52.71</ele>
        <time>2025-03-03T23:31:50Z</time>
      </trkpt>
      <trkpt lat="43.33963" lon="-1.61556">
        <ele>56.08</ele>
        <time>2025-03-03T23:31:52Z</time>
      </trkpt>
      <trkpt lat="43.34009" lon="-1.61565">
        <ele>56.52</ele>
        <time>2025-03-03T23:31:55Z</time>
      </trkpt>
      <trkpt lat="43.34025" lon="-1.61571">
        <ele>56.24</ele>
        <time>2025-03-03T23:31:57Z</time>
      </trkpt>
      <trkpt lat="43.34061" lon="-1.61609">
        <ele>48.63</ele>
        <time>2025-03-03T23:31:59Z</time>
      </trkpt>
      <trkpt lat="43.34078" lon="-1.61621">
        <ele>46.08</ele>
        <time>2025-03-03T23:32:01Z</time>
      </trkpt>
      <trkpt lat="43.34092" lon="-1.61623">
        <ele>45.31</ele>
        <time>2025-03-03T23:32:03Z</time>
      </trkpt>
      <trkpt lat="43.34147" lon="-1.61609">
        <ele>43.12</ele>
        <time>2025-03-03T23:32:06Z</time>
      </trkpt>
      <trkpt lat="43.34346" lon="-1.61629">
        <ele>29.56</ele>
        <time>2025-03-03T23:32:08Z</time>
      </trkpt>
      <trkpt lat="43.34356" lon="-1.61637">
        <ele>29.09</ele>
        <time>2025-03-03T23:32:10Z</time>
      </trkpt>
      <trkpt lat="43.34365" lon="-1.61649">
        <ele>28.51</ele>
        <time>2025-03-03T23:32:12Z</time>
      </trkpt>
      <trkpt lat="43.34378" lon="-1.61688">
        <ele>26.48</ele>
        <time>2025-03-03T23:32:14Z</time>
      </trkpt>
      <trkpt lat="43.3438" lon="-1.61719">
        <ele>23.97</ele>
        <time>2025-03-03T23:32:17Z</time>
      </trkpt>
      <trkpt lat="43.34381" lon="-1.61879">
        <ele>23.23</ele>
        <time>2025-03-03T23:32:19Z</time>
      </trkpt>
      <trkpt lat="43.34381" lon="-1.61901">
        <ele>24.95</ele>
        <time>2025-03-03T23:32:21Z</time>
      </trkpt>
      <trkpt lat="43.34385" lon="-1.61931">
        <ele>26.48</ele>
        <time>2025-03-03T23:32:23Z</time>
      </trkpt>
      <trkpt lat="43.3447" lon="-1.61922">
        <ele>17.61</ele>
        <time>2025-03-03T23:33:32Z</time>
      </trkpt>
      <trkpt lat="43.34483" lon="-1.61924">
        <ele>17.02</ele>
        <time>2025-03-03T23:34:41Z</time>
      </trkpt>
      <trkpt lat="43.34502" lon="-1.6193">
        <ele>16.5</ele>
        <time>2025-03-03T23:35:50Z</time>
      </trkpt>
      <trkpt lat="43.34571" lon="-1.6196">
        <ele>16.18</ele>
        <time>2025-03-03T23:36:59Z</time>
      </trkpt>
      <trkpt lat="43.34574" lon="-1.61963">
        <ele>16.11</ele>
        <time>2025-03-03T23:38:08Z</time>
      </trkpt>
      <trkpt lat="43.34582" lon="-1.61916">
        <ele>15.07</ele>
        <time>2025-03-03T23:38:16Z</time>
      </trkpt>
      <trkpt lat="43.34595" lon="-1.61817">
        <ele>12.58</ele>
        <time>2025-03-03T23:38:24Z</time>
      </trkpt>
      <trkpt lat="43.34597" lon="-1.61804">
        <ele>12.45</ele>
        <time>2025-03-03T23:38:32Z</time>
      </trkpt>
      <trkpt lat="43.34613" lon="-1.61725">
        <ele>13.84</ele>
        <time>2025-03-03T23:38:40Z</time>
      </trkpt>
      <trkpt lat="43.34613" lon="-1.61702">
        <ele>16.2</ele>
        <time>2025-03-03T23:38:48Z</time>
      </trkpt>
      <trkpt lat="43.3461" lon="-1.61685">
        <ele>18.02</ele>
        <time>2025-03-03T23:38:56Z</time>
      </trkpt>
      <trkpt lat="43.34629" lon="-1.61681">
        <ele>18.5</ele>
        <time>2025-03-03T23:39:01Z</time>
      </trkpt>
      <trkpt lat="43.34655" lon="-1.61691">
        <ele>17.43</ele>
        <time>2025-03-03T23:39:06Z</time>
      </trkpt>
      <trkpt lat="43.34667" lon="-1.61705">
        <ele>15.89</ele>
        <time>2025-03-03T23:39:11Z</time>
      </trkpt>
      <trkpt lat="43.34692" lon="-1.61751">
        <ele>14.78</ele>
        <time>2025-03-03T23:39:16Z</time>
      </trkpt>
      <trkpt lat="43.34706" lon="-1.61766">
        <ele>16.25</ele>
        <time>2025-03-03T23:39:21Z</time>
      </trkpt>
      <trkpt lat="43.34747" lon="-1.61792">
        <ele>20.03</ele>
        <time>2025-03-03T23:39:26Z</time>
      </trkpt>
      <trkpt lat="43.34757" lon="-1.61796">
        <ele>21.28</ele>
        <time>2025-03-03T23:39:31Z</time>
      </trkpt>
      <trkpt lat="43.34776" lon="-1.61797">
        <ele>24.36</ele>
        <time>2025-03-03T23:39:36Z</time>
      </trkpt>
      <trkpt lat="43.34796" lon="-1.61778">
        <ele>28.67</ele>
        <time>2025-03-03T23:39:41Z</time>
      </trkpt>
      <trkpt lat="43.34849" lon="-1.61779">
        <ele>33.01</ele>
        <time>2025-03-03T23:39:46Z</time>
      </trkpt>
      <trkpt lat="43.34859" lon="-1.61772">
        <ele>32.98</ele>
        <time>2025-03-03T23:39:51Z</time>
      </trkpt>
      <trkpt lat="43.34868" lon="-1.61758">
        <ele>33.24</ele>
        <time>2025-03-03T23:39:56Z</time>
      </trkpt>
      <trkpt lat="43.34882" lon="-1.61684">
        <ele>35.65</ele>
        <time>2025-03-03T23:40:01Z</time>
      </trkpt>
      <trkpt lat="43.34883" lon="-1.61665">
        <ele>36.35</ele>
        <time>2025-03-03T23:40:06Z</time>
      </trkpt>
      <trkpt lat="43.34869" lon="-1.61579">
        <ele>36.06</ele>
        <time>2025-03-03T23:40:11Z</time>
      </trkpt>
      <trkpt lat="43.34869" lon="-1.61565">
        <ele>35.41</ele>
        <time>2025-03-03T23:40:17Z</time>
      </trkpt>
      <trkpt lat="43.34877" lon="-1.61534">
        <ele>33.91</ele>
        <time>2025-03-03T23:40:22Z</time>
      </trkpt>
      <trkpt lat="43.34892" lon="-1.61529">
        <ele>34.17</ele>
        <time>2025-03-03T23:40:25Z</time>
      </trkpt>
      <trkpt lat="43.34915" lon="-1.61527">
        <ele>34.84</ele>
        <time>2025-03-03T23:40:29Z</time>
      </trkpt>
      <trkpt lat="43.34972" lon="-1.61557">
        <ele>33.08</ele>
        <time>2025-03-03T23:40:33Z</time>
      </trkpt>
      <trkpt lat="43.3501" lon="-1.61568">
        <ele>27.43</ele>
        <time>2025-03-03T23:40:37Z</time>
      </trkpt>
      <trkpt lat="43.3502" lon="-1.61567">
        <ele>25.81</ele>
        <time>2025-03-03T23:40:42Z</time>
      </trkpt>
      <trkpt lat="43.3503" lon="-1.61562">
        <ele>24.56</ele>
        <time>2025-03-03T23:40:46Z</time>
      </trkpt>
      <trkpt lat="43.35048" lon="-1.61542">
        <ele>24.01</ele>
        <time>2025-03-03T23:40:51Z</time>
      </trkpt>
      <trkpt lat="43.35086" lon="-1.6149">
        <ele>20.96</ele>
        <time>2025-03-03T23:40:55Z</time>
      </trkpt>
      <trkpt lat="43.35088" lon="-1.61482">
        <ele>20.2</ele>
        <time>2025-03-03T23:41:00Z</time>
      </trkpt>
      <trkpt lat="43.35089" lon="-1.61458">
        <ele>18.52</ele>
        <time>2025-03-03T23:41:04Z</time>
      </trkpt>
      <trkpt lat="43.35092" lon="-1.61439">
        <ele>17.21</ele>
        <time>2025-03-03T23:41:08Z</time>
      </trkpt>
      <trkpt lat="43.35107" lon="-1.61362">
        <ele>20.04</ele>
        <time>2025-03-03T23:41:13Z</time>
      </trkpt>
      <trkpt lat="43.35119" lon="-1.6133">
        <ele>22.9</ele>
        <time>2025-03-03T23:41:17Z</time>
      </trkpt>
      <trkpt lat="43.35182" lon="-1.61245">
        <ele>27.26</ele>
        <time>2025-03-03T23:41:22Z</time>
      </trkpt>
      <trkpt lat="43.35221" lon="-1.61155">
        <ele>30.99</ele>
        <time>2025-03-03T23:41:26Z</time>
      </trkpt>
      <trkpt lat="43.3529" lon="-1.61091">
        <ele>39.85</ele>
        <time>2025-03-03T23:41:30Z</time>
      </trkpt>
      <trkpt lat="43.35328" lon="-1.61062">
        <ele>39.38</ele>
        <time>2025-03-03T23:41:35Z</time>
      </trkpt>
      <trkpt lat="43.35332" lon="-1.6105">
        <ele>39.88</ele>
        <time>2025-03-03T23:41:39Z</time>
      </trkpt>
      <trkpt lat="43.3537" lon="-1.61016">
        <ele>38.83</ele>
        <time>2025-03-03T23:41:44Z</time>
      </trkpt>
      <trkpt lat="43.35386" lon="-1.61009">
        <ele>37.64</ele>
        <time>2025-03-03T23:41:48Z</time>
      </trkpt>
      <trkpt lat="43.354" lon="-1.61012">
        <ele>36.93</ele>
        <time>2025-03-03T23:41:53Z</time>
      </trkpt>
      <trkpt lat="43.35471" lon="-1.61054">
        <ele>35.06</ele>
        <time>2025-03-03T23:41:57Z</time>
      </trkpt>
      <trkpt lat="43.35493" lon="-1.61071">
        <ele>35</ele>
        <time>2025-03-03T23:42:01Z</time>
      </trkpt>
      <trkpt lat="43.35505" lon="-1.61073">
        <ele>34.83</ele>
        <time>2025-03-03T23:42:06Z</time>
      </trkpt>
      <trkpt lat="43.3554" lon="-1.61066">
        <ele>34</ele>
        <time>2025-03-03T23:42:10Z</time>
      </trkpt>
      <trkpt lat="43.35548" lon="-1.61068">
        <ele>34</ele>
        <time>2025-03-03T23:42:15Z</time>
      </trkpt>
      <trkpt lat="43.3556" lon="-1.61077">
        <ele>33.83</ele>
        <time>2025-03-03T23:42:19Z</time>
      </trkpt>
      <trkpt lat="43.35568" lon="-1.61079">
        <ele>33.55</ele>
        <time>2025-03-03T23:42:23Z</time>
      </trkpt>
      <trkpt lat="43.35575" lon="-1.61071">
        <ele>33.28</ele>
        <time>2025-03-03T23:42:28Z</time>
      </trkpt>
      <trkpt lat="43.35581" lon="-1.61055">
        <ele>33.06</ele>
        <time>2025-03-03T23:42:33Z</time>
      </trkpt>
      <trkpt lat="43.35583" lon="-1.60935">
        <ele>30.65</ele>
        <time>2025-03-03T23:42:38Z</time>
      </trkpt>
      <trkpt lat="43.35585" lon="-1.6092">
        <ele>30</ele>
        <time>2025-03-03T23:42:43Z</time>
      </trkpt>
      <trkpt lat="43.35595" lon="-1.60901">
        <ele>28.06</ele>
        <time>2025-03-03T23:42:48Z</time>
      </trkpt>
      <trkpt lat="43.35606" lon="-1.60824">
        <ele>23.81</ele>
        <time>2025-03-03T23:42:53Z</time>
      </trkpt>
      <trkpt lat="43.35623" lon="-1.60759">
        <ele>21.53</ele>
        <time>2025-03-03T23:42:58Z</time>
      </trkpt>
      <trkpt lat="43.35621" lon="-1.60721">
        <ele>18.94</ele>
        <time>2025-03-03T23:43:02Z</time>
      </trkpt>
      <trkpt lat="43.3565" lon="-1.60636">
        <ele>14.34</ele>
        <time>2025-03-03T23:43:07Z</time>
      </trkpt>
      <trkpt lat="43.35663" lon="-1.60574">
        <ele>20.08</ele>
        <time>2025-03-03T23:43:12Z</time>
      </trkpt>
      <trkpt lat="43.357" lon="-1.60528">
        <ele>18.98</ele>
        <time>2025-03-03T23:43:17Z</time>
      </trkpt>
      <trkpt lat="43.35716" lon="-1.60513">
        <ele>19.31</ele>
        <time>2025-03-03T23:43:22Z</time>
      </trkpt>
      <trkpt lat="43.35736" lon="-1.60487">
        <ele>21.5</ele>
        <time>2025-03-03T23:43:27Z</time>
      </trkpt>
      <trkpt lat="43.35773" lon="-1.60432">
        <ele>22.39</ele>
        <time>2025-03-03T23:43:32Z</time>
      </trkpt>
      <trkpt lat="43.35829" lon="-1.60296">
        <ele>27.71</ele>
        <time>2025-03-03T23:43:36Z</time>
      </trkpt>
      <trkpt lat="43.35838" lon="-1.60257">
        <ele>26.75</ele>
        <time>2025-03-03T23:43:41Z</time>
      </trkpt>
      <trkpt lat="43.35843" lon="-1.60222">
        <ele>27.32</ele>
        <time>2025-03-03T23:43:46Z</time>
      </trkpt>
      <trkpt lat="43.35831" lon="-1.60093">
        <ele>21.89</ele>
        <time>2025-03-03T23:43:51Z</time>
      </trkpt>
      <trkpt lat="43.3584" lon="-1.6">
        <ele>16.77</ele>
        <time>2025-03-03T23:43:56Z</time>
      </trkpt>
      <trkpt lat="43.35885" lon="-1.5991">
        <ele>22.37</ele>
        <time>2025-03-03T23:44:01Z</time>
      </trkpt>
      <trkpt lat="43.35908" lon="-1.5988">
        <ele>21.82</ele>
        <time>2025-03-03T23:44:06Z</time>
      </trkpt>
      <trkpt lat="43.35939" lon="-1.59862">
        <ele>21.19</ele>
        <time>2025-03-03T23:44:11Z</time>
      </trkpt>
      <trkpt lat="43.35947" lon="-1.59849">
        <ele>20.75</ele>
        <time>2025-03-03T23:44:15Z</time>
      </trkpt>
      <trkpt lat="43.35976" lon="-1.59785">
        <ele>18.69</ele>
        <time>2025-03-03T23:44:20Z</time>
      </trkpt>
      <trkpt lat="43.3599" lon="-1.59768">
        <ele>19.35</ele>
        <time>2025-03-03T23:44:25Z</time>
      </trkpt>
      <trkpt lat="43.3604" lon="-1.59741">
        <ele>16.33</ele>
        <time>2025-03-03T23:44:30Z</time>
      </trkpt>
      <trkpt lat="43.36072" lon="-1.59709">
        <ele>14.52</ele>
        <time>2025-03-03T23:44:35Z</time>
      </trkpt>
      <trkpt lat="43.36089" lon="-1.59686">
        <ele>14.52</ele>
        <time>2025-03-03T23:44:40Z</time>
      </trkpt>
      <trkpt lat="43.36104" lon="-1.5965">
        <ele>15.24</ele>
        <time>2025-03-03T23:44:45Z</time>
      </trkpt>
      <trkpt lat="43.36106" lon="-1.5963">
        <ele>15.84</ele>
        <time>2025-03-03T23:44:49Z</time>
      </trkpt>
      <trkpt lat="43.36099" lon="-1.59568">
        <ele>19.48</ele>
        <time>2025-03-03T23:44:54Z</time>
      </trkpt>
      <trkpt lat="43.36175" lon="-1.59493">
        <ele>16.14</ele>
        <time>2025-03-03T23:45:03Z</time>
      </trkpt>
      <trkpt lat="43.36202" lon="-1.59479">
        <ele>13.58</ele>
        <time>2025-03-03T23:45:12Z</time>
      </trkpt>
      <trkpt lat="43.36223" lon="-1.59462">
        <ele>11.69</ele>
        <time>2025-03-03T23:45:21Z</time>
      </trkpt>
      <trkpt lat="43.36243" lon="-1.59437">
        <ele>12.25</ele>
        <time>2025-03-03T23:45:30Z</time>
      </trkpt>
      <trkpt lat="43.36396" lon="-1.59207">
        <ele>8.45</ele>
        <time>2025-03-03T23:45:39Z</time>
      </trkpt>
      <trkpt lat="43.36464" lon="-1.59075">
        <ele>8</ele>
        <time>2025-03-03T23:45:48Z</time>
      </trkpt>
      <trkpt lat="43.36483" lon="-1.59044">
        <ele>9.02</ele>
        <time>2025-03-03T23:45:57Z</time>
      </trkpt>
      <trkpt lat="43.36516" lon="-1.59036">
        <ele>10</ele>
        <time>2025-03-03T23:46:03Z</time>
      </trkpt>
      <trkpt lat="43.36601" lon="-1.59037">
        <ele>14.46</ele>
        <time>2025-03-03T23:46:08Z</time>
      </trkpt>
      <trkpt lat="43.36661" lon="-1.59001">
        <ele>18.59</ele>
        <time>2025-03-03T23:46:13Z</time>
      </trkpt>
      <trkpt lat="43.36676" lon="-1.58995">
        <ele>20.17</ele>
        <time>2025-03-03T23:46:19Z</time>
      </trkpt>
      <trkpt lat="43.36689" lon="-1.58999">
        <ele>21.42</ele>
        <time>2025-03-03T23:46:24Z</time>
      </trkpt>
      <trkpt lat="43.36716" lon="-1.59016">
        <ele>24.15</ele>
        <time>2025-03-03T23:46:29Z</time>
      </trkpt>
      <trkpt lat="43.36745" lon="-1.59013">
        <ele>26.49</ele>
        <time>2025-03-03T23:46:34Z</time>
      </trkpt>
      <trkpt lat="43.3675" lon="-1.5901">
        <ele>26.7</ele>
        <time>2025-03-03T23:46:40Z</time>
      </trkpt>
      <trkpt lat="43.36772" lon="-1.5901">
        <ele>28.02</ele>
        <time>2025-03-03T23:46:45Z</time>
      </trkpt>
      <trkpt lat="43.36788" lon="-1.59014">
        <ele>28.5</ele>
        <time>2025-03-03T23:46:50Z</time>
      </trkpt>
      <trkpt lat="43.36822" lon="-1.5906">
        <ele>35.52</ele>
        <time>2025-03-03T23:46:56Z</time>
      </trkpt>
      <trkpt lat="43.36882" lon="-1.5918">
        <ele>53.08</ele>
        <time>2025-03-03T23:47:01Z</time>
      </trkpt>
      <trkpt lat="43.36905" lon="-1.59186">
        <ele>56.02</ele>
        <time>2025-03-03T23:47:06Z</time>
      </trkpt>
      <trkpt lat="43.36926" lon="-1.5918">
        <ele>57.51</ele>
        <time>2025-03-03T23:47:12Z</time>
      </trkpt>
      <trkpt lat="43.36955" lon="-1.59163">
        <ele>58.33</ele>
        <time>2025-03-03T23:47:17Z</time>
      </trkpt>
      <trkpt lat="43.36982" lon="-1.59167">
        <ele>58.64</ele>
        <time>2025-03-03T23:47:22Z</time>
      </trkpt>
      <trkpt lat="43.37177" lon="-1.59312">
        <ele>67.18</ele>
        <time>2025-03-03T23:47:28Z</time>
      </trkpt>
      <trkpt lat="43.37208" lon="-1.59339">
        <ele>69.39</ele>
        <time>2025-03-03T23:47:33Z</time>
      </trkpt>
      <trkpt lat="43.37232" lon="-1.59367">
        <ele>72.48</ele>
        <time>2025-03-03T23:47:38Z</time>
      </trkpt>
      <trkpt lat="43.37308" lon="-1.59415">
        <ele>78.98</ele>
        <time>2025-03-03T23:47:43Z</time>
      </trkpt>
      <trkpt lat="43.37346" lon="-1.59443">
        <ele>82.36</ele>
        <time>2025-03-03T23:47:49Z</time>
      </trkpt>
      <trkpt lat="43.37362" lon="-1.59463">
        <ele>82.97</ele>
        <time>2025-03-03T23:47:54Z</time>
      </trkpt>
      <trkpt lat="43.37416" lon="-1.5944">
        <ele>82.82</ele>
        <time>2025-03-03T23:47:57Z</time>
      </trkpt>
      <trkpt lat="43.37433" lon="-1.59442">
        <ele>83.54</ele>
        <time>2025-03-03T23:48:01Z</time>
      </trkpt>
      <trkpt lat="43.37454" lon="-1.59449">
        <ele>84.65</ele>
        <time>2025-03-03T23:48:04Z</time>
      </trkpt>
      <trkpt lat="43.37491" lon="-1.59452">
        <ele>88.24</ele>
        <time>2025-03-03T23:48:07Z</time>
      </trkpt>
      <trkpt lat="43.37506" lon="-1.59447">
        <ele>89.56</ele>
        <time>2025-03-03T23:48:11Z</time>
      </trkpt>
      <trkpt lat="43.37527" lon="-1.59429">
        <ele>89.04</ele>
        <time>2025-03-03T23:48:14Z</time>
      </trkpt>
      <trkpt lat="43.37539" lon="-1.59435">
        <ele>88.48</ele>
        <time>2025-03-03T23:48:18Z</time>
      </trkpt>
      <trkpt lat="43.37553" lon="-1.59439">
        <ele>87.89</ele>
        <time>2025-03-03T23:48:21Z</time>
      </trkpt>
      <trkpt lat="43.3759" lon="-1.59439">
        <ele>85.49</ele>
        <time>2025-03-03T23:48:25Z</time>
      </trkpt>
      <trkpt lat="43.37671" lon="-1.59432">
        <ele>79.92</ele>
        <time>2025-03-03T23:48:28Z</time>
      </trkpt>
      <trkpt lat="43.37687" lon="-1.59434">
        <ele>79.49</ele>
        <time>2025-03-03T23:48:32Z</time>
      </trkpt>
      <trkpt lat="43.37702" lon="-1.5944">
        <ele>79.33</ele>
        <time>2025-03-03T23:48:36Z</time>
      </trkpt>
      <trkpt lat="43.37715" lon="-1.59453">
        <ele>80.08</ele>
        <time>2025-03-03T23:48:39Z</time>
      </trkpt>
      <trkpt lat="43.37724" lon="-1.59469">
        <ele>81.6</ele>
        <time>2025-03-03T23:48:43Z</time>
      </trkpt>
      <trkpt lat="43.37806" lon="-1.59671">
        <ele>84.16</ele>
        <time>2025-03-03T23:48:47Z</time>
      </trkpt>
      <trkpt lat="43.37816" lon="-1.59711">
        <ele>85.73</ele>
        <time>2025-03-03T23:48:50Z</time>
      </trkpt>
      <trkpt lat="43.3784" lon="-1.59949">
        <ele>81.15</ele>
        <time>2025-03-03T23:48:54Z</time>
      </trkpt>
      <trkpt lat="43.37848" lon="-1.59972">
        <ele>81.97</ele>
        <time>2025-03-03T23:48:58Z</time>
      </trkpt>
      <trkpt lat="43.37865" lon="-1.60003">
        <ele>84.24</ele>
        <time>2025-03-03T23:49:01Z</time>
      </trkpt>
      <trkpt lat="43.38037" lon="-1.60229">
        <ele>77.33</ele>
        <time>2025-03-03T23:49:05Z</time>
      </trkpt>
      <trkpt lat="43.38046" lon="-1.60245">
        <ele>77.65</ele>
        <time>2025-03-03T23:49:09Z</time>
      </trkpt>
      <trkpt lat="43.38054" lon="-1.60269">
        <ele>78.6</ele>
        <time>2025-03-03T23:49:12Z</time>
      </trkpt>
      <trkpt lat="43.38088" lon="-1.60427">
        <ele>81.39</ele>
        <time>2025-03-03T23:49:16Z</time>
      </trkpt>
      <trkpt lat="43.38092" lon="-1.60474">
        <ele>82.5</ele>
        <time>2025-03-03T23:49:19Z</time>
      </trkpt>
      <trkpt lat="43.38071" lon="-1.60651">
        <ele>84.61</ele>
        <time>2025-03-03T23:49:23Z</time>
      </trkpt>
      <trkpt lat="43.38075" lon="-1.60737">
        <ele>84.11</ele>
        <time>2025-03-03T23:49:27Z</time>
      </trkpt>
      <trkpt lat="43.38073" lon="-1.60793">
        <ele>79.78</ele>
        <time>2025-03-03T23:49:30Z</time>
      </trkpt>
      <trkpt lat="43.38065" lon="-1.6083">
        <ele>80.04</ele>
        <time>2025-03-03T23:49:34Z</time>
      </trkpt>
      <trkpt lat="43.38051" lon="-1.60872">
        <ele>81.33</ele>
        <time>2025-03-03T23:49:38Z</time>
      </trkpt>
      <trkpt lat="43.3805" lon="-1.60899">
        <ele>80.65</ele>
        <time>2025-03-03T23:49:41Z</time>
      </trkpt>
      <trkpt lat="43.38056" lon="-1.6092">
        <ele>80.18</ele>
        <time>2025-03-03T23:49:45Z</time>
      </trkpt>
      <trkpt lat="43.38099" lon="-1.60992">
        <ele>79.03</ele>
        <time>2025-03-03T23:49:49Z</time>
      </trkpt>
      <trkpt lat="43.38114" lon="-1.61111">
        <ele>78.89</ele>
        <time>2025-03-03T23:49:52Z</time>
      </trkpt>
      <trkpt lat="43.38097" lon="-1.61353">
        <ele>79.22</ele>
        <time>2025-03-03T23:49:56Z</time>
      </trkpt>
      <trkpt lat="43.38084" lon="-1.61463">
        <ele>79.94</ele>
        <time>2025-03-03T23:49:59Z</time>
      </trkpt>
      <trkpt lat="43.38082" lon="-1.61527">
        <ele>78.07</ele>
        <time>2025-03-03T23:50:03Z</time>
      </trkpt>
      <trkpt lat="43.38088" lon="-1.61592">
        <ele>78.14</ele>
        <time>2025-03-03T23:50:07Z</time>
      </trkpt>
      <trkpt lat="43.38103" lon="-1.61637">
        <ele>75.67</ele>
        <time>2025-03-03T23:50:10Z</time>
      </trkpt>
      <trkpt lat="43.38132" lon="-1.61673">
        <ele>74.36</ele>
        <time>2025-03-03T23:50:14Z</time>
      </trkpt>
      <trkpt lat="43.38304" lon="-1.61839">
        <ele>80.51</ele>
        <time>2025-03-03T23:50:18Z</time>
      </trkpt>
      <trkpt lat="43.38336" lon="-1.61854">
        <ele>77.53</ele>
        <time>2025-03-03T23:50:21Z</time>
      </trkpt>
      <trkpt lat="43.38354" lon="-1.61859">
        <ele>77.8</ele>
        <time>2025-03-03T23:50:25Z</time>
      </trkpt>
      <trkpt lat="43.38452" lon="-1.61845">
        <ele>78</ele>
        <time>2025-03-03T23:50:29Z</time>
      </trkpt>
      <trkpt lat="43.38468" lon="-1.61846">
        <ele>78</ele>
        <time>2025-03-03T23:50:32Z</time>
      </trkpt>
      <trkpt lat="43.38488" lon="-1.6185">
        <ele>78</ele>
        <time>2025-03-03T23:50:36Z</time>
      </trkpt>
      <trkpt lat="43.38522" lon="-1.61861">
        <ele>77.21</ele>
        <time>2025-03-03T23:50:40Z</time>
      </trkpt>
      <trkpt lat="43.38555" lon="-1.61874">
        <ele>75.54</ele>
        <time>2025-03-03T23:50:43Z</time>
      </trkpt>
      <trkpt lat="43.38567" lon="-1.61881">
        <ele>75.3</ele>
        <time>2025-03-03T23:50:47Z</time>
      </trkpt>
      <trkpt lat="43.38585" lon="-1.61895">
        <ele>74.82</ele>
        <time>2025-03-03T23:50:50Z</time>
      </trkpt>
      <trkpt lat="43.38621" lon="-1.61929">
        <ele>72.72</ele>
        <time>2025-03-03T23:50:54Z</time>
      </trkpt>
      <trkpt lat="43.38637" lon="-1.61947">
        <ele>71.46</ele>
        <time>2025-03-03T23:50:58Z</time>
      </trkpt>
      <trkpt lat="43.38651" lon="-1.61967">
        <ele>69.56</ele>
        <time>2025-03-03T23:51:01Z</time>
      </trkpt>
      <trkpt lat="43.38666" lon="-1.61993">
        <ele>67.72</ele>
        <time>2025-03-03T23:51:05Z</time>
      </trkpt>
      <trkpt lat="43.38688" lon="-1.62042">
        <ele>64.83</ele>
        <time>2025-03-03T23:51:09Z</time>
      </trkpt>
      <trkpt lat="43.38697" lon="-1.62074">
        <ele>63.39</ele>
        <time>2025-03-03T23:51:12Z</time>
      </trkpt>
      <trkpt lat="43.38711" lon="-1.62132">
        <ele>62.53</ele>
        <time>2025-03-03T23:51:16Z</time>
      </trkpt>
      <trkpt lat="43.38741" lon="-1.62345">
        <ele>61.86</ele>
        <time>2025-03-03T23:51:20Z</time>
      </trkpt>
      <trkpt lat="43.38745" lon="-1.6239">
        <ele>62.63</ele>
        <time>2025-03-03T23:51:23Z</time>
      </trkpt>
      <trkpt lat="43.3875" lon="-1.62419">
        <ele>63.05</ele>
        <time>2025-03-03T23:51:27Z</time>
      </trkpt>
      <trkpt lat="43.38757" lon="-1.62435">
        <ele>63.09</ele>
        <time>2025-03-03T23:51:31Z</time>
      </trkpt>
      <trkpt lat="43.38767" lon="-1.62445">
        <ele>62.79</ele>
        <time>2025-03-03T23:51:34Z</time>
      </trkpt>
      <trkpt lat="43.3878" lon="-1.62452">
        <ele>62.56</ele>
        <time>2025-03-03T23:51:38Z</time>
      </trkpt>
      <trkpt lat="43.38821" lon="-1.62464">
        <ele>62.07</ele>
        <time>2025-03-03T23:51:41Z</time>
      </trkpt>
      <trkpt lat="43.38853" lon="-1.62476">
        <ele>61.58</ele>
        <time>2025-03-03T23:51:45Z</time>
      </trkpt>
      <trkpt lat="43.38865" lon="-1.62491">
        <ele>62.22</ele>
        <time>2025-03-03T23:51:49Z</time>
      </trkpt>
      <trkpt lat="43.38874" lon="-1.62536">
        <ele>65.64</ele>
        <time>2025-03-03T23:51:52Z</time>
      </trkpt>
      <trkpt lat="43.3887" lon="-1.62609">
        <ele>68.67</ele>
        <time>2025-03-03T23:51:56Z</time>
      </trkpt>
      <trkpt lat="43.38875" lon="-1.62633">
        <ele>68.38</ele>
        <time>2025-03-03T23:52:00Z</time>
      </trkpt>
      <trkpt lat="43.38887" lon="-1.6265">
        <ele>67.25</ele>
        <time>2025-03-03T23:52:03Z</time>
      </trkpt>
      <trkpt lat="43.38901" lon="-1.62663">
        <ele>64.4</ele>
        <time>2025-03-03T23:52:07Z</time>
      </trkpt>
      <trkpt lat="43.38987" lon="-1.62714">
        <ele>59.03</ele>
        <time>2025-03-03T23:52:11Z</time>
      </trkpt>
      <trkpt lat="43.39069" lon="-1.62811">
        <ele>66.27</ele>
        <time>2025-03-03T23:52:14Z</time>
      </trkpt>
      <trkpt lat="43.39102" lon="-1.62869">
        <ele>65.79</ele>
        <time>2025-03-03T23:52:18Z</time>
      </trkpt>
      <trkpt lat="43.39172" lon="-1.63087">
        <ele>57.17</ele>
        <time>2025-03-03T23:52:21Z</time>
      </trkpt>
      <trkpt lat="43.39177" lon="-1.63124">
        <ele>59.63</ele>
        <time>2025-03-03T23:52:25Z</time>
      </trkpt>
      <trkpt lat="43.39174" lon="-1.63182">
        <ele>63.44</ele>
        <time>2025-03-03T23:52:29Z</time>
      </trkpt>
      <trkpt lat="43.39176" lon="-1.63221">
        <ele>65.63</ele>
        <time>2025-03-03T23:52:32Z</time>
      </trkpt>
      <trkpt lat="43.392" lon="-1.63367">
        <ele>60.23</ele>
        <time>2025-03-03T23:52:36Z</time>
      </trkpt>
      <trkpt lat="43.39212" lon="-1.63431">
        <ele>62.16</ele>
        <time>2025-03-03T23:52:40Z</time>
      </trkpt>
      <trkpt lat="43.39235" lon="-1.63583">
        <ele>60.48</ele>
        <time>2025-03-03T23:52:43Z</time>
      </trkpt>
      <trkpt lat="43.39234" lon="-1.63599">
        <ele>60.66</ele>
        <time>2025-03-03T23:52:47Z</time>
      </trkpt>
      <trkpt lat="43.39229" lon="-1.63617">
        <ele>60.72</ele>
        <time>2025-03-03T23:52:51Z</time>
      </trkpt>
      <trkpt lat="43.39209" lon="-1.63664">
        <ele>60.92</ele>
        <time>2025-03-03T23:52:54Z</time>
      </trkpt>
      <trkpt lat="43.39191" lon="-1.63689">
        <ele>59.88</ele>
        <time>2025-03-03T23:52:58Z</time>
      </trkpt>
      <trkpt lat="43.38936" lon="-1.63916">
        <ele>46.81</ele>
        <time>2025-03-03T23:53:02Z</time>
      </trkpt>
      <trkpt lat="43.38919" lon="-1.63935">
        <ele>44.25</ele>
        <time>2025-03-03T23:53:05Z</time>
      </trkpt>
      <trkpt lat="43.38908" lon="-1.63954">
        <ele>44.15</ele>
        <time>2025-03-03T23:53:09Z</time>
      </trkpt>
      <trkpt lat="43.389" lon="-1.63973">
        <ele>44.99</ele>
        <time>2025-03-03T23:53:12Z</time>
      </trkpt>
      <trkpt lat="43.38889" lon="-1.64005">
        <ele>44.59</ele>
        <time>2025-03-03T23:53:16Z</time>
      </trkpt>
      <trkpt lat="43.38886" lon="-1.64034">
        <ele>42.66</ele>
        <time>2025-03-03T23:53:20Z</time>
      </trkpt>
      <trkpt lat="43.3889" lon="-1.6413">
        <ele>42.36</ele>
        <time>2025-03-03T23:53:23Z</time>
      </trkpt>
      <trkpt lat="43.38889" lon="-1.64153">
        <ele>43.47</ele>
        <time>2025-03-03T23:53:27Z</time>
      </trkpt>
      <trkpt lat="43.38886" lon="-1.64171">
        <ele>43.39</ele>
        <time>2025-03-03T23:53:31Z</time>
      </trkpt>
      <trkpt lat="43.38878" lon="-1.64198">
        <ele>42.17</ele>
        <time>2025-03-03T23:53:34Z</time>
      </trkpt>
      <trkpt lat="43.38836" lon="-1.64309">
        <ele>34.09</ele>
        <time>2025-03-03T23:53:38Z</time>
      </trkpt>
      <trkpt lat="43.38832" lon="-1.64331">
        <ele>33.99</ele>
        <time>2025-03-03T23:53:42Z</time>
      </trkpt>
      <trkpt lat="43.38833" lon="-1.64343">
        <ele>34.01</ele>
        <time>2025-03-03T23:53:45Z</time>
      </trkpt>
      <trkpt lat="43.38841" lon="-1.64361">
        <ele>33.74</ele>
        <time>2025-03-03T23:53:49Z</time>
      </trkpt>
      <trkpt lat="43.38898" lon="-1.64453">
        <ele>32.64</ele>
        <time>2025-03-03T23:53:53Z</time>
      </trkpt>
      <trkpt lat="43.38903" lon="-1.64497">
        <ele>29.2</ele>
        <time>2025-03-03T23:53:56Z</time>
      </trkpt>
      <trkpt lat="43.38857" lon="-1.64804">
        <ele>10.42</ele>
        <time>2025-03-03T23:54:00Z</time>
      </trkpt>
      <trkpt lat="43.38857" lon="-1.6483">
        <ele>8.43</ele>
        <time>2025-03-03T23:54:03Z</time>
      </trkpt>
      <trkpt lat="43.3886" lon="-1.64859">
        <ele>6.2</ele>
        <time>2025-03-03T23:54:07Z</time>
      </trkpt>
      <trkpt lat="43.38868" lon="-1.64903">
        <ele>6.76</ele>
        <time>2025-03-03T23:54:11Z</time>
      </trkpt>
      <trkpt lat="43.38876" lon="-1.64932">
        <ele>8.08</ele>
        <time>2025-03-03T23:54:14Z</time>
      </trkpt>
      <trkpt lat="43.38883" lon="-1.64941">
        <ele>8.66</ele>
        <time>2025-03-03T23:54:18Z</time>
      </trkpt>
      <trkpt lat="43.38893" lon="-1.6495">
        <ele>9.44</ele>
        <time>2025-03-03T23:54:22Z</time>
      </trkpt>
      <trkpt lat="43.39021" lon="-1.64999">
        <ele>13.75</ele>
        <time>2025-03-03T23:54:25Z</time>
      </trkpt>
      <trkpt lat="43.39042" lon="-1.65006">
        <ele>14.11</ele>
        <time>2025-03-03T23:54:29Z</time>
      </trkpt>
      <trkpt lat="43.39054" lon="-1.65005">
        <ele>14.16</ele>
        <time>2025-03-03T23:54:33Z</time>
      </trkpt>
      <trkpt lat="43.39062" lon="-1.65001">
        <ele>14.28</ele>
        <time>2025-03-03T23:54:36Z</time>
      </trkpt>
      <trkpt lat="43.39093" lon="-1.64982">
        <ele>14.94</ele>
        <time>2025-03-03T23:54:40Z</time>
      </trkpt>
      <trkpt lat="43.39098" lon="-1.64981">
        <ele>15.18</ele>
        <time>2025-03-03T23:54:43Z</time>
      </trkpt>
      <trkpt lat="43.39103" lon="-1.64981">
        <ele>15.49</ele>
        <time>2025-03-03T23:54:47Z</time>
      </trkpt>
      <trkpt lat="43.39109" lon="-1.64984">
        <ele>15.89</ele>
        <time>2025-03-03T23:54:51Z</time>
      </trkpt>
      <trkpt lat="43.39114" lon="-1.64986">
        <ele>16.09</ele>
        <time>2025-03-03T23:54:54Z</time>
      </trkpt>
      <trkpt lat="43.39118" lon="-1.64992">
        <ele>16.24</ele>
        <time>2025-03-03T23:54:58Z</time>
      </trkpt>
      <trkpt lat="43.39132" lon="-1.65014">
        <ele>16.75</ele>
        <time>2025-03-03T23:55:02Z</time>
      </trkpt>
      <trkpt lat="43.3914" lon="-1.65032">
        <ele>17</ele>
        <time>2025-03-03T23:55:05Z</time>
      </trkpt>
      <trkpt lat="43.39164" lon="-1.65105">
        <ele>21.21</ele>
        <time>2025-03-03T23:55:09Z</time>
      </trkpt>
      <trkpt lat="43.39217" lon="-1.65249">
        <ele>30.76</ele>
        <time>2025-03-03T23:55:13Z</time>
      </trkpt>
      <trkpt lat="43.39235" lon="-1.65304">
        <ele>30.53</ele>
        <time>2025-03-03T23:55:16Z</time>
      </trkpt>
      <trkpt lat="43.3924" lon="-1.65308">
        <ele>30.4</ele>
        <time>2025-03-03T23:55:20Z</time>
      </trkpt>
      <trkpt lat="43.39209" lon="-1.65388">
        <ele>31.51</ele>
        <time>2025-03-03T23:55:24Z</time>
      </trkpt>
      <trkpt lat="43.39199" lon="-1.65427">
        <ele>30.94</ele>
        <time>2025-03-03T23:55:27Z</time>
      </trkpt>
      <trkpt lat="43.3919" lon="-1.65455">
        <ele>29.38</ele>
        <time>2025-03-03T23:55:31Z</time>
      </trkpt>
      <trkpt lat="43.39173" lon="-1.65481">
        <ele>27.41</ele>
        <time>2025-03-03T23:55:35Z</time>
      </trkpt>
      <trkpt lat="43.39173" lon="-1.65487">
        <ele>27.33</ele>
        <time>2025-03-03T23:56:16Z</time>
      </trkpt>
      <trkpt lat="43.3917" lon="-1.65492">
        <ele>27.16</ele>
        <time>2025-03-03T23:56:58Z</time>
      </trkpt>
      <trkpt lat="43.39166" lon="-1.65494">
        <ele>26.97</ele>
        <time>2025-03-03T23:57:40Z</time>
      </trkpt>
      <trkpt lat="43.39161" lon="-1.65493">
        <ele>26.8</ele>
        <time>2025-03-03T23:58:22Z</time>
      </trkpt>
      <trkpt lat="43.39159" lon="-1.65506">
        <ele>26.55</ele>
        <time>2025-03-03T23:59:04Z</time>
      </trkpt>
      <trkpt lat="43.39131" lon="-1.65585">
        <ele>22.98</ele>
        <time>2025-03-03T23:59:46Z</time>
      </trkpt>
      <trkpt lat="43.39083" lon="-1.657">
        <ele>18.39</ele>
        <time>2025-03-04T00:00:27Z</time>
      </trkpt>
      <trkpt lat="43.39078" lon="-1.65708">
        <ele>18.98</ele>
        <time>2025-03-04T00:01:09Z</time>
      </trkpt>
      <trkpt lat="43.39073" lon="-1.65728">
        <ele>19.27</ele>
        <time>2025-03-04T00:01:17Z</time>
      </trkpt>
      <trkpt lat="43.39049" lon="-1.65786">
        <ele>17.22</ele>
        <time>2025-03-04T00:01:25Z</time>
      </trkpt>
      <trkpt lat="43.39022" lon="-1.65871">
        <ele>13.31</ele>
        <time>2025-03-04T00:01:33Z</time>
      </trkpt>
      <trkpt lat="43.39046" lon="-1.65884">
        <ele>14.41</ele>
        <time>2025-03-04T00:01:38Z</time>
      </trkpt>
      <trkpt lat="43.39033" lon="-1.65929">
        <ele>11.51</ele>
        <time>2025-03-04T00:01:45Z</time>
      </trkpt>
      <trkpt lat="43.39012" lon="-1.66005">
        <ele>11.18</ele>
        <time>2025-03-04T00:01:52Z</time>
      </trkpt>
      <trkpt lat="43.39003" lon="-1.66031">
        <ele>12.11</ele>
        <time>2025-03-04T00:01:59Z</time>
      </trkpt>
      <trkpt lat="43.3898" lon="-1.66082">
        <ele>11.56</ele>
        <time>2025-03-04T00:02:05Z</time>
      </trkpt>
      <trkpt lat="43.38964" lon="-1.66111">
        <ele>10.45</ele>
        <time>2025-03-04T00:02:12Z</time>
      </trkpt>
      <trkpt lat="43.39015" lon="-1.66134">
        <ele>13.84</ele>
        <time>2025-03-04T00:02:23Z</time>
      </trkpt>
      <trkpt lat="43.39082" lon="-1.6614">
        <ele>9.97</ele>
        <time>2025-03-04T00:02:34Z</time>
      </trkpt>
      <trkpt lat="43.3908" lon="-1.66169">
        <ele>7.88</ele>
        <time>2025-03-04T00:02:54Z</time>
      </trkpt>
      <trkpt lat="43.39006" lon="-1.66263">
        <ele>10.54</ele>
        <time>2025-03-04T00:04:26Z</time>
        <extensions>
          <visugpx:TrkExtension xmlns:visugpx="https://www.visugpx.com/editgpx/">
            <visugpx:node>9</visugpx:node>
            </visugpx:TrkExtension>
        </extensions>
      </trkpt>
    </trkseg>
  </trk>
</gpx>